﻿<?xml version="1.0" encoding="utf-8"?><gpx creator="Garmin Desktop App" version="1.1" xsi:schemaLocation="http://www.topografix.com/GPX/1/1 http://www.topografix.com/GPX/1/1/gpx.xsd http://www.garmin.com/xmlschemas/WaypointExtension/v1 http://www8.garmin.com/xmlschemas/WaypointExtensionv1.xsd http://www.garmin.com/xmlschemas/TrackPointExtension/v1 http://www.garmin.com/xmlschemas/TrackPointExtensionv1.xsd http://www.garmin.com/xmlschemas/GpxExtensions/v3 http://www8.garmin.com/xmlschemas/GpxExtensionsv3.xsd http://www.garmin.com/xmlschemas/ActivityExtension/v1 http://www8.garmin.com/xmlschemas/ActivityExtensionv1.xsd http://www.garmin.com/xmlschemas/AdventuresExtensions/v1 http://www8.garmin.com/xmlschemas/AdventuresExtensionv1.xsd http://www.garmin.com/xmlschemas/PressureExtension/v1 http://www.garmin.com/xmlschemas/PressureExtensionv1.xsd http://www.garmin.com/xmlschemas/TripExtensions/v1 http://www.garmin.com/xmlschemas/TripExtensionsv1.xsd" xmlns="http://www.topografix.com/GPX/1/1" xmlns:xsi="http://www.w3.org/2001/XMLSchema-instance" xmlns:wptx1="http://www.garmin.com/xmlschemas/WaypointExtension/v1" xmlns:gpxtrx="http://www.garmin.com/xmlschemas/GpxExtensions/v3" xmlns:gpxtpx="http://www.garmin.com/xmlschemas/TrackPointExtension/v1" xmlns:gpxx="http://www.garmin.com/xmlschemas/GpxExtensions/v3" xmlns:trp="http://www.garmin.com/xmlschemas/TripExtensions/v1" xmlns:adv="http://www.garmin.com/xmlschemas/AdventuresExtensions/v1" xmlns:prs="http://www.garmin.com/xmlschemas/PressureExtension/v1">

  <metadata>
    <link href="http://www.garmin.com">
      <text>Garmin International</text>
    </link>
    <time>2013-05-27T07:01:57Z</time>
    <bounds maxlat="45.867282059043646" maxlon="9.353637490421534" minlat="45.849065333604813" minlon="9.327645963057876" />
  </metadata>

  <trk>
    <name>monte moregallo2013-05-26</name>
    <extensions>
      <gpxx:TrackExtension>
        <gpxx:DisplayColor>Yellow</gpxx:DisplayColor>
      </gpxx:TrackExtension>
    </extensions>
    <trkseg>
      <trkpt lat="45.851026698946953" lon="9.353563729673624">
        <ele>299.11000000000001</ele>
        <time>2013-05-26T06:09:34Z</time>
      </trkpt>
      <trkpt lat="45.851021753624082" lon="9.353589378297329">
        <ele>299.11000000000001</ele>
        <time>2013-05-26T06:09:56Z</time>
      </trkpt>
      <trkpt lat="45.851020831614733" lon="9.353577643632889">
        <ele>299.11000000000001</ele>
        <time>2013-05-26T06:10:19Z</time>
      </trkpt>
      <trkpt lat="45.851032314822078" lon="9.353555934503675">
        <ele>299.11000000000001</ele>
        <time>2013-05-26T06:10:34Z</time>
      </trkpt>
      <trkpt lat="45.851047234609723" lon="9.353535315021873">
        <ele>299.11000000000001</ele>
        <time>2013-05-26T06:10:55Z</time>
      </trkpt>
      <trkpt lat="45.851033236831427" lon="9.353574039414525">
        <ele>300.06999999999999</ele>
        <time>2013-05-26T06:11:18Z</time>
      </trkpt>
      <trkpt lat="45.851030806079507" lon="9.353584181517363">
        <ele>300.06999999999999</ele>
        <time>2013-05-26T06:11:36Z</time>
      </trkpt>
      <trkpt lat="45.851069949567318" lon="9.353575129061937">
        <ele>300.06999999999999</ele>
        <time>2013-05-26T06:11:48Z</time>
      </trkpt>
      <trkpt lat="45.851080259308219" lon="9.353574123233557">
        <ele>299.58999999999997</ele>
        <time>2013-05-26T06:11:49Z</time>
      </trkpt>
      <trkpt lat="45.851111523807049" lon="9.353550905361772">
        <ele>299.58999999999997</ele>
        <time>2013-05-26T06:11:52Z</time>
      </trkpt>
      <trkpt lat="45.851228283718228" lon="9.353453675284982">
        <ele>300.06999999999999</ele>
        <time>2013-05-26T06:12:05Z</time>
      </trkpt>
      <trkpt lat="45.851267008110881" lon="9.35348192229867">
        <ele>298.14999999999998</ele>
        <time>2013-05-26T06:12:10Z</time>
      </trkpt>
      <trkpt lat="45.85126843303442" lon="9.35343842022121">
        <ele>298.63</ele>
        <time>2013-05-26T06:12:13Z</time>
      </trkpt>
      <trkpt lat="45.851304139941931" lon="9.353467337787151">
        <ele>299.11000000000001</ele>
        <time>2013-05-26T06:12:26Z</time>
      </trkpt>
      <trkpt lat="45.851301625370979" lon="9.353479156270623">
        <ele>298.14999999999998</ele>
        <time>2013-05-26T06:12:35Z</time>
      </trkpt>
      <trkpt lat="45.851304810494184" lon="9.35349315404892">
        <ele>297.18000000000001</ele>
        <time>2013-05-26T06:13:09Z</time>
      </trkpt>
      <trkpt lat="45.85130070336163" lon="9.353542942553759">
        <ele>297.67000000000002</ele>
        <time>2013-05-26T06:13:47Z</time>
      </trkpt>
      <trkpt lat="45.85126306861639" lon="9.353476893156767">
        <ele>297.67000000000002</ele>
        <time>2013-05-26T06:14:21Z</time>
      </trkpt>
      <trkpt lat="45.851265331730247" lon="9.353478234261274">
        <ele>296.69999999999999</ele>
        <time>2013-05-26T06:14:39Z</time>
      </trkpt>
      <trkpt lat="45.851300451904535" lon="9.353446299210191">
        <ele>298.63</ele>
        <time>2013-05-26T06:14:44Z</time>
      </trkpt>
      <trkpt lat="45.851384773850441" lon="9.353405563160777">
        <ele>300.55000000000001</ele>
        <time>2013-05-26T06:14:56Z</time>
      </trkpt>
      <trkpt lat="45.851313192397356" lon="9.353406568989158">
        <ele>302.47000000000003</ele>
        <time>2013-05-26T06:15:08Z</time>
      </trkpt>
      <trkpt lat="45.851361975073814" lon="9.353354433551431">
        <ele>304.38999999999999</ele>
        <time>2013-05-26T06:15:19Z</time>
      </trkpt>
      <trkpt lat="45.851385863497853" lon="9.353300705552101">
        <ele>307.27999999999997</ele>
        <time>2013-05-26T06:15:31Z</time>
      </trkpt>
      <trkpt lat="45.851358622312546" lon="9.353327108547092">
        <ele>307.27999999999997</ele>
        <time>2013-05-26T06:15:34Z</time>
      </trkpt>
      <trkpt lat="45.851278156042099" lon="9.353276900947094">
        <ele>308.24000000000001</ele>
        <time>2013-05-26T06:15:44Z</time>
      </trkpt>
      <trkpt lat="45.851191822439432" lon="9.353136755526066">
        <ele>308.72000000000003</ele>
        <time>2013-05-26T06:15:59Z</time>
      </trkpt>
      <trkpt lat="45.851107081398368" lon="9.352891752496362">
        <ele>307.75999999999999</ele>
        <time>2013-05-26T06:16:16Z</time>
      </trkpt>
      <trkpt lat="45.85110423155129" lon="9.352863086387515">
        <ele>308.24000000000001</ele>
        <time>2013-05-26T06:16:18Z</time>
      </trkpt>
      <trkpt lat="45.851130886003375" lon="9.3526600766927">
        <ele>309.19999999999999</ele>
        <time>2013-05-26T06:16:31Z</time>
      </trkpt>
      <trkpt lat="45.851117139682174" lon="9.352582124993205">
        <ele>310.16000000000003</ele>
        <time>2013-05-26T06:16:36Z</time>
      </trkpt>
      <trkpt lat="45.851086545735598" lon="9.352461760863662">
        <ele>310.63999999999999</ele>
        <time>2013-05-26T06:16:46Z</time>
      </trkpt>
      <trkpt lat="45.850959224626422" lon="9.352292194962502">
        <ele>312.08999999999997</ele>
        <time>2013-05-26T06:17:04Z</time>
      </trkpt>
      <trkpt lat="45.850840201601386" lon="9.352140566334128">
        <ele>313.05000000000001</ele>
        <time>2013-05-26T06:17:20Z</time>
      </trkpt>
      <trkpt lat="45.850778510794044" lon="9.352077702060342">
        <ele>312.56999999999999</ele>
        <time>2013-05-26T06:17:31Z</time>
      </trkpt>
      <trkpt lat="45.850671976804733" lon="9.352064542472363">
        <ele>313.52999999999997</ele>
        <time>2013-05-26T06:17:44Z</time>
      </trkpt>
      <trkpt lat="45.850530155003071" lon="9.352043587714434">
        <ele>315.93000000000001</ele>
        <time>2013-05-26T06:17:59Z</time>
      </trkpt>
      <trkpt lat="45.850396631285548" lon="9.352048113942146">
        <ele>317.37</ele>
        <time>2013-05-26T06:18:13Z</time>
      </trkpt>
      <trkpt lat="45.850331922993064" lon="9.352007880806923">
        <ele>317.85000000000002</ele>
        <time>2013-05-26T06:18:20Z</time>
      </trkpt>
      <trkpt lat="45.850303927436471" lon="9.351778300479055">
        <ele>320.25999999999999</ele>
        <time>2013-05-26T06:18:35Z</time>
      </trkpt>
      <trkpt lat="45.850293533876538" lon="9.351592725142837">
        <ele>322.18000000000001</ele>
        <time>2013-05-26T06:18:49Z</time>
      </trkpt>
      <trkpt lat="45.850298814475536" lon="9.351532626897097">
        <ele>323.13999999999999</ele>
        <time>2013-05-26T06:18:55Z</time>
      </trkpt>
      <trkpt lat="45.850323373451829" lon="9.351310506463051">
        <ele>325.54000000000002</ele>
        <time>2013-05-26T06:19:11Z</time>
      </trkpt>
      <trkpt lat="45.85034005343914" lon="9.351273877546191">
        <ele>325.54000000000002</ele>
        <time>2013-05-26T06:19:14Z</time>
      </trkpt>
      <trkpt lat="45.850343322381377" lon="9.351242445409298">
        <ele>326.5</ele>
        <time>2013-05-26T06:19:16Z</time>
      </trkpt>
      <trkpt lat="45.850406689569354" lon="9.3510627374053">
        <ele>328.91000000000003</ele>
        <time>2013-05-26T06:19:32Z</time>
      </trkpt>
      <trkpt lat="45.850455891340971" lon="9.350954694673419">
        <ele>330.35000000000002</ele>
        <time>2013-05-26T06:19:45Z</time>
      </trkpt>
      <trkpt lat="45.850551277399063" lon="9.350924771279097">
        <ele>329.38999999999999</ele>
        <time>2013-05-26T06:20:01Z</time>
      </trkpt>
      <trkpt lat="45.85058237425983" lon="9.350926363840699">
        <ele>328.91000000000003</ele>
        <time>2013-05-26T06:20:28Z</time>
      </trkpt>
      <trkpt lat="45.85056527517736" lon="9.350946396589279">
        <ele>328.43000000000001</ele>
        <time>2013-05-26T06:20:54Z</time>
      </trkpt>
      <trkpt lat="45.850582709535956" lon="9.350932314991951">
        <ele>328.91000000000003</ele>
        <time>2013-05-26T06:21:11Z</time>
      </trkpt>
      <trkpt lat="45.850567454472184" lon="9.350971709936857">
        <ele>329.38999999999999</ele>
        <time>2013-05-26T06:21:31Z</time>
      </trkpt>
      <trkpt lat="45.850593103095889" lon="9.350964752957225">
        <ele>330.35000000000002</ele>
        <time>2013-05-26T06:21:52Z</time>
      </trkpt>
      <trkpt lat="45.850595450028777" lon="9.350936925038695">
        <ele>329.87</ele>
        <time>2013-05-26T06:22:08Z</time>
      </trkpt>
      <trkpt lat="45.850611543282866" lon="9.350929046049714">
        <ele>329.38999999999999</ele>
        <time>2013-05-26T06:22:29Z</time>
      </trkpt>
      <trkpt lat="45.850556306540966" lon="9.350926615297794">
        <ele>329.38999999999999</ele>
        <time>2013-05-26T06:22:44Z</time>
      </trkpt>
      <trkpt lat="45.850553456693888" lon="9.350925190374255">
        <ele>329.38999999999999</ele>
        <time>2013-05-26T06:22:45Z</time>
      </trkpt>
      <trkpt lat="45.850558066740632" lon="9.350929213687778">
        <ele>330.82999999999998</ele>
        <time>2013-05-26T06:22:55Z</time>
      </trkpt>
      <trkpt lat="45.850620763376355" lon="9.350932398810983">
        <ele>330.82999999999998</ele>
        <time>2013-05-26T06:23:08Z</time>
      </trkpt>
      <trkpt lat="45.850581703707576" lon="9.350932147353888">
        <ele>331.31</ele>
        <time>2013-05-26T06:23:25Z</time>
      </trkpt>
      <trkpt lat="45.850448766723275" lon="9.351040106266737">
        <ele>329.87</ele>
        <time>2013-05-26T06:23:39Z</time>
      </trkpt>
      <trkpt lat="45.850445162504911" lon="9.35103633441031">
        <ele>329.87</ele>
        <time>2013-05-26T06:23:58Z</time>
      </trkpt>
      <trkpt lat="45.850445162504911" lon="9.351068940013647">
        <ele>329.87</ele>
        <time>2013-05-26T06:24:25Z</time>
      </trkpt>
      <trkpt lat="45.850436864420772" lon="9.351041447371244">
        <ele>329.87</ele>
        <time>2013-05-26T06:24:46Z</time>
      </trkpt>
      <trkpt lat="45.850475840270519" lon="9.350992329418659">
        <ele>329.87</ele>
        <time>2013-05-26T06:25:02Z</time>
      </trkpt>
      <trkpt lat="45.850465279072523" lon="9.351034238934517">
        <ele>329.87</ele>
        <time>2013-05-26T06:25:17Z</time>
      </trkpt>
      <trkpt lat="45.850456058979034" lon="9.351051338016987">
        <ele>330.35000000000002</ele>
        <time>2013-05-26T06:25:39Z</time>
      </trkpt>
      <trkpt lat="45.850438121706247" lon="9.351080590859056">
        <ele>330.82999999999998</ele>
        <time>2013-05-26T06:26:06Z</time>
      </trkpt>
      <trkpt lat="45.850442396476865" lon="9.351086625829339">
        <ele>331.31</ele>
        <time>2013-05-26T06:26:37Z</time>
      </trkpt>
      <trkpt lat="45.850442480295897" lon="9.351068269461393">
        <ele>330.35000000000002</ele>
        <time>2013-05-26T06:27:02Z</time>
      </trkpt>
      <trkpt lat="45.850438540801406" lon="9.35103289783001">
        <ele>329.38999999999999</ele>
        <time>2013-05-26T06:27:21Z</time>
      </trkpt>
      <trkpt lat="45.850501321256161" lon="9.351012445986271">
        <ele>330.35000000000002</ele>
        <time>2013-05-26T06:27:38Z</time>
      </trkpt>
      <trkpt lat="45.850498471409082" lon="9.350959723815322">
        <ele>330.82999999999998</ele>
        <time>2013-05-26T06:27:52Z</time>
      </trkpt>
      <trkpt lat="45.850469302386045" lon="9.350964836776257">
        <ele>330.82999999999998</ele>
        <time>2013-05-26T06:28:04Z</time>
      </trkpt>
      <trkpt lat="45.850470811128616" lon="9.350972296670079">
        <ele>331.31</ele>
        <time>2013-05-26T06:28:24Z</time>
      </trkpt>
      <trkpt lat="45.850471900776029" lon="9.350987551733851">
        <ele>332.26999999999998</ele>
        <time>2013-05-26T06:28:51Z</time>
      </trkpt>
      <trkpt lat="45.850476929917932" lon="9.350979086011648">
        <ele>332.75</ele>
        <time>2013-05-26T06:29:06Z</time>
      </trkpt>
      <trkpt lat="45.850467374548316" lon="9.351016553118825">
        <ele>331.79000000000002</ele>
        <time>2013-05-26T06:29:26Z</time>
      </trkpt>
      <trkpt lat="45.850484808906913" lon="9.3509850371629">
        <ele>331.79000000000002</ele>
        <time>2013-05-26T06:29:44Z</time>
      </trkpt>
      <trkpt lat="45.850548511371017" lon="9.350950168445706">
        <ele>331.79000000000002</ele>
        <time>2013-05-26T06:29:58Z</time>
      </trkpt>
      <trkpt lat="45.850601233541965" lon="9.350936086848378">
        <ele>333.23000000000002</ele>
        <time>2013-05-26T06:30:12Z</time>
      </trkpt>
      <trkpt lat="45.850582625716925" lon="9.35093373991549">
        <ele>332.26999999999998</ele>
        <time>2013-05-26T06:30:28Z</time>
      </trkpt>
      <trkpt lat="45.850576423108578" lon="9.350950503721833">
        <ele>331.79000000000002</ele>
        <time>2013-05-26T06:30:58Z</time>
      </trkpt>
      <trkpt lat="45.850571058690548" lon="9.350910689681768">
        <ele>332.26999999999998</ele>
        <time>2013-05-26T06:31:31Z</time>
      </trkpt>
      <trkpt lat="45.850613135844469" lon="9.350897194817662">
        <ele>333.23000000000002</ele>
        <time>2013-05-26T06:31:48Z</time>
      </trkpt>
      <trkpt lat="45.850639957934618" lon="9.350813878700137">
        <ele>335.63999999999999</ele>
        <time>2013-05-26T06:32:05Z</time>
      </trkpt>
      <trkpt lat="45.850630486384034" lon="9.350762916728854">
        <ele>336.12</ele>
        <time>2013-05-26T06:32:19Z</time>
      </trkpt>
      <trkpt lat="45.850630821660161" lon="9.350760066881776">
        <ele>336.12</ele>
        <time>2013-05-26T06:32:36Z</time>
      </trkpt>
      <trkpt lat="45.850640879943967" lon="9.350779009982944">
        <ele>336.12</ele>
        <time>2013-05-26T06:32:41Z</time>
      </trkpt>
      <trkpt lat="45.850644567981362" lon="9.350879760459065">
        <ele>334.68000000000001</ele>
        <time>2013-05-26T06:32:53Z</time>
      </trkpt>
      <trkpt lat="45.850606765598059" lon="9.350913455709815">
        <ele>333.23000000000002</ele>
        <time>2013-05-26T06:33:08Z</time>
      </trkpt>
      <trkpt lat="45.85063761100173" lon="9.350842125713825">
        <ele>333.70999999999998</ele>
        <time>2013-05-26T06:33:28Z</time>
      </trkpt>
      <trkpt lat="45.85064691491425" lon="9.350743889808655">
        <ele>334.19999999999999</ele>
        <time>2013-05-26T06:33:39Z</time>
      </trkpt>
      <trkpt lat="45.850645154714584" lon="9.35063811019063">
        <ele>336.60000000000002</ele>
        <time>2013-05-26T06:33:54Z</time>
      </trkpt>
      <trkpt lat="45.85066887550056" lon="9.350615311414003">
        <ele>337.07999999999998</ele>
        <time>2013-05-26T06:34:06Z</time>
      </trkpt>
      <trkpt lat="45.850629899650812" lon="9.350562421604991">
        <ele>338.04000000000002</ele>
        <time>2013-05-26T06:34:20Z</time>
      </trkpt>
      <trkpt lat="45.850673401728272" lon="9.350557224825025">
        <ele>338.51999999999998</ele>
        <time>2013-05-26T06:34:32Z</time>
      </trkpt>
      <trkpt lat="45.850700056180358" lon="9.350605588406324">
        <ele>338.04000000000002</ele>
        <time>2013-05-26T06:34:52Z</time>
      </trkpt>
      <trkpt lat="45.850650519132614" lon="9.350717989727855">
        <ele>336.12</ele>
        <time>2013-05-26T06:35:06Z</time>
      </trkpt>
      <trkpt lat="45.850643645972013" lon="9.350832737982273">
        <ele>333.70999999999998</ele>
        <time>2013-05-26T06:35:17Z</time>
      </trkpt>
      <trkpt lat="45.850639455020428" lon="9.350859727710486">
        <ele>333.23000000000002</ele>
        <time>2013-05-26T06:35:19Z</time>
      </trkpt>
      <trkpt lat="45.850592767819762" lon="9.350924184545875">
        <ele>331.31</ele>
        <time>2013-05-26T06:35:35Z</time>
      </trkpt>
      <trkpt lat="45.850607436150312" lon="9.350917395204306">
        <ele>331.31</ele>
        <time>2013-05-26T06:35:56Z</time>
      </trkpt>
      <trkpt lat="45.850602071732283" lon="9.350922927260399">
        <ele>330.82999999999998</ele>
        <time>2013-05-26T06:36:16Z</time>
      </trkpt>
      <trkpt lat="45.850575920194387" lon="9.350940277799964">
        <ele>330.82999999999998</ele>
        <time>2013-05-26T06:36:21Z</time>
      </trkpt>
      <trkpt lat="45.850480869412422" lon="9.351007584482431">
        <ele>328.43000000000001</ele>
        <time>2013-05-26T06:36:34Z</time>
      </trkpt>
      <trkpt lat="45.850476762279868" lon="9.351019905880094">
        <ele>328.43000000000001</ele>
        <time>2013-05-26T06:36:35Z</time>
      </trkpt>
      <trkpt lat="45.85039671510458" lon="9.351239679381251">
        <ele>325.06</ele>
        <time>2013-05-26T06:36:49Z</time>
      </trkpt>
      <trkpt lat="45.850365282967687" lon="9.351349482312799">
        <ele>323.13999999999999</ele>
        <time>2013-05-26T06:37:01Z</time>
      </trkpt>
      <trkpt lat="45.85035664960742" lon="9.351343112066388">
        <ele>322.66000000000003</ele>
        <time>2013-05-26T06:37:26Z</time>
      </trkpt>
      <trkpt lat="45.850355643779039" lon="9.351338502019644">
        <ele>322.18000000000001</ele>
        <time>2013-05-26T06:37:48Z</time>
      </trkpt>
      <trkpt lat="45.850350866094232" lon="9.351371023803949">
        <ele>322.66000000000003</ele>
        <time>2013-05-26T06:38:12Z</time>
      </trkpt>
      <trkpt lat="45.850352793931961" lon="9.351344620808959">
        <ele>323.13999999999999</ele>
        <time>2013-05-26T06:38:34Z</time>
      </trkpt>
      <trkpt lat="45.850349441170692" lon="9.351356942206621">
        <ele>322.18000000000001</ele>
        <time>2013-05-26T06:38:47Z</time>
      </trkpt>
      <trkpt lat="45.850350866094232" lon="9.35135442763567">
        <ele>323.13999999999999</ele>
        <time>2013-05-26T06:39:10Z</time>
      </trkpt>
      <trkpt lat="45.850354135036469" lon="9.351360043510795">
        <ele>322.66000000000003</ele>
        <time>2013-05-26T06:39:36Z</time>
      </trkpt>
      <trkpt lat="45.850355308502913" lon="9.351347554475069">
        <ele>323.13999999999999</ele>
        <time>2013-05-26T06:39:53Z</time>
      </trkpt>
      <trkpt lat="45.850348435342312" lon="9.351373538374901">
        <ele>323.62</ele>
        <time>2013-05-26T06:40:15Z</time>
      </trkpt>
      <trkpt lat="45.850344076752663" lon="9.35138275846839">
        <ele>323.62</ele>
        <time>2013-05-26T06:40:31Z</time>
      </trkpt>
      <trkpt lat="45.850357906892896" lon="9.351382255554199">
        <ele>323.62</ele>
        <time>2013-05-26T06:40:55Z</time>
      </trkpt>
      <trkpt lat="45.850352626293898" lon="9.351360211148858">
        <ele>324.10000000000002</ele>
        <time>2013-05-26T06:41:18Z</time>
      </trkpt>
      <trkpt lat="45.850358242169023" lon="9.35135442763567">
        <ele>324.10000000000002</ele>
        <time>2013-05-26T06:41:42Z</time>
      </trkpt>
      <trkpt lat="45.850357403978705" lon="9.351358450949192">
        <ele>325.06</ele>
        <time>2013-05-26T06:42:02Z</time>
      </trkpt>
      <trkpt lat="45.850337287411094" lon="9.351355265825987">
        <ele>324.57999999999998</ele>
        <time>2013-05-26T06:42:20Z</time>
      </trkpt>
      <trkpt lat="45.850342400372028" lon="9.351362558081746">
        <ele>325.06</ele>
        <time>2013-05-26T06:42:43Z</time>
      </trkpt>
      <trkpt lat="45.850360002368689" lon="9.351352415978909">
        <ele>325.54000000000002</ele>
        <time>2013-05-26T06:43:00Z</time>
      </trkpt>
      <trkpt lat="45.850358745083213" lon="9.35136373154819">
        <ele>325.54000000000002</ele>
        <time>2013-05-26T06:43:21Z</time>
      </trkpt>
      <trkpt lat="45.85035128518939" lon="9.351358199492097">
        <ele>324.10000000000002</ele>
        <time>2013-05-26T06:43:40Z</time>
      </trkpt>
      <trkpt lat="45.850358577445149" lon="9.351346548646689">
        <ele>324.57999999999998</ele>
        <time>2013-05-26T06:44:00Z</time>
      </trkpt>
      <trkpt lat="45.850348938256502" lon="9.35133196413517">
        <ele>324.57999999999998</ele>
        <time>2013-05-26T06:44:19Z</time>
      </trkpt>
      <trkpt lat="45.850357487797737" lon="9.351343866437674">
        <ele>325.06</ele>
        <time>2013-05-26T06:44:35Z</time>
      </trkpt>
      <trkpt lat="45.85037081502378" lon="9.351255772635341">
        <ele>325.54000000000002</ele>
        <time>2013-05-26T06:44:42Z</time>
      </trkpt>
      <trkpt lat="45.850425213575363" lon="9.351056534796953">
        <ele>327.94999999999999</ele>
        <time>2013-05-26T06:44:57Z</time>
      </trkpt>
      <trkpt lat="45.850512636825442" lon="9.350953437387943">
        <ele>330.82999999999998</ele>
        <time>2013-05-26T06:45:10Z</time>
      </trkpt>
      <trkpt lat="45.850627971813083" lon="9.350856374949217">
        <ele>334.19999999999999</ele>
        <time>2013-05-26T06:45:27Z</time>
      </trkpt>
      <trkpt lat="45.850646244361997" lon="9.350762413814664">
        <ele>335.63999999999999</ele>
        <time>2013-05-26T06:45:36Z</time>
      </trkpt>
      <trkpt lat="45.85066351108253" lon="9.350579436868429">
        <ele>338.51999999999998</ele>
        <time>2013-05-26T06:45:52Z</time>
      </trkpt>
      <trkpt lat="45.850675413385034" lon="9.350467789918184">
        <ele>339.95999999999998</ele>
        <time>2013-05-26T06:46:03Z</time>
      </trkpt>
      <trkpt lat="45.850672563537955" lon="9.350394951179624">
        <ele>340.92000000000002</ele>
        <time>2013-05-26T06:46:09Z</time>
      </trkpt>
      <trkpt lat="45.850698295980692" lon="9.350237790495157">
        <ele>342.37</ele>
        <time>2013-05-26T06:46:23Z</time>
      </trkpt>
      <trkpt lat="45.850797202438116" lon="9.35024474747479">
        <ele>345.25</ele>
        <time>2013-05-26T06:46:37Z</time>
      </trkpt>
      <trkpt lat="45.850819498300552" lon="9.350280119106174">
        <ele>345.73000000000002</ele>
        <time>2013-05-26T06:46:41Z</time>
      </trkpt>
      <trkpt lat="45.850931145250797" lon="9.350409535691142">
        <ele>347.64999999999998</ele>
        <time>2013-05-26T06:46:57Z</time>
      </trkpt>
      <trkpt lat="45.85100993514061" lon="9.350497629493475">
        <ele>349.57999999999998</ele>
        <time>2013-05-26T06:47:10Z</time>
      </trkpt>
      <trkpt lat="45.85104170255363" lon="9.350530989468098">
        <ele>350.54000000000002</ele>
        <time>2013-05-26T06:47:16Z</time>
      </trkpt>
      <trkpt lat="45.851114373654127" lon="9.350615479052067">
        <ele>352.45999999999998</ele>
        <time>2013-05-26T06:47:28Z</time>
      </trkpt>
      <trkpt lat="45.851138262078166" lon="9.35064984485507">
        <ele>352.94</ele>
        <time>2013-05-26T06:47:32Z</time>
      </trkpt>
      <trkpt lat="45.851228451356292" lon="9.350763838738203">
        <ele>355.33999999999997</ele>
        <time>2013-05-26T06:47:47Z</time>
      </trkpt>
      <trkpt lat="45.851313779130578" lon="9.350848579779267">
        <ele>356.79000000000002</ele>
        <time>2013-05-26T06:48:00Z</time>
      </trkpt>
      <trkpt lat="45.85140036419034" lon="9.350946061313152">
        <ele>358.23000000000002</ele>
        <time>2013-05-26T06:48:14Z</time>
      </trkpt>
      <trkpt lat="45.851428275927901" lon="9.350995179265738">
        <ele>359.67000000000002</ele>
        <time>2013-05-26T06:48:19Z</time>
      </trkpt>
      <trkpt lat="45.851507317274809" lon="9.351107832044363">
        <ele>361.58999999999997</ele>
        <time>2013-05-26T06:48:33Z</time>
      </trkpt>
      <trkpt lat="45.851540509611368" lon="9.351151082664728">
        <ele>362.55000000000001</ele>
        <time>2013-05-26T06:48:38Z</time>
      </trkpt>
      <trkpt lat="45.851607900112867" lon="9.351255521178246">
        <ele>364.48000000000002</ele>
        <time>2013-05-26T06:48:50Z</time>
      </trkpt>
      <trkpt lat="45.851645031943917" lon="9.351232135668397">
        <ele>365.44</ele>
        <time>2013-05-26T06:48:55Z</time>
      </trkpt>
      <trkpt lat="45.851657772436738" lon="9.35103046707809">
        <ele>368.31999999999999</ele>
        <time>2013-05-26T06:49:11Z</time>
      </trkpt>
      <trkpt lat="45.851649809628725" lon="9.350919993594289">
        <ele>370.24000000000001</ele>
        <time>2013-05-26T06:49:21Z</time>
      </trkpt>
      <trkpt lat="45.851666405797005" lon="9.35075830668211">
        <ele>374.08999999999997</ele>
        <time>2013-05-26T06:49:35Z</time>
      </trkpt>
      <trkpt lat="45.851671267300844" lon="9.350751349702478">
        <ele>374.08999999999997</ele>
        <time>2013-05-26T06:49:36Z</time>
      </trkpt>
      <trkpt lat="45.851723570376635" lon="9.35072704218328">
        <ele>374.56999999999999</ele>
        <time>2013-05-26T06:49:44Z</time>
      </trkpt>
      <trkpt lat="45.85185818374157" lon="9.350706422701478">
        <ele>377.94</ele>
        <time>2013-05-26T06:50:00Z</time>
      </trkpt>
      <trkpt lat="45.851952396333218" lon="9.350695526227355">
        <ele>379.86000000000001</ele>
        <time>2013-05-26T06:50:12Z</time>
      </trkpt>
      <trkpt lat="45.851974608376622" lon="9.350691754370928">
        <ele>380.33999999999997</ele>
        <time>2013-05-26T06:50:15Z</time>
      </trkpt>
      <trkpt lat="45.852006962522864" lon="9.35068890452385">
        <ele>381.30000000000001</ele>
        <time>2013-05-26T06:50:19Z</time>
      </trkpt>
      <trkpt lat="45.852123219519854" lon="9.350665351375938">
        <ele>383.69999999999999</ele>
        <time>2013-05-26T06:50:33Z</time>
      </trkpt>
      <trkpt lat="45.852233441546559" lon="9.350618747994304">
        <ele>386.11000000000001</ele>
        <time>2013-05-26T06:50:47Z</time>
      </trkpt>
      <trkpt lat="45.852297227829695" lon="9.35058337636292">
        <ele>386.58999999999997</ele>
        <time>2013-05-26T06:51:00Z</time>
      </trkpt>
      <trkpt lat="45.8523038495332" lon="9.350593853741884">
        <ele>386.58999999999997</ele>
        <time>2013-05-26T06:51:14Z</time>
      </trkpt>
      <trkpt lat="45.852329665794969" lon="9.350576670840383">
        <ele>386.11000000000001</ele>
        <time>2013-05-26T06:51:32Z</time>
      </trkpt>
      <trkpt lat="45.852337796241045" lon="9.350601648911834">
        <ele>386.11000000000001</ele>
        <time>2013-05-26T06:51:49Z</time>
      </trkpt>
      <trkpt lat="45.852334443479776" lon="9.350581029430032">
        <ele>385.63</ele>
        <time>2013-05-26T06:52:04Z</time>
      </trkpt>
      <trkpt lat="45.852368222549558" lon="9.35056334361434">
        <ele>385.63</ele>
        <time>2013-05-26T06:52:21Z</time>
      </trkpt>
      <trkpt lat="45.852376772090793" lon="9.350575245916843">
        <ele>386.58999999999997</ele>
        <time>2013-05-26T06:52:30Z</time>
      </trkpt>
      <trkpt lat="45.852366210892797" lon="9.35060148127377">
        <ele>386.11000000000001</ele>
        <time>2013-05-26T06:52:45Z</time>
      </trkpt>
      <trkpt lat="45.852346681058407" lon="9.350562253966928">
        <ele>386.58999999999997</ele>
        <time>2013-05-26T06:53:02Z</time>
      </trkpt>
      <trkpt lat="45.852355565875769" lon="9.350561248138547">
        <ele>388.02999999999997</ele>
        <time>2013-05-26T06:53:10Z</time>
      </trkpt>
      <trkpt lat="45.852348189800978" lon="9.350570049136877">
        <ele>387.06999999999999</ele>
        <time>2013-05-26T06:53:33Z</time>
      </trkpt>
      <trkpt lat="45.852338131517172" lon="9.350556386634708">
        <ele>386.58999999999997</ele>
        <time>2013-05-26T06:53:55Z</time>
      </trkpt>
      <trkpt lat="45.852352380752563" lon="9.350551106035709">
        <ele>386.58999999999997</ele>
        <time>2013-05-26T06:54:00Z</time>
      </trkpt>
      <trkpt lat="45.852367635816336" lon="9.350530151277781">
        <ele>387.06999999999999</ele>
        <time>2013-05-26T06:54:02Z</time>
      </trkpt>
      <trkpt lat="45.852496549487114" lon="9.350515818223357">
        <ele>388.02999999999997</ele>
        <time>2013-05-26T06:54:18Z</time>
      </trkpt>
      <trkpt lat="45.852579362690449" lon="9.350460330024362">
        <ele>389.47000000000003</ele>
        <time>2013-05-26T06:54:32Z</time>
      </trkpt>
      <trkpt lat="45.852670138701797" lon="9.350434262305498">
        <ele>390.91000000000003</ele>
        <time>2013-05-26T06:54:48Z</time>
      </trkpt>
      <trkpt lat="45.852725626900792" lon="9.350397884845734">
        <ele>391.87</ele>
        <time>2013-05-26T06:54:55Z</time>
      </trkpt>
      <trkpt lat="45.852826880291104" lon="9.350348431617022">
        <ele>394.27999999999997</ele>
        <time>2013-05-26T06:55:10Z</time>
      </trkpt>
      <trkpt lat="45.852860240265727" lon="9.350341558456421">
        <ele>396.19999999999999</ele>
        <time>2013-05-26T06:55:15Z</time>
      </trkpt>
      <trkpt lat="45.852973312139511" lon="9.350346000865102">
        <ele>398.60000000000002</ele>
        <time>2013-05-26T06:55:29Z</time>
      </trkpt>
      <trkpt lat="45.853087054565549" lon="9.35036544688046">
        <ele>402.44999999999999</ele>
        <time>2013-05-26T06:55:45Z</time>
      </trkpt>
      <trkpt lat="45.853199372068048" lon="9.350393945351243">
        <ele>404.85000000000002</ele>
        <time>2013-05-26T06:56:01Z</time>
      </trkpt>
      <trkpt lat="45.853286376222968" lon="9.350366201251745">
        <ele>405.81</ele>
        <time>2013-05-26T06:56:13Z</time>
      </trkpt>
      <trkpt lat="45.853392155840993" lon="9.350368715822697">
        <ele>406.76999999999998</ele>
        <time>2013-05-26T06:56:26Z</time>
      </trkpt>
      <trkpt lat="45.85345652885735" lon="9.350412888452411">
        <ele>407.25999999999999</ele>
        <time>2013-05-26T06:56:34Z</time>
      </trkpt>
      <trkpt lat="45.853599524125457" lon="9.350503329187632">
        <ele>408.22000000000003</ele>
        <time>2013-05-26T06:56:50Z</time>
      </trkpt>
      <trkpt lat="45.853747045621276" lon="9.350536521524191">
        <ele>408.69999999999999</ele>
        <time>2013-05-26T06:57:06Z</time>
      </trkpt>
      <trkpt lat="45.853812759742141" lon="9.350464604794979">
        <ele>410.62</ele>
        <time>2013-05-26T06:57:21Z</time>
      </trkpt>
      <trkpt lat="45.853848299011588" lon="9.350371230393648">
        <ele>413.01999999999998</ele>
        <time>2013-05-26T06:57:35Z</time>
      </trkpt>
      <trkpt lat="45.853901943191886" lon="9.350287076085806">
        <ele>415.91000000000003</ele>
        <time>2013-05-26T06:57:48Z</time>
      </trkpt>
      <trkpt lat="45.853952066972852" lon="9.350229073315859">
        <ele>417.82999999999998</ele>
        <time>2013-05-26T06:58:01Z</time>
      </trkpt>
      <trkpt lat="45.853988779708743" lon="9.350177440792322">
        <ele>418.79000000000002</ele>
        <time>2013-05-26T06:58:08Z</time>
      </trkpt>
      <trkpt lat="45.854068491607904" lon="9.350042659789324">
        <ele>420.23000000000002</ele>
        <time>2013-05-26T06:58:22Z</time>
      </trkpt>
      <trkpt lat="45.854076370596886" lon="9.350031930953264">
        <ele>420.70999999999998</ele>
        <time>2013-05-26T06:58:24Z</time>
      </trkpt>
      <trkpt lat="45.854169996455312" lon="9.349941154941917">
        <ele>423.12</ele>
        <time>2013-05-26T06:58:39Z</time>
      </trkpt>
      <trkpt lat="45.854238392785192" lon="9.349853312596679">
        <ele>425.51999999999998</ele>
        <time>2013-05-26T06:58:54Z</time>
      </trkpt>
      <trkpt lat="45.854331515729427" lon="9.349723979830742">
        <ele>426.95999999999998</ele>
        <time>2013-05-26T06:59:08Z</time>
      </trkpt>
      <trkpt lat="45.85441960953176" lon="9.349618284031749">
        <ele>428.88999999999999</ele>
        <time>2013-05-26T06:59:28Z</time>
      </trkpt>
      <trkpt lat="45.854417262598872" lon="9.349589701741934">
        <ele>427.92000000000002</ele>
        <time>2013-05-26T06:59:48Z</time>
      </trkpt>
      <trkpt lat="45.854444336146116" lon="9.349613003432751">
        <ele>427.92000000000002</ele>
        <time>2013-05-26T07:00:07Z</time>
      </trkpt>
      <trkpt lat="45.854438468813896" lon="9.349622474983335">
        <ele>426.95999999999998</ele>
        <time>2013-05-26T07:00:23Z</time>
      </trkpt>
      <trkpt lat="45.854478115215898" lon="9.349570842459798">
        <ele>428.39999999999998</ele>
        <time>2013-05-26T07:00:39Z</time>
      </trkpt>
      <trkpt lat="45.854552043601871" lon="9.349471097812057">
        <ele>429.85000000000002</ele>
        <time>2013-05-26T07:00:54Z</time>
      </trkpt>
      <trkpt lat="45.854601915925741" lon="9.349364899098873">
        <ele>432.25</ele>
        <time>2013-05-26T07:01:08Z</time>
      </trkpt>
      <trkpt lat="45.854638544842601" lon="9.349300861358643">
        <ele>433.69</ele>
        <time>2013-05-26T07:01:21Z</time>
      </trkpt>
      <trkpt lat="45.854736277833581" lon="9.349239002913237">
        <ele>434.64999999999998</ele>
        <time>2013-05-26T07:01:34Z</time>
      </trkpt>
      <trkpt lat="45.854819426313043" lon="9.349093660712242">
        <ele>437.06</ele>
        <time>2013-05-26T07:01:49Z</time>
      </trkpt>
      <trkpt lat="45.854860749095678" lon="9.348969692364335">
        <ele>439.94</ele>
        <time>2013-05-26T07:02:04Z</time>
      </trkpt>
      <trkpt lat="45.854900814592838" lon="9.348906660452485">
        <ele>440.42000000000002</ele>
        <time>2013-05-26T07:02:19Z</time>
      </trkpt>
      <trkpt lat="45.85496443323791" lon="9.348782943561673">
        <ele>441.38</ele>
        <time>2013-05-26T07:02:33Z</time>
      </trkpt>
      <trkpt lat="45.855057220906019" lon="9.348702728748322">
        <ele>440.89999999999998</ele>
        <time>2013-05-26T07:02:46Z</time>
      </trkpt>
      <trkpt lat="45.855086222290993" lon="9.348754277452827">
        <ele>440.42000000000002</ele>
        <time>2013-05-26T07:02:50Z</time>
      </trkpt>
      <trkpt lat="45.855156965553761" lon="9.348971033468843">
        <ele>438.98000000000002</ele>
        <time>2013-05-26T07:03:07Z</time>
      </trkpt>
      <trkpt lat="45.855169119313359" lon="9.348992994055152">
        <ele>438.5</ele>
        <time>2013-05-26T07:03:09Z</time>
      </trkpt>
      <trkpt lat="45.855286968871951" lon="9.349074801430106">
        <ele>437.54000000000002</ele>
        <time>2013-05-26T07:03:25Z</time>
      </trkpt>
      <trkpt lat="45.855350000783801" lon="9.349097432568669">
        <ele>440.42000000000002</ele>
        <time>2013-05-26T07:03:40Z</time>
      </trkpt>
      <trkpt lat="45.855398867279291" lon="9.349108915776014">
        <ele>442.33999999999997</ele>
        <time>2013-05-26T07:03:53Z</time>
      </trkpt>
      <trkpt lat="45.855432311072946" lon="9.349146550521255">
        <ele>443.31</ele>
        <time>2013-05-26T07:04:05Z</time>
      </trkpt>
      <trkpt lat="45.855438597500324" lon="9.349157027900219">
        <ele>443.31</ele>
        <time>2013-05-26T07:04:07Z</time>
      </trkpt>
      <trkpt lat="45.855445638298988" lon="9.349285773932934">
        <ele>443.79000000000002</ele>
        <time>2013-05-26T07:04:16Z</time>
      </trkpt>
      <trkpt lat="45.855475226417184" lon="9.349354924634099">
        <ele>446.19</ele>
        <time>2013-05-26T07:04:31Z</time>
      </trkpt>
      <trkpt lat="45.855533815920353" lon="9.34947176836431">
        <ele>449.55000000000001</ele>
        <time>2013-05-26T07:04:45Z</time>
      </trkpt>
      <trkpt lat="45.855554938316345" lon="9.349517449736595">
        <ele>451</ele>
        <time>2013-05-26T07:04:50Z</time>
      </trkpt>
      <trkpt lat="45.855569774284959" lon="9.349555252119899">
        <ele>451.48000000000002</ele>
        <time>2013-05-26T07:04:53Z</time>
      </trkpt>
      <trkpt lat="45.855626603588462" lon="9.349724063649774">
        <ele>453.39999999999998</ele>
        <time>2013-05-26T07:05:08Z</time>
      </trkpt>
      <trkpt lat="45.855633141472936" lon="9.349898742511869">
        <ele>454.83999999999997</ele>
        <time>2013-05-26T07:05:22Z</time>
      </trkpt>
      <trkpt lat="45.855626100674272" lon="9.35008398257196">
        <ele>456.75999999999999</ele>
        <time>2013-05-26T07:05:36Z</time>
      </trkpt>
      <trkpt lat="45.855667926371098" lon="9.35018808580935">
        <ele>458.69</ele>
        <time>2013-05-26T07:05:48Z</time>
      </trkpt>
      <trkpt lat="45.855708913877606" lon="9.350196719169617">
        <ele>459.17000000000002</ele>
        <time>2013-05-26T07:06:00Z</time>
      </trkpt>
      <trkpt lat="45.855750655755401" lon="9.350187331438065">
        <ele>460.61000000000001</ele>
        <time>2013-05-26T07:06:15Z</time>
      </trkpt>
      <trkpt lat="45.855775130912662" lon="9.350119438022375">
        <ele>462.52999999999997</ele>
        <time>2013-05-26T07:06:28Z</time>
      </trkpt>
      <trkpt lat="45.855805976316333" lon="9.349962947890163">
        <ele>464.44999999999999</ele>
        <time>2013-05-26T07:06:43Z</time>
      </trkpt>
      <trkpt lat="45.855831960216165" lon="9.34984995983541">
        <ele>466.86000000000001</ele>
        <time>2013-05-26T07:06:55Z</time>
      </trkpt>
      <trkpt lat="45.855829445645213" lon="9.349719537422061">
        <ele>468.77999999999997</ele>
        <time>2013-05-26T07:07:07Z</time>
      </trkpt>
      <trkpt lat="45.855858698487282" lon="9.349616607651115">
        <ele>471.18000000000001</ele>
        <time>2013-05-26T07:07:20Z</time>
      </trkpt>
      <trkpt lat="45.855910498648882" lon="9.349497249349952">
        <ele>473.58999999999997</ele>
        <time>2013-05-26T07:07:33Z</time>
      </trkpt>
      <trkpt lat="45.855976631864905" lon="9.349433882161975">
        <ele>475.50999999999999</ele>
        <time>2013-05-26T07:07:47Z</time>
      </trkpt>
      <trkpt lat="45.855974452570081" lon="9.349455256015062">
        <ele>475.50999999999999</ele>
        <time>2013-05-26T07:08:02Z</time>
      </trkpt>
      <trkpt lat="45.855963304638863" lon="9.34944192878902">
        <ele>475.50999999999999</ele>
        <time>2013-05-26T07:08:21Z</time>
      </trkpt>
      <trkpt lat="45.855963137000799" lon="9.349444694817066">
        <ele>475.02999999999997</ele>
        <time>2013-05-26T07:08:38Z</time>
      </trkpt>
      <trkpt lat="45.855965064838529" lon="9.349472271278501">
        <ele>475.50999999999999</ele>
        <time>2013-05-26T07:09:04Z</time>
      </trkpt>
      <trkpt lat="45.85596120916307" lon="9.349449472501874">
        <ele>475.02999999999997</ele>
        <time>2013-05-26T07:09:23Z</time>
      </trkpt>
      <trkpt lat="45.855969758704305" lon="9.349479228258133">
        <ele>475.50999999999999</ele>
        <time>2013-05-26T07:09:45Z</time>
      </trkpt>
      <trkpt lat="45.855953833088279" lon="9.349485849961639">
        <ele>475.50999999999999</ele>
        <time>2013-05-26T07:09:59Z</time>
      </trkpt>
      <trkpt lat="45.855942936614156" lon="9.349466990679503">
        <ele>475.02999999999997</ele>
        <time>2013-05-26T07:10:19Z</time>
      </trkpt>
      <trkpt lat="45.855961795896292" lon="9.349454920738936">
        <ele>474.55000000000001</ele>
        <time>2013-05-26T07:10:35Z</time>
      </trkpt>
      <trkpt lat="45.855976045131683" lon="9.349435474723578">
        <ele>474.55000000000001</ele>
        <time>2013-05-26T07:10:53Z</time>
      </trkpt>
      <trkpt lat="45.856051733717322" lon="9.34939356520772">
        <ele>476.47000000000003</ele>
        <time>2013-05-26T07:11:06Z</time>
      </trkpt>
      <trkpt lat="45.856129014864564" lon="9.349442264065146">
        <ele>477.43000000000001</ele>
        <time>2013-05-26T07:11:23Z</time>
      </trkpt>
      <trkpt lat="45.856144269928336" lon="9.349437151104212">
        <ele>477.91000000000003</ele>
        <time>2013-05-26T07:11:38Z</time>
      </trkpt>
      <trkpt lat="45.856193052604795" lon="9.34941946528852">
        <ele>478.38999999999999</ele>
        <time>2013-05-26T07:11:51Z</time>
      </trkpt>
      <trkpt lat="45.856222053989768" lon="9.349453579634428">
        <ele>481.75999999999999</ele>
        <time>2013-05-26T07:12:05Z</time>
      </trkpt>
      <trkpt lat="45.856267651543021" lon="9.349460704252124">
        <ele>484.63999999999999</ele>
        <time>2013-05-26T07:12:18Z</time>
      </trkpt>
      <trkpt lat="45.856320038437843" lon="9.349472271278501">
        <ele>488.00999999999999</ele>
        <time>2013-05-26T07:12:29Z</time>
      </trkpt>
      <trkpt lat="45.856358762830496" lon="9.349494650959969">
        <ele>490.41000000000003</ele>
        <time>2013-05-26T07:12:46Z</time>
      </trkpt>
      <trkpt lat="45.856386590749025" lon="9.349535973742604">
        <ele>491.85000000000002</ele>
        <time>2013-05-26T07:13:00Z</time>
      </trkpt>
      <trkpt lat="45.856410227715969" lon="9.349502697587013">
        <ele>494.25999999999999</ele>
        <time>2013-05-26T07:13:14Z</time>
      </trkpt>
      <trkpt lat="45.856421291828156" lon="9.349528094753623">
        <ele>495.69999999999999</ele>
        <time>2013-05-26T07:13:29Z</time>
      </trkpt>
      <trkpt lat="45.856455573812127" lon="9.349515018984675">
        <ele>497.13999999999999</ele>
        <time>2013-05-26T07:13:43Z</time>
      </trkpt>
      <trkpt lat="45.856474936008453" lon="9.34950596652925">
        <ele>498.57999999999998</ele>
        <time>2013-05-26T07:13:55Z</time>
      </trkpt>
      <trkpt lat="45.8565260656178" lon="9.34957436285913">
        <ele>501.45999999999998</ele>
        <time>2013-05-26T07:14:07Z</time>
      </trkpt>
      <trkpt lat="45.856582559645176" lon="9.349597999826074">
        <ele>503.87</ele>
        <time>2013-05-26T07:14:22Z</time>
      </trkpt>
      <trkpt lat="45.856576105579734" lon="9.349492136389017">
        <ele>506.75</ele>
        <time>2013-05-26T07:14:36Z</time>
      </trkpt>
      <trkpt lat="45.856576273217797" lon="9.349475707858801">
        <ele>507.23000000000002</ele>
        <time>2013-05-26T07:14:38Z</time>
      </trkpt>
      <trkpt lat="45.856636371463537" lon="9.349366240203381">
        <ele>508.67000000000002</ele>
        <time>2013-05-26T07:14:52Z</time>
      </trkpt>
      <trkpt lat="45.856653973460197" lon="9.34927286580205">
        <ele>510.60000000000002</ele>
        <time>2013-05-26T07:15:06Z</time>
      </trkpt>
      <trkpt lat="45.856680711731315" lon="9.349220478907228">
        <ele>511.56</ele>
        <time>2013-05-26T07:15:24Z</time>
      </trkpt>
      <trkpt lat="45.856723375618458" lon="9.349247887730598">
        <ele>512.51999999999998</ele>
        <time>2013-05-26T07:15:40Z</time>
      </trkpt>
      <trkpt lat="45.856736367568374" lon="9.349249647930265">
        <ele>513.48000000000002</ele>
        <time>2013-05-26T07:15:56Z</time>
      </trkpt>
      <trkpt lat="45.856751035898924" lon="9.349260795861483">
        <ele>513</ele>
        <time>2013-05-26T07:16:12Z</time>
      </trkpt>
      <trkpt lat="45.856773247942328" lon="9.349244115874171">
        <ele>515.39999999999998</ele>
        <time>2013-05-26T07:16:31Z</time>
      </trkpt>
      <trkpt lat="45.856791604310274" lon="9.349238499999046">
        <ele>516.37</ele>
        <time>2013-05-26T07:16:46Z</time>
      </trkpt>
      <trkpt lat="45.856808451935649" lon="9.349274626001716">
        <ele>517.33000000000004</ele>
        <time>2013-05-26T07:17:20Z</time>
      </trkpt>
      <trkpt lat="45.856802668422461" lon="9.349287953227758">
        <ele>516.85000000000002</ele>
        <time>2013-05-26T07:17:45Z</time>
      </trkpt>
      <trkpt lat="45.856805182993412" lon="9.349248474463821">
        <ele>516.85000000000002</ele>
        <time>2013-05-26T07:18:07Z</time>
      </trkpt>
      <trkpt lat="45.856791604310274" lon="9.34927387163043">
        <ele>517.33000000000004</ele>
        <time>2013-05-26T07:18:33Z</time>
      </trkpt>
      <trkpt lat="45.856789257377386" lon="9.349305387586355">
        <ele>518.28999999999996</ele>
        <time>2013-05-26T07:19:00Z</time>
      </trkpt>
      <trkpt lat="45.856792693957686" lon="9.349280577152968">
        <ele>518.76999999999998</ele>
        <time>2013-05-26T07:19:14Z</time>
      </trkpt>
      <trkpt lat="45.856824545189738" lon="9.349303627386689">
        <ele>520.69000000000005</ele>
        <time>2013-05-26T07:19:30Z</time>
      </trkpt>
      <trkpt lat="45.85685832425952" lon="9.349356014281511">
        <ele>522.13</ele>
        <time>2013-05-26T07:19:43Z</time>
      </trkpt>
      <trkpt lat="45.856873244047165" lon="9.349466068670154">
        <ele>525.01999999999998</ele>
        <time>2013-05-26T07:19:58Z</time>
      </trkpt>
      <trkpt lat="45.856900066137314" lon="9.349470259621739">
        <ele>526.94000000000005</ele>
        <time>2013-05-26T07:20:07Z</time>
      </trkpt>
      <trkpt lat="45.856941053643823" lon="9.349506134167314">
        <ele>529.34000000000003</ele>
        <time>2013-05-26T07:20:21Z</time>
      </trkpt>
      <trkpt lat="45.856973743066192" lon="9.349537817761302">
        <ele>532.23000000000002</ele>
        <time>2013-05-26T07:20:33Z</time>
      </trkpt>
      <trkpt lat="45.856975754722953" lon="9.349530357867479">
        <ele>533.19000000000005</ele>
        <time>2013-05-26T07:20:40Z</time>
      </trkpt>
      <trkpt lat="45.856995368376374" lon="9.349470175802708">
        <ele>535.59000000000003</ele>
        <time>2013-05-26T07:20:54Z</time>
      </trkpt>
      <trkpt lat="45.857005342841148" lon="9.349424578249455">
        <ele>537.02999999999997</ele>
        <time>2013-05-26T07:21:08Z</time>
      </trkpt>
      <trkpt lat="45.857010539621115" lon="9.349378226324916">
        <ele>538.48000000000002</ele>
        <time>2013-05-26T07:21:19Z</time>
      </trkpt>
      <trkpt lat="45.85704205557704" lon="9.349359199404717">
        <ele>539.44000000000005</ele>
        <time>2013-05-26T07:21:33Z</time>
      </trkpt>
      <trkpt lat="45.857072398066521" lon="9.349312260746956">
        <ele>542.32000000000005</ele>
        <time>2013-05-26T07:21:45Z</time>
      </trkpt>
      <trkpt lat="45.857127048075199" lon="9.349294155836105">
        <ele>545.20000000000005</ele>
        <time>2013-05-26T07:21:59Z</time>
      </trkpt>
      <trkpt lat="45.857163341715932" lon="9.349323995411396">
        <ele>546.64999999999998</ele>
        <time>2013-05-26T07:22:12Z</time>
      </trkpt>
      <trkpt lat="45.857216734439135" lon="9.349370179697871">
        <ele>549.52999999999997</ele>
        <time>2013-05-26T07:22:23Z</time>
      </trkpt>
      <trkpt lat="45.857217740267515" lon="9.349377136677504">
        <ele>550.00999999999999</ele>
        <time>2013-05-26T07:22:24Z</time>
      </trkpt>
      <trkpt lat="45.857280185446143" lon="9.349412675946951">
        <ele>552.89999999999998</ele>
        <time>2013-05-26T07:22:38Z</time>
      </trkpt>
      <trkpt lat="45.857289656996727" lon="9.349500434473157">
        <ele>555.29999999999995</ele>
        <time>2013-05-26T07:22:51Z</time>
      </trkpt>
      <trkpt lat="45.857338020578027" lon="9.349489621818066">
        <ele>558.17999999999995</ele>
        <time>2013-05-26T07:23:04Z</time>
      </trkpt>
      <trkpt lat="45.857371967285872" lon="9.349513258785009">
        <ele>559.62</ele>
        <time>2013-05-26T07:23:17Z</time>
      </trkpt>
      <trkpt lat="45.857394179329276" lon="9.349538823589683">
        <ele>562.02999999999997</ele>
        <time>2013-05-26T07:23:29Z</time>
      </trkpt>
      <trkpt lat="45.857424521818757" lon="9.349509235471487">
        <ele>563.95000000000005</ele>
        <time>2013-05-26T07:23:40Z</time>
      </trkpt>
      <trkpt lat="45.857456875964999" lon="9.349572351202369">
        <ele>566.83000000000004</ele>
        <time>2013-05-26T07:23:51Z</time>
      </trkpt>
      <trkpt lat="45.857468442991376" lon="9.349667234346271">
        <ele>569.24000000000001</ele>
        <time>2013-05-26T07:24:04Z</time>
      </trkpt>
      <trkpt lat="45.857498031109571" lon="9.34978743083775">
        <ele>571.15999999999997</ele>
        <time>2013-05-26T07:24:18Z</time>
      </trkpt>
      <trkpt lat="45.857530469074845" lon="9.349818611517549">
        <ele>574.03999999999996</ele>
        <time>2013-05-26T07:24:32Z</time>
      </trkpt>
      <trkpt lat="45.857558129355311" lon="9.349894132465124">
        <ele>576.45000000000005</ele>
        <time>2013-05-26T07:24:47Z</time>
      </trkpt>
      <trkpt lat="45.857588555663824" lon="9.349950458854437">
        <ele>578.85000000000002</ele>
        <time>2013-05-26T07:24:56Z</time>
      </trkpt>
      <trkpt lat="45.857613952830434" lon="9.35000192373991">
        <ele>580.28999999999996</ele>
        <time>2013-05-26T07:25:09Z</time>
      </trkpt>
      <trkpt lat="45.857624346390367" lon="9.350058082491159">
        <ele>582.22000000000003</ele>
        <time>2013-05-26T07:25:21Z</time>
      </trkpt>
      <trkpt lat="45.857639852911234" lon="9.350132094696164">
        <ele>584.13999999999999</ele>
        <time>2013-05-26T07:25:35Z</time>
      </trkpt>
      <trkpt lat="45.857650749385357" lon="9.350171573460102">
        <ele>586.05999999999995</ele>
        <time>2013-05-26T07:25:46Z</time>
      </trkpt>
      <trkpt lat="45.857697268947959" lon="9.350199149921536">
        <ele>587.5</ele>
        <time>2013-05-26T07:25:59Z</time>
      </trkpt>
      <trkpt lat="45.857703303918242" lon="9.35020468197763">
        <ele>587.01999999999998</ele>
        <time>2013-05-26T07:26:22Z</time>
      </trkpt>
      <trkpt lat="45.857738088816404" lon="9.350279783830047">
        <ele>589.42999999999995</ele>
        <time>2013-05-26T07:26:35Z</time>
      </trkpt>
      <trkpt lat="45.857728533446789" lon="9.350280705839396">
        <ele>589.90999999999997</ele>
        <time>2013-05-26T07:26:53Z</time>
      </trkpt>
      <trkpt lat="45.857717804610729" lon="9.350257655605674">
        <ele>590.38999999999999</ele>
        <time>2013-05-26T07:27:10Z</time>
      </trkpt>
      <trkpt lat="45.857704728841782" lon="9.35023988597095">
        <ele>590.38999999999999</ele>
        <time>2013-05-26T07:27:27Z</time>
      </trkpt>
      <trkpt lat="45.857703806832433" lon="9.35025648213923">
        <ele>590.87</ele>
        <time>2013-05-26T07:27:42Z</time>
      </trkpt>
      <trkpt lat="45.857677487656474" lon="9.350286405533552">
        <ele>590.87</ele>
        <time>2013-05-26T07:28:08Z</time>
      </trkpt>
      <trkpt lat="45.857691233977675" lon="9.35027115046978">
        <ele>589.42999999999995</ele>
        <time>2013-05-26T07:28:28Z</time>
      </trkpt>
      <trkpt lat="45.857709422707558" lon="9.350275676697493">
        <ele>589.42999999999995</ele>
        <time>2013-05-26T07:28:54Z</time>
      </trkpt>
      <trkpt lat="45.857710260897875" lon="9.350282717496157">
        <ele>588.46000000000004</ele>
        <time>2013-05-26T07:29:18Z</time>
      </trkpt>
      <trkpt lat="45.857708584517241" lon="9.350293111056089">
        <ele>588.46000000000004</ele>
        <time>2013-05-26T07:29:42Z</time>
      </trkpt>
      <trkpt lat="45.857714787125587" lon="9.350275089964271">
        <ele>587.98000000000002</ele>
        <time>2013-05-26T07:30:04Z</time>
      </trkpt>
      <trkpt lat="45.857710093259811" lon="9.350269222632051">
        <ele>588.95000000000005</ele>
        <time>2013-05-26T07:30:20Z</time>
      </trkpt>
      <trkpt lat="45.857735490426421" lon="9.350192863494158">
        <ele>591.35000000000002</ele>
        <time>2013-05-26T07:30:33Z</time>
      </trkpt>
      <trkpt lat="45.857794666662812" lon="9.350193031132221">
        <ele>594.71000000000004</ele>
        <time>2013-05-26T07:30:46Z</time>
      </trkpt>
      <trkpt lat="45.857850825414062" lon="9.350172495469451">
        <ele>596.63999999999999</ele>
        <time>2013-05-26T07:31:01Z</time>
      </trkpt>
      <trkpt lat="45.857877982780337" lon="9.35011868365109">
        <ele>599.03999999999996</ele>
        <time>2013-05-26T07:31:07Z</time>
      </trkpt>
      <trkpt lat="45.857946630567312" lon="9.350038468837738">
        <ele>602.39999999999998</ele>
        <time>2013-05-26T07:31:22Z</time>
      </trkpt>
      <trkpt lat="45.857969177886844" lon="9.350165789946914">
        <ele>604.33000000000004</ele>
        <time>2013-05-26T07:31:36Z</time>
      </trkpt>
      <trkpt lat="45.858008908107877" lon="9.350130334496498">
        <ele>606.73000000000002</ele>
        <time>2013-05-26T07:31:49Z</time>
      </trkpt>
      <trkpt lat="45.858053751289845" lon="9.350136704742909">
        <ele>609.13</ele>
        <time>2013-05-26T07:32:01Z</time>
      </trkpt>
      <trkpt lat="45.858070766553283" lon="9.350207196548581">
        <ele>610.57000000000005</ele>
        <time>2013-05-26T07:32:12Z</time>
      </trkpt>
      <trkpt lat="45.858133127912879" lon="9.350200993940234">
        <ele>612.98000000000002</ele>
        <time>2013-05-26T07:32:25Z</time>
      </trkpt>
      <trkpt lat="45.858198003843427" lon="9.35023594647646">
        <ele>616.34000000000003</ele>
        <time>2013-05-26T07:32:38Z</time>
      </trkpt>
      <trkpt lat="45.858225496485829" lon="9.350248351693153">
        <ele>617.77999999999997</ele>
        <time>2013-05-26T07:32:50Z</time>
      </trkpt>
      <trkpt lat="45.858293054625392" lon="9.350283555686474">
        <ele>621.14999999999998</ele>
        <time>2013-05-26T07:33:04Z</time>
      </trkpt>
      <trkpt lat="45.858300263062119" lon="9.350290345028043">
        <ele>621.63</ele>
        <time>2013-05-26T07:33:06Z</time>
      </trkpt>
      <trkpt lat="45.858363965526223" lon="9.350242400541902">
        <ele>624.02999999999997</ele>
        <time>2013-05-26T07:33:19Z</time>
      </trkpt>
      <trkpt lat="45.858428841456771" lon="9.350226474925876">
        <ele>626.44000000000005</ele>
        <time>2013-05-26T07:33:33Z</time>
      </trkpt>
      <trkpt lat="45.858468487858772" lon="9.350164365023375">
        <ele>628.36000000000001</ele>
        <time>2013-05-26T07:33:49Z</time>
      </trkpt>
      <trkpt lat="45.858527412638068" lon="9.35012798756361">
        <ele>630.27999999999997</ele>
        <time>2013-05-26T07:34:02Z</time>
      </trkpt>
      <trkpt lat="45.858593126758933" lon="9.350129580125213">
        <ele>633.64999999999998</ele>
        <time>2013-05-26T07:34:16Z</time>
      </trkpt>
      <trkpt lat="45.8586310967803" lon="9.350084401667118">
        <ele>635.09000000000003</ele>
        <time>2013-05-26T07:34:28Z</time>
      </trkpt>
      <trkpt lat="45.858704270794988" lon="9.350036038085818">
        <ele>637.49000000000001</ele>
        <time>2013-05-26T07:34:42Z</time>
      </trkpt>
      <trkpt lat="45.858755484223366" lon="9.349965713918209">
        <ele>640.38</ele>
        <time>2013-05-26T07:34:58Z</time>
      </trkpt>
      <trkpt lat="45.858839806169271" lon="9.349942831322551">
        <ele>642.77999999999997</ele>
        <time>2013-05-26T07:35:14Z</time>
      </trkpt>
      <trkpt lat="45.858912393450737" lon="9.349989267066121">
        <ele>645.17999999999995</ele>
        <time>2013-05-26T07:35:28Z</time>
      </trkpt>
      <trkpt lat="45.858931001275778" lon="9.349933108314872">
        <ele>646.62</ele>
        <time>2013-05-26T07:35:41Z</time>
      </trkpt>
      <trkpt lat="45.858951536938548" lon="9.34987778775394">
        <ele>648.54999999999995</ele>
        <time>2013-05-26T07:35:53Z</time>
      </trkpt>
      <trkpt lat="45.858964528888464" lon="9.349871249869466">
        <ele>649.02999999999997</ele>
        <time>2013-05-26T07:36:07Z</time>
      </trkpt>
      <trkpt lat="45.858976431190968" lon="9.349895473569632">
        <ele>649.50999999999999</ele>
        <time>2013-05-26T07:36:23Z</time>
      </trkpt>
      <trkpt lat="45.858976682648063" lon="9.349876781925559">
        <ele>649.50999999999999</ele>
        <time>2013-05-26T07:36:43Z</time>
      </trkpt>
      <trkpt lat="45.859013898298144" lon="9.34984652325511">
        <ele>651.42999999999995</ele>
        <time>2013-05-26T07:36:58Z</time>
      </trkpt>
      <trkpt lat="45.859043234959245" lon="9.349806290119886">
        <ele>653.35000000000002</ele>
        <time>2013-05-26T07:37:16Z</time>
      </trkpt>
      <trkpt lat="45.859070811420679" lon="9.349793968722224">
        <ele>653.83000000000004</ele>
        <time>2013-05-26T07:37:30Z</time>
      </trkpt>
      <trkpt lat="45.859104925766587" lon="9.349822467193008">
        <ele>656.72000000000003</ele>
        <time>2013-05-26T07:37:43Z</time>
      </trkpt>
      <trkpt lat="45.859148846939206" lon="9.349803440272808">
        <ele>660.08000000000004</ele>
        <time>2013-05-26T07:37:55Z</time>
      </trkpt>
      <trkpt lat="45.859179776161909" lon="9.349756333976984">
        <ele>661.51999999999998</ele>
        <time>2013-05-26T07:38:07Z</time>
      </trkpt>
      <trkpt lat="45.85920081473887" lon="9.349736720323563">
        <ele>662.97000000000003</ele>
        <time>2013-05-26T07:38:20Z</time>
      </trkpt>
      <trkpt lat="45.85923065431416" lon="9.349752981215715">
        <ele>664.40999999999997</ele>
        <time>2013-05-26T07:38:32Z</time>
      </trkpt>
      <trkpt lat="45.859272899106145" lon="9.349722554907203">
        <ele>666.80999999999995</ele>
        <time>2013-05-26T07:38:46Z</time>
      </trkpt>
      <trkpt lat="45.859302738681436" lon="9.349771840497851">
        <ele>668.25</ele>
        <time>2013-05-26T07:38:58Z</time>
      </trkpt>
      <trkpt lat="45.85932788439095" lon="9.349780390039086">
        <ele>669.70000000000005</ele>
        <time>2013-05-26T07:39:10Z</time>
      </trkpt>
      <trkpt lat="45.859354119747877" lon="9.349814001470804">
        <ele>672.58000000000004</ele>
        <time>2013-05-26T07:39:24Z</time>
      </trkpt>
      <trkpt lat="45.859334673732519" lon="9.349875943735242">
        <ele>674.98000000000002</ele>
        <time>2013-05-26T07:39:38Z</time>
      </trkpt>
      <trkpt lat="45.859339451417327" lon="9.349885582923889">
        <ele>676.41999999999996</ele>
        <time>2013-05-26T07:39:56Z</time>
      </trkpt>
      <trkpt lat="45.859329476952553" lon="9.34993201866746">
        <ele>676.90999999999997</ele>
        <time>2013-05-26T07:40:10Z</time>
      </trkpt>
      <trkpt lat="45.859330985695124" lon="9.34999312274158">
        <ele>678.35000000000002</ele>
        <time>2013-05-26T07:40:24Z</time>
      </trkpt>
      <trkpt lat="45.859350766986609" lon="9.350001337006688">
        <ele>680.75</ele>
        <time>2013-05-26T07:40:38Z</time>
      </trkpt>
      <trkpt lat="45.859384378418326" lon="9.350063111633062">
        <ele>683.14999999999998</ele>
        <time>2013-05-26T07:40:50Z</time>
      </trkpt>
      <trkpt lat="45.859362250193954" lon="9.350089263170958">
        <ele>683.14999999999998</ele>
        <time>2013-05-26T07:41:10Z</time>
      </trkpt>
      <trkpt lat="45.859424108639359" lon="9.350067721679807">
        <ele>685.08000000000004</ele>
        <time>2013-05-26T07:41:20Z</time>
      </trkpt>
      <trkpt lat="45.859460067003965" lon="9.350094376131892">
        <ele>687</ele>
        <time>2013-05-26T07:41:34Z</time>
      </trkpt>
      <trkpt lat="45.859516561031342" lon="9.350081719458103">
        <ele>688.91999999999996</ele>
        <time>2013-05-26T07:41:47Z</time>
      </trkpt>
      <trkpt lat="45.859597781673074" lon="9.350113654509187">
        <ele>690.84000000000003</ele>
        <time>2013-05-26T07:42:01Z</time>
      </trkpt>
      <trkpt lat="45.859610103070736" lon="9.350157743319869">
        <ele>692.28999999999996</ele>
        <time>2013-05-26T07:42:07Z</time>
      </trkpt>
      <trkpt lat="45.859557632356882" lon="9.350202670320869">
        <ele>692.28999999999996</ele>
        <time>2013-05-26T07:42:18Z</time>
      </trkpt>
      <trkpt lat="45.859544472768903" lon="9.350208286195993">
        <ele>692.28999999999996</ele>
        <time>2013-05-26T07:42:47Z</time>
      </trkpt>
      <trkpt lat="45.859637344256043" lon="9.350159503519535">
        <ele>692.76999999999998</ele>
        <time>2013-05-26T07:43:01Z</time>
      </trkpt>
      <trkpt lat="45.859678750857711" lon="9.350129328668118">
        <ele>693.73000000000002</ele>
        <time>2013-05-26T07:43:07Z</time>
      </trkpt>
      <trkpt lat="45.859781680628657" lon="9.350134525448084">
        <ele>696.13</ele>
        <time>2013-05-26T07:43:20Z</time>
      </trkpt>
      <trkpt lat="45.859858794137836" lon="9.350206442177296">
        <ele>699.01999999999998</ele>
        <time>2013-05-26T07:43:32Z</time>
      </trkpt>
      <trkpt lat="45.859907241538167" lon="9.350242903456092">
        <ele>699.98000000000002</ele>
        <time>2013-05-26T07:43:39Z</time>
      </trkpt>
      <trkpt lat="45.860023917630315" lon="9.350294535979629">
        <ele>702.86000000000001</ele>
        <time>2013-05-26T07:43:54Z</time>
      </trkpt>
      <trkpt lat="45.86009650491178" lon="9.350351700559259">
        <ele>705.25999999999999</ele>
        <time>2013-05-26T07:44:06Z</time>
      </trkpt>
      <trkpt lat="45.860176971182227" lon="9.350386150181294">
        <ele>707.66999999999996</ele>
        <time>2013-05-26T07:44:18Z</time>
      </trkpt>
      <trkpt lat="45.860270848497748" lon="9.350428394973278">
        <ele>710.07000000000005</ele>
        <time>2013-05-26T07:44:31Z</time>
      </trkpt>
      <trkpt lat="45.860349554568529" lon="9.350472148507834">
        <ele>712.47000000000003</ele>
        <time>2013-05-26T07:44:45Z</time>
      </trkpt>
      <trkpt lat="45.86044343188405" lon="9.350549848750234">
        <ele>714.39999999999998</ele>
        <time>2013-05-26T07:44:59Z</time>
      </trkpt>
      <trkpt lat="45.860546948388219" lon="9.35060927644372">
        <ele>716.32000000000005</ele>
        <time>2013-05-26T07:45:11Z</time>
      </trkpt>
      <trkpt lat="45.860635377466679" lon="9.350666021928191">
        <ele>718.24000000000001</ele>
        <time>2013-05-26T07:45:25Z</time>
      </trkpt>
      <trkpt lat="45.860666139051318" lon="9.350679181516171">
        <ele>718.72000000000003</ele>
        <time>2013-05-26T07:45:36Z</time>
      </trkpt>
      <trkpt lat="45.8607292547822" lon="9.350680354982615">
        <ele>719.67999999999995</ele>
        <time>2013-05-26T07:45:42Z</time>
      </trkpt>
      <trkpt lat="45.860876441001892" lon="9.350693598389626">
        <ele>722.09000000000003</ele>
        <time>2013-05-26T07:45:57Z</time>
      </trkpt>
      <trkpt lat="45.860954476520419" lon="9.350699298083782">
        <ele>723.04999999999995</ele>
        <time>2013-05-26T07:46:05Z</time>
      </trkpt>
      <trkpt lat="45.861036535352468" lon="9.350727712735534">
        <ele>723.52999999999997</ele>
        <time>2013-05-26T07:46:18Z</time>
      </trkpt>
      <trkpt lat="45.861066710203886" lon="9.350739447399974">
        <ele>723.52999999999997</ele>
        <time>2013-05-26T07:46:32Z</time>
      </trkpt>
      <trkpt lat="45.86105715483427" lon="9.350735591724515">
        <ele>723.52999999999997</ele>
        <time>2013-05-26T07:46:48Z</time>
      </trkpt>
      <trkpt lat="45.861092023551464" lon="9.350757719948888">
        <ele>724.00999999999999</ele>
        <time>2013-05-26T07:47:01Z</time>
      </trkpt>
      <trkpt lat="45.861081378534436" lon="9.350786386057735">
        <ele>723.04999999999995</ele>
        <time>2013-05-26T07:47:17Z</time>
      </trkpt>
      <trkpt lat="45.861077522858977" lon="9.350783368572593">
        <ele>723.52999999999997</ele>
        <time>2013-05-26T07:47:51Z</time>
      </trkpt>
      <trkpt lat="45.861088084056973" lon="9.350802060216665">
        <ele>723.52999999999997</ele>
        <time>2013-05-26T07:48:10Z</time>
      </trkpt>
      <trkpt lat="45.861100824549794" lon="9.35075830668211">
        <ele>723.52999999999997</ele>
        <time>2013-05-26T07:48:25Z</time>
      </trkpt>
      <trkpt lat="45.861104428768158" lon="9.350768951699138">
        <ele>723.52999999999997</ele>
        <time>2013-05-26T07:48:44Z</time>
      </trkpt>
      <trkpt lat="45.861105937510729" lon="9.350759899243712">
        <ele>724.00999999999999</ele>
        <time>2013-05-26T07:49:08Z</time>
      </trkpt>
      <trkpt lat="45.861073331907392" lon="9.350776998326182">
        <ele>724.49000000000001</ele>
        <time>2013-05-26T07:49:29Z</time>
      </trkpt>
      <trkpt lat="45.861128652468324" lon="9.350745650008321">
        <ele>724.97000000000003</ele>
        <time>2013-05-26T07:49:55Z</time>
      </trkpt>
      <trkpt lat="45.861122449859977" lon="9.350752020254731">
        <ele>724.97000000000003</ele>
        <time>2013-05-26T07:50:19Z</time>
      </trkpt>
      <trkpt lat="45.861120354384184" lon="9.350744895637035">
        <ele>724.97000000000003</ele>
        <time>2013-05-26T07:50:43Z</time>
      </trkpt>
      <trkpt lat="45.861096130684018" lon="9.350756127387285">
        <ele>724.97000000000003</ele>
        <time>2013-05-26T07:51:10Z</time>
      </trkpt>
      <trkpt lat="45.861104680225253" lon="9.350742045789957">
        <ele>725.45000000000005</ele>
        <time>2013-05-26T07:51:30Z</time>
      </trkpt>
      <trkpt lat="45.861107278615236" lon="9.350737184286118">
        <ele>724.49000000000001</ele>
        <time>2013-05-26T07:51:51Z</time>
      </trkpt>
      <trkpt lat="45.861106859520078" lon="9.350763000547886">
        <ele>724.97000000000003</ele>
        <time>2013-05-26T07:52:16Z</time>
      </trkpt>
      <trkpt lat="45.86114164441824" lon="9.350745566189289">
        <ele>724.49000000000001</ele>
        <time>2013-05-26T07:52:38Z</time>
      </trkpt>
      <trkpt lat="45.861147847026587" lon="9.350756295025349">
        <ele>724.49000000000001</ele>
        <time>2013-05-26T07:52:57Z</time>
      </trkpt>
      <trkpt lat="45.861147679388523" lon="9.350764090195298">
        <ele>724.97000000000003</ele>
        <time>2013-05-26T07:53:12Z</time>
      </trkpt>
      <trkpt lat="45.861148098483682" lon="9.350769706070423">
        <ele>724.97000000000003</ele>
        <time>2013-05-26T07:53:26Z</time>
      </trkpt>
      <trkpt lat="45.86116804741323" lon="9.350737519562244">
        <ele>725.45000000000005</ele>
        <time>2013-05-26T07:53:47Z</time>
      </trkpt>
      <trkpt lat="45.861163437366486" lon="9.35074070468545">
        <ele>725.45000000000005</ele>
        <time>2013-05-26T07:54:05Z</time>
      </trkpt>
      <trkpt lat="45.861164694651961" lon="9.350723102688789">
        <ele>725.45000000000005</ele>
        <time>2013-05-26T07:54:28Z</time>
      </trkpt>
      <trkpt lat="45.861156731843948" lon="9.350733915343881">
        <ele>726.40999999999997</ele>
        <time>2013-05-26T07:54:54Z</time>
      </trkpt>
      <trkpt lat="45.861149188131094" lon="9.3507778365165">
        <ele>726.40999999999997</ele>
        <time>2013-05-26T07:55:16Z</time>
      </trkpt>
      <trkpt lat="45.861134184524417" lon="9.350787727162242">
        <ele>726.88999999999999</ele>
        <time>2013-05-26T07:55:37Z</time>
      </trkpt>
      <trkpt lat="45.861118510365486" lon="9.350788481533527">
        <ele>726.88999999999999</ele>
        <time>2013-05-26T07:55:58Z</time>
      </trkpt>
      <trkpt lat="45.86110845208168" lon="9.350798120722175">
        <ele>727.37</ele>
        <time>2013-05-26T07:56:23Z</time>
      </trkpt>
      <trkpt lat="45.861126724630594" lon="9.350781021639705">
        <ele>727.37</ele>
        <time>2013-05-26T07:56:47Z</time>
      </trkpt>
      <trkpt lat="45.861126724630594" lon="9.350779429078102">
        <ele>727.37</ele>
        <time>2013-05-26T07:56:50Z</time>
      </trkpt>
      <trkpt lat="45.861133933067322" lon="9.350712290033698">
        <ele>728.34000000000003</ele>
        <time>2013-05-26T07:57:01Z</time>
      </trkpt>
      <trkpt lat="45.861098393797874" lon="9.350700220093131">
        <ele>728.34000000000003</ele>
        <time>2013-05-26T07:57:18Z</time>
      </trkpt>
      <trkpt lat="45.861089425161481" lon="9.350762497633696">
        <ele>728.34000000000003</ele>
        <time>2013-05-26T07:57:39Z</time>
      </trkpt>
      <trkpt lat="45.861087497323751" lon="9.350755540654063">
        <ele>728.34000000000003</ele>
        <time>2013-05-26T07:58:01Z</time>
      </trkpt>
      <trkpt lat="45.86110551841557" lon="9.350746823474765">
        <ele>728.34000000000003</ele>
        <time>2013-05-26T07:58:23Z</time>
      </trkpt>
      <trkpt lat="45.861134184524417" lon="9.350674571469426">
        <ele>729.29999999999995</ele>
        <time>2013-05-26T07:58:36Z</time>
      </trkpt>
      <trkpt lat="45.861200736835599" lon="9.350660154595971">
        <ele>730.25999999999999</ele>
        <time>2013-05-26T07:58:49Z</time>
      </trkpt>
      <trkpt lat="45.86127215065062" lon="9.350656718015671">
        <ele>732.65999999999997</ele>
        <time>2013-05-26T07:59:03Z</time>
      </trkpt>
      <trkpt lat="45.861364183947444" lon="9.350692927837372">
        <ele>735.54999999999995</ele>
        <time>2013-05-26T07:59:16Z</time>
      </trkpt>
      <trkpt lat="45.861432747915387" lon="9.35064741410315">
        <ele>738.90999999999997</ele>
        <time>2013-05-26T07:59:30Z</time>
      </trkpt>
      <trkpt lat="45.861503323540092" lon="9.350653449073434">
        <ele>740.83000000000004</ele>
        <time>2013-05-26T07:59:42Z</time>
      </trkpt>
      <trkpt lat="45.861572809517384" lon="9.350601648911834">
        <ele>743.24000000000001</ele>
        <time>2013-05-26T07:59:59Z</time>
      </trkpt>
      <trkpt lat="45.861618993803859" lon="9.350586058571935">
        <ele>746.12</ele>
        <time>2013-05-26T08:00:13Z</time>
      </trkpt>
      <trkpt lat="45.861635003238916" lon="9.350543143227696">
        <ele>747.08000000000004</ele>
        <time>2013-05-26T08:00:19Z</time>
      </trkpt>
      <trkpt lat="45.861640954390168" lon="9.35048321262002">
        <ele>749</ele>
        <time>2013-05-26T08:00:34Z</time>
      </trkpt>
      <trkpt lat="45.861667944118381" lon="9.350406099110842">
        <ele>751.88999999999999</ele>
        <time>2013-05-26T08:00:49Z</time>
      </trkpt>
      <trkpt lat="45.861668614670634" lon="9.350309707224369">
        <ele>754.28999999999996</ele>
        <time>2013-05-26T08:01:06Z</time>
      </trkpt>
      <trkpt lat="45.861685713753104" lon="9.350170651450753">
        <ele>757.17999999999995</ele>
        <time>2013-05-26T08:01:23Z</time>
      </trkpt>
      <trkpt lat="45.861718067899346" lon="9.350099740549922">
        <ele>759.58000000000004</ele>
        <time>2013-05-26T08:01:39Z</time>
      </trkpt>
      <trkpt lat="45.861747907474637" lon="9.350026231259108">
        <ele>762.94000000000005</ele>
        <time>2013-05-26T08:01:54Z</time>
      </trkpt>
      <trkpt lat="45.861753020435572" lon="9.349931264296174">
        <ele>765.83000000000004</ele>
        <time>2013-05-26T08:02:11Z</time>
      </trkpt>
      <trkpt lat="45.861796019598842" lon="9.349852809682488">
        <ele>767.75</ele>
        <time>2013-05-26T08:02:24Z</time>
      </trkpt>
      <trkpt lat="45.861861146986485" lon="9.349780306220055">
        <ele>770.14999999999998</ele>
        <time>2013-05-26T08:02:39Z</time>
      </trkpt>
      <trkpt lat="45.861936081200838" lon="9.349773935973644">
        <ele>772.08000000000004</ele>
        <time>2013-05-26T08:02:52Z</time>
      </trkpt>
      <trkpt lat="45.862021828070283" lon="9.349704282358289">
        <ele>774.96000000000004</ele>
        <time>2013-05-26T08:03:06Z</time>
      </trkpt>
      <trkpt lat="45.86210866458714" lon="9.34967209585011">
        <ele>776.39999999999998</ele>
        <time>2013-05-26T08:03:21Z</time>
      </trkpt>
      <trkpt lat="45.862159794196486" lon="9.349650554358959">
        <ele>777.84000000000003</ele>
        <time>2013-05-26T08:03:28Z</time>
      </trkpt>
      <trkpt lat="45.862250402569771" lon="9.349649213254452">
        <ele>780.25</ele>
        <time>2013-05-26T08:03:43Z</time>
      </trkpt>
      <trkpt lat="45.862336652353406" lon="9.349671760573983">
        <ele>782.16999999999996</ele>
        <time>2013-05-26T08:03:59Z</time>
      </trkpt>
      <trkpt lat="45.862409742549062" lon="9.349662875756621">
        <ele>784.57000000000005</ele>
        <time>2013-05-26T08:04:14Z</time>
      </trkpt>
      <trkpt lat="45.862474869936705" lon="9.349630856886506">
        <ele>786.01999999999998</ele>
        <time>2013-05-26T08:04:29Z</time>
      </trkpt>
      <trkpt lat="45.862504122778773" lon="9.349592048674822">
        <ele>786.98000000000002</ele>
        <time>2013-05-26T08:04:43Z</time>
      </trkpt>
      <trkpt lat="45.862568244338036" lon="9.34955483302474">
        <ele>789.86000000000001</ele>
        <time>2013-05-26T08:04:56Z</time>
      </trkpt>
      <trkpt lat="45.862647201865911" lon="9.349588192999363">
        <ele>791.77999999999997</ele>
        <time>2013-05-26T08:05:10Z</time>
      </trkpt>
      <trkpt lat="45.862738313153386" lon="9.34963203035295">
        <ele>793.22000000000003</ele>
        <time>2013-05-26T08:05:27Z</time>
      </trkpt>
      <trkpt lat="45.862820371985435" lon="9.349659271538258">
        <ele>794.66999999999996</ele>
        <time>2013-05-26T08:05:40Z</time>
      </trkpt>
      <trkpt lat="45.862867645919323" lon="9.349688943475485">
        <ele>795.63</ele>
        <time>2013-05-26T08:05:53Z</time>
      </trkpt>
      <trkpt lat="45.862867562100291" lon="9.349700594320893">
        <ele>796.11000000000001</ele>
        <time>2013-05-26T08:06:09Z</time>
      </trkpt>
      <trkpt lat="45.862883236259222" lon="9.349710987880826">
        <ele>796.11000000000001</ele>
        <time>2013-05-26T08:06:26Z</time>
      </trkpt>
      <trkpt lat="45.86292615160346" lon="9.349702019244432">
        <ele>797.54999999999995</ele>
        <time>2013-05-26T08:06:39Z</time>
      </trkpt>
      <trkpt lat="45.862981891259551" lon="9.349701348692179">
        <ele>798.99000000000001</ele>
        <time>2013-05-26T08:06:52Z</time>
      </trkpt>
      <trkpt lat="45.863054562360048" lon="9.349669916555286">
        <ele>800.44000000000005</ele>
        <time>2013-05-26T08:07:04Z</time>
      </trkpt>
      <trkpt lat="45.86312991566956" lon="9.349615266546607">
        <ele>801.39999999999998</ele>
        <time>2013-05-26T08:07:16Z</time>
      </trkpt>
      <trkpt lat="45.863253213465214" lon="9.349624989554286">
        <ele>802.84000000000003</ele>
        <time>2013-05-26T08:07:32Z</time>
      </trkpt>
      <trkpt lat="45.863334685564041" lon="9.349644016474485">
        <ele>803.79999999999995</ele>
        <time>2013-05-26T08:07:46Z</time>
      </trkpt>
      <trkpt lat="45.863359412178397" lon="9.349647955968976">
        <ele>804.75999999999999</ele>
        <time>2013-05-26T08:08:05Z</time>
      </trkpt>
      <trkpt lat="45.863376930356026" lon="9.349657092243433">
        <ele>804.75999999999999</ele>
        <time>2013-05-26T08:08:18Z</time>
      </trkpt>
      <trkpt lat="45.863409619778395" lon="9.349671006202698">
        <ele>807.15999999999997</ele>
        <time>2013-05-26T08:08:31Z</time>
      </trkpt>
      <trkpt lat="45.863464437425137" lon="9.3497399892658">
        <ele>810.04999999999995</ele>
        <time>2013-05-26T08:08:43Z</time>
      </trkpt>
      <trkpt lat="45.863506682217121" lon="9.349797153845429">
        <ele>811.97000000000003</ele>
        <time>2013-05-26T08:08:55Z</time>
      </trkpt>
      <trkpt lat="45.863494025543332" lon="9.349898155778647">
        <ele>813.40999999999997</ele>
        <time>2013-05-26T08:09:09Z</time>
      </trkpt>
      <trkpt lat="45.863523194566369" lon="9.349947776645422">
        <ele>816.29999999999995</ele>
        <time>2013-05-26T08:09:23Z</time>
      </trkpt>
      <trkpt lat="45.863529732450843" lon="9.349938472732902">
        <ele>817.74000000000001</ele>
        <time>2013-05-26T08:09:37Z</time>
      </trkpt>
      <trkpt lat="45.863574324175715" lon="9.34997946023941">
        <ele>820.13999999999999</ele>
        <time>2013-05-26T08:09:47Z</time>
      </trkpt>
      <trkpt lat="45.863593351095915" lon="9.350033523514867">
        <ele>822.05999999999995</ele>
        <time>2013-05-26T08:09:58Z</time>
      </trkpt>
      <trkpt lat="45.86363316513598" lon="9.350062608718872">
        <ele>823.50999999999999</ele>
        <time>2013-05-26T08:10:11Z</time>
      </trkpt>
      <trkpt lat="45.863647665828466" lon="9.350094376131892">
        <ele>823.99000000000001</ele>
        <time>2013-05-26T08:10:30Z</time>
      </trkpt>
      <trkpt lat="45.863668452948332" lon="9.350094627588987">
        <ele>825.90999999999997</ele>
        <time>2013-05-26T08:10:42Z</time>
      </trkpt>
      <trkpt lat="45.863689575344324" lon="9.350117342546582">
        <ele>827.83000000000004</ele>
        <time>2013-05-26T08:10:49Z</time>
      </trkpt>
      <trkpt lat="45.863716648891568" lon="9.350148774683476">
        <ele>830.24000000000001</ele>
        <time>2013-05-26T08:11:02Z</time>
      </trkpt>
      <trkpt lat="45.863710446283221" lon="9.350150115787983">
        <ele>829.75999999999999</ele>
        <time>2013-05-26T08:11:18Z</time>
      </trkpt>
      <trkpt lat="45.863715391606092" lon="9.350157910957933">
        <ele>829.75999999999999</ele>
        <time>2013-05-26T08:11:41Z</time>
      </trkpt>
      <trkpt lat="45.863722935318947" lon="9.350152714177966">
        <ele>829.75999999999999</ele>
        <time>2013-05-26T08:11:58Z</time>
      </trkpt>
      <trkpt lat="45.863722683861852" lon="9.350135447457433">
        <ele>829.26999999999998</ele>
        <time>2013-05-26T08:12:12Z</time>
      </trkpt>
      <trkpt lat="45.863747494295239" lon="9.350160174071789">
        <ele>829.26999999999998</ele>
        <time>2013-05-26T08:12:25Z</time>
      </trkpt>
      <trkpt lat="45.863778674975038" lon="9.350136118009687">
        <ele>831.20000000000005</ele>
        <time>2013-05-26T08:12:42Z</time>
      </trkpt>
      <trkpt lat="45.863757049664855" lon="9.35010451823473">
        <ele>832.63999999999999</ele>
        <time>2013-05-26T08:12:54Z</time>
      </trkpt>
      <trkpt lat="45.863779094070196" lon="9.350051125511527">
        <ele>835.51999999999998</ele>
        <time>2013-05-26T08:13:15Z</time>
      </trkpt>
      <trkpt lat="45.863810023292899" lon="9.350048191845417">
        <ele>837.45000000000005</ele>
        <time>2013-05-26T08:13:25Z</time>
      </trkpt>
      <trkpt lat="45.863820584490895" lon="9.350013239309192">
        <ele>839.37</ele>
        <time>2013-05-26T08:13:36Z</time>
      </trkpt>
      <trkpt lat="45.863859979435802" lon="9.350017178803682">
        <ele>841.28999999999996</ele>
        <time>2013-05-26T08:13:50Z</time>
      </trkpt>
      <trkpt lat="45.863851932808757" lon="9.349980214610696">
        <ele>843.69000000000005</ele>
        <time>2013-05-26T08:14:01Z</time>
      </trkpt>
      <trkpt lat="45.863819997757673" lon="9.349942244589329">
        <ele>845.62</ele>
        <time>2013-05-26T08:14:13Z</time>
      </trkpt>
      <trkpt lat="45.863847490400076" lon="9.349922966212034">
        <ele>846.58000000000004</ele>
        <time>2013-05-26T08:14:27Z</time>
      </trkpt>
      <trkpt lat="45.863842628896236" lon="9.349882230162621">
        <ele>848.5</ele>
        <time>2013-05-26T08:14:39Z</time>
      </trkpt>
      <trkpt lat="45.86387456394732" lon="9.349866136908531">
        <ele>850.41999999999996</ele>
        <time>2013-05-26T08:14:53Z</time>
      </trkpt>
      <trkpt lat="45.863910187035799" lon="9.349877620115876">
        <ele>852.83000000000004</ele>
        <time>2013-05-26T08:15:07Z</time>
      </trkpt>
      <trkpt lat="45.863902643322945" lon="9.349842332303524">
        <ele>854.75</ele>
        <time>2013-05-26T08:15:19Z</time>
      </trkpt>
      <trkpt lat="45.863891998305917" lon="9.349803607910872">
        <ele>856.19000000000005</ele>
        <time>2013-05-26T08:15:32Z</time>
      </trkpt>
      <trkpt lat="45.863904152065516" lon="9.349754238501191">
        <ele>858.11000000000001</ele>
        <time>2013-05-26T08:15:45Z</time>
      </trkpt>
      <trkpt lat="45.863927872851491" lon="9.349735463038087">
        <ele>859.08000000000004</ele>
        <time>2013-05-26T08:15:58Z</time>
      </trkpt>
      <trkpt lat="45.863947654142976" lon="9.34976446442306">
        <ele>860.03999999999996</ele>
        <time>2013-05-26T08:16:05Z</time>
      </trkpt>
      <trkpt lat="45.863962825387716" lon="9.349712999537587">
        <ele>861.48000000000002</ele>
        <time>2013-05-26T08:16:23Z</time>
      </trkpt>
      <trkpt lat="45.863972129300237" lon="9.349717274308205">
        <ele>863.88</ele>
        <time>2013-05-26T08:16:39Z</time>
      </trkpt>
      <trkpt lat="45.864004986360669" lon="9.349744599312544">
        <ele>865.32000000000005</ele>
        <time>2013-05-26T08:16:49Z</time>
      </trkpt>
      <trkpt lat="45.864014960825443" lon="9.349743509665132">
        <ele>866.76999999999998</ele>
        <time>2013-05-26T08:17:01Z</time>
      </trkpt>
      <trkpt lat="45.864052176475525" lon="9.349761446937919">
        <ele>869.16999999999996</ele>
        <time>2013-05-26T08:17:14Z</time>
      </trkpt>
      <trkpt lat="45.864047901704907" lon="9.349775612354279">
        <ele>871.09000000000003</ele>
        <time>2013-05-26T08:17:27Z</time>
      </trkpt>
      <trkpt lat="45.864055613055825" lon="9.349783239886165">
        <ele>871.57000000000005</ele>
        <time>2013-05-26T08:17:44Z</time>
      </trkpt>
      <trkpt lat="45.864063324406743" lon="9.349774187430739">
        <ele>871.57000000000005</ele>
        <time>2013-05-26T08:18:13Z</time>
      </trkpt>
      <trkpt lat="45.864052679389715" lon="9.349771589040756">
        <ele>871.09000000000003</ele>
        <time>2013-05-26T08:18:37Z</time>
      </trkpt>
      <trkpt lat="45.864065000787377" lon="9.349750047549605">
        <ele>872.52999999999997</ele>
        <time>2013-05-26T08:18:57Z</time>
      </trkpt>
      <trkpt lat="45.864081345498562" lon="9.349693972617388">
        <ele>874.46000000000004</ele>
        <time>2013-05-26T08:19:12Z</time>
      </trkpt>
      <trkpt lat="45.864112609997392" lon="9.349685842171311">
        <ele>876.86000000000001</ele>
        <time>2013-05-26T08:19:25Z</time>
      </trkpt>
      <trkpt lat="45.864115627482533" lon="9.349675113335252">
        <ele>877.82000000000005</ele>
        <time>2013-05-26T08:19:38Z</time>
      </trkpt>
      <trkpt lat="45.8641208242625" lon="9.349660780280829">
        <ele>879.25999999999999</ele>
        <time>2013-05-26T08:19:51Z</time>
      </trkpt>
      <trkpt lat="45.864130211994052" lon="9.349627587944269">
        <ele>881.19000000000005</ele>
        <time>2013-05-26T08:20:05Z</time>
      </trkpt>
      <trkpt lat="45.864141192287207" lon="9.349600430577993">
        <ele>883.59000000000003</ele>
        <time>2013-05-26T08:20:18Z</time>
      </trkpt>
      <trkpt lat="45.864138761535287" lon="9.349600095301867">
        <ele>883.59000000000003</ele>
        <time>2013-05-26T08:20:19Z</time>
      </trkpt>
      <trkpt lat="45.864134822040796" lon="9.349545445293188">
        <ele>885.99000000000001</ele>
        <time>2013-05-26T08:20:32Z</time>
      </trkpt>
      <trkpt lat="45.86412132717669" lon="9.349515102803707">
        <ele>887.42999999999995</ele>
        <time>2013-05-26T08:20:47Z</time>
      </trkpt>
      <trkpt lat="45.864132139831781" lon="9.349480401724577">
        <ele>887.90999999999997</ele>
        <time>2013-05-26T08:21:08Z</time>
      </trkpt>
      <trkpt lat="45.864168349653482" lon="9.349472271278501">
        <ele>890.32000000000005</ele>
        <time>2013-05-26T08:21:20Z</time>
      </trkpt>
      <trkpt lat="45.864175390452147" lon="9.34945710003376">
        <ele>891.27999999999997</ele>
        <time>2013-05-26T08:21:40Z</time>
      </trkpt>
      <trkpt lat="45.864194165915251" lon="9.349495824426413">
        <ele>893.20000000000005</ele>
        <time>2013-05-26T08:21:54Z</time>
      </trkpt>
      <trkpt lat="45.864241439849138" lon="9.349507056176662">
        <ele>896.09000000000003</ele>
        <time>2013-05-26T08:22:07Z</time>
      </trkpt>
      <trkpt lat="45.864253174513578" lon="9.349518036469817">
        <ele>897.52999999999997</ele>
        <time>2013-05-26T08:22:23Z</time>
      </trkpt>
      <trkpt lat="45.86427865549922" lon="9.349472858011723">
        <ele>899.45000000000005</ele>
        <time>2013-05-26T08:22:36Z</time>
      </trkpt>
      <trkpt lat="45.864303885027766" lon="9.349471433088183">
        <ele>902.33000000000004</ele>
        <time>2013-05-26T08:22:50Z</time>
      </trkpt>
      <trkpt lat="45.864320816472173" lon="9.349427595734596">
        <ele>903.77999999999997</ele>
        <time>2013-05-26T08:23:06Z</time>
      </trkpt>
      <trkpt lat="45.864355098456144" lon="9.349502697587013">
        <ele>906.17999999999995</ele>
        <time>2013-05-26T08:23:20Z</time>
      </trkpt>
      <trkpt lat="45.864391643553972" lon="9.349509738385677">
        <ele>907.62</ele>
        <time>2013-05-26T08:23:34Z</time>
      </trkpt>
      <trkpt lat="45.864400528371334" lon="9.349533710628748">
        <ele>909.53999999999996</ele>
        <time>2013-05-26T08:23:48Z</time>
      </trkpt>
      <trkpt lat="45.864401953294873" lon="9.349586432799697">
        <ele>910.02999999999997</ele>
        <time>2013-05-26T08:24:07Z</time>
      </trkpt>
      <trkpt lat="45.864376639947295" lon="9.349622391164303">
        <ele>909.53999999999996</ele>
        <time>2013-05-26T08:24:19Z</time>
      </trkpt>
      <trkpt lat="45.864379992708564" lon="9.349624738097191">
        <ele>910.50999999999999</ele>
        <time>2013-05-26T08:24:47Z</time>
      </trkpt>
      <trkpt lat="45.864388374611735" lon="9.349652398377657">
        <ele>910.50999999999999</ele>
        <time>2013-05-26T08:25:02Z</time>
      </trkpt>
      <trkpt lat="45.864368258044124" lon="9.349639238789678">
        <ele>910.02999999999997</ele>
        <time>2013-05-26T08:25:21Z</time>
      </trkpt>
      <trkpt lat="45.864374293014407" lon="9.349647536873817">
        <ele>910.99000000000001</ele>
        <time>2013-05-26T08:25:44Z</time>
      </trkpt>
      <trkpt lat="45.864372029900551" lon="9.349640663713217">
        <ele>910.99000000000001</ele>
        <time>2013-05-26T08:26:03Z</time>
      </trkpt>
      <trkpt lat="45.864383513107896" lon="9.349638316780329">
        <ele>910.99000000000001</ele>
        <time>2013-05-26T08:26:21Z</time>
      </trkpt>
      <trkpt lat="45.86437052115798" lon="9.349625073373318">
        <ele>910.50999999999999</ele>
        <time>2013-05-26T08:26:40Z</time>
      </trkpt>
      <trkpt lat="45.864351829513907" lon="9.349575871601701">
        <ele>910.99000000000001</ele>
        <time>2013-05-26T08:27:02Z</time>
      </trkpt>
      <trkpt lat="45.864351494237781" lon="9.349564136937261">
        <ele>910.50999999999999</ele>
        <time>2013-05-26T08:27:26Z</time>
      </trkpt>
      <trkpt lat="45.864373119547963" lon="9.349510660395026">
        <ele>909.53999999999996</ele>
        <time>2013-05-26T08:27:39Z</time>
      </trkpt>
      <trkpt lat="45.864389631897211" lon="9.34945902787149">
        <ele>909.53999999999996</ele>
        <time>2013-05-26T08:27:48Z</time>
      </trkpt>
      <trkpt lat="45.864414190873504" lon="9.349469589069486">
        <ele>910.02999999999997</ele>
        <time>2013-05-26T08:28:03Z</time>
      </trkpt>
      <trkpt lat="45.864437744021416" lon="9.349502613767982">
        <ele>911.47000000000003</ele>
        <time>2013-05-26T08:28:14Z</time>
      </trkpt>
      <trkpt lat="45.864443695172668" lon="9.349504457786679">
        <ele>911.95000000000005</ele>
        <time>2013-05-26T08:28:36Z</time>
      </trkpt>
      <trkpt lat="45.864451322704554" lon="9.349524741992354">
        <ele>911.95000000000005</ele>
        <time>2013-05-26T08:29:05Z</time>
      </trkpt>
      <trkpt lat="45.864442270249128" lon="9.349538823589683">
        <ele>911.95000000000005</ele>
        <time>2013-05-26T08:29:30Z</time>
      </trkpt>
      <trkpt lat="45.864450400695205" lon="9.349531447514892">
        <ele>910.99000000000001</ele>
        <time>2013-05-26T08:29:56Z</time>
      </trkpt>
      <trkpt lat="45.864424332976341" lon="9.349579392001033">
        <ele>910.50999999999999</ele>
        <time>2013-05-26T08:30:13Z</time>
      </trkpt>
      <trkpt lat="45.864419052377343" lon="9.349567405879498">
        <ele>910.99000000000001</ele>
        <time>2013-05-26T08:30:27Z</time>
      </trkpt>
      <trkpt lat="45.864432714879513" lon="9.349569166079164">
        <ele>910.99000000000001</ele>
        <time>2013-05-26T08:30:42Z</time>
      </trkpt>
      <trkpt lat="45.864436738193035" lon="9.349490962922573">
        <ele>910.50999999999999</ele>
        <time>2013-05-26T08:30:57Z</time>
      </trkpt>
      <trkpt lat="45.864463644102216" lon="9.349429691210389">
        <ele>913.38999999999999</ele>
        <time>2013-05-26T08:31:10Z</time>
      </trkpt>
      <trkpt lat="45.864471858367324" lon="9.349365485832095">
        <ele>916.75</ele>
        <time>2013-05-26T08:31:23Z</time>
      </trkpt>
      <trkpt lat="45.864501362666488" lon="9.349332880228758">
        <ele>918.20000000000005</ele>
        <time>2013-05-26T08:31:34Z</time>
      </trkpt>
      <trkpt lat="45.864531369879842" lon="9.349391888827086">
        <ele>920.12</ele>
        <time>2013-05-26T08:31:47Z</time>
      </trkpt>
      <trkpt lat="45.864539500325918" lon="9.349402114748955">
        <ele>921.55999999999995</ele>
        <time>2013-05-26T08:32:04Z</time>
      </trkpt>
      <trkpt lat="45.864575542509556" lon="9.349428350105882">
        <ele>924.45000000000005</ele>
        <time>2013-05-26T08:32:17Z</time>
      </trkpt>
      <trkpt lat="45.864623403176665" lon="9.349426003172994">
        <ele>927.33000000000004</ele>
        <time>2013-05-26T08:32:31Z</time>
      </trkpt>
      <trkpt lat="45.864625498652458" lon="9.349382417276502">
        <ele>929.25</ele>
        <time>2013-05-26T08:32:44Z</time>
      </trkpt>
      <trkpt lat="45.864670006558299" lon="9.349380740895867">
        <ele>930.69000000000005</ele>
        <time>2013-05-26T08:32:56Z</time>
      </trkpt>
      <trkpt lat="45.864673024043441" lon="9.34932416304946">
        <ele>933.10000000000002</ele>
        <time>2013-05-26T08:33:12Z</time>
      </trkpt>
      <trkpt lat="45.864708814769983" lon="9.349322067573667">
        <ele>935.98000000000002</ele>
        <time>2013-05-26T08:33:25Z</time>
      </trkpt>
      <trkpt lat="45.864693559706211" lon="9.349268088117242">
        <ele>937.89999999999998</ele>
        <time>2013-05-26T08:33:39Z</time>
      </trkpt>
      <trkpt lat="45.864709233865142" lon="9.349212013185024">
        <ele>939.83000000000004</ele>
        <time>2013-05-26T08:33:53Z</time>
      </trkpt>
      <trkpt lat="45.864749634638429" lon="9.349220143631101">
        <ele>941.75</ele>
        <time>2013-05-26T08:34:07Z</time>
      </trkpt>
      <trkpt lat="45.864784335717559" lon="9.349219808354974">
        <ele>942.71000000000004</ele>
        <time>2013-05-26T08:34:19Z</time>
      </trkpt>
      <trkpt lat="45.864800261333585" lon="9.349197596311569">
        <ele>944.63</ele>
        <time>2013-05-26T08:34:33Z</time>
      </trkpt>
      <trkpt lat="45.864829933270812" lon="9.349167002364993">
        <ele>947.03999999999996</ele>
        <time>2013-05-26T08:34:47Z</time>
      </trkpt>
      <trkpt lat="45.864870166406035" lon="9.349200781434774">
        <ele>948.48000000000002</ele>
        <time>2013-05-26T08:34:58Z</time>
      </trkpt>
      <trkpt lat="45.864896234124899" lon="9.34920446947217">
        <ele>950.39999999999998</ele>
        <time>2013-05-26T08:35:12Z</time>
      </trkpt>
      <trkpt lat="45.864913165569305" lon="9.349204553291202">
        <ele>952.32000000000005</ele>
        <time>2013-05-26T08:35:26Z</time>
      </trkpt>
      <trkpt lat="45.864957254379988" lon="9.349201116710901">
        <ele>955.21000000000004</ele>
        <time>2013-05-26T08:35:39Z</time>
      </trkpt>
      <trkpt lat="45.864977203309536" lon="9.349190723150969">
        <ele>956.64999999999998</ele>
        <time>2013-05-26T08:35:56Z</time>
      </trkpt>
      <trkpt lat="45.864960690960288" lon="9.349154597148299">
        <ele>958.09000000000003</ele>
        <time>2013-05-26T08:36:09Z</time>
      </trkpt>
      <trkpt lat="45.864962115883827" lon="9.349126266315579">
        <ele>959.04999999999995</ele>
        <time>2013-05-26T08:36:24Z</time>
      </trkpt>
      <trkpt lat="45.864957505837083" lon="9.349068766459823">
        <ele>961.94000000000005</ele>
        <time>2013-05-26T08:36:35Z</time>
      </trkpt>
      <trkpt lat="45.864959266036749" lon="9.348978158086538">
        <ele>963.38</ele>
        <time>2013-05-26T08:36:50Z</time>
      </trkpt>
      <trkpt lat="45.864979214966297" lon="9.348943792283535">
        <ele>964.82000000000005</ele>
        <time>2013-05-26T08:37:07Z</time>
      </trkpt>
      <trkpt lat="45.86498617194593" lon="9.348864583298564">
        <ele>967.22000000000003</ele>
        <time>2013-05-26T08:37:20Z</time>
      </trkpt>
      <trkpt lat="45.864974269643426" lon="9.348781099542975">
        <ele>968.66999999999996</ele>
        <time>2013-05-26T08:37:36Z</time>
      </trkpt>
      <trkpt lat="45.864982986822724" lon="9.34874514117837">
        <ele>970.59000000000003</ele>
        <time>2013-05-26T08:37:49Z</time>
      </trkpt>
      <trkpt lat="45.865003103390336" lon="9.34871731325984">
        <ele>971.54999999999995</ele>
        <time>2013-05-26T08:38:02Z</time>
      </trkpt>
      <trkpt lat="45.864993967115879" lon="9.348708931356669">
        <ele>972.02999999999997</ele>
        <time>2013-05-26T08:38:17Z</time>
      </trkpt>
      <trkpt lat="45.865006288513541" lon="9.34871144592762">
        <ele>972.99000000000001</ele>
        <time>2013-05-26T08:38:37Z</time>
      </trkpt>
      <trkpt lat="45.865031434223056" lon="9.348645396530628">
        <ele>974.90999999999997</ele>
        <time>2013-05-26T08:38:49Z</time>
      </trkpt>
      <trkpt lat="45.865046354010701" lon="9.34861958026886">
        <ele>974.90999999999997</ele>
        <time>2013-05-26T08:39:01Z</time>
      </trkpt>
      <trkpt lat="45.865064123645425" lon="9.348580269142985">
        <ele>976.36000000000001</ele>
        <time>2013-05-26T08:39:17Z</time>
      </trkpt>
      <trkpt lat="45.865071834996343" lon="9.348548920825124">
        <ele>977.32000000000005</ele>
        <time>2013-05-26T08:39:34Z</time>
      </trkpt>
      <trkpt lat="45.865077618509531" lon="9.34852235019207">
        <ele>978.27999999999997</ele>
        <time>2013-05-26T08:39:46Z</time>
      </trkpt>
      <trkpt lat="45.865105697885156" lon="9.348491840064526">
        <ele>981.15999999999997</ele>
        <time>2013-05-26T08:40:00Z</time>
      </trkpt>
      <trkpt lat="45.865148948505521" lon="9.348452780395746">
        <ele>983.57000000000005</ele>
        <time>2013-05-26T08:40:14Z</time>
      </trkpt>
      <trkpt lat="45.865160766988993" lon="9.348419923335314">
        <ele>985.97000000000003</ele>
        <time>2013-05-26T08:40:28Z</time>
      </trkpt>
      <trkpt lat="45.865180380642414" lon="9.348444398492575">
        <ele>987.88999999999999</ele>
        <time>2013-05-26T08:40:38Z</time>
      </trkpt>
      <trkpt lat="45.865186415612698" lon="9.348421432077885">
        <ele>988.37</ele>
        <time>2013-05-26T08:40:52Z</time>
      </trkpt>
      <trkpt lat="45.865175435319543" lon="9.348405925557017">
        <ele>989.33000000000004</ele>
        <time>2013-05-26T08:41:05Z</time>
      </trkpt>
      <trkpt lat="45.86519630625844" lon="9.348366446793079">
        <ele>990.77999999999997</ele>
        <time>2013-05-26T08:41:17Z</time>
      </trkpt>
      <trkpt lat="45.865190355107188" lon="9.348304085433483">
        <ele>993.17999999999995</ele>
        <time>2013-05-26T08:41:31Z</time>
      </trkpt>
      <trkpt lat="45.865211226046085" lon="9.348328476771712">
        <ele>993.65999999999997</ele>
        <time>2013-05-26T08:41:48Z</time>
      </trkpt>
      <trkpt lat="45.865232599899173" lon="9.348311712965369">
        <ele>995.58000000000004</ele>
        <time>2013-05-26T08:42:02Z</time>
      </trkpt>
      <trkpt lat="45.865242490544915" lon="9.348285309970379">
        <ele>998.47000000000003</ele>
        <time>2013-05-26T08:42:17Z</time>
      </trkpt>
      <trkpt lat="45.865258919075131" lon="9.348211297765374">
        <ele>1001.35</ele>
        <time>2013-05-26T08:42:32Z</time>
      </trkpt>
      <trkpt lat="45.865225559100509" lon="9.348190845921636">
        <ele>1002.3099999999999</ele>
        <time>2013-05-26T08:42:48Z</time>
      </trkpt>
      <trkpt lat="45.865230085328221" lon="9.348145499825478">
        <ele>1003.75</ele>
        <time>2013-05-26T08:43:04Z</time>
      </trkpt>
      <trkpt lat="45.86526763625443" lon="9.348119348287582">
        <ele>1005.6799999999999</ele>
        <time>2013-05-26T08:43:18Z</time>
      </trkpt>
      <trkpt lat="45.865236790850759" lon="9.348066207021475">
        <ele>1008.08</ele>
        <time>2013-05-26T08:43:32Z</time>
      </trkpt>
      <trkpt lat="45.865262858569622" lon="9.348047012463212">
        <ele>1010.48</ele>
        <time>2013-05-26T08:43:47Z</time>
      </trkpt>
      <trkpt lat="45.865230252966285" lon="9.348017340525985">
        <ele>1012.41</ele>
        <time>2013-05-26T08:44:11Z</time>
      </trkpt>
      <trkpt lat="45.865221535786986" lon="9.347957409918308">
        <ele>1014.33</ele>
        <time>2013-05-26T08:44:23Z</time>
      </trkpt>
      <trkpt lat="45.865208962932229" lon="9.347963696345687">
        <ele>1013.85</ele>
        <time>2013-05-26T08:44:27Z</time>
      </trkpt>
      <trkpt lat="45.865136459469795" lon="9.347954643890262">
        <ele>1011.4400000000001</ele>
        <time>2013-05-26T08:44:37Z</time>
      </trkpt>
      <trkpt lat="45.865125479176641" lon="9.347952883690596">
        <ele>1011.4400000000001</ele>
        <time>2013-05-26T08:44:40Z</time>
      </trkpt>
      <trkpt lat="45.865073511376977" lon="9.347923379391432">
        <ele>1010.48</ele>
        <time>2013-05-26T08:44:52Z</time>
      </trkpt>
      <trkpt lat="45.865079630166292" lon="9.347950201481581">
        <ele>1010.96</ele>
        <time>2013-05-26T08:45:07Z</time>
      </trkpt>
      <trkpt lat="45.865097735077143" lon="9.34794332832098">
        <ele>1011.4400000000001</ele>
        <time>2013-05-26T08:45:10Z</time>
      </trkpt>
      <trkpt lat="45.865143081173301" lon="9.347927235066891">
        <ele>1011.4400000000001</ele>
        <time>2013-05-26T08:45:23Z</time>
      </trkpt>
      <trkpt lat="45.8651811350137" lon="9.347948525100946">
        <ele>1013.37</ele>
        <time>2013-05-26T08:45:40Z</time>
      </trkpt>
      <trkpt lat="45.86514987051487" lon="9.347932850942016">
        <ele>1013.37</ele>
        <time>2013-05-26T08:46:03Z</time>
      </trkpt>
      <trkpt lat="45.865160347893834" lon="9.347976688295603">
        <ele>1012.89</ele>
        <time>2013-05-26T08:46:23Z</time>
      </trkpt>
      <trkpt lat="45.865168310701847" lon="9.34795456007123">
        <ele>1012.89</ele>
        <time>2013-05-26T08:46:37Z</time>
      </trkpt>
      <trkpt lat="45.865185242146254" lon="9.347956487908959">
        <ele>1012.89</ele>
        <time>2013-05-26T08:47:05Z</time>
      </trkpt>
      <trkpt lat="45.865159342065454" lon="9.347937377169728">
        <ele>1013.37</ele>
        <time>2013-05-26T08:47:23Z</time>
      </trkpt>
      <trkpt lat="45.865156324580312" lon="9.347931006923318">
        <ele>1012.89</ele>
        <time>2013-05-26T08:47:41Z</time>
      </trkpt>
      <trkpt lat="45.865150038152933" lon="9.347908543422818">
        <ele>1012.89</ele>
        <time>2013-05-26T08:48:01Z</time>
      </trkpt>
      <trkpt lat="45.86514450609684" lon="9.347890103235841">
        <ele>1012.41</ele>
        <time>2013-05-26T08:48:19Z</time>
      </trkpt>
      <trkpt lat="45.865128412842751" lon="9.34790275990963">
        <ele>1012.41</ele>
        <time>2013-05-26T08:48:35Z</time>
      </trkpt>
      <trkpt lat="45.865131346508861" lon="9.34789496473968">
        <ele>1012.41</ele>
        <time>2013-05-26T08:48:57Z</time>
      </trkpt>
      <trkpt lat="45.865139728412032" lon="9.347926899790764">
        <ele>1012.41</ele>
        <time>2013-05-26T08:49:17Z</time>
      </trkpt>
      <trkpt lat="45.865165293216705" lon="9.347941484302282">
        <ele>1012.89</ele>
        <time>2013-05-26T08:49:40Z</time>
      </trkpt>
      <trkpt lat="45.865187840536237" lon="9.347932850942016">
        <ele>1012.89</ele>
        <time>2013-05-26T08:50:06Z</time>
      </trkpt>
      <trkpt lat="45.865215919911861" lon="9.347911644726992">
        <ele>1012.89</ele>
        <time>2013-05-26T08:50:18Z</time>
      </trkpt>
      <trkpt lat="45.865266546607018" lon="9.347968809306622">
        <ele>1011.4400000000001</ele>
        <time>2013-05-26T08:50:33Z</time>
      </trkpt>
      <trkpt lat="45.865343073382974" lon="9.34799269773066">
        <ele>1013.37</ele>
        <time>2013-05-26T08:50:49Z</time>
      </trkpt>
      <trkpt lat="45.865411553531885" lon="9.348021950572729">
        <ele>1015.29</ele>
        <time>2013-05-26T08:51:01Z</time>
      </trkpt>
      <trkpt lat="45.865433849394321" lon="9.348048688843846">
        <ele>1016.73</ele>
        <time>2013-05-26T08:51:17Z</time>
      </trkpt>
      <trkpt lat="45.865434939041734" lon="9.348092442378402">
        <ele>1017.6900000000001</ele>
        <time>2013-05-26T08:51:32Z</time>
      </trkpt>
      <trkpt lat="45.865447847172618" lon="9.348098561167717">
        <ele>1019.13</ele>
        <time>2013-05-26T08:51:46Z</time>
      </trkpt>
      <trkpt lat="45.865501239895821" lon="9.348080037161708">
        <ele>1022.5</ele>
        <time>2013-05-26T08:52:01Z</time>
      </trkpt>
      <trkpt lat="45.86554080247879" lon="9.348103674128652">
        <ele>1023.9400000000001</ele>
        <time>2013-05-26T08:52:14Z</time>
      </trkpt>
      <trkpt lat="45.865547591820359" lon="9.348125718533993">
        <ele>1025.8599999999999</ele>
        <time>2013-05-26T08:52:28Z</time>
      </trkpt>
      <trkpt lat="45.865574916824698" lon="9.348126975819469">
        <ele>1027.79</ele>
        <time>2013-05-26T08:52:39Z</time>
      </trkpt>
      <trkpt lat="45.865596206858754" lon="9.348217416554689">
        <ele>1030.6700000000001</ele>
        <time>2013-05-26T08:52:51Z</time>
      </trkpt>
      <trkpt lat="45.865632751956582" lon="9.348227558657527">
        <ele>1031.6300000000001</ele>
        <time>2013-05-26T08:53:03Z</time>
      </trkpt>
      <trkpt lat="45.865658149123192" lon="9.348258906975389">
        <ele>1033.0699999999999</ele>
        <time>2013-05-26T08:53:17Z</time>
      </trkpt>
      <trkpt lat="45.865661334246397" lon="9.348298804834485">
        <ele>1033.55</ele>
        <time>2013-05-26T08:53:29Z</time>
      </trkpt>
      <trkpt lat="45.865688323974609" lon="9.348355131223798">
        <ele>1036.4400000000001</ele>
        <time>2013-05-26T08:53:45Z</time>
      </trkpt>
      <trkpt lat="45.865701902657747" lon="9.348448002710939">
        <ele>1037.8800000000001</ele>
        <time>2013-05-26T08:54:00Z</time>
      </trkpt>
      <trkpt lat="45.865716403350234" lon="9.3485018145293">
        <ele>1039.3199999999999</ele>
        <time>2013-05-26T08:54:13Z</time>
      </trkpt>
      <trkpt lat="45.86569762788713" lon="9.348519835621119">
        <ele>1040.28</ele>
        <time>2013-05-26T08:54:28Z</time>
      </trkpt>
      <trkpt lat="45.865722103044391" lon="9.348564008250833">
        <ele>1041.25</ele>
        <time>2013-05-26T08:54:42Z</time>
      </trkpt>
      <trkpt lat="45.865750014781952" lon="9.348569456487894">
        <ele>1042.6900000000001</ele>
        <time>2013-05-26T08:54:56Z</time>
      </trkpt>
      <trkpt lat="45.865814220160246" lon="9.348569372668862">
        <ele>1046.05</ele>
        <time>2013-05-26T08:55:08Z</time>
      </trkpt>
      <trkpt lat="45.865770215168595" lon="9.348648833110929">
        <ele>1047.49</ele>
        <time>2013-05-26T08:55:22Z</time>
      </trkpt>
      <trkpt lat="45.865801395848393" lon="9.34868068434298">
        <ele>1049.9000000000001</ele>
        <time>2013-05-26T08:55:33Z</time>
      </trkpt>
      <trkpt lat="45.865821009501815" lon="9.348686132580042">
        <ele>1050.8599999999999</ele>
        <time>2013-05-26T08:55:38Z</time>
      </trkpt>
      <trkpt lat="45.865889573469758" lon="9.348684120923281">
        <ele>1052.78</ele>
        <time>2013-05-26T08:55:52Z</time>
      </trkpt>
      <trkpt lat="45.865955455228686" lon="9.34868797659874">
        <ele>1054.22</ele>
        <time>2013-05-26T08:56:04Z</time>
      </trkpt>
      <trkpt lat="45.865993928164244" lon="9.348718486726284">
        <ele>1055.6700000000001</ele>
        <time>2013-05-26T08:56:12Z</time>
      </trkpt>
      <trkpt lat="45.866047069430351" lon="9.348778082057834">
        <ele>1057.5899999999999</ele>
        <time>2013-05-26T08:56:27Z</time>
      </trkpt>
      <trkpt lat="45.866081435233355" lon="9.348797779530287">
        <ele>1059.51</ele>
        <time>2013-05-26T08:56:43Z</time>
      </trkpt>
      <trkpt lat="45.866103395819664" lon="9.348820494487882">
        <ele>1062.3900000000001</ele>
        <time>2013-05-26T08:56:52Z</time>
      </trkpt>
      <trkpt lat="45.866145808249712" lon="9.34881454333663">
        <ele>1062.3900000000001</ele>
        <time>2013-05-26T08:57:04Z</time>
      </trkpt>
      <trkpt lat="45.866155112162232" lon="9.348810603842139">
        <ele>1062.3900000000001</ele>
        <time>2013-05-26T08:57:22Z</time>
      </trkpt>
      <trkpt lat="45.866190986707807" lon="9.348830804228783">
        <ele>1063.3599999999999</ele>
        <time>2013-05-26T08:57:37Z</time>
      </trkpt>
      <trkpt lat="45.866192076355219" lon="9.348860392346978">
        <ele>1065.76</ele>
        <time>2013-05-26T08:57:51Z</time>
      </trkpt>
      <trkpt lat="45.866225184872746" lon="9.348870031535626">
        <ele>1066.24</ele>
        <time>2013-05-26T08:58:08Z</time>
      </trkpt>
      <trkpt lat="45.866240439936519" lon="9.348859721794725">
        <ele>1067.2</ele>
        <time>2013-05-26T08:58:22Z</time>
      </trkpt>
      <trkpt lat="45.866248654201627" lon="9.348848825320602">
        <ele>1069.1199999999999</ele>
        <time>2013-05-26T08:58:36Z</time>
      </trkpt>
      <trkpt lat="45.86625074967742" lon="9.34881504625082">
        <ele>1070.0799999999999</ele>
        <time>2013-05-26T08:58:55Z</time>
      </trkpt>
      <trkpt lat="45.866246307268739" lon="9.348765006288886">
        <ele>1072.49</ele>
        <time>2013-05-26T08:59:07Z</time>
      </trkpt>
      <trkpt lat="45.866249660030007" lon="9.348705997690558">
        <ele>1074.4100000000001</ele>
        <time>2013-05-26T08:59:23Z</time>
      </trkpt>
      <trkpt lat="45.866261729970574" lon="9.348679846152663">
        <ele>1076.3299999999999</ele>
        <time>2013-05-26T08:59:36Z</time>
      </trkpt>
      <trkpt lat="45.866281595081091" lon="9.348659226670861">
        <ele>1078.26</ele>
        <time>2013-05-26T08:59:49Z</time>
      </trkpt>
      <trkpt lat="45.866323001682758" lon="9.348662914708257">
        <ele>1080.6600000000001</ele>
        <time>2013-05-26T09:00:02Z</time>
      </trkpt>
      <trkpt lat="45.866304310038686" lon="9.348629806190729">
        <ele>1081.6199999999999</ele>
        <time>2013-05-26T09:00:15Z</time>
      </trkpt>
      <trkpt lat="45.866308752447367" lon="9.348562248051167">
        <ele>1084.5</ele>
        <time>2013-05-26T09:00:32Z</time>
      </trkpt>
      <trkpt lat="45.8663225825876" lon="9.348525954410434">
        <ele>1084.99</ele>
        <time>2013-05-26T09:00:46Z</time>
      </trkpt>
      <trkpt lat="45.866347141563892" lon="9.348545568063855">
        <ele>1086.4300000000001</ele>
        <time>2013-05-26T09:01:00Z</time>
      </trkpt>
      <trkpt lat="45.866362396627665" lon="9.348551016300917">
        <ele>1088.8299999999999</ele>
        <time>2013-05-26T09:01:14Z</time>
      </trkpt>
      <trkpt lat="45.866394666954875" lon="9.348546322435141">
        <ele>1090.75</ele>
        <time>2013-05-26T09:01:26Z</time>
      </trkpt>
      <trkpt lat="45.866424757987261" lon="9.348560655489564">
        <ele>1091.71</ele>
        <time>2013-05-26T09:01:45Z</time>
      </trkpt>
      <trkpt lat="45.866433475166559" lon="9.3485795147717">
        <ele>1092.2</ele>
        <time>2013-05-26T09:02:01Z</time>
      </trkpt>
      <trkpt lat="45.866434313356876" lon="9.348582029342651">
        <ele>1093.1600000000001</ele>
        <time>2013-05-26T09:02:28Z</time>
      </trkpt>
      <trkpt lat="45.866461889818311" lon="9.348579347133637">
        <ele>1094.1199999999999</ele>
        <time>2013-05-26T09:02:40Z</time>
      </trkpt>
      <trkpt lat="45.866491394117475" lon="9.348588651046157">
        <ele>1095.5599999999999</ele>
        <time>2013-05-26T09:02:51Z</time>
      </trkpt>
      <trkpt lat="45.866496590897441" lon="9.348578425124288">
        <ele>1097</ele>
        <time>2013-05-26T09:03:02Z</time>
      </trkpt>
      <trkpt lat="45.866509415209293" lon="9.348531737923622">
        <ele>1098.9200000000001</ele>
        <time>2013-05-26T09:03:15Z</time>
      </trkpt>
      <trkpt lat="45.866496926173568" lon="9.34846124611795">
        <ele>1100.8499999999999</ele>
        <time>2013-05-26T09:03:26Z</time>
      </trkpt>
      <trkpt lat="45.866497009992599" lon="9.348369967192411">
        <ele>1103.73</ele>
        <time>2013-05-26T09:03:38Z</time>
      </trkpt>
      <trkpt lat="45.866475217044353" lon="9.34830928221345">
        <ele>1104.6900000000001</ele>
        <time>2013-05-26T09:03:54Z</time>
      </trkpt>
      <trkpt lat="45.86644914932549" lon="9.348233258351684">
        <ele>1108.0599999999999</ele>
        <time>2013-05-26T09:04:06Z</time>
      </trkpt>
      <trkpt lat="45.866402378305793" lon="9.348156563937664">
        <ele>1109.5</ele>
        <time>2013-05-26T09:04:19Z</time>
      </trkpt>
      <trkpt lat="45.866359546780586" lon="9.348110379651189">
        <ele>1110.9400000000001</ele>
        <time>2013-05-26T09:04:34Z</time>
      </trkpt>
      <trkpt lat="45.866319816559553" lon="9.348076768219471">
        <ele>1113.3399999999999</ele>
        <time>2013-05-26T09:04:51Z</time>
      </trkpt>
      <trkpt lat="45.866278577595949" lon="9.348030583932996">
        <ele>1114.79</ele>
        <time>2013-05-26T09:05:04Z</time>
      </trkpt>
      <trkpt lat="45.86625711992383" lon="9.348003175109625">
        <ele>1117.1900000000001</ele>
        <time>2013-05-26T09:05:18Z</time>
      </trkpt>
      <trkpt lat="45.866244798526168" lon="9.347937628626823">
        <ele>1118.6300000000001</ele>
        <time>2013-05-26T09:05:26Z</time>
      </trkpt>
      <trkpt lat="45.866228537634015" lon="9.347850875928998">
        <ele>1119.1099999999999</ele>
        <time>2013-05-26T09:05:36Z</time>
      </trkpt>
      <trkpt lat="45.866259802132845" lon="9.34775129891932">
        <ele>1122</ele>
        <time>2013-05-26T09:05:51Z</time>
      </trkpt>
      <trkpt lat="45.866259466856718" lon="9.347722632810473">
        <ele>1123.4400000000001</ele>
        <time>2013-05-26T09:06:03Z</time>
      </trkpt>
      <trkpt lat="45.866270614787936" lon="9.347690111026168">
        <ele>1123.4400000000001</ele>
        <time>2013-05-26T09:06:27Z</time>
      </trkpt>
      <trkpt lat="45.866296095773578" lon="9.347617607563734">
        <ele>1125.8399999999999</ele>
        <time>2013-05-26T09:06:44Z</time>
      </trkpt>
      <trkpt lat="45.866318643093109" lon="9.347584582865238">
        <ele>1129.21</ele>
        <time>2013-05-26T09:06:55Z</time>
      </trkpt>
      <trkpt lat="45.86633725091815" lon="9.347560191527009">
        <ele>1130.6500000000001</ele>
        <time>2013-05-26T09:07:05Z</time>
      </trkpt>
      <trkpt lat="45.866337083280087" lon="9.347537225112319">
        <ele>1131.6099999999999</ele>
        <time>2013-05-26T09:07:17Z</time>
      </trkpt>
      <trkpt lat="45.866321576759219" lon="9.347518114373088">
        <ele>1132.5699999999999</ele>
        <time>2013-05-26T09:07:33Z</time>
      </trkpt>
      <trkpt lat="45.866330042481422" lon="9.347463296726346">
        <ele>1134.49</ele>
        <time>2013-05-26T09:07:47Z</time>
      </trkpt>
      <trkpt lat="45.866338759660721" lon="9.347415519878268">
        <ele>1134.97</ele>
        <time>2013-05-26T09:08:01Z</time>
      </trkpt>
      <trkpt lat="45.866358960047364" lon="9.347394062206149">
        <ele>1135.9400000000001</ele>
        <time>2013-05-26T09:08:20Z</time>
      </trkpt>
      <trkpt lat="45.866350661963224" lon="9.347335053607822">
        <ele>1138.8199999999999</ele>
        <time>2013-05-26T09:08:32Z</time>
      </trkpt>
      <trkpt lat="45.866378908976912" lon="9.347320469096303">
        <ele>1140.74</ele>
        <time>2013-05-26T09:08:45Z</time>
      </trkpt>
      <trkpt lat="45.866398606449366" lon="9.347360702231526">
        <ele>1141.22</ele>
        <time>2013-05-26T09:09:04Z</time>
      </trkpt>
      <trkpt lat="45.866404976695776" lon="9.347349219024181">
        <ele>1142.1800000000001</ele>
        <time>2013-05-26T09:09:23Z</time>
      </trkpt>
      <trkpt lat="45.866392236202955" lon="9.34732960537076">
        <ele>1143.1400000000001</ele>
        <time>2013-05-26T09:09:35Z</time>
      </trkpt>
      <trkpt lat="45.866412436589599" lon="9.347297083586454">
        <ele>1143.6300000000001</ele>
        <time>2013-05-26T09:09:50Z</time>
      </trkpt>
      <trkpt lat="45.866419896483421" lon="9.347268668934703">
        <ele>1145.55</ele>
        <time>2013-05-26T09:10:04Z</time>
      </trkpt>
      <trkpt lat="45.866408161818981" lon="9.347278559580445">
        <ele>1146.51</ele>
        <time>2013-05-26T09:10:19Z</time>
      </trkpt>
      <trkpt lat="45.866410760208964" lon="9.347267746925354">
        <ele>1147.95</ele>
        <time>2013-05-26T09:10:35Z</time>
      </trkpt>
      <trkpt lat="45.866405479609966" lon="9.347221395000815">
        <ele>1148.9100000000001</ele>
        <time>2013-05-26T09:10:54Z</time>
      </trkpt>
      <trkpt lat="45.866416459903121" lon="9.347200356423855">
        <ele>1150.3499999999999</ele>
        <time>2013-05-26T09:11:05Z</time>
      </trkpt>
      <trkpt lat="45.866416627541184" lon="9.347183257341385">
        <ele>1150.8399999999999</ele>
        <time>2013-05-26T09:11:19Z</time>
      </trkpt>
      <trkpt lat="45.866422997787595" lon="9.347160877659917">
        <ele>1151.8</ele>
        <time>2013-05-26T09:11:24Z</time>
      </trkpt>
      <trkpt lat="45.86639542132616" lon="9.347148975357413">
        <ele>1153.72</ele>
        <time>2013-05-26T09:11:36Z</time>
      </trkpt>
      <trkpt lat="45.866388715803623" lon="9.347132379189134">
        <ele>1156.5999999999999</ele>
        <time>2013-05-26T09:11:51Z</time>
      </trkpt>
      <trkpt lat="45.86636264808476" lon="9.347072783857584">
        <ele>1157.5599999999999</ele>
        <time>2013-05-26T09:12:06Z</time>
      </trkpt>
      <trkpt lat="45.866324678063393" lon="9.347014194354415">
        <ele>1160.9300000000001</ele>
        <time>2013-05-26T09:12:17Z</time>
      </trkpt>
      <trkpt lat="45.866329707205296" lon="9.346996676176786">
        <ele>1161.4100000000001</ele>
        <time>2013-05-26T09:12:19Z</time>
      </trkpt>
      <trkpt lat="45.866324678063393" lon="9.346969351172447">
        <ele>1162.3699999999999</ele>
        <time>2013-05-26T09:12:38Z</time>
      </trkpt>
      <trkpt lat="45.866310093551874" lon="9.34691914357245">
        <ele>1163.3299999999999</ele>
        <time>2013-05-26T09:12:55Z</time>
      </trkpt>
      <trkpt lat="45.866306573152542" lon="9.346832307055593">
        <ele>1165.74</ele>
        <time>2013-05-26T09:13:10Z</time>
      </trkpt>
      <trkpt lat="45.866341441869736" lon="9.346817219629884">
        <ele>1167.6600000000001</ele>
        <time>2013-05-26T09:13:23Z</time>
      </trkpt>
      <trkpt lat="45.866362815722823" lon="9.346829289570451">
        <ele>1167.6600000000001</ele>
        <time>2013-05-26T09:13:43Z</time>
      </trkpt>
      <trkpt lat="45.866395588964224" lon="9.346858207136393">
        <ele>1170.54</ele>
        <time>2013-05-26T09:13:59Z</time>
      </trkpt>
      <trkpt lat="45.866422411054373" lon="9.346883604303002">
        <ele>1171.5</ele>
        <time>2013-05-26T09:14:12Z</time>
      </trkpt>
      <trkpt lat="45.866458956152201" lon="9.346923166885972">
        <ele>1171.98</ele>
        <time>2013-05-26T09:14:25Z</time>
      </trkpt>
      <trkpt lat="45.86648284457624" lon="9.346934817731381">
        <ele>1171.98</ele>
        <time>2013-05-26T09:14:42Z</time>
      </trkpt>
      <trkpt lat="45.866521652787924" lon="9.346956443041563">
        <ele>1172.95</ele>
        <time>2013-05-26T09:14:58Z</time>
      </trkpt>
      <trkpt lat="45.866528693586588" lon="9.34697974473238">
        <ele>1173.4300000000001</ele>
        <time>2013-05-26T09:15:11Z</time>
      </trkpt>
      <trkpt lat="45.866560209542513" lon="9.346985276788473">
        <ele>1173.4300000000001</ele>
        <time>2013-05-26T09:15:30Z</time>
      </trkpt>
      <trkpt lat="45.866559874266386" lon="9.346990054473281">
        <ele>1173.9100000000001</ele>
        <time>2013-05-26T09:15:44Z</time>
      </trkpt>
      <trkpt lat="45.866575799882412" lon="9.346998771652579">
        <ele>1174.8699999999999</ele>
        <time>2013-05-26T09:16:03Z</time>
      </trkpt>
      <trkpt lat="45.866598850116134" lon="9.347019474953413">
        <ele>1176.3099999999999</ele>
        <time>2013-05-26T09:16:17Z</time>
      </trkpt>
      <trkpt lat="45.866600107401609" lon="9.347021318972111">
        <ele>1176.79</ele>
        <time>2013-05-26T09:16:32Z</time>
      </trkpt>
      <trkpt lat="45.866610081866384" lon="9.347067251801491">
        <ele>1177.75</ele>
        <time>2013-05-26T09:16:45Z</time>
      </trkpt>
      <trkpt lat="45.86661184206605" lon="9.347059205174446">
        <ele>1176.79</ele>
        <time>2013-05-26T09:16:57Z</time>
      </trkpt>
      <trkpt lat="45.866612680256367" lon="9.34705208055675">
        <ele>1174.8699999999999</ele>
        <time>2013-05-26T09:17:01Z</time>
      </trkpt>
      <trkpt lat="45.866616703569889" lon="9.347058702260256">
        <ele>1177.75</ele>
        <time>2013-05-26T09:17:06Z</time>
      </trkpt>
      <trkpt lat="45.86660941131413" lon="9.347101282328367">
        <ele>1179.1900000000001</ele>
        <time>2013-05-26T09:17:10Z</time>
      </trkpt>
      <trkpt lat="45.866596000269055" lon="9.347105976194143">
        <ele>1178.23</ele>
        <time>2013-05-26T09:17:21Z</time>
      </trkpt>
      <trkpt lat="45.866605639457703" lon="9.347093990072608">
        <ele>1179.1900000000001</ele>
        <time>2013-05-26T09:17:31Z</time>
      </trkpt>
      <trkpt lat="45.866623912006617" lon="9.347123997285962">
        <ele>1179.1900000000001</ele>
        <time>2013-05-26T09:17:45Z</time>
      </trkpt>
      <trkpt lat="45.866607148200274" lon="9.347114022821188">
        <ele>1179.1900000000001</ele>
        <time>2013-05-26T09:18:02Z</time>
      </trkpt>
      <trkpt lat="45.866606393828988" lon="9.347107736393809">
        <ele>1179.1900000000001</ele>
        <time>2013-05-26T09:18:20Z</time>
      </trkpt>
      <trkpt lat="45.866615194827318" lon="9.347122991457582">
        <ele>1178.71</ele>
        <time>2013-05-26T09:18:50Z</time>
      </trkpt>
      <trkpt lat="45.866625420749187" lon="9.34712533839047">
        <ele>1180.1600000000001</ele>
        <time>2013-05-26T09:19:00Z</time>
      </trkpt>
      <trkpt lat="45.866623492911458" lon="9.347152831032872">
        <ele>1178.71</ele>
        <time>2013-05-26T09:19:28Z</time>
      </trkpt>
      <trkpt lat="45.866605723276734" lon="9.347085943445563">
        <ele>1178.23</ele>
        <time>2013-05-26T09:19:50Z</time>
      </trkpt>
      <trkpt lat="45.866616871207952" lon="9.347037496045232">
        <ele>1176.3099999999999</ele>
        <time>2013-05-26T09:19:55Z</time>
      </trkpt>
      <trkpt lat="45.866634305566549" lon="9.346997430548072">
        <ele>1175.3499999999999</ele>
        <time>2013-05-26T09:20:00Z</time>
      </trkpt>
      <trkpt lat="45.866649225354195" lon="9.346995083615184">
        <ele>1173.4300000000001</ele>
        <time>2013-05-26T09:20:10Z</time>
      </trkpt>
      <trkpt lat="45.866644950583577" lon="9.346997682005167">
        <ele>1174.8699999999999</ele>
        <time>2013-05-26T09:20:31Z</time>
      </trkpt>
      <trkpt lat="45.866639669984579" lon="9.347004387527704">
        <ele>1174.8699999999999</ele>
        <time>2013-05-26T09:20:46Z</time>
      </trkpt>
      <trkpt lat="45.866648638620973" lon="9.34697387740016">
        <ele>1171.5</ele>
        <time>2013-05-26T09:20:49Z</time>
      </trkpt>
      <trkpt lat="45.8666558470577" lon="9.346972033381462">
        <ele>1171.5</ele>
        <time>2013-05-26T09:20:50Z</time>
      </trkpt>
      <trkpt lat="45.86666364222765" lon="9.346975889056921">
        <ele>1171.5</ele>
        <time>2013-05-26T09:20:51Z</time>
      </trkpt>
      <trkpt lat="45.866709910333157" lon="9.346993323415518">
        <ele>1169.5799999999999</ele>
        <time>2013-05-26T09:20:56Z</time>
      </trkpt>
      <trkpt lat="45.866720890626311" lon="9.346969434991479">
        <ele>1168.6199999999999</ele>
        <time>2013-05-26T09:21:01Z</time>
      </trkpt>
      <trkpt lat="45.866753999143839" lon="9.346968093886972">
        <ele>1166.22</ele>
        <time>2013-05-26T09:21:05Z</time>
      </trkpt>
      <trkpt lat="45.866764392703772" lon="9.346924675628543">
        <ele>1166.22</ele>
        <time>2013-05-26T09:21:12Z</time>
      </trkpt>
      <trkpt lat="45.866753663867712" lon="9.346867930144072">
        <ele>1163.3299999999999</ele>
        <time>2013-05-26T09:21:16Z</time>
      </trkpt>
      <trkpt lat="45.86674083955586" lon="9.346853261813521">
        <ele>1162.8499999999999</ele>
        <time>2013-05-26T09:21:30Z</time>
      </trkpt>
      <trkpt lat="45.866738576442003" lon="9.346790900453925">
        <ele>1161.4100000000001</ele>
        <time>2013-05-26T09:21:43Z</time>
      </trkpt>
      <trkpt lat="45.866728937253356" lon="9.346790397539735">
        <ele>1162.8499999999999</ele>
        <time>2013-05-26T09:21:59Z</time>
      </trkpt>
      <trkpt lat="45.86673941463232" lon="9.346792409196496">
        <ele>1161.8900000000001</ele>
        <time>2013-05-26T09:22:14Z</time>
      </trkpt>
      <trkpt lat="45.866732457652688" lon="9.34679064899683">
        <ele>1162.3699999999999</ele>
        <time>2013-05-26T09:22:32Z</time>
      </trkpt>
      <trkpt lat="45.866751233115792" lon="9.346677074208856">
        <ele>1160.45</ele>
        <time>2013-05-26T09:22:51Z</time>
      </trkpt>
      <trkpt lat="45.866752406582236" lon="9.346661400049925">
        <ele>1160.45</ele>
        <time>2013-05-26T09:22:52Z</time>
      </trkpt>
      <trkpt lat="45.866746371611953" lon="9.346532318741083">
        <ele>1159.01</ele>
        <time>2013-05-26T09:23:05Z</time>
      </trkpt>
      <trkpt lat="45.866746790707111" lon="9.346366776153445">
        <ele>1157.0799999999999</ele>
        <time>2013-05-26T09:23:19Z</time>
      </trkpt>
      <trkpt lat="45.866750897839665" lon="9.34628052636981">
        <ele>1154.2</ele>
        <time>2013-05-26T09:23:27Z</time>
      </trkpt>
      <trkpt lat="45.866759782657027" lon="9.346144152805209">
        <ele>1152.28</ele>
        <time>2013-05-26T09:23:42Z</time>
      </trkpt>
      <trkpt lat="45.86676187813282" lon="9.346143566071987">
        <ele>1151.8</ele>
        <time>2013-05-26T09:23:43Z</time>
      </trkpt>
      <trkpt lat="45.866780234500766" lon="9.346124203875661">
        <ele>1148.4300000000001</ele>
        <time>2013-05-26T09:23:54Z</time>
      </trkpt>
      <trkpt lat="45.866789873689413" lon="9.346094448119402">
        <ele>1148.9100000000001</ele>
        <time>2013-05-26T09:24:08Z</time>
      </trkpt>
      <trkpt lat="45.866797165945172" lon="9.346029320731759">
        <ele>1149.3900000000001</ele>
        <time>2013-05-26T09:24:19Z</time>
      </trkpt>
      <trkpt lat="45.866790544241667" lon="9.345997804775834">
        <ele>1146.99</ele>
        <time>2013-05-26T09:24:34Z</time>
      </trkpt>
      <trkpt lat="45.86677554063499" lon="9.345927480608225">
        <ele>1147.47</ele>
        <time>2013-05-26T09:24:46Z</time>
      </trkpt>
      <trkpt lat="45.866778222844005" lon="9.34581876732409">
        <ele>1147.47</ele>
        <time>2013-05-26T09:25:01Z</time>
      </trkpt>
      <trkpt lat="45.866789622232318" lon="9.345774846151471">
        <ele>1146.51</ele>
        <time>2013-05-26T09:25:11Z</time>
      </trkpt>
      <trkpt lat="45.866776881739497" lon="9.345760680735111">
        <ele>1146.03</ele>
        <time>2013-05-26T09:25:31Z</time>
      </trkpt>
      <trkpt lat="45.86679657921195" lon="9.345727488398552">
        <ele>1145.55</ele>
        <time>2013-05-26T09:25:38Z</time>
      </trkpt>
      <trkpt lat="45.86683857254684" lon="9.345650123432279">
        <ele>1145.55</ele>
        <time>2013-05-26T09:25:53Z</time>
      </trkpt>
      <trkpt lat="45.86683857254684" lon="9.345608465373516">
        <ele>1144.1099999999999</ele>
        <time>2013-05-26T09:26:07Z</time>
      </trkpt>
      <trkpt lat="45.866848044097424" lon="9.345537554472685">
        <ele>1143.1400000000001</ele>
        <time>2013-05-26T09:26:18Z</time>
      </trkpt>
      <trkpt lat="45.866856090724468" lon="9.345499332994223">
        <ele>1143.1400000000001</ele>
        <time>2013-05-26T09:26:25Z</time>
      </trkpt>
      <trkpt lat="45.866905292496085" lon="9.345437809824944">
        <ele>1143.6300000000001</ele>
        <time>2013-05-26T09:26:31Z</time>
      </trkpt>
      <trkpt lat="45.86699984036386" lon="9.345309734344482">
        <ele>1144.5899999999999</ele>
        <time>2013-05-26T09:26:47Z</time>
      </trkpt>
      <trkpt lat="45.867009647190571" lon="9.345303531736136">
        <ele>1144.5899999999999</ele>
        <time>2013-05-26T09:26:48Z</time>
      </trkpt>
      <trkpt lat="45.867062956094742" lon="9.345295401290059">
        <ele>1143.6300000000001</ele>
        <time>2013-05-26T09:26:58Z</time>
      </trkpt>
      <trkpt lat="45.867121629416943" lon="9.34527930803597">
        <ele>1144.1099999999999</ele>
        <time>2013-05-26T09:27:05Z</time>
      </trkpt>
      <trkpt lat="45.867182230576873" lon="9.345231279730797">
        <ele>1143.1400000000001</ele>
        <time>2013-05-26T09:27:18Z</time>
      </trkpt>
      <trkpt lat="45.867228079587221" lon="9.345160452648997">
        <ele>1142.1800000000001</ele>
        <time>2013-05-26T09:27:31Z</time>
      </trkpt>
      <trkpt lat="45.867281388491392" lon="9.345106473192573">
        <ele>1145.0699999999999</ele>
        <time>2013-05-26T09:27:44Z</time>
      </trkpt>
      <trkpt lat="45.867282059043646" lon="9.345058109611273">
        <ele>1145.55</ele>
        <time>2013-05-26T09:27:56Z</time>
      </trkpt>
      <trkpt lat="45.867273341864347" lon="9.345045872032642">
        <ele>1146.99</ele>
        <time>2013-05-26T09:27:59Z</time>
      </trkpt>
      <trkpt lat="45.867265714332461" lon="9.345054421573877">
        <ele>1146.99</ele>
        <time>2013-05-26T09:28:12Z</time>
      </trkpt>
      <trkpt lat="45.867258170619607" lon="9.345035227015615">
        <ele>1146.99</ele>
        <time>2013-05-26T09:28:16Z</time>
      </trkpt>
      <trkpt lat="45.867236461490393" lon="9.344879407435656">
        <ele>1148.4300000000001</ele>
        <time>2013-05-26T09:28:29Z</time>
      </trkpt>
      <trkpt lat="45.867238389328122" lon="9.344808831810951">
        <ele>1147.47</ele>
        <time>2013-05-26T09:28:44Z</time>
      </trkpt>
      <trkpt lat="45.867250459268689" lon="9.344819309189916">
        <ele>1146.99</ele>
        <time>2013-05-26T09:28:58Z</time>
      </trkpt>
      <trkpt lat="45.867243250831962" lon="9.344808580353856">
        <ele>1148.4300000000001</ele>
        <time>2013-05-26T09:29:12Z</time>
      </trkpt>
      <trkpt lat="45.867202514782548" lon="9.344804557040334">
        <ele>1150.8399999999999</ele>
        <time>2013-05-26T09:29:31Z</time>
      </trkpt>
      <trkpt lat="45.86720360442996" lon="9.344794666394591">
        <ele>1150.8399999999999</ele>
        <time>2013-05-26T09:29:32Z</time>
      </trkpt>
      <trkpt lat="45.867209387943149" lon="9.344735573977232">
        <ele>1152.76</ele>
        <time>2013-05-26T09:29:43Z</time>
      </trkpt>
      <trkpt lat="45.867207292467356" lon="9.344695843756199">
        <ele>1154.2</ele>
        <time>2013-05-26T09:29:55Z</time>
      </trkpt>
      <trkpt lat="45.867220787331462" lon="9.344665752723813">
        <ele>1155.6400000000001</ele>
        <time>2013-05-26T09:30:07Z</time>
      </trkpt>
      <trkpt lat="45.867234533652663" lon="9.344677235931158">
        <ele>1155.6400000000001</ele>
        <time>2013-05-26T09:30:28Z</time>
      </trkpt>
      <trkpt lat="45.867210309952497" lon="9.344639601185918">
        <ele>1158.53</ele>
        <time>2013-05-26T09:30:42Z</time>
      </trkpt>
      <trkpt lat="45.867204107344151" lon="9.34463675133884">
        <ele>1159.49</ele>
        <time>2013-05-26T09:30:44Z</time>
      </trkpt>
      <trkpt lat="45.867172172293067" lon="9.344624010846019">
        <ele>1162.8499999999999</ele>
        <time>2013-05-26T09:30:53Z</time>
      </trkpt>
      <trkpt lat="45.867165802046657" lon="9.344577575102449">
        <ele>1166.22</ele>
        <time>2013-05-26T09:31:03Z</time>
      </trkpt>
      <trkpt lat="45.867163287475705" lon="9.344576485455036">
        <ele>1164.29</ele>
        <time>2013-05-26T09:31:06Z</time>
      </trkpt>
      <trkpt lat="45.867149541154504" lon="9.344545304775238">
        <ele>1165.26</ele>
        <time>2013-05-26T09:31:20Z</time>
      </trkpt>
      <trkpt lat="45.867163706570864" lon="9.344542622566223">
        <ele>1165.74</ele>
        <time>2013-05-26T09:31:30Z</time>
      </trkpt>
      <trkpt lat="45.867163203656673" lon="9.344460144639015">
        <ele>1167.6600000000001</ele>
        <time>2013-05-26T09:31:42Z</time>
      </trkpt>
      <trkpt lat="45.867167897522449" lon="9.344435501843691">
        <ele>1169.0999999999999</ele>
        <time>2013-05-26T09:31:48Z</time>
      </trkpt>
      <trkpt lat="45.867170579731464" lon="9.344426449388266">
        <ele>1167.6600000000001</ele>
        <time>2013-05-26T09:31:51Z</time>
      </trkpt>
      <trkpt lat="45.867156079038978" lon="9.344383785501123">
        <ele>1170.0599999999999</ele>
        <time>2013-05-26T09:32:04Z</time>
      </trkpt>
      <trkpt lat="45.867129089310765" lon="9.344385713338852">
        <ele>1173.9100000000001</ele>
        <time>2013-05-26T09:32:18Z</time>
      </trkpt>
      <trkpt lat="45.867130011320114" lon="9.344380684196949">
        <ele>1173.9100000000001</ele>
        <time>2013-05-26T09:32:19Z</time>
      </trkpt>
      <trkpt lat="45.867143170908093" lon="9.344346737489104">
        <ele>1173.9100000000001</ele>
        <time>2013-05-26T09:32:33Z</time>
      </trkpt>
      <trkpt lat="45.867104530334473" lon="9.344310276210308">
        <ele>1175.8299999999999</ele>
        <time>2013-05-26T09:32:46Z</time>
      </trkpt>
      <trkpt lat="45.867077875882387" lon="9.344314048066735">
        <ele>1177.75</ele>
        <time>2013-05-26T09:32:59Z</time>
      </trkpt>
      <trkpt lat="45.867055747658014" lon="9.344256967306137">
        <ele>1179.1900000000001</ele>
        <time>2013-05-26T09:33:11Z</time>
      </trkpt>
      <trkpt lat="45.867044012993574" lon="9.344242382794619">
        <ele>1180.1600000000001</ele>
        <time>2013-05-26T09:33:25Z</time>
      </trkpt>
      <trkpt lat="45.86702330969274" lon="9.344245065003634">
        <ele>1181.1199999999999</ele>
        <time>2013-05-26T09:33:41Z</time>
      </trkpt>
      <trkpt lat="45.866994056850672" lon="9.344233078882098">
        <ele>1183.04</ele>
        <time>2013-05-26T09:33:46Z</time>
      </trkpt>
      <trkpt lat="45.867003612220287" lon="9.344171388074756">
        <ele>1185.4400000000001</ele>
        <time>2013-05-26T09:33:56Z</time>
      </trkpt>
      <trkpt lat="45.867007467895746" lon="9.344117408618331">
        <ele>1185.9200000000001</ele>
        <time>2013-05-26T09:34:08Z</time>
      </trkpt>
      <trkpt lat="45.867007300257683" lon="9.344114810228348">
        <ele>1185.9200000000001</ele>
        <time>2013-05-26T09:34:09Z</time>
      </trkpt>
      <trkpt lat="45.866981986910105" lon="9.344059573486447">
        <ele>1187.3699999999999</ele>
        <time>2013-05-26T09:34:20Z</time>
      </trkpt>
      <trkpt lat="45.866986932232976" lon="9.344028476625681">
        <ele>1187.8499999999999</ele>
        <time>2013-05-26T09:34:32Z</time>
      </trkpt>
      <trkpt lat="45.866956086829305" lon="9.343957733362913">
        <ele>1190.25</ele>
        <time>2013-05-26T09:34:41Z</time>
      </trkpt>
      <trkpt lat="45.866936473175883" lon="9.343843320384622">
        <ele>1192.1700000000001</ele>
        <time>2013-05-26T09:34:56Z</time>
      </trkpt>
      <trkpt lat="45.86689573712647" lon="9.343765201047063">
        <ele>1195.54</ele>
        <time>2013-05-26T09:35:09Z</time>
      </trkpt>
      <trkpt lat="45.866892887279391" lon="9.343753466382623">
        <ele>1195.0599999999999</ele>
        <time>2013-05-26T09:35:10Z</time>
      </trkpt>
      <trkpt lat="45.866910070180893" lon="9.343695631250739">
        <ele>1193.6099999999999</ele>
        <time>2013-05-26T09:35:22Z</time>
      </trkpt>
      <trkpt lat="45.866905208677053" lon="9.343620026484132">
        <ele>1196.5</ele>
        <time>2013-05-26T09:35:34Z</time>
      </trkpt>
      <trkpt lat="45.86689867079258" lon="9.343532519415021">
        <ele>1197.46</ele>
        <time>2013-05-26T09:35:44Z</time>
      </trkpt>
      <trkpt lat="45.866944771260023" lon="9.343418190255761">
        <ele>1199.3800000000001</ele>
        <time>2013-05-26T09:35:58Z</time>
      </trkpt>
      <trkpt lat="45.8669597748667" lon="9.343447862192988">
        <ele>1199.8599999999999</ele>
        <time>2013-05-26T09:36:13Z</time>
      </trkpt>
      <trkpt lat="45.866980981081724" lon="9.343446437269449">
        <ele>1199.3800000000001</ele>
        <time>2013-05-26T09:36:41Z</time>
      </trkpt>
      <trkpt lat="45.866973521187901" lon="9.343468649312854">
        <ele>1198.9000000000001</ele>
        <time>2013-05-26T09:37:10Z</time>
      </trkpt>
      <trkpt lat="45.866980478167534" lon="9.343472169712186">
        <ele>1199.3800000000001</ele>
        <time>2013-05-26T09:37:43Z</time>
      </trkpt>
      <trkpt lat="45.866979975253344" lon="9.343462446704507">
        <ele>1198.9000000000001</ele>
        <time>2013-05-26T09:38:01Z</time>
      </trkpt>
      <trkpt lat="45.866956925019622" lon="9.343460099771619">
        <ele>1198.4200000000001</ele>
        <time>2013-05-26T09:38:26Z</time>
      </trkpt>
      <trkpt lat="45.866972599178553" lon="9.343363791704178">
        <ele>1199.3800000000001</ele>
        <time>2013-05-26T09:38:40Z</time>
      </trkpt>
      <trkpt lat="45.866944519802928" lon="9.343294641003013">
        <ele>1201.3</ele>
        <time>2013-05-26T09:38:48Z</time>
      </trkpt>
      <trkpt lat="45.866928845643997" lon="9.34319288469851">
        <ele>1204.1900000000001</ele>
        <time>2013-05-26T09:39:00Z</time>
      </trkpt>
      <trkpt lat="45.866916691884398" lon="9.343089452013373">
        <ele>1207.0699999999999</ele>
        <time>2013-05-26T09:39:13Z</time>
      </trkpt>
      <trkpt lat="45.866896323859692" lon="9.34296858496964">
        <ele>1209.48</ele>
        <time>2013-05-26T09:39:26Z</time>
      </trkpt>
      <trkpt lat="45.866910321637988" lon="9.342921730130911">
        <ele>1209.96</ele>
        <time>2013-05-26T09:39:29Z</time>
      </trkpt>
      <trkpt lat="45.866926498711109" lon="9.3428791500628">
        <ele>1209.96</ele>
        <time>2013-05-26T09:39:32Z</time>
      </trkpt>
      <trkpt lat="45.866921301931143" lon="9.342736909165978">
        <ele>1211.8800000000001</ele>
        <time>2013-05-26T09:39:47Z</time>
      </trkpt>
      <trkpt lat="45.866917027160525" lon="9.342629369348288">
        <ele>1214.28</ele>
        <time>2013-05-26T09:40:00Z</time>
      </trkpt>
      <trkpt lat="45.866919793188572" lon="9.342531971633434">
        <ele>1217.1700000000001</ele>
        <time>2013-05-26T09:40:13Z</time>
      </trkpt>
      <trkpt lat="45.866903448477387" lon="9.342470113188028">
        <ele>1219.5699999999999</ele>
        <time>2013-05-26T09:40:26Z</time>
      </trkpt>
      <trkpt lat="45.866846702992916" lon="9.342447314411402">
        <ele>1221.97</ele>
        <time>2013-05-26T09:40:38Z</time>
      </trkpt>
      <trkpt lat="45.866821054369211" lon="9.342444045469165">
        <ele>1223.4200000000001</ele>
        <time>2013-05-26T09:40:53Z</time>
      </trkpt>
      <trkpt lat="45.866783671081066" lon="9.342377157881856">
        <ele>1224.8599999999999</ele>
        <time>2013-05-26T09:41:06Z</time>
      </trkpt>
      <trkpt lat="45.866776714101434" lon="9.342293506488204">
        <ele>1227.74</ele>
        <time>2013-05-26T09:41:20Z</time>
      </trkpt>
      <trkpt lat="45.866737822070718" lon="9.342264086008072">
        <ele>1231.1099999999999</ele>
        <time>2013-05-26T09:41:35Z</time>
      </trkpt>
      <trkpt lat="45.866733295843005" lon="9.342200551182032">
        <ele>1232.55</ele>
        <time>2013-05-26T09:41:47Z</time>
      </trkpt>
      <trkpt lat="45.86673891171813" lon="9.342179847881198">
        <ele>1233.99</ele>
        <time>2013-05-26T09:42:02Z</time>
      </trkpt>
      <trkpt lat="45.866697756573558" lon="9.342140033841133">
        <ele>1234.95</ele>
        <time>2013-05-26T09:42:19Z</time>
      </trkpt>
      <trkpt lat="45.866668336093426" lon="9.342080606147647">
        <ele>1237.3499999999999</ele>
        <time>2013-05-26T09:42:32Z</time>
      </trkpt>
      <trkpt lat="45.866629276424646" lon="9.342041797935963">
        <ele>1239.76</ele>
        <time>2013-05-26T09:42:44Z</time>
      </trkpt>
      <trkpt lat="45.866610500961542" lon="9.34195957146585">
        <ele>1241.6800000000001</ele>
        <time>2013-05-26T09:42:56Z</time>
      </trkpt>
      <trkpt lat="45.866616116836667" lon="9.341892264783382">
        <ele>1244.0799999999999</ele>
        <time>2013-05-26T09:43:09Z</time>
      </trkpt>
      <trkpt lat="45.866563729941845" lon="9.341902239248157">
        <ele>1245.04</ele>
        <time>2013-05-26T09:43:21Z</time>
      </trkpt>
      <trkpt lat="45.866532130166888" lon="9.341851696372032">
        <ele>1246.01</ele>
        <time>2013-05-26T09:43:32Z</time>
      </trkpt>
      <trkpt lat="45.866527687758207" lon="9.341807942837477">
        <ele>1247.9300000000001</ele>
        <time>2013-05-26T09:43:39Z</time>
      </trkpt>
      <trkpt lat="45.866517461836338" lon="9.341766284778714">
        <ele>1248.4100000000001</ele>
        <time>2013-05-26T09:43:51Z</time>
      </trkpt>
      <trkpt lat="45.866534477099776" lon="9.341774247586727">
        <ele>1247.9300000000001</ele>
        <time>2013-05-26T09:44:07Z</time>
      </trkpt>
      <trkpt lat="45.866528861224651" lon="9.341755053028464">
        <ele>1248.4100000000001</ele>
        <time>2013-05-26T09:44:21Z</time>
      </trkpt>
      <trkpt lat="45.866556940600276" lon="9.341768128797412">
        <ele>1248.4100000000001</ele>
        <time>2013-05-26T09:44:36Z</time>
      </trkpt>
      <trkpt lat="45.866538668051362" lon="9.341767374426127">
        <ele>1249.3699999999999</ele>
        <time>2013-05-26T09:45:01Z</time>
      </trkpt>
      <trkpt lat="45.866514863446355" lon="9.341773074120283">
        <ele>1248.8900000000001</ele>
        <time>2013-05-26T09:45:18Z</time>
      </trkpt>
      <trkpt lat="45.866511426866055" lon="9.341757651418448">
        <ele>1249.8499999999999</ele>
        <time>2013-05-26T09:45:34Z</time>
      </trkpt>
      <trkpt lat="45.866509582847357" lon="9.341748347505927">
        <ele>1249.3699999999999</ele>
        <time>2013-05-26T09:46:01Z</time>
      </trkpt>
      <trkpt lat="45.866501117125154" lon="9.341735020279884">
        <ele>1249.3699999999999</ele>
        <time>2013-05-26T09:46:27Z</time>
      </trkpt>
      <trkpt lat="45.866466332226992" lon="9.341655895113945">
        <ele>1252.74</ele>
        <time>2013-05-26T09:46:39Z</time>
      </trkpt>
      <trkpt lat="45.8664037194103" lon="9.341619182378054">
        <ele>1254.1800000000001</ele>
        <time>2013-05-26T09:46:50Z</time>
      </trkpt>
      <trkpt lat="45.86639977991581" lon="9.341569980606437">
        <ele>1254.6600000000001</ele>
        <time>2013-05-26T09:47:01Z</time>
      </trkpt>
      <trkpt lat="45.866400534287095" lon="9.341543912887573">
        <ele>1255.1400000000001</ele>
        <time>2013-05-26T09:47:26Z</time>
      </trkpt>
      <trkpt lat="45.866373376920819" lon="9.341494040563703">
        <ele>1254.6600000000001</ele>
        <time>2013-05-26T09:47:39Z</time>
      </trkpt>
      <trkpt lat="45.866366839036345" lon="9.341453136876226">
        <ele>1255.6199999999999</ele>
        <time>2013-05-26T09:47:43Z</time>
      </trkpt>
      <trkpt lat="45.866328282281756" lon="9.341309638693929">
        <ele>1257.0599999999999</ele>
        <time>2013-05-26T09:47:56Z</time>
      </trkpt>
      <trkpt lat="45.866290479898453" lon="9.34113722294569">
        <ele>1259.46</ele>
        <time>2013-05-26T09:48:12Z</time>
      </trkpt>
      <trkpt lat="45.866279164329171" lon="9.341072095558047">
        <ele>1260.9100000000001</ele>
        <time>2013-05-26T09:48:18Z</time>
      </trkpt>
      <trkpt lat="45.866259634494781" lon="9.340959610417485">
        <ele>1262.8299999999999</ele>
        <time>2013-05-26T09:48:31Z</time>
      </trkpt>
      <trkpt lat="45.866225184872746" lon="9.340871348977089">
        <ele>1264.75</ele>
        <time>2013-05-26T09:48:45Z</time>
      </trkpt>
      <trkpt lat="45.866194255650043" lon="9.340783841907978">
        <ele>1266.6700000000001</ele>
        <time>2013-05-26T09:48:57Z</time>
      </trkpt>
      <trkpt lat="45.866140695288777" lon="9.340730365365744">
        <ele>1269.0799999999999</ele>
        <time>2013-05-26T09:49:11Z</time>
      </trkpt>
      <trkpt lat="45.866145640611649" lon="9.34070186689496">
        <ele>1270.52</ele>
        <time>2013-05-26T09:49:27Z</time>
      </trkpt>
      <trkpt lat="45.866144970059395" lon="9.340740004554391">
        <ele>1269.5599999999999</ele>
        <time>2013-05-26T09:49:41Z</time>
      </trkpt>
      <trkpt lat="45.86621118709445" lon="9.340770430862904">
        <ele>1268.1199999999999</ele>
        <time>2013-05-26T09:49:52Z</time>
      </trkpt>
      <trkpt lat="45.86624588817358" lon="9.340757355093956">
        <ele>1266.1900000000001</ele>
        <time>2013-05-26T09:50:03Z</time>
      </trkpt>
      <trkpt lat="45.866264076903462" lon="9.340696921572089">
        <ele>1267.1600000000001</ele>
        <time>2013-05-26T09:50:16Z</time>
      </trkpt>
      <trkpt lat="45.86624882183969" lon="9.340682839974761">
        <ele>1268.5999999999999</ele>
        <time>2013-05-26T09:50:32Z</time>
      </trkpt>
      <trkpt lat="45.866236668080091" lon="9.340697340667248">
        <ele>1268.5999999999999</ele>
        <time>2013-05-26T09:50:51Z</time>
      </trkpt>
      <trkpt lat="45.866165170446038" lon="9.340725503861904">
        <ele>1269.0799999999999</ele>
        <time>2013-05-26T09:51:05Z</time>
      </trkpt>
      <trkpt lat="45.866191992536187" lon="9.340741010382772">
        <ele>1269.0799999999999</ele>
        <time>2013-05-26T09:51:20Z</time>
      </trkpt>
      <trkpt lat="45.86618528701365" lon="9.340736567974091">
        <ele>1268.5999999999999</ele>
        <time>2013-05-26T09:51:31Z</time>
      </trkpt>
      <trkpt lat="45.866177408024669" lon="9.340743441134691">
        <ele>1268.5999999999999</ele>
        <time>2013-05-26T09:51:48Z</time>
      </trkpt>
      <trkpt lat="45.866194423288107" lon="9.340705722570419">
        <ele>1268.5999999999999</ele>
        <time>2013-05-26T09:52:07Z</time>
      </trkpt>
      <trkpt lat="45.866224933415651" lon="9.340624669566751">
        <ele>1268.5999999999999</ele>
        <time>2013-05-26T09:52:17Z</time>
      </trkpt>
      <trkpt lat="45.86623365059495" lon="9.340595249086618">
        <ele>1270.04</ele>
        <time>2013-05-26T09:52:27Z</time>
      </trkpt>
      <trkpt lat="45.866188388317823" lon="9.340514279901981">
        <ele>1272.4400000000001</ele>
        <time>2013-05-26T09:52:39Z</time>
      </trkpt>
      <trkpt lat="45.866171540692449" lon="9.340455271303654">
        <ele>1273.4000000000001</ele>
        <time>2013-05-26T09:52:53Z</time>
      </trkpt>
      <trkpt lat="45.86619065143168" lon="9.340475052595139">
        <ele>1273.4000000000001</ele>
        <time>2013-05-26T09:53:06Z</time>
      </trkpt>
      <trkpt lat="45.866197356954217" lon="9.340474382042885">
        <ele>1271.96</ele>
        <time>2013-05-26T09:53:18Z</time>
      </trkpt>
      <trkpt lat="45.866188891232014" lon="9.34046340174973">
        <ele>1271.96</ele>
        <time>2013-05-26T09:53:52Z</time>
      </trkpt>
      <trkpt lat="45.866182269528508" lon="9.340482596307993">
        <ele>1271.48</ele>
        <time>2013-05-26T09:54:29Z</time>
      </trkpt>
      <trkpt lat="45.866183107718825" lon="9.340493576601148">
        <ele>1271.96</ele>
        <time>2013-05-26T09:54:52Z</time>
      </trkpt>
      <trkpt lat="45.866188136860728" lon="9.340481674298644">
        <ele>1271.96</ele>
        <time>2013-05-26T09:55:01Z</time>
      </trkpt>
      <trkpt lat="45.866178078576922" lon="9.340500868856907">
        <ele>1272.9200000000001</ele>
        <time>2013-05-26T09:55:11Z</time>
      </trkpt>
      <trkpt lat="45.86616232059896" lon="9.340515118092299">
        <ele>1272.4400000000001</ele>
        <time>2013-05-26T09:55:26Z</time>
      </trkpt>
      <trkpt lat="45.866169612854719" lon="9.340499946847558">
        <ele>1271.96</ele>
        <time>2013-05-26T09:55:50Z</time>
      </trkpt>
      <trkpt lat="45.86618185043335" lon="9.34051126241684">
        <ele>1271.96</ele>
        <time>2013-05-26T09:56:05Z</time>
      </trkpt>
      <trkpt lat="45.866164667531848" lon="9.340517548844218">
        <ele>1272.4400000000001</ele>
        <time>2013-05-26T09:56:31Z</time>
      </trkpt>
      <trkpt lat="45.866148071363568" lon="9.340483350679278">
        <ele>1272.4400000000001</ele>
        <time>2013-05-26T09:56:54Z</time>
      </trkpt>
      <trkpt lat="45.866141449660063" lon="9.340452086180449">
        <ele>1271.96</ele>
        <time>2013-05-26T09:57:15Z</time>
      </trkpt>
      <trkpt lat="45.866160560399294" lon="9.340474801138043">
        <ele>1271.96</ele>
        <time>2013-05-26T09:57:28Z</time>
      </trkpt>
      <trkpt lat="45.866227699443698" lon="9.340517465025187">
        <ele>1271</ele>
        <time>2013-05-26T09:57:41Z</time>
      </trkpt>
      <trkpt lat="45.866222167387605" lon="9.340667836368084">
        <ele>1267.6400000000001</ele>
        <time>2013-05-26T09:57:51Z</time>
      </trkpt>
      <trkpt lat="45.866197440773249" lon="9.340709997341037">
        <ele>1268.1199999999999</ele>
        <time>2013-05-26T09:58:08Z</time>
      </trkpt>
      <trkpt lat="45.866192830726504" lon="9.340740256011486">
        <ele>1266.6700000000001</ele>
        <time>2013-05-26T09:58:21Z</time>
      </trkpt>
      <trkpt lat="45.866184197366238" lon="9.340730365365744">
        <ele>1267.6400000000001</ele>
        <time>2013-05-26T09:58:36Z</time>
      </trkpt>
      <trkpt lat="45.866177827119827" lon="9.340720809996128">
        <ele>1267.6400000000001</ele>
        <time>2013-05-26T09:59:00Z</time>
      </trkpt>
      <trkpt lat="45.866183526813984" lon="9.340722318738699">
        <ele>1268.1199999999999</ele>
        <time>2013-05-26T09:59:24Z</time>
      </trkpt>
      <trkpt lat="45.866186795756221" lon="9.340733047574759">
        <ele>1268.1199999999999</ele>
        <time>2013-05-26T09:59:36Z</time>
      </trkpt>
      <trkpt lat="45.866182018071413" lon="9.340732377022505">
        <ele>1267.1600000000001</ele>
        <time>2013-05-26T09:59:58Z</time>
      </trkpt>
      <trkpt lat="45.86618285626173" lon="9.340725168585777">
        <ele>1267.1600000000001</ele>
        <time>2013-05-26T10:00:17Z</time>
      </trkpt>
      <trkpt lat="45.866190567612648" lon="9.340689964592457">
        <ele>1265.71</ele>
        <time>2013-05-26T10:00:33Z</time>
      </trkpt>
      <trkpt lat="45.866198446601629" lon="9.340693987905979">
        <ele>1267.6400000000001</ele>
        <time>2013-05-26T10:00:49Z</time>
      </trkpt>
      <trkpt lat="45.866228705272079" lon="9.340621149167419">
        <ele>1267.6400000000001</ele>
        <time>2013-05-26T10:01:06Z</time>
      </trkpt>
      <trkpt lat="45.866226106882095" lon="9.340516710653901">
        <ele>1270.04</ele>
        <time>2013-05-26T10:01:20Z</time>
      </trkpt>
      <trkpt lat="45.866209510713816" lon="9.34049173258245">
        <ele>1271.48</ele>
        <time>2013-05-26T10:01:32Z</time>
      </trkpt>
      <trkpt lat="45.866204481571913" lon="9.340473962947726">
        <ele>1271.96</ele>
        <time>2013-05-26T10:01:48Z</time>
      </trkpt>
      <trkpt lat="45.866216216236353" lon="9.340398274362087">
        <ele>1272.4400000000001</ele>
        <time>2013-05-26T10:02:02Z</time>
      </trkpt>
      <trkpt lat="45.866213450208306" lon="9.340399950742722">
        <ele>1272.9200000000001</ele>
        <time>2013-05-26T10:02:10Z</time>
      </trkpt>
      <trkpt lat="45.866233231499791" lon="9.340372541919351">
        <ele>1272.9200000000001</ele>
        <time>2013-05-26T10:02:25Z</time>
      </trkpt>
      <trkpt lat="45.86624781601131" lon="9.340321496129036">
        <ele>1272.4400000000001</ele>
        <time>2013-05-26T10:02:39Z</time>
      </trkpt>
      <trkpt lat="45.866247983649373" lon="9.340296434238553">
        <ele>1272.9200000000001</ele>
        <time>2013-05-26T10:02:42Z</time>
      </trkpt>
      <trkpt lat="45.866271955892444" lon="9.340154277160764">
        <ele>1272.4400000000001</ele>
        <time>2013-05-26T10:02:56Z</time>
      </trkpt>
      <trkpt lat="45.86634068749845" lon="9.340061908587813">
        <ele>1271</ele>
        <time>2013-05-26T10:03:11Z</time>
      </trkpt>
      <trkpt lat="45.86637488566339" lon="9.340057130903006">
        <ele>1270.52</ele>
        <time>2013-05-26T10:03:23Z</time>
      </trkpt>
      <trkpt lat="45.866359965875745" lon="9.340023519471288">
        <ele>1269.5599999999999</ele>
        <time>2013-05-26T10:03:40Z</time>
      </trkpt>
      <trkpt lat="45.866329036653042" lon="9.34003341011703">
        <ele>1269.5599999999999</ele>
        <time>2013-05-26T10:03:53Z</time>
      </trkpt>
      <trkpt lat="45.866354685276747" lon="9.339927211403847">
        <ele>1268.1199999999999</ele>
        <time>2013-05-26T10:04:09Z</time>
      </trkpt>
      <trkpt lat="45.866350410506129" lon="9.339824197813869">
        <ele>1265.23</ele>
        <time>2013-05-26T10:04:24Z</time>
      </trkpt>
      <trkpt lat="45.866338843479753" lon="9.33967818506062">
        <ele>1262.8299999999999</ele>
        <time>2013-05-26T10:04:40Z</time>
      </trkpt>
      <trkpt lat="45.866310009732842" lon="9.339612470939755">
        <ele>1260.4300000000001</ele>
        <time>2013-05-26T10:04:55Z</time>
      </trkpt>
      <trkpt lat="45.86629768833518" lon="9.339644070714712">
        <ele>1259.9400000000001</ele>
        <time>2013-05-26T10:05:08Z</time>
      </trkpt>
      <trkpt lat="45.866298861801624" lon="9.339636946097016">
        <ele>1258.98</ele>
        <time>2013-05-26T10:05:22Z</time>
      </trkpt>
      <trkpt lat="45.86630254983902" lon="9.339629150927067">
        <ele>1259.46</ele>
        <time>2013-05-26T10:05:41Z</time>
      </trkpt>
      <trkpt lat="45.866303890943527" lon="9.339641975238919">
        <ele>1259.9400000000001</ele>
        <time>2013-05-26T10:05:59Z</time>
      </trkpt>
      <trkpt lat="45.866292994469404" lon="9.339645495638251">
        <ele>1259.46</ele>
        <time>2013-05-26T10:06:21Z</time>
      </trkpt>
      <trkpt lat="45.866304226219654" lon="9.339633425697684">
        <ele>1259.46</ele>
        <time>2013-05-26T10:06:47Z</time>
      </trkpt>
      <trkpt lat="45.866297939792275" lon="9.339627223089337">
        <ele>1259.46</ele>
        <time>2013-05-26T10:07:08Z</time>
      </trkpt>
      <trkpt lat="45.866287462413311" lon="9.339639376848936">
        <ele>1258.02</ele>
        <time>2013-05-26T10:07:28Z</time>
      </trkpt>
      <trkpt lat="45.866278242319822" lon="9.339663265272975">
        <ele>1257.0599999999999</ele>
        <time>2013-05-26T10:07:43Z</time>
      </trkpt>
      <trkpt lat="45.866260724142194" lon="9.339693021029234">
        <ele>1256.0999999999999</ele>
        <time>2013-05-26T10:07:57Z</time>
      </trkpt>
      <trkpt lat="45.866245971992612" lon="9.33968941681087">
        <ele>1255.6199999999999</ele>
        <time>2013-05-26T10:08:10Z</time>
      </trkpt>
      <trkpt lat="45.86625074967742" lon="9.339688075706363">
        <ele>1256.5799999999999</ele>
        <time>2013-05-26T10:08:28Z</time>
      </trkpt>
      <trkpt lat="45.866257036104798" lon="9.339668294414878">
        <ele>1257.0599999999999</ele>
        <time>2013-05-26T10:08:47Z</time>
      </trkpt>
      <trkpt lat="45.866258461028337" lon="9.339668042957783">
        <ele>1257.0599999999999</ele>
        <time>2013-05-26T10:09:10Z</time>
      </trkpt>
      <trkpt lat="45.866267178207636" lon="9.339663265272975">
        <ele>1256.5799999999999</ele>
        <time>2013-05-26T10:09:30Z</time>
      </trkpt>
      <trkpt lat="45.866262819617987" lon="9.339672904461622">
        <ele>1257.0599999999999</ele>
        <time>2013-05-26T10:09:52Z</time>
      </trkpt>
      <trkpt lat="45.866238847374916" lon="9.339662929996848">
        <ele>1257.0599999999999</ele>
        <time>2013-05-26T10:10:07Z</time>
      </trkpt>
      <trkpt lat="45.866239853203297" lon="9.339661924168468">
        <ele>1256.5799999999999</ele>
        <time>2013-05-26T10:10:18Z</time>
      </trkpt>
      <trkpt lat="45.866200374439359" lon="9.339643064886332">
        <ele>1256.0999999999999</ele>
        <time>2013-05-26T10:10:22Z</time>
      </trkpt>
      <trkpt lat="45.866164499893785" lon="9.339623618870974">
        <ele>1256.0999999999999</ele>
        <time>2013-05-26T10:10:25Z</time>
      </trkpt>
      <trkpt lat="45.866121668368578" lon="9.339623702690005">
        <ele>1255.6199999999999</ele>
        <time>2013-05-26T10:10:37Z</time>
      </trkpt>
      <trkpt lat="45.86613935418427" lon="9.339623115956783">
        <ele>1254.6600000000001</ele>
        <time>2013-05-26T10:10:51Z</time>
      </trkpt>
      <trkpt lat="45.866228202357888" lon="9.339680783450604">
        <ele>1254.1800000000001</ele>
        <time>2013-05-26T10:11:10Z</time>
      </trkpt>
      <trkpt lat="45.866233231499791" lon="9.339644573628902">
        <ele>1254.6600000000001</ele>
        <time>2013-05-26T10:11:36Z</time>
      </trkpt>
      <trkpt lat="45.866225520148873" lon="9.339621691033244">
        <ele>1254.6600000000001</ele>
        <time>2013-05-26T10:12:00Z</time>
      </trkpt>
      <trkpt lat="45.866231555119157" lon="9.339587911963463">
        <ele>1254.6600000000001</ele>
        <time>2013-05-26T10:12:31Z</time>
      </trkpt>
      <trkpt lat="45.866210935637355" lon="9.339613812044263">
        <ele>1254.6600000000001</ele>
        <time>2013-05-26T10:12:51Z</time>
      </trkpt>
      <trkpt lat="45.866239853203297" lon="9.339674329385161">
        <ele>1255.1400000000001</ele>
        <time>2013-05-26T10:13:11Z</time>
      </trkpt>
      <trkpt lat="45.866220574826002" lon="9.33968547731638">
        <ele>1253.7</ele>
        <time>2013-05-26T10:13:24Z</time>
      </trkpt>
      <trkpt lat="45.866215880960226" lon="9.339695367962122">
        <ele>1253.7</ele>
        <time>2013-05-26T10:13:42Z</time>
      </trkpt>
      <trkpt lat="45.866218227893114" lon="9.339661840349436">
        <ele>1253.7</ele>
        <time>2013-05-26T10:13:59Z</time>
      </trkpt>
      <trkpt lat="45.866221664473414" lon="9.339649854227901">
        <ele>1252.74</ele>
        <time>2013-05-26T10:14:14Z</time>
      </trkpt>
      <trkpt lat="45.866218646988273" lon="9.339658739045262">
        <ele>1252.74</ele>
        <time>2013-05-26T10:14:19Z</time>
      </trkpt>
      <trkpt lat="45.866226525977254" lon="9.339672066271305">
        <ele>1252.25</ele>
        <time>2013-05-26T10:14:32Z</time>
      </trkpt>
      <trkpt lat="45.866218646988273" lon="9.339658403769136">
        <ele>1251.29</ele>
        <time>2013-05-26T10:14:46Z</time>
      </trkpt>
      <trkpt lat="45.866219904273748" lon="9.339640885591507">
        <ele>1251.77</ele>
        <time>2013-05-26T10:15:02Z</time>
      </trkpt>
      <trkpt lat="45.866221832111478" lon="9.339633090421557">
        <ele>1249.8499999999999</ele>
        <time>2013-05-26T10:15:18Z</time>
      </trkpt>
      <trkpt lat="45.866213785484433" lon="9.339644322171807">
        <ele>1249.3699999999999</ele>
        <time>2013-05-26T10:15:35Z</time>
      </trkpt>
      <trkpt lat="45.866210097447038" lon="9.339648513123393">
        <ele>1249.3699999999999</ele>
        <time>2013-05-26T10:15:56Z</time>
      </trkpt>
      <trkpt lat="45.866180341690779" lon="9.33966351673007">
        <ele>1247.45</ele>
        <time>2013-05-26T10:16:14Z</time>
      </trkpt>
      <trkpt lat="45.866163661703467" lon="9.339665109291673">
        <ele>1247.45</ele>
        <time>2013-05-26T10:16:35Z</time>
      </trkpt>
      <trkpt lat="45.866130972281098" lon="9.339657481759787">
        <ele>1246.49</ele>
        <time>2013-05-26T10:16:50Z</time>
      </trkpt>
      <trkpt lat="45.866147149354219" lon="9.339639376848936">
        <ele>1245.04</ele>
        <time>2013-05-26T10:17:03Z</time>
      </trkpt>
      <trkpt lat="45.86615938693285" lon="9.339664354920387">
        <ele>1245.04</ele>
        <time>2013-05-26T10:17:19Z</time>
      </trkpt>
      <trkpt lat="45.866185706108809" lon="9.339640215039253">
        <ele>1245.53</ele>
        <time>2013-05-26T10:17:34Z</time>
      </trkpt>
      <trkpt lat="45.866177994757891" lon="9.33967424556613">
        <ele>1245.04</ele>
        <time>2013-05-26T10:17:50Z</time>
      </trkpt>
      <trkpt lat="45.866165589541197" lon="9.339655721560121">
        <ele>1243.5999999999999</ele>
        <time>2013-05-26T10:18:03Z</time>
      </trkpt>
      <trkpt lat="45.866177743300796" lon="9.339626301079989">
        <ele>1242.6400000000001</ele>
        <time>2013-05-26T10:18:19Z</time>
      </trkpt>
      <trkpt lat="45.866177994757891" lon="9.339610207825899">
        <ele>1241.6800000000001</ele>
        <time>2013-05-26T10:18:37Z</time>
      </trkpt>
      <trkpt lat="45.866182772442698" lon="9.339597802609205">
        <ele>1240.72</ele>
        <time>2013-05-26T10:18:49Z</time>
      </trkpt>
      <trkpt lat="45.866164835169911" lon="9.339607190340757">
        <ele>1240.72</ele>
        <time>2013-05-26T10:19:06Z</time>
      </trkpt>
      <trkpt lat="45.866162991151214" lon="9.339609369635582">
        <ele>1239.76</ele>
        <time>2013-05-26T10:19:20Z</time>
      </trkpt>
      <trkpt lat="45.866176821291447" lon="9.339588833972812">
        <ele>1239.76</ele>
        <time>2013-05-26T10:19:37Z</time>
      </trkpt>
      <trkpt lat="45.866151675581932" lon="9.339590426534414">
        <ele>1238.8</ele>
        <time>2013-05-26T10:19:49Z</time>
      </trkpt>
      <trkpt lat="45.866127116605639" lon="9.339586654677987">
        <ele>1237.8299999999999</ele>
        <time>2013-05-26T10:20:05Z</time>
      </trkpt>
      <trkpt lat="45.866156620904803" lon="9.339583218097687">
        <ele>1237.8299999999999</ele>
        <time>2013-05-26T10:20:17Z</time>
      </trkpt>
      <trkpt lat="45.866152346134186" lon="9.339584056288004">
        <ele>1238.8</ele>
        <time>2013-05-26T10:20:30Z</time>
      </trkpt>
      <trkpt lat="45.866139605641365" lon="9.339555557817221">
        <ele>1237.3499999999999</ele>
        <time>2013-05-26T10:20:42Z</time>
      </trkpt>
      <trkpt lat="45.866120578721166" lon="9.339554635807872">
        <ele>1236.8699999999999</ele>
        <time>2013-05-26T10:20:55Z</time>
      </trkpt>
      <trkpt lat="45.866097193211317" lon="9.339548852294684">
        <ele>1234.95</ele>
        <time>2013-05-26T10:21:05Z</time>
      </trkpt>
      <trkpt lat="45.866093588992953" lon="9.339535105973482">
        <ele>1234.95</ele>
        <time>2013-05-26T10:21:21Z</time>
      </trkpt>
      <trkpt lat="45.866075567901134" lon="9.339552372694016">
        <ele>1234.95</ele>
        <time>2013-05-26T10:21:39Z</time>
      </trkpt>
      <trkpt lat="45.866060145199299" lon="9.33957994915545">
        <ele>1234.47</ele>
        <time>2013-05-26T10:21:54Z</time>
      </trkpt>
      <trkpt lat="45.866041872650385" lon="9.339585984125733">
        <ele>1232.55</ele>
        <time>2013-05-26T10:22:06Z</time>
      </trkpt>
      <trkpt lat="45.866021001711488" lon="9.339546589180827">
        <ele>1230.6199999999999</ele>
        <time>2013-05-26T10:22:16Z</time>
      </trkpt>
      <trkpt lat="45.865998286753893" lon="9.339484479278326">
        <ele>1227.26</ele>
        <time>2013-05-26T10:22:28Z</time>
      </trkpt>
      <trkpt lat="45.865986468270421" lon="9.33946461416781">
        <ele>1226.78</ele>
        <time>2013-05-26T10:22:44Z</time>
      </trkpt>
      <trkpt lat="45.866046231240034" lon="9.339403174817562">
        <ele>1226.3</ele>
        <time>2013-05-26T10:23:07Z</time>
      </trkpt>
      <trkpt lat="45.866060145199299" lon="9.339404264464974">
        <ele>1226.3</ele>
        <time>2013-05-26T10:23:29Z</time>
      </trkpt>
      <trkpt lat="45.866075735539198" lon="9.339376855641604">
        <ele>1226.3</ele>
        <time>2013-05-26T10:23:48Z</time>
      </trkpt>
      <trkpt lat="45.866075903177261" lon="9.33937861584127">
        <ele>1226.78</ele>
        <time>2013-05-26T10:24:01Z</time>
      </trkpt>
      <trkpt lat="45.866087805479765" lon="9.339344333857298">
        <ele>1226.78</ele>
        <time>2013-05-26T10:24:21Z</time>
      </trkpt>
      <trkpt lat="45.866061486303806" lon="9.339321115985513">
        <ele>1225.8199999999999</ele>
        <time>2013-05-26T10:24:33Z</time>
      </trkpt>
      <trkpt lat="45.866068275645375" lon="9.339309213683009">
        <ele>1225.3399999999999</ele>
        <time>2013-05-26T10:24:55Z</time>
      </trkpt>
      <trkpt lat="45.866064839065075" lon="9.339314494282007">
        <ele>1225.3399999999999</ele>
        <time>2013-05-26T10:25:10Z</time>
      </trkpt>
      <trkpt lat="45.866060480475426" lon="9.339330336079001">
        <ele>1225.8199999999999</ele>
        <time>2013-05-26T10:25:32Z</time>
      </trkpt>
      <trkpt lat="45.866064168512821" lon="9.339346010237932">
        <ele>1225.3399999999999</ele>
        <time>2013-05-26T10:25:46Z</time>
      </trkpt>
      <trkpt lat="45.866065509617329" lon="9.339353973045945">
        <ele>1224.8599999999999</ele>
        <time>2013-05-26T10:25:56Z</time>
      </trkpt>
      <trkpt lat="45.866067102178931" lon="9.339355817064643">
        <ele>1224.8599999999999</ele>
        <time>2013-05-26T10:26:29Z</time>
      </trkpt>
      <trkpt lat="45.866087386384606" lon="9.339339891448617">
        <ele>1226.3</ele>
        <time>2013-05-26T10:26:39Z</time>
      </trkpt>
      <trkpt lat="45.86609048768878" lon="9.339360427111387">
        <ele>1226.3</ele>
        <time>2013-05-26T10:26:55Z</time>
      </trkpt>
      <trkpt lat="45.86608269251883" lon="9.339323379099369">
        <ele>1226.3</ele>
        <time>2013-05-26T10:27:16Z</time>
      </trkpt>
      <trkpt lat="45.866073807701468" lon="9.339344669133425">
        <ele>1225.8199999999999</ele>
        <time>2013-05-26T10:27:32Z</time>
      </trkpt>
      <trkpt lat="45.866080177947879" lon="9.339315416291356">
        <ele>1225.8199999999999</ele>
        <time>2013-05-26T10:27:51Z</time>
      </trkpt>
      <trkpt lat="45.866076070815325" lon="9.339295132085681">
        <ele>1225.8199999999999</ele>
        <time>2013-05-26T10:28:22Z</time>
      </trkpt>
      <trkpt lat="45.866060061380267" lon="9.33929655700922">
        <ele>1226.3</ele>
        <time>2013-05-26T10:28:44Z</time>
      </trkpt>
      <trkpt lat="45.866041034460068" lon="9.339309968054295">
        <ele>1225.8199999999999</ele>
        <time>2013-05-26T10:29:02Z</time>
      </trkpt>
      <trkpt lat="45.866030640900135" lon="9.33934542350471">
        <ele>1225.8199999999999</ele>
        <time>2013-05-26T10:29:17Z</time>
      </trkpt>
      <trkpt lat="45.866046901792288" lon="9.339325558394194">
        <ele>1225.8199999999999</ele>
        <time>2013-05-26T10:29:36Z</time>
      </trkpt>
      <trkpt lat="45.866062408313155" lon="9.339310554787517">
        <ele>1225.8199999999999</ele>
        <time>2013-05-26T10:29:51Z</time>
      </trkpt>
      <trkpt lat="45.866045979782939" lon="9.339275099337101">
        <ele>1226.3</ele>
        <time>2013-05-26T10:30:19Z</time>
      </trkpt>
      <trkpt lat="45.866039525717497" lon="9.339313739910722">
        <ele>1226.3</ele>
        <time>2013-05-26T10:30:37Z</time>
      </trkpt>
      <trkpt lat="45.866040866822004" lon="9.339372077956796">
        <ele>1226.78</ele>
        <time>2013-05-26T10:30:52Z</time>
      </trkpt>
      <trkpt lat="45.866053104400635" lon="9.339331341907382">
        <ele>1226.3</ele>
        <time>2013-05-26T10:31:19Z</time>
      </trkpt>
      <trkpt lat="45.866051763296127" lon="9.339335113763809">
        <ele>1226.78</ele>
        <time>2013-05-26T10:31:35Z</time>
      </trkpt>
      <trkpt lat="45.86605042219162" lon="9.339319607242942">
        <ele>1226.3</ele>
        <time>2013-05-26T10:32:00Z</time>
      </trkpt>
      <trkpt lat="45.866041285917163" lon="9.339305860921741">
        <ele>1226.78</ele>
        <time>2013-05-26T10:32:21Z</time>
      </trkpt>
      <trkpt lat="45.866051260381937" lon="9.339320193976164">
        <ele>1226.78</ele>
        <time>2013-05-26T10:32:40Z</time>
      </trkpt>
      <trkpt lat="45.866055283695459" lon="9.339326731860638">
        <ele>1226.78</ele>
        <time>2013-05-26T10:32:54Z</time>
      </trkpt>
      <trkpt lat="45.866050506010652" lon="9.339322121813893">
        <ele>1226.78</ele>
        <time>2013-05-26T10:33:15Z</time>
      </trkpt>
      <trkpt lat="45.866049751639366" lon="9.339309884235263">
        <ele>1226.78</ele>
        <time>2013-05-26T10:33:39Z</time>
      </trkpt>
      <trkpt lat="45.86604212410748" lon="9.339290605857968">
        <ele>1226.3</ele>
        <time>2013-05-26T10:33:59Z</time>
      </trkpt>
      <trkpt lat="45.8660479914397" lon="9.339274764060974">
        <ele>1226.78</ele>
        <time>2013-05-26T10:34:23Z</time>
      </trkpt>
      <trkpt lat="45.866047404706478" lon="9.339311560615897">
        <ele>1227.26</ele>
        <time>2013-05-26T10:34:48Z</time>
      </trkpt>
      <trkpt lat="45.866049667820334" lon="9.339317344129086">
        <ele>1227.26</ele>
        <time>2013-05-26T10:35:10Z</time>
      </trkpt>
      <trkpt lat="45.86608218960464" lon="9.339290773496032">
        <ele>1226.78</ele>
        <time>2013-05-26T10:35:30Z</time>
      </trkpt>
      <trkpt lat="45.866088643670082" lon="9.33923838660121">
        <ele>1225.3399999999999</ele>
        <time>2013-05-26T10:35:43Z</time>
      </trkpt>
      <trkpt lat="45.866084871813655" lon="9.339203517884016">
        <ele>1224.3800000000001</ele>
        <time>2013-05-26T10:35:46Z</time>
      </trkpt>
      <trkpt lat="45.866090906783938" lon="9.339182730764151">
        <ele>1224.3800000000001</ele>
        <time>2013-05-26T10:35:48Z</time>
      </trkpt>
      <trkpt lat="45.866074478253722" lon="9.339100001379848">
        <ele>1224.3800000000001</ele>
        <time>2013-05-26T10:36:01Z</time>
      </trkpt>
      <trkpt lat="45.866128960624337" lon="9.338947283104062">
        <ele>1227.74</ele>
        <time>2013-05-26T10:36:15Z</time>
      </trkpt>
      <trkpt lat="45.866156537085772" lon="9.338890956714749">
        <ele>1231.1099999999999</ele>
        <time>2013-05-26T10:36:29Z</time>
      </trkpt>
      <trkpt lat="45.866199703887105" lon="9.33886949904263">
        <ele>1233.51</ele>
        <time>2013-05-26T10:36:41Z</time>
      </trkpt>
      <trkpt lat="45.866211857646704" lon="9.338872600346804">
        <ele>1236.3900000000001</ele>
        <time>2013-05-26T10:36:46Z</time>
      </trkpt>
      <trkpt lat="45.866201128810644" lon="9.338860614225268">
        <ele>1235.9100000000001</ele>
        <time>2013-05-26T10:37:01Z</time>
      </trkpt>
      <trkpt lat="45.866167517378926" lon="9.338862374424934">
        <ele>1235.4300000000001</ele>
        <time>2013-05-26T10:37:16Z</time>
      </trkpt>
      <trkpt lat="45.866117225959897" lon="9.338866649195552">
        <ele>1236.8699999999999</ele>
        <time>2013-05-26T10:37:32Z</time>
      </trkpt>
      <trkpt lat="45.866056624799967" lon="9.338860362768173">
        <ele>1238.3199999999999</ele>
        <time>2013-05-26T10:37:47Z</time>
      </trkpt>
      <trkpt lat="45.866076154634356" lon="9.338776124641299">
        <ele>1239.28</ele>
        <time>2013-05-26T10:38:00Z</time>
      </trkpt>
      <trkpt lat="45.866116723045707" lon="9.338721055537462">
        <ele>1242.6400000000001</ele>
        <time>2013-05-26T10:38:13Z</time>
      </trkpt>
      <trkpt lat="45.866116220131516" lon="9.338720133528113">
        <ele>1243.1199999999999</ele>
        <time>2013-05-26T10:38:14Z</time>
      </trkpt>
      <trkpt lat="45.866179000586271" lon="9.338713092729449">
        <ele>1245.04</ele>
        <time>2013-05-26T10:38:27Z</time>
      </trkpt>
      <trkpt lat="45.866186963394284" lon="9.338726168498397">
        <ele>1246.01</ele>
        <time>2013-05-26T10:38:43Z</time>
      </trkpt>
      <trkpt lat="45.866195596754551" lon="9.338700100779533">
        <ele>1247.9300000000001</ele>
        <time>2013-05-26T10:38:54Z</time>
      </trkpt>
      <trkpt lat="45.866196770220995" lon="9.338668249547482">
        <ele>1248.8900000000001</ele>
        <time>2013-05-26T10:39:11Z</time>
      </trkpt>
      <trkpt lat="45.86620188318193" lon="9.338703118264675">
        <ele>1249.3699999999999</ele>
        <time>2013-05-26T10:39:28Z</time>
      </trkpt>
      <trkpt lat="45.866194423288107" lon="9.338649222627282">
        <ele>1250.3299999999999</ele>
        <time>2013-05-26T10:39:41Z</time>
      </trkpt>
      <trkpt lat="45.866212192922831" lon="9.338602619245648">
        <ele>1252.74</ele>
        <time>2013-05-26T10:39:57Z</time>
      </trkpt>
      <trkpt lat="45.866178665310144" lon="9.338571941480041">
        <ele>1254.6600000000001</ele>
        <time>2013-05-26T10:40:04Z</time>
      </trkpt>
      <trkpt lat="45.866158129647374" lon="9.338567918166518">
        <ele>1255.1400000000001</ele>
        <time>2013-05-26T10:40:21Z</time>
      </trkpt>
      <trkpt lat="45.866152513772249" lon="9.338551154360175">
        <ele>1256.0999999999999</ele>
        <time>2013-05-26T10:40:31Z</time>
      </trkpt>
      <trkpt lat="45.866161733865738" lon="9.338532714173198">
        <ele>1255.6199999999999</ele>
        <time>2013-05-26T10:40:51Z</time>
      </trkpt>
      <trkpt lat="45.866173887625337" lon="9.338528858497739">
        <ele>1255.1400000000001</ele>
        <time>2013-05-26T10:41:11Z</time>
      </trkpt>
      <trkpt lat="45.866161650046706" lon="9.338542269542813">
        <ele>1255.6199999999999</ele>
        <time>2013-05-26T10:41:19Z</time>
      </trkpt>
      <trkpt lat="45.86612812243402" lon="9.338543610647321">
        <ele>1257.54</ele>
        <time>2013-05-26T10:41:32Z</time>
      </trkpt>
      <trkpt lat="45.866090403869748" lon="9.338518381118774">
        <ele>1258.5</ele>
        <time>2013-05-26T10:41:45Z</time>
      </trkpt>
      <trkpt lat="45.86605972610414" lon="9.338478902354837">
        <ele>1259.9400000000001</ele>
        <time>2013-05-26T10:41:58Z</time>
      </trkpt>
      <trkpt lat="45.866046817973256" lon="9.338475298136473">
        <ele>1260.4300000000001</ele>
        <time>2013-05-26T10:42:13Z</time>
      </trkpt>
      <trkpt lat="45.866023935377598" lon="9.338471861556172">
        <ele>1259.46</ele>
        <time>2013-05-26T10:42:25Z</time>
      </trkpt>
      <trkpt lat="45.865984791889787" lon="9.338472532108426">
        <ele>1257.54</ele>
        <time>2013-05-26T10:42:38Z</time>
      </trkpt>
      <trkpt lat="45.865949587896466" lon="9.338461216539145">
        <ele>1255.6199999999999</ele>
        <time>2013-05-26T10:42:52Z</time>
      </trkpt>
      <trkpt lat="45.865956461057067" lon="9.338404722511768">
        <ele>1255.1400000000001</ele>
        <time>2013-05-26T10:43:04Z</time>
      </trkpt>
      <trkpt lat="45.86597272194922" lon="9.338372033089399">
        <ele>1253.7</ele>
        <time>2013-05-26T10:43:20Z</time>
      </trkpt>
      <trkpt lat="45.865990491583943" lon="9.338344959542155">
        <ele>1252.74</ele>
        <time>2013-05-26T10:43:36Z</time>
      </trkpt>
      <trkpt lat="45.865993676707149" lon="9.338318891823292">
        <ele>1251.77</ele>
        <time>2013-05-26T10:43:50Z</time>
      </trkpt>
      <trkpt lat="45.865978086367249" lon="9.338328028097749">
        <ele>1249.8499999999999</ele>
        <time>2013-05-26T10:44:06Z</time>
      </trkpt>
      <trkpt lat="45.865939194336534" lon="9.33832760900259">
        <ele>1249.3699999999999</ele>
        <time>2013-05-26T10:44:19Z</time>
      </trkpt>
      <trkpt lat="45.865934332832694" lon="9.338293746113777">
        <ele>1247.9300000000001</ele>
        <time>2013-05-26T10:44:32Z</time>
      </trkpt>
      <trkpt lat="45.865942044183612" lon="9.338266672566533">
        <ele>1246.49</ele>
        <time>2013-05-26T10:44:43Z</time>
      </trkpt>
      <trkpt lat="45.865900972858071" lon="9.338248232379556">
        <ele>1244.5599999999999</ele>
        <time>2013-05-26T10:44:56Z</time>
      </trkpt>
      <trkpt lat="45.865841964259744" lon="9.338199449703097">
        <ele>1245.04</ele>
        <time>2013-05-26T10:45:09Z</time>
      </trkpt>
      <trkpt lat="45.865829139947891" lon="9.338157121092081">
        <ele>1246.01</ele>
        <time>2013-05-26T10:45:25Z</time>
      </trkpt>
      <trkpt lat="45.865809693932533" lon="9.338134489953518">
        <ele>1248.4100000000001</ele>
        <time>2013-05-26T10:45:37Z</time>
      </trkpt>
      <trkpt lat="45.865791253745556" lon="9.338101549074054">
        <ele>1248.8900000000001</ele>
        <time>2013-05-26T10:45:48Z</time>
      </trkpt>
      <trkpt lat="45.865777675062418" lon="9.338099788874388">
        <ele>1249.8499999999999</ele>
        <time>2013-05-26T10:46:03Z</time>
      </trkpt>
      <trkpt lat="45.865760408341885" lon="9.338094592094421">
        <ele>1250.3299999999999</ele>
        <time>2013-05-26T10:46:18Z</time>
      </trkpt>
      <trkpt lat="45.865721348673105" lon="9.338101465255022">
        <ele>1248.4100000000001</ele>
        <time>2013-05-26T10:46:31Z</time>
      </trkpt>
      <trkpt lat="45.865697711706161" lon="9.338055197149515">
        <ele>1246.97</ele>
        <time>2013-05-26T10:46:45Z</time>
      </trkpt>
      <trkpt lat="45.865659322589636" lon="9.338059891015291">
        <ele>1246.01</ele>
        <time>2013-05-26T10:47:00Z</time>
      </trkpt>
      <trkpt lat="45.865634931251407" lon="9.338056454434991">
        <ele>1246.01</ele>
        <time>2013-05-26T10:47:08Z</time>
      </trkpt>
      <trkpt lat="45.86562093347311" lon="9.337967103347182">
        <ele>1247.9300000000001</ele>
        <time>2013-05-26T10:47:21Z</time>
      </trkpt>
      <trkpt lat="45.865588914602995" lon="9.337971461936832">
        <ele>1248.8900000000001</ele>
        <time>2013-05-26T10:47:36Z</time>
      </trkpt>
      <trkpt lat="45.865558823570609" lon="9.337972803041339">
        <ele>1248.8900000000001</ele>
        <time>2013-05-26T10:47:46Z</time>
      </trkpt>
      <trkpt lat="45.865537030622363" lon="9.337959140539169">
        <ele>1249.3699999999999</ele>
        <time>2013-05-26T10:47:59Z</time>
      </trkpt>
      <trkpt lat="45.865512220188975" lon="9.337965929880738">
        <ele>1248.4100000000001</ele>
        <time>2013-05-26T10:48:14Z</time>
      </trkpt>
      <trkpt lat="45.865472322329879" lon="9.337950507178903">
        <ele>1247.9300000000001</ele>
        <time>2013-05-26T10:48:28Z</time>
      </trkpt>
      <trkpt lat="45.865461509674788" lon="9.337940448895097">
        <ele>1247.45</ele>
        <time>2013-05-26T10:48:48Z</time>
      </trkpt>
      <trkpt lat="45.865451702848077" lon="9.337939275428653">
        <ele>1246.97</ele>
        <time>2013-05-26T10:49:00Z</time>
      </trkpt>
      <trkpt lat="45.865433095023036" lon="9.33793231844902">
        <ele>1246.01</ele>
        <time>2013-05-26T10:49:13Z</time>
      </trkpt>
      <trkpt lat="45.865439213812351" lon="9.337919997051358">
        <ele>1245.53</ele>
        <time>2013-05-26T10:49:26Z</time>
      </trkpt>
      <trkpt lat="45.865423791110516" lon="9.337931061163545">
        <ele>1244.0799999999999</ele>
        <time>2013-05-26T10:49:46Z</time>
      </trkpt>
      <trkpt lat="45.865415157750249" lon="9.337925864383578">
        <ele>1243.5999999999999</ele>
        <time>2013-05-26T10:49:59Z</time>
      </trkpt>
      <trkpt lat="45.865421863272786" lon="9.337928965687752">
        <ele>1244.0799999999999</ele>
        <time>2013-05-26T10:50:12Z</time>
      </trkpt>
      <trkpt lat="45.865415325388312" lon="9.337940951809287">
        <ele>1242.6400000000001</ele>
        <time>2013-05-26T10:50:31Z</time>
      </trkpt>
      <trkpt lat="45.865406105294824" lon="9.337938772514463">
        <ele>1242.6400000000001</ele>
        <time>2013-05-26T10:50:43Z</time>
      </trkpt>
      <trkpt lat="45.865405267104506" lon="9.33794061653316">
        <ele>1242.6400000000001</ele>
        <time>2013-05-26T10:51:03Z</time>
      </trkpt>
      <trkpt lat="45.865401159971952" lon="9.337930055335164">
        <ele>1241.6800000000001</ele>
        <time>2013-05-26T10:51:17Z</time>
      </trkpt>
      <trkpt lat="45.865388922393322" lon="9.337931731715798">
        <ele>1241.6800000000001</ele>
        <time>2013-05-26T10:51:36Z</time>
      </trkpt>
      <trkpt lat="45.86539076641202" lon="9.337957631796598">
        <ele>1240.72</ele>
        <time>2013-05-26T10:51:55Z</time>
      </trkpt>
      <trkpt lat="45.865370314568281" lon="9.337984118610621">
        <ele>1240.24</ele>
        <time>2013-05-26T10:52:06Z</time>
      </trkpt>
      <trkpt lat="45.865341397002339" lon="9.337997948750854">
        <ele>1238.8</ele>
        <time>2013-05-26T10:52:22Z</time>
      </trkpt>
      <trkpt lat="45.865328824147582" lon="9.338014964014292">
        <ele>1237.3499999999999</ele>
        <time>2013-05-26T10:52:33Z</time>
      </trkpt>
      <trkpt lat="45.865323292091489" lon="9.338009096682072">
        <ele>1236.3900000000001</ele>
        <time>2013-05-26T10:52:45Z</time>
      </trkpt>
      <trkpt lat="45.86529596708715" lon="9.338015718385577">
        <ele>1235.4300000000001</ele>
        <time>2013-05-26T10:52:58Z</time>
      </trkpt>
      <trkpt lat="45.86529110558331" lon="9.338018484413624">
        <ele>1234.47</ele>
        <time>2013-05-26T10:53:11Z</time>
      </trkpt>
      <trkpt lat="45.865271324291825" lon="9.337987136095762">
        <ele>1233.03</ele>
        <time>2013-05-26T10:53:21Z</time>
      </trkpt>
      <trkpt lat="45.865246932953596" lon="9.338002139702439">
        <ele>1231.5899999999999</ele>
        <time>2013-05-26T10:53:34Z</time>
      </trkpt>
      <trkpt lat="45.865229833871126" lon="9.338015047833324">
        <ele>1230.1400000000001</ele>
        <time>2013-05-26T10:53:47Z</time>
      </trkpt>
      <trkpt lat="45.865206029266119" lon="9.33796358294785">
        <ele>1228.22</ele>
        <time>2013-05-26T10:54:04Z</time>
      </trkpt>
      <trkpt lat="45.865212650969625" lon="9.337934330105782">
        <ele>1227.74</ele>
        <time>2013-05-26T10:54:19Z</time>
      </trkpt>
      <trkpt lat="45.865178201347589" lon="9.337889403104782">
        <ele>1227.26</ele>
        <time>2013-05-26T10:54:35Z</time>
      </trkpt>
      <trkpt lat="45.865163449198008" lon="9.33788345195353">
        <ele>1226.3</ele>
        <time>2013-05-26T10:54:46Z</time>
      </trkpt>
      <trkpt lat="45.865161269903183" lon="9.337851349264383">
        <ele>1224.8599999999999</ele>
        <time>2013-05-26T10:54:59Z</time>
      </trkpt>
      <trkpt lat="45.865147355943918" lon="9.33783114887774">
        <ele>1224.8599999999999</ele>
        <time>2013-05-26T10:55:09Z</time>
      </trkpt>
      <trkpt lat="45.865137046203017" lon="9.337819330394268">
        <ele>1223.9000000000001</ele>
        <time>2013-05-26T10:55:19Z</time>
      </trkpt>
      <trkpt lat="45.865108044818044" lon="9.337798710912466">
        <ele>1222.9300000000001</ele>
        <time>2013-05-26T10:55:34Z</time>
      </trkpt>
      <trkpt lat="45.865071499720216" lon="9.337752358987927">
        <ele>1220.53</ele>
        <time>2013-05-26T10:55:51Z</time>
      </trkpt>
      <trkpt lat="45.865018777549267" lon="9.337711203843355">
        <ele>1219.0899999999999</ele>
        <time>2013-05-26T10:56:11Z</time>
      </trkpt>
      <trkpt lat="45.864993967115879" lon="9.337670719251037">
        <ele>1216.6900000000001</ele>
        <time>2013-05-26T10:56:24Z</time>
      </trkpt>
      <trkpt lat="45.864945268258452" lon="9.337652949616313">
        <ele>1214.76</ele>
        <time>2013-05-26T10:56:37Z</time>
      </trkpt>
      <trkpt lat="45.864927330985665" lon="9.337601233273745">
        <ele>1215.72</ele>
        <time>2013-05-26T10:56:51Z</time>
      </trkpt>
      <trkpt lat="45.864896988496184" lon="9.337590336799622">
        <ele>1216.21</ele>
        <time>2013-05-26T10:57:03Z</time>
      </trkpt>
      <trkpt lat="45.864837896078825" lon="9.337533758953214">
        <ele>1218.6099999999999</ele>
        <time>2013-05-26T10:57:18Z</time>
      </trkpt>
      <trkpt lat="45.864820210263133" lon="9.337462931871414">
        <ele>1218.1300000000001</ele>
        <time>2013-05-26T10:57:32Z</time>
      </trkpt>
      <trkpt lat="45.864821216091514" lon="9.337418591603637">
        <ele>1217.6500000000001</ele>
        <time>2013-05-26T10:57:45Z</time>
      </trkpt>
      <trkpt lat="45.864787856116891" lon="9.337343657389283">
        <ele>1217.1700000000001</ele>
        <time>2013-05-26T10:58:01Z</time>
      </trkpt>
      <trkpt lat="45.864722477272153" lon="9.337283559143543">
        <ele>1217.1700000000001</ele>
        <time>2013-05-26T10:58:17Z</time>
      </trkpt>
      <trkpt lat="45.86469691246748" lon="9.337221784517169">
        <ele>1218.1300000000001</ele>
        <time>2013-05-26T10:58:29Z</time>
      </trkpt>
      <trkpt lat="45.864666569977999" lon="9.337173504754901">
        <ele>1218.1300000000001</ele>
        <time>2013-05-26T10:58:45Z</time>
      </trkpt>
      <trkpt lat="45.864621559157968" lon="9.337105359882116">
        <ele>1217.1700000000001</ele>
        <time>2013-05-26T10:59:03Z</time>
      </trkpt>
      <trkpt lat="45.864605298265815" lon="9.337070910260081">
        <ele>1216.21</ele>
        <time>2013-05-26T10:59:16Z</time>
      </trkpt>
      <trkpt lat="45.864592976868153" lon="9.33703470043838">
        <ele>1214.76</ele>
        <time>2013-05-26T10:59:29Z</time>
      </trkpt>
      <trkpt lat="45.864574117586017" lon="9.337008548900485">
        <ele>1212.8399999999999</ele>
        <time>2013-05-26T10:59:41Z</time>
      </trkpt>
      <trkpt lat="45.864546457305551" lon="9.336986923590303">
        <ele>1212.3599999999999</ele>
        <time>2013-05-26T10:59:53Z</time>
      </trkpt>
      <trkpt lat="45.864514354616404" lon="9.336984325200319">
        <ele>1210.9200000000001</ele>
        <time>2013-05-26T11:00:10Z</time>
      </trkpt>
      <trkpt lat="45.864489711821079" lon="9.33695750311017">
        <ele>1207.55</ele>
        <time>2013-05-26T11:00:24Z</time>
      </trkpt>
      <trkpt lat="45.864435145631433" lon="9.336969405412674">
        <ele>1204.6700000000001</ele>
        <time>2013-05-26T11:00:38Z</time>
      </trkpt>
      <trkpt lat="45.864363647997379" lon="9.336941661313176">
        <ele>1201.79</ele>
        <time>2013-05-26T11:00:54Z</time>
      </trkpt>
      <trkpt lat="45.864370269700885" lon="9.336868319660425">
        <ele>1198.4200000000001</ele>
        <time>2013-05-26T11:01:06Z</time>
      </trkpt>
      <trkpt lat="45.864370856434107" lon="9.336862033233047">
        <ele>1198.4200000000001</ele>
        <time>2013-05-26T11:01:20Z</time>
      </trkpt>
      <trkpt lat="45.864359540864825" lon="9.336817273870111">
        <ele>1197.9400000000001</ele>
        <time>2013-05-26T11:01:35Z</time>
      </trkpt>
      <trkpt lat="45.864365743473172" lon="9.336754325777292">
        <ele>1195.54</ele>
        <time>2013-05-26T11:01:52Z</time>
      </trkpt>
      <trkpt lat="45.864386782050133" lon="9.336741333827376">
        <ele>1194.5799999999999</ele>
        <time>2013-05-26T11:02:07Z</time>
      </trkpt>
      <trkpt lat="45.864384435117245" lon="9.336732197552919">
        <ele>1193.6099999999999</ele>
        <time>2013-05-26T11:02:19Z</time>
      </trkpt>
      <trkpt lat="45.864367168396711" lon="9.336742172017694">
        <ele>1193.1300000000001</ele>
        <time>2013-05-26T11:02:33Z</time>
      </trkpt>
      <trkpt lat="45.864352164790034" lon="9.336748374626041">
        <ele>1192.1700000000001</ele>
        <time>2013-05-26T11:02:38Z</time>
      </trkpt>
      <trkpt lat="45.864368174225092" lon="9.336703782901168">
        <ele>1191.21</ele>
        <time>2013-05-26T11:02:47Z</time>
      </trkpt>
      <trkpt lat="45.864356439560652" lon="9.336696490645409">
        <ele>1190.25</ele>
        <time>2013-05-26T11:03:00Z</time>
      </trkpt>
      <trkpt lat="45.86434805765748" lon="9.336623568087816">
        <ele>1188.8099999999999</ele>
        <time>2013-05-26T11:03:14Z</time>
      </trkpt>
      <trkpt lat="45.86434269323945" lon="9.336536480113864">
        <ele>1186.8800000000001</ele>
        <time>2013-05-26T11:03:28Z</time>
      </trkpt>
      <trkpt lat="45.864345878362656" lon="9.336476130411029">
        <ele>1185.4400000000001</ele>
        <time>2013-05-26T11:03:40Z</time>
      </trkpt>
      <trkpt lat="45.864330288022757" lon="9.336507897824049">
        <ele>1184.96</ele>
        <time>2013-05-26T11:03:53Z</time>
      </trkpt>
      <trkpt lat="45.864291228353977" lon="9.336544275283814">
        <ele>1183.04</ele>
        <time>2013-05-26T11:04:05Z</time>
      </trkpt>
      <trkpt lat="45.864272536709905" lon="9.336553411558271">
        <ele>1181.1199999999999</ele>
        <time>2013-05-26T11:04:18Z</time>
      </trkpt>
      <trkpt lat="45.864262897521257" lon="9.336577719077468">
        <ele>1180.1600000000001</ele>
        <time>2013-05-26T11:04:31Z</time>
      </trkpt>
      <trkpt lat="45.864258874207735" lon="9.336602697148919">
        <ele>1179.1900000000001</ele>
        <time>2013-05-26T11:04:48Z</time>
      </trkpt>
      <trkpt lat="45.864245882257819" lon="9.336586352437735">
        <ele>1178.23</ele>
        <time>2013-05-26T11:05:01Z</time>
      </trkpt>
      <trkpt lat="45.864246385172009" lon="9.336580820381641">
        <ele>1177.75</ele>
        <time>2013-05-26T11:05:23Z</time>
      </trkpt>
      <trkpt lat="45.864237416535616" lon="9.336560787633061">
        <ele>1177.75</ele>
        <time>2013-05-26T11:05:43Z</time>
      </trkpt>
      <trkpt lat="45.864224089309573" lon="9.336562966927886">
        <ele>1177.27</ele>
        <time>2013-05-26T11:05:57Z</time>
      </trkpt>
      <trkpt lat="45.864223670214415" lon="9.33659490197897">
        <ele>1176.79</ele>
        <time>2013-05-26T11:06:10Z</time>
      </trkpt>
      <trkpt lat="45.86420489475131" lon="9.336551064625382">
        <ele>1175.3499999999999</ele>
        <time>2013-05-26T11:06:22Z</time>
      </trkpt>
      <trkpt lat="45.864186873659492" lon="9.336510328575969">
        <ele>1174.3900000000001</ele>
        <time>2013-05-26T11:06:39Z</time>
      </trkpt>
      <trkpt lat="45.864195507019758" lon="9.336494822055101">
        <ele>1173.4300000000001</ele>
        <time>2013-05-26T11:06:54Z</time>
      </trkpt>
      <trkpt lat="45.864197183400393" lon="9.336476130411029">
        <ele>1173.4300000000001</ele>
        <time>2013-05-26T11:07:15Z</time>
      </trkpt>
      <trkpt lat="45.864189388230443" lon="9.336449559777975">
        <ele>1172.95</ele>
        <time>2013-05-26T11:07:29Z</time>
      </trkpt>
      <trkpt lat="45.864205062389374" lon="9.336445117369294">
        <ele>1171.98</ele>
        <time>2013-05-26T11:07:44Z</time>
      </trkpt>
      <trkpt lat="45.864200368523598" lon="9.336418965831399">
        <ele>1171.5</ele>
        <time>2013-05-26T11:07:59Z</time>
      </trkpt>
      <trkpt lat="45.864197686314583" lon="9.336398765444756">
        <ele>1171.02</ele>
        <time>2013-05-26T11:08:13Z</time>
      </trkpt>
      <trkpt lat="45.864190896973014" lon="9.336356353014708">
        <ele>1170.54</ele>
        <time>2013-05-26T11:08:28Z</time>
      </trkpt>
      <trkpt lat="45.864196345210075" lon="9.33628317900002">
        <ele>1168.1400000000001</ele>
        <time>2013-05-26T11:08:42Z</time>
      </trkpt>
      <trkpt lat="45.864202128723264" lon="9.336143201217055">
        <ele>1166.7</ele>
        <time>2013-05-26T11:08:58Z</time>
      </trkpt>
      <trkpt lat="45.864146808162332" lon="9.336060220375657">
        <ele>1167.1800000000001</ele>
        <time>2013-05-26T11:09:14Z</time>
      </trkpt>
      <trkpt lat="45.864087212830782" lon="9.336018562316895">
        <ele>1164.77</ele>
        <time>2013-05-26T11:09:29Z</time>
      </trkpt>
      <trkpt lat="45.864011021330953" lon="9.335977239534259">
        <ele>1164.29</ele>
        <time>2013-05-26T11:09:43Z</time>
      </trkpt>
      <trkpt lat="45.863959724083543" lon="9.335910268127918">
        <ele>1163.8099999999999</ele>
        <time>2013-05-26T11:09:58Z</time>
      </trkpt>
      <trkpt lat="45.863914377987385" lon="9.33580675162375">
        <ele>1162.8499999999999</ele>
        <time>2013-05-26T11:10:16Z</time>
      </trkpt>
      <trkpt lat="45.863880179822445" lon="9.335723435506225">
        <ele>1163.3299999999999</ele>
        <time>2013-05-26T11:10:29Z</time>
      </trkpt>
      <trkpt lat="45.863857632502913" lon="9.33571245521307">
        <ele>1163.8099999999999</ele>
        <time>2013-05-26T11:10:40Z</time>
      </trkpt>
      <trkpt lat="45.86383500136435" lon="9.335685549303889">
        <ele>1162.8499999999999</ele>
        <time>2013-05-26T11:10:52Z</time>
      </trkpt>
      <trkpt lat="45.863834246993065" lon="9.335609525442123">
        <ele>1161.4100000000001</ele>
        <time>2013-05-26T11:11:06Z</time>
      </trkpt>
      <trkpt lat="45.863827373832464" lon="9.335598796606064">
        <ele>1160.45</ele>
        <time>2013-05-26T11:11:21Z</time>
      </trkpt>
      <trkpt lat="45.863828212022781" lon="9.335592677816749">
        <ele>1159.49</ele>
        <time>2013-05-26T11:11:39Z</time>
      </trkpt>
      <trkpt lat="45.863820081576705" lon="9.335596701130271">
        <ele>1158.53</ele>
        <time>2013-05-26T11:11:55Z</time>
      </trkpt>
      <trkpt lat="45.863815722987056" lon="9.335587732493877">
        <ele>1158.53</ele>
        <time>2013-05-26T11:12:14Z</time>
      </trkpt>
      <trkpt lat="45.863785045221448" lon="9.335556467995048">
        <ele>1157.5599999999999</ele>
        <time>2013-05-26T11:12:27Z</time>
      </trkpt>
      <trkpt lat="45.863707344979048" lon="9.335524197667837">
        <ele>1156.1199999999999</ele>
        <time>2013-05-26T11:12:44Z</time>
      </trkpt>
      <trkpt lat="45.863695442676544" lon="9.335416154935956">
        <ele>1155.6400000000001</ele>
        <time>2013-05-26T11:12:57Z</time>
      </trkpt>
      <trkpt lat="45.863641127943993" lon="9.335275674238801">
        <ele>1153.72</ele>
        <time>2013-05-26T11:13:21Z</time>
      </trkpt>
      <trkpt lat="45.863651940599084" lon="9.335220856592059">
        <ele>1153.24</ele>
        <time>2013-05-26T11:13:34Z</time>
      </trkpt>
      <trkpt lat="45.863654371351004" lon="9.335222952067852">
        <ele>1153.24</ele>
        <time>2013-05-26T11:13:47Z</time>
      </trkpt>
      <trkpt lat="45.863645821809769" lon="9.335190178826451">
        <ele>1151.3199999999999</ele>
        <time>2013-05-26T11:13:59Z</time>
      </trkpt>
      <trkpt lat="45.863643893972039" lon="9.335175678133965">
        <ele>1150.8399999999999</ele>
        <time>2013-05-26T11:14:15Z</time>
      </trkpt>
      <trkpt lat="45.863645737990737" lon="9.335162350907922">
        <ele>1150.3499999999999</ele>
        <time>2013-05-26T11:14:27Z</time>
      </trkpt>
      <trkpt lat="45.863625286146998" lon="9.335164949297905">
        <ele>1150.3499999999999</ele>
        <time>2013-05-26T11:14:37Z</time>
      </trkpt>
      <trkpt lat="45.863605672493577" lon="9.335134271532297">
        <ele>1148.9100000000001</ele>
        <time>2013-05-26T11:14:48Z</time>
      </trkpt>
      <trkpt lat="45.863574910908937" lon="9.335120860487223">
        <ele>1147.95</ele>
        <time>2013-05-26T11:15:01Z</time>
      </trkpt>
      <trkpt lat="45.863556554540992" lon="9.335087416693568">
        <ele>1146.03</ele>
        <time>2013-05-26T11:15:12Z</time>
      </trkpt>
      <trkpt lat="45.863560242578387" lon="9.335080794990063">
        <ele>1145.0699999999999</ele>
        <time>2013-05-26T11:15:26Z</time>
      </trkpt>
      <trkpt lat="45.86356284096837" lon="9.335071826353669">
        <ele>1143.6300000000001</ele>
        <time>2013-05-26T11:15:42Z</time>
      </trkpt>
      <trkpt lat="45.863558482378721" lon="9.335062438622117">
        <ele>1143.1400000000001</ele>
        <time>2013-05-26T11:15:56Z</time>
      </trkpt>
      <trkpt lat="45.863546915352345" lon="9.335053721442819">
        <ele>1142.1800000000001</ele>
        <time>2013-05-26T11:16:07Z</time>
      </trkpt>
      <trkpt lat="45.863530151546001" lon="9.335046596825123">
        <ele>1142.1800000000001</ele>
        <time>2013-05-26T11:16:23Z</time>
      </trkpt>
      <trkpt lat="45.863512801006436" lon="9.335008962079883">
        <ele>1140.26</ele>
        <time>2013-05-26T11:16:35Z</time>
      </trkpt>
      <trkpt lat="45.863517159596086" lon="9.33495850302279">
        <ele>1138.8199999999999</ele>
        <time>2013-05-26T11:16:46Z</time>
      </trkpt>
      <trkpt lat="45.863524870947003" lon="9.334951629862189">
        <ele>1137.8599999999999</ele>
        <time>2013-05-26T11:16:57Z</time>
      </trkpt>
      <trkpt lat="45.863527888432145" lon="9.33492723852396">
        <ele>1135.9400000000001</ele>
        <time>2013-05-26T11:17:13Z</time>
      </trkpt>
      <trkpt lat="45.863501317799091" lon="9.334911061450839">
        <ele>1135.9400000000001</ele>
        <time>2013-05-26T11:17:34Z</time>
      </trkpt>
      <trkpt lat="45.863500563427806" lon="9.33487837202847">
        <ele>1134.49</ele>
        <time>2013-05-26T11:17:47Z</time>
      </trkpt>
      <trkpt lat="45.863493774086237" lon="9.334882562980056">
        <ele>1132.5699999999999</ele>
        <time>2013-05-26T11:17:57Z</time>
      </trkpt>
      <trkpt lat="45.863464940339327" lon="9.334841407835484">
        <ele>1130.1700000000001</ele>
        <time>2013-05-26T11:18:09Z</time>
      </trkpt>
      <trkpt lat="45.863474244251847" lon="9.334745518863201">
        <ele>1127.28</ele>
        <time>2013-05-26T11:18:21Z</time>
      </trkpt>
      <trkpt lat="45.863507771864533" lon="9.334688438102603">
        <ele>1126.3199999999999</ele>
        <time>2013-05-26T11:18:36Z</time>
      </trkpt>
      <trkpt lat="45.863513555377722" lon="9.334675446152687">
        <ele>1126.3199999999999</ele>
        <time>2013-05-26T11:18:37Z</time>
      </trkpt>
      <trkpt lat="45.863551525399089" lon="9.334632698446512">
        <ele>1123.4400000000001</ele>
        <time>2013-05-26T11:18:44Z</time>
      </trkpt>
      <trkpt lat="45.863542975857854" lon="9.334652982652187">
        <ele>1126.3199999999999</ele>
        <time>2013-05-26T11:18:56Z</time>
      </trkpt>
      <trkpt lat="45.863545490428805" lon="9.334660610184073">
        <ele>1126.3199999999999</ele>
        <time>2013-05-26T11:18:58Z</time>
      </trkpt>
      <trkpt lat="45.863511962816119" lon="9.334699753671885">
        <ele>1126.3199999999999</ele>
        <time>2013-05-26T11:19:12Z</time>
      </trkpt>
      <trkpt lat="45.863548675552011" lon="9.334657257422805">
        <ele>1126.3199999999999</ele>
        <time>2013-05-26T11:19:26Z</time>
      </trkpt>
      <trkpt lat="45.863556889817119" lon="9.334602439776063">
        <ele>1123.9200000000001</ele>
        <time>2013-05-26T11:19:37Z</time>
      </trkpt>
      <trkpt lat="45.86348463781178" lon="9.334424240514636">
        <ele>1122</ele>
        <time>2013-05-26T11:19:52Z</time>
      </trkpt>
      <trkpt lat="45.86343820206821" lon="9.334272025153041">
        <ele>1122</ele>
        <time>2013-05-26T11:20:08Z</time>
      </trkpt>
      <trkpt lat="45.863441387191415" lon="9.334270851686597">
        <ele>1122.48</ele>
        <time>2013-05-26T11:20:21Z</time>
      </trkpt>
      <trkpt lat="45.863441890105605" lon="9.334264565259218">
        <ele>1121.52</ele>
        <time>2013-05-26T11:20:37Z</time>
      </trkpt>
      <trkpt lat="45.863431412726641" lon="9.334185523912311">
        <ele>1121.03</ele>
        <time>2013-05-26T11:20:43Z</time>
      </trkpt>
      <trkpt lat="45.863456977531314" lon="9.334035236388445">
        <ele>1118.6300000000001</ele>
        <time>2013-05-26T11:20:58Z</time>
      </trkpt>
      <trkpt lat="45.863485308364034" lon="9.333950746804476">
        <ele>1117.1900000000001</ele>
        <time>2013-05-26T11:21:18Z</time>
      </trkpt>
      <trkpt lat="45.863448595628142" lon="9.333861982449889">
        <ele>1113.8199999999999</ele>
        <time>2013-05-26T11:21:31Z</time>
      </trkpt>
      <trkpt lat="45.863418839871883" lon="9.333816552534699">
        <ele>1112.8599999999999</ele>
        <time>2013-05-26T11:21:37Z</time>
      </trkpt>
      <trkpt lat="45.863403920084238" lon="9.333647405728698">
        <ele>1111.9000000000001</ele>
        <time>2013-05-26T11:21:50Z</time>
      </trkpt>
      <trkpt lat="45.863354466855526" lon="9.333585295826197">
        <ele>1113.3399999999999</ele>
        <time>2013-05-26T11:22:04Z</time>
      </trkpt>
      <trkpt lat="45.86335220374167" lon="9.333580685779452">
        <ele>1114.79</ele>
        <time>2013-05-26T11:22:09Z</time>
      </trkpt>
      <trkpt lat="45.863356059417129" lon="9.333485551178455">
        <ele>1117.1900000000001</ele>
        <time>2013-05-26T11:22:22Z</time>
      </trkpt>
      <trkpt lat="45.863274503499269" lon="9.333397122099996">
        <ele>1119.1099999999999</ele>
        <time>2013-05-26T11:22:36Z</time>
      </trkpt>
      <trkpt lat="45.863212728872895" lon="9.333302825689316">
        <ele>1121.52</ele>
        <time>2013-05-26T11:22:50Z</time>
      </trkpt>
      <trkpt lat="45.863167298957705" lon="9.333139630034566">
        <ele>1122</ele>
        <time>2013-05-26T11:23:07Z</time>
      </trkpt>
      <trkpt lat="45.863124132156372" lon="9.333128901198506">
        <ele>1125.3599999999999</ele>
        <time>2013-05-26T11:23:19Z</time>
      </trkpt>
      <trkpt lat="45.863119522109628" lon="9.332993617281318">
        <ele>1127.76</ele>
        <time>2013-05-26T11:23:35Z</time>
      </trkpt>
      <trkpt lat="45.863077864050865" lon="9.332878785207868">
        <ele>1129.6900000000001</ele>
        <time>2013-05-26T11:23:51Z</time>
      </trkpt>
      <trkpt lat="45.863073002547026" lon="9.332771999761462">
        <ele>1132.0899999999999</ele>
        <time>2013-05-26T11:24:09Z</time>
      </trkpt>
      <trkpt lat="45.863019023090601" lon="9.332691533491015">
        <ele>1133.05</ele>
        <time>2013-05-26T11:24:23Z</time>
      </trkpt>
      <trkpt lat="45.862960433587432" lon="9.332602601498365">
        <ele>1134.49</ele>
        <time>2013-05-26T11:24:37Z</time>
      </trkpt>
      <trkpt lat="45.862891618162394" lon="9.332550130784512">
        <ele>1136.4200000000001</ele>
        <time>2013-05-26T11:24:51Z</time>
      </trkpt>
      <trkpt lat="45.862858844920993" lon="9.33242691680789">
        <ele>1137.3800000000001</ele>
        <time>2013-05-26T11:25:03Z</time>
      </trkpt>
      <trkpt lat="45.862824562937021" lon="9.332371428608894">
        <ele>1139.3</ele>
        <time>2013-05-26T11:25:16Z</time>
      </trkpt>
      <trkpt lat="45.862841075286269" lon="9.332351228222251">
        <ele>1138.3399999999999</ele>
        <time>2013-05-26T11:25:36Z</time>
      </trkpt>
      <trkpt lat="45.862849876284599" lon="9.332361705601215">
        <ele>1138.3399999999999</ele>
        <time>2013-05-26T11:26:03Z</time>
      </trkpt>
      <trkpt lat="45.862820539623499" lon="9.332279060035944">
        <ele>1139.78</ele>
        <time>2013-05-26T11:26:19Z</time>
      </trkpt>
      <trkpt lat="45.862822886556387" lon="9.332127766683698">
        <ele>1140.26</ele>
        <time>2013-05-26T11:26:30Z</time>
      </trkpt>
      <trkpt lat="45.862785670906305" lon="9.332005390897393">
        <ele>1141.7</ele>
        <time>2013-05-26T11:26:43Z</time>
      </trkpt>
      <trkpt lat="45.86278734728694" lon="9.331825012341142">
        <ele>1141.22</ele>
        <time>2013-05-26T11:26:56Z</time>
      </trkpt>
      <trkpt lat="45.862800171598792" lon="9.331721998751164">
        <ele>1143.1400000000001</ele>
        <time>2013-05-26T11:27:10Z</time>
      </trkpt>
      <trkpt lat="45.862794471904635" lon="9.331578584387898">
        <ele>1145.55</ele>
        <time>2013-05-26T11:27:25Z</time>
      </trkpt>
      <trkpt lat="45.86281324736774" lon="9.331477414816618">
        <ele>1146.99</ele>
        <time>2013-05-26T11:27:41Z</time>
      </trkpt>
      <trkpt lat="45.862839063629508" lon="9.331390326842666">
        <ele>1147.95</ele>
        <time>2013-05-26T11:27:56Z</time>
      </trkpt>
      <trkpt lat="45.862878123298287" lon="9.331295192241669">
        <ele>1148.9100000000001</ele>
        <time>2013-05-26T11:28:07Z</time>
      </trkpt>
      <trkpt lat="45.862898658961058" lon="9.331169798970223">
        <ele>1149.3900000000001</ele>
        <time>2013-05-26T11:28:22Z</time>
      </trkpt>
      <trkpt lat="45.862918188795447" lon="9.331108275800943">
        <ele>1150.3499999999999</ele>
        <time>2013-05-26T11:28:34Z</time>
      </trkpt>
      <trkpt lat="45.862940149381757" lon="9.331097044050694">
        <ele>1150.3499999999999</ele>
        <time>2013-05-26T11:28:37Z</time>
      </trkpt>
      <trkpt lat="45.862987590953708" lon="9.331006603315473">
        <ele>1149.8699999999999</ele>
        <time>2013-05-26T11:28:52Z</time>
      </trkpt>
      <trkpt lat="45.862968228757381" lon="9.330958155915141">
        <ele>1149.3900000000001</ele>
        <time>2013-05-26T11:29:05Z</time>
      </trkpt>
      <trkpt lat="45.862985327839851" lon="9.33092244900763">
        <ele>1150.3499999999999</ele>
        <time>2013-05-26T11:29:11Z</time>
      </trkpt>
      <trkpt lat="45.862993793562055" lon="9.330877186730504">
        <ele>1151.8</ele>
        <time>2013-05-26T11:29:22Z</time>
      </trkpt>
      <trkpt lat="45.862993123009801" lon="9.330815663561225">
        <ele>1152.28</ele>
        <time>2013-05-26T11:29:34Z</time>
      </trkpt>
      <trkpt lat="45.863018101081252" lon="9.330719774588943">
        <ele>1153.72</ele>
        <time>2013-05-26T11:29:48Z</time>
      </trkpt>
      <trkpt lat="45.863072164356709" lon="9.330632351338863">
        <ele>1154.2</ele>
        <time>2013-05-26T11:30:03Z</time>
      </trkpt>
      <trkpt lat="45.863088257610798" lon="9.330612067133188">
        <ele>1154.6800000000001</ele>
        <time>2013-05-26T11:30:06Z</time>
      </trkpt>
      <trkpt lat="45.863128574565053" lon="9.330530511215329">
        <ele>1154.6800000000001</ele>
        <time>2013-05-26T11:30:17Z</time>
      </trkpt>
      <trkpt lat="45.863158749416471" lon="9.330437136813998">
        <ele>1157.0799999999999</ele>
        <time>2013-05-26T11:30:28Z</time>
      </trkpt>
      <trkpt lat="45.863226726651192" lon="9.330384414643049">
        <ele>1158.05</ele>
        <time>2013-05-26T11:30:42Z</time>
      </trkpt>
      <trkpt lat="45.863290764391422" lon="9.330358766019344">
        <ele>1159.49</ele>
        <time>2013-05-26T11:30:55Z</time>
      </trkpt>
      <trkpt lat="45.863396376371384" lon="9.330315766856074">
        <ele>1161.8900000000001</ele>
        <time>2013-05-26T11:31:08Z</time>
      </trkpt>
      <trkpt lat="45.863457564264536" lon="9.330208981409669">
        <ele>1161.8900000000001</ele>
        <time>2013-05-26T11:31:21Z</time>
      </trkpt>
      <trkpt lat="45.863502742722631" lon="9.330158522352576">
        <ele>1162.3699999999999</ele>
        <time>2013-05-26T11:31:30Z</time>
      </trkpt>
      <trkpt lat="45.863525122404099" lon="9.330153074115515">
        <ele>1161.8900000000001</ele>
        <time>2013-05-26T11:31:32Z</time>
      </trkpt>
      <trkpt lat="45.863569378852844" lon="9.330038325861096">
        <ele>1163.3299999999999</ele>
        <time>2013-05-26T11:31:47Z</time>
      </trkpt>
      <trkpt lat="45.863603409379721" lon="9.329997003078461">
        <ele>1164.29</ele>
        <time>2013-05-26T11:32:03Z</time>
      </trkpt>
      <trkpt lat="45.863602822646499" lon="9.329928271472454">
        <ele>1166.22</ele>
        <time>2013-05-26T11:32:17Z</time>
      </trkpt>
      <trkpt lat="45.863592429086566" lon="9.329888289794326">
        <ele>1167.1800000000001</ele>
        <time>2013-05-26T11:32:31Z</time>
      </trkpt>
      <trkpt lat="45.863601984456182" lon="9.329779744148254">
        <ele>1171.02</ele>
        <time>2013-05-26T11:32:47Z</time>
      </trkpt>
      <trkpt lat="45.863612210378051" lon="9.329699696972966">
        <ele>1171.98</ele>
        <time>2013-05-26T11:33:01Z</time>
      </trkpt>
      <trkpt lat="45.863640792667866" lon="9.329603053629398">
        <ele>1174.3900000000001</ele>
        <time>2013-05-26T11:33:14Z</time>
      </trkpt>
      <trkpt lat="45.863694436848164" lon="9.329503392800689">
        <ele>1174.8699999999999</ele>
        <time>2013-05-26T11:33:28Z</time>
      </trkpt>
      <trkpt lat="45.863717822358012" lon="9.329427536576986">
        <ele>1175.3499999999999</ele>
        <time>2013-05-26T11:33:42Z</time>
      </trkpt>
      <trkpt lat="45.863754032179713" lon="9.329347154125571">
        <ele>1176.3099999999999</ele>
        <time>2013-05-26T11:33:54Z</time>
      </trkpt>
      <trkpt lat="45.863799713551998" lon="9.329248750582337">
        <ele>1178.23</ele>
        <time>2013-05-26T11:34:06Z</time>
      </trkpt>
      <trkpt lat="45.863887807354331" lon="9.329240787774324">
        <ele>1179.1900000000001</ele>
        <time>2013-05-26T11:34:24Z</time>
      </trkpt>
      <trkpt lat="45.863954275846481" lon="9.329173732548952">
        <ele>1180.1600000000001</ele>
        <time>2013-05-26T11:34:39Z</time>
      </trkpt>
      <trkpt lat="45.864022001624107" lon="9.329073149710894">
        <ele>1182.5599999999999</ele>
        <time>2013-05-26T11:34:54Z</time>
      </trkpt>
      <trkpt lat="45.864050919190049" lon="9.329050267115235">
        <ele>1183.04</ele>
        <time>2013-05-26T11:34:58Z</time>
      </trkpt>
      <trkpt lat="45.864113364368677" lon="9.328981786966324">
        <ele>1183.52</ele>
        <time>2013-05-26T11:35:08Z</time>
      </trkpt>
      <trkpt lat="45.864158542826772" lon="9.328917665407062">
        <ele>1184.96</ele>
        <time>2013-05-26T11:35:17Z</time>
      </trkpt>
      <trkpt lat="45.864182598888874" lon="9.328857148066163">
        <ele>1187.8499999999999</ele>
        <time>2013-05-26T11:35:31Z</time>
      </trkpt>
      <trkpt lat="45.864177150651813" lon="9.328768467530608">
        <ele>1190.25</ele>
        <time>2013-05-26T11:35:44Z</time>
      </trkpt>
      <trkpt lat="45.864203218370676" lon="9.328662855550647">
        <ele>1192.1700000000001</ele>
        <time>2013-05-26T11:35:57Z</time>
      </trkpt>
      <trkpt lat="45.864279074594378" lon="9.328610971570015">
        <ele>1194.0899999999999</ele>
        <time>2013-05-26T11:36:12Z</time>
      </trkpt>
      <trkpt lat="45.864349063485861" lon="9.328528996556997">
        <ele>1196.02</ele>
        <time>2013-05-26T11:36:25Z</time>
      </trkpt>
      <trkpt lat="45.864390637725592" lon="9.328462360426784">
        <ele>1198.4200000000001</ele>
        <time>2013-05-26T11:36:39Z</time>
      </trkpt>
      <trkpt lat="45.864480827003717" lon="9.328432185575366">
        <ele>1199.8599999999999</ele>
        <time>2013-05-26T11:36:54Z</time>
      </trkpt>
      <trkpt lat="45.86456255055964" lon="9.328406201675534">
        <ele>1201.3</ele>
        <time>2013-05-26T11:37:08Z</time>
      </trkpt>
      <trkpt lat="45.864622732624412" lon="9.328344175592065">
        <ele>1202.75</ele>
        <time>2013-05-26T11:37:19Z</time>
      </trkpt>
      <trkpt lat="45.864702444523573" lon="9.328326992690563">
        <ele>1204.6700000000001</ele>
        <time>2013-05-26T11:37:32Z</time>
      </trkpt>
      <trkpt lat="45.864807805046439" lon="9.328323053196073">
        <ele>1206.1099999999999</ele>
        <time>2013-05-26T11:37:46Z</time>
      </trkpt>
      <trkpt lat="45.864799255505204" lon="9.328279132023454">
        <ele>1207.55</ele>
        <time>2013-05-26T11:38:02Z</time>
      </trkpt>
      <trkpt lat="45.864820377901196" lon="9.328206041827798">
        <ele>1209.48</ele>
        <time>2013-05-26T11:38:15Z</time>
      </trkpt>
      <trkpt lat="45.864809481427073" lon="9.328184332698584">
        <ele>1210.9200000000001</ele>
        <time>2013-05-26T11:38:27Z</time>
      </trkpt>
      <trkpt lat="45.864816270768642" lon="9.328128676861525">
        <ele>1212.8399999999999</ele>
        <time>2013-05-26T11:38:41Z</time>
      </trkpt>
      <trkpt lat="45.864801099523902" lon="9.328084085136652">
        <ele>1213.8</ele>
        <time>2013-05-26T11:39:00Z</time>
      </trkpt>
      <trkpt lat="45.864813420921564" lon="9.327974449843168">
        <ele>1216.6900000000001</ele>
        <time>2013-05-26T11:39:16Z</time>
      </trkpt>
      <trkpt lat="45.864796573296189" lon="9.327895492315292">
        <ele>1218.1300000000001</ele>
        <time>2013-05-26T11:39:31Z</time>
      </trkpt>
      <trkpt lat="45.864778384566307" lon="9.327827850356698">
        <ele>1221.97</ele>
        <time>2013-05-26T11:39:47Z</time>
      </trkpt>
      <trkpt lat="45.86476044729352" lon="9.327800860628486">
        <ele>1223.9000000000001</ele>
        <time>2013-05-26T11:39:56Z</time>
      </trkpt>
      <trkpt lat="45.864682411774993" lon="9.327744701877236">
        <ele>1225.3399999999999</ele>
        <time>2013-05-26T11:40:09Z</time>
      </trkpt>
      <trkpt lat="45.864636227488518" lon="9.327704636380076">
        <ele>1225.8199999999999</ele>
        <time>2013-05-26T11:40:21Z</time>
      </trkpt>
      <trkpt lat="45.8646250795573" lon="9.327672617509961">
        <ele>1227.26</ele>
        <time>2013-05-26T11:40:33Z</time>
      </trkpt>
      <trkpt lat="45.86462801322341" lon="9.327665325254202">
        <ele>1227.26</ele>
        <time>2013-05-26T11:40:54Z</time>
      </trkpt>
      <trkpt lat="45.864638742059469" lon="9.327655183151364">
        <ele>1226.78</ele>
        <time>2013-05-26T11:41:08Z</time>
      </trkpt>
      <trkpt lat="45.864638909697533" lon="9.3276671692729">
        <ele>1226.78</ele>
        <time>2013-05-26T11:41:29Z</time>
      </trkpt>
      <trkpt lat="45.864636395126581" lon="9.327661637216806">
        <ele>1227.26</ele>
        <time>2013-05-26T11:41:56Z</time>
      </trkpt>
      <trkpt lat="45.864641843363643" lon="9.32764763943851">
        <ele>1227.26</ele>
        <time>2013-05-26T11:42:21Z</time>
      </trkpt>
      <trkpt lat="45.864649219438434" lon="9.327648309990764">
        <ele>1227.26</ele>
        <time>2013-05-26T11:42:44Z</time>
      </trkpt>
      <trkpt lat="45.864644777029753" lon="9.327645963057876">
        <ele>1226.78</ele>
        <time>2013-05-26T11:43:07Z</time>
      </trkpt>
      <trkpt lat="45.864635556936264" lon="9.327661134302616">
        <ele>1227.26</ele>
        <time>2013-05-26T11:43:27Z</time>
      </trkpt>
      <trkpt lat="45.864651314914227" lon="9.327656859531999">
        <ele>1227.26</ele>
        <time>2013-05-26T11:43:54Z</time>
      </trkpt>
      <trkpt lat="45.86464318446815" lon="9.327667756006122">
        <ele>1227.26</ele>
        <time>2013-05-26T11:44:25Z</time>
      </trkpt>
      <trkpt lat="45.864635976031423" lon="9.327669348567724">
        <ele>1227.26</ele>
        <time>2013-05-26T11:44:46Z</time>
      </trkpt>
      <trkpt lat="45.864637652412057" lon="9.327653674408793">
        <ele>1227.74</ele>
        <time>2013-05-26T11:45:13Z</time>
      </trkpt>
      <trkpt lat="45.864642513915896" lon="9.327677730470896">
        <ele>1227.74</ele>
        <time>2013-05-26T11:45:28Z</time>
      </trkpt>
      <trkpt lat="45.864632958546281" lon="9.327744953334332">
        <ele>1226.78</ele>
        <time>2013-05-26T11:45:36Z</time>
      </trkpt>
      <trkpt lat="45.864602280780673" lon="9.327786024659872">
        <ele>1226.78</ele>
        <time>2013-05-26T11:45:41Z</time>
      </trkpt>
      <trkpt lat="45.864593982696533" lon="9.327782755717635">
        <ele>1226.3</ele>
        <time>2013-05-26T11:45:49Z</time>
      </trkpt>
      <trkpt lat="45.8645835891366" lon="9.32778543792665">
        <ele>1226.3</ele>
        <time>2013-05-26T11:46:09Z</time>
      </trkpt>
      <trkpt lat="45.864590546116233" lon="9.32776297442615">
        <ele>1226.3</ele>
        <time>2013-05-26T11:46:23Z</time>
      </trkpt>
      <trkpt lat="45.864586858078837" lon="9.327749228104949">
        <ele>1226.78</ele>
        <time>2013-05-26T11:46:38Z</time>
      </trkpt>
      <trkpt lat="45.864594066515565" lon="9.327777223661542">
        <ele>1225.8199999999999</ele>
        <time>2013-05-26T11:46:51Z</time>
      </trkpt>
      <trkpt lat="45.864614015445113" lon="9.327783342450857">
        <ele>1226.3</ele>
        <time>2013-05-26T11:47:11Z</time>
      </trkpt>
      <trkpt lat="45.864612003788352" lon="9.327786359935999">
        <ele>1226.3</ele>
        <time>2013-05-26T11:47:41Z</time>
      </trkpt>
      <trkpt lat="45.864608064293861" lon="9.327778229489923">
        <ele>1226.78</ele>
        <time>2013-05-26T11:48:14Z</time>
      </trkpt>
      <trkpt lat="45.864614015445113" lon="9.327789628878236">
        <ele>1226.78</ele>
        <time>2013-05-26T11:48:53Z</time>
      </trkpt>
      <trkpt lat="45.864628348499537" lon="9.327776804566383">
        <ele>1226.78</ele>
        <time>2013-05-26T11:49:29Z</time>
      </trkpt>
      <trkpt lat="45.864624073728919" lon="9.327779319137335">
        <ele>1227.26</ele>
        <time>2013-05-26T11:50:14Z</time>
      </trkpt>
      <trkpt lat="45.86461435072124" lon="9.327792562544346">
        <ele>1226.78</ele>
        <time>2013-05-26T11:50:51Z</time>
      </trkpt>
      <trkpt lat="45.864617954939604" lon="9.327773367986083">
        <ele>1227.26</ele>
        <time>2013-05-26T11:51:30Z</time>
      </trkpt>
      <trkpt lat="45.864631785079837" lon="9.327765572816134">
        <ele>1227.74</ele>
        <time>2013-05-26T11:52:15Z</time>
      </trkpt>
      <trkpt lat="45.864617452025414" lon="9.327771607786417">
        <ele>1227.74</ele>
        <time>2013-05-26T11:52:48Z</time>
      </trkpt>
      <trkpt lat="45.864612506702542" lon="9.327769679948688">
        <ele>1227.26</ele>
        <time>2013-05-26T11:53:26Z</time>
      </trkpt>
      <trkpt lat="45.864622984081507" lon="9.327776469290257">
        <ele>1227.26</ele>
        <time>2013-05-26T11:54:06Z</time>
      </trkpt>
      <trkpt lat="45.864598089829087" lon="9.327786695212126">
        <ele>1227.26</ele>
        <time>2013-05-26T11:54:50Z</time>
      </trkpt>
      <trkpt lat="45.864602029323578" lon="9.327786779031158">
        <ele>1227.74</ele>
        <time>2013-05-26T11:55:29Z</time>
      </trkpt>
      <trkpt lat="45.864605968818069" lon="9.3277673330158">
        <ele>1227.74</ele>
        <time>2013-05-26T11:56:18Z</time>
      </trkpt>
      <trkpt lat="45.86461728438735" lon="9.327778816223145">
        <ele>1227.26</ele>
        <time>2013-05-26T11:56:54Z</time>
      </trkpt>
      <trkpt lat="45.864625666290522" lon="9.327771943062544">
        <ele>1227.74</ele>
        <time>2013-05-26T11:57:36Z</time>
      </trkpt>
      <trkpt lat="45.864609824493527" lon="9.327780744060874">
        <ele>1227.74</ele>
        <time>2013-05-26T11:58:14Z</time>
      </trkpt>
      <trkpt lat="45.864615691825747" lon="9.327780241146684">
        <ele>1227.74</ele>
        <time>2013-05-26T11:58:56Z</time>
      </trkpt>
      <trkpt lat="45.864608818665147" lon="9.327800525352359">
        <ele>1227.74</ele>
        <time>2013-05-26T11:59:34Z</time>
      </trkpt>
      <trkpt lat="45.864614685997367" lon="9.327787701040506">
        <ele>1227.74</ele>
        <time>2013-05-26T12:00:06Z</time>
      </trkpt>
      <trkpt lat="45.864610830321908" lon="9.327780576422811">
        <ele>1227.26</ele>
        <time>2013-05-26T12:00:50Z</time>
      </trkpt>
      <trkpt lat="45.864611836150289" lon="9.327800022438169">
        <ele>1227.26</ele>
        <time>2013-05-26T12:01:37Z</time>
      </trkpt>
      <trkpt lat="45.864611584693193" lon="9.32778007350862">
        <ele>1227.74</ele>
        <time>2013-05-26T12:02:18Z</time>
      </trkpt>
      <trkpt lat="45.864618457853794" lon="9.32778007350862">
        <ele>1227.26</ele>
        <time>2013-05-26T12:02:55Z</time>
      </trkpt>
      <trkpt lat="45.864607393741608" lon="9.327784096822143">
        <ele>1227.74</ele>
        <time>2013-05-26T12:03:34Z</time>
      </trkpt>
      <trkpt lat="45.864615272730589" lon="9.327778397127986">
        <ele>1227.74</ele>
        <time>2013-05-26T12:04:06Z</time>
      </trkpt>
      <trkpt lat="45.864613344892859" lon="9.327773787081242">
        <ele>1227.74</ele>
        <time>2013-05-26T12:04:54Z</time>
      </trkpt>
      <trkpt lat="45.864626923575997" lon="9.327763142064214">
        <ele>1227.74</ele>
        <time>2013-05-26T12:05:25Z</time>
      </trkpt>
      <trkpt lat="45.864620804786682" lon="9.327766746282578">
        <ele>1227.74</ele>
        <time>2013-05-26T12:06:00Z</time>
      </trkpt>
      <trkpt lat="45.864635137841105" lon="9.327777056023479">
        <ele>1227.26</ele>
        <time>2013-05-26T12:06:15Z</time>
      </trkpt>
      <trkpt lat="45.864617703482509" lon="9.327749731019139">
        <ele>1227.26</ele>
        <time>2013-05-26T12:06:35Z</time>
      </trkpt>
      <trkpt lat="45.864644525572658" lon="9.327741684392095">
        <ele>1227.26</ele>
        <time>2013-05-26T12:07:02Z</time>
      </trkpt>
      <trkpt lat="45.864653410390019" lon="9.327754676342011">
        <ele>1227.26</ele>
        <time>2013-05-26T12:07:25Z</time>
      </trkpt>
      <trkpt lat="45.864664642140269" lon="9.3277707695961">
        <ele>1227.74</ele>
        <time>2013-05-26T12:07:50Z</time>
      </trkpt>
      <trkpt lat="45.864659612998366" lon="9.327784180641174">
        <ele>1228.22</ele>
        <time>2013-05-26T12:08:09Z</time>
      </trkpt>
      <trkpt lat="45.864647123962641" lon="9.327767668291926">
        <ele>1227.74</ele>
        <time>2013-05-26T12:08:26Z</time>
      </trkpt>
      <trkpt lat="45.864613261073828" lon="9.327779235318303">
        <ele>1227.74</ele>
        <time>2013-05-26T12:08:45Z</time>
      </trkpt>
      <trkpt lat="45.864599850028753" lon="9.327770099043846">
        <ele>1227.74</ele>
        <time>2013-05-26T12:09:18Z</time>
      </trkpt>
      <trkpt lat="45.864601107314229" lon="9.327781582251191">
        <ele>1228.22</ele>
        <time>2013-05-26T12:09:45Z</time>
      </trkpt>
      <trkpt lat="45.864627845585346" lon="9.327785857021809">
        <ele>1228.22</ele>
        <time>2013-05-26T12:10:24Z</time>
      </trkpt>
      <trkpt lat="45.864619379863143" lon="9.327790131792426">
        <ele>1227.74</ele>
        <time>2013-05-26T12:11:00Z</time>
      </trkpt>
      <trkpt lat="45.864613177254796" lon="9.327780492603779">
        <ele>1228.22</ele>
        <time>2013-05-26T12:11:33Z</time>
      </trkpt>
      <trkpt lat="45.86462214589119" lon="9.327777558937669">
        <ele>1228.22</ele>
        <time>2013-05-26T12:11:59Z</time>
      </trkpt>
      <trkpt lat="45.86461435072124" lon="9.327785102650523">
        <ele>1228.22</ele>
        <time>2013-05-26T12:12:10Z</time>
      </trkpt>
      <trkpt lat="45.86463488638401" lon="9.327776469290257">
        <ele>1228.22</ele>
        <time>2013-05-26T12:12:42Z</time>
      </trkpt>
      <trkpt lat="45.864620050415397" lon="9.327727351337671">
        <ele>1228.22</ele>
        <time>2013-05-26T12:13:20Z</time>
      </trkpt>
      <trkpt lat="45.864619044587016" lon="9.327664822340012">
        <ele>1228.7</ele>
        <time>2013-05-26T12:13:53Z</time>
      </trkpt>
      <trkpt lat="45.864589624106884" lon="9.327687621116638">
        <ele>1228.7</ele>
        <time>2013-05-26T12:14:22Z</time>
      </trkpt>
      <trkpt lat="45.864615859463811" lon="9.327708156779409">
        <ele>1228.7</ele>
        <time>2013-05-26T12:14:58Z</time>
      </trkpt>
      <trkpt lat="45.864624828100204" lon="9.327712515369058">
        <ele>1229.1800000000001</ele>
        <time>2013-05-26T12:15:25Z</time>
      </trkpt>
      <trkpt lat="45.86461778730154" lon="9.327723998576403">
        <ele>1228.7</ele>
        <time>2013-05-26T12:15:52Z</time>
      </trkpt>
      <trkpt lat="45.864638322964311" lon="9.327734224498272">
        <ele>1228.7</ele>
        <time>2013-05-26T12:16:21Z</time>
      </trkpt>
      <trkpt lat="45.864626420661807" lon="9.327679825946689">
        <ele>1229.1800000000001</ele>
        <time>2013-05-26T12:16:52Z</time>
      </trkpt>
      <trkpt lat="45.864673443138599" lon="9.327718885615468">
        <ele>1229.1800000000001</ele>
        <time>2013-05-26T12:17:26Z</time>
      </trkpt>
      <trkpt lat="45.86464662104845" lon="9.327690806239843">
        <ele>1229.6600000000001</ele>
        <time>2013-05-26T12:17:59Z</time>
      </trkpt>
      <trkpt lat="45.864613428711891" lon="9.327687034383416">
        <ele>1229.6600000000001</ele>
        <time>2013-05-26T12:18:30Z</time>
      </trkpt>
      <trkpt lat="45.864638742059469" lon="9.327731542289257">
        <ele>1229.6600000000001</ele>
        <time>2013-05-26T12:18:57Z</time>
      </trkpt>
      <trkpt lat="45.864597586914897" lon="9.327735733240843">
        <ele>1229.6600000000001</ele>
        <time>2013-05-26T12:19:29Z</time>
      </trkpt>
      <trkpt lat="45.864601945504546" lon="9.327717879787087">
        <ele>1229.1800000000001</ele>
        <time>2013-05-26T12:20:01Z</time>
      </trkpt>
      <trkpt lat="45.864621475338936" lon="9.327728943899274">
        <ele>1229.6600000000001</ele>
        <time>2013-05-26T12:20:27Z</time>
      </trkpt>
      <trkpt lat="45.864646453410387" lon="9.327727183699608">
        <ele>1229.1800000000001</ele>
        <time>2013-05-26T12:20:48Z</time>
      </trkpt>
      <trkpt lat="45.864638825878501" lon="9.32770187035203">
        <ele>1229.6600000000001</ele>
        <time>2013-05-26T12:21:19Z</time>
      </trkpt>
      <trkpt lat="45.864589288830757" lon="9.327722657471895">
        <ele>1230.1400000000001</ele>
        <time>2013-05-26T12:21:51Z</time>
      </trkpt>
      <trkpt lat="45.864612506702542" lon="9.327701786532998">
        <ele>1230.1400000000001</ele>
        <time>2013-05-26T12:22:24Z</time>
      </trkpt>
      <trkpt lat="45.864614602178335" lon="9.327723411843181">
        <ele>1230.1400000000001</ele>
        <time>2013-05-26T12:22:52Z</time>
      </trkpt>
      <trkpt lat="45.864599263295531" lon="9.327723747119308">
        <ele>1230.1400000000001</ele>
        <time>2013-05-26T12:23:30Z</time>
      </trkpt>
      <trkpt lat="45.864591971039772" lon="9.327708575874567">
        <ele>1230.6199999999999</ele>
        <time>2013-05-26T12:24:09Z</time>
      </trkpt>
      <trkpt lat="45.86459624581039" lon="9.327696589753032">
        <ele>1230.6199999999999</ele>
        <time>2013-05-26T12:24:42Z</time>
      </trkpt>
      <trkpt lat="45.86463782005012" lon="9.327713269740343">
        <ele>1230.6199999999999</ele>
        <time>2013-05-26T12:25:20Z</time>
      </trkpt>
      <trkpt lat="45.864631198346615" lon="9.327734727412462">
        <ele>1230.6199999999999</ele>
        <time>2013-05-26T12:25:48Z</time>
      </trkpt>
      <trkpt lat="45.864627258852124" lon="9.327743612229824">
        <ele>1231.1099999999999</ele>
        <time>2013-05-26T12:26:19Z</time>
      </trkpt>
      <trkpt lat="45.864634132012725" lon="9.327717628329992">
        <ele>1231.1099999999999</ele>
        <time>2013-05-26T12:26:51Z</time>
      </trkpt>
      <trkpt lat="45.864579230546951" lon="9.327747635543346">
        <ele>1231.1099999999999</ele>
        <time>2013-05-26T12:27:26Z</time>
      </trkpt>
      <trkpt lat="45.864576967433095" lon="9.327756855636835">
        <ele>1231.1099999999999</ele>
        <time>2013-05-26T12:28:03Z</time>
      </trkpt>
      <trkpt lat="45.864594737067819" lon="9.327803794294596">
        <ele>1231.1099999999999</ele>
        <time>2013-05-26T12:28:40Z</time>
      </trkpt>
      <trkpt lat="45.864591132849455" lon="9.327778229489923">
        <ele>1230.6199999999999</ele>
        <time>2013-05-26T12:29:15Z</time>
      </trkpt>
      <trkpt lat="45.864595239982009" lon="9.327775882557035">
        <ele>1231.1099999999999</ele>
        <time>2013-05-26T12:29:49Z</time>
      </trkpt>
      <trkpt lat="45.86457084864378" lon="9.327776720747352">
        <ele>1230.6199999999999</ele>
        <time>2013-05-26T12:30:19Z</time>
      </trkpt>
      <trkpt lat="45.864575458690524" lon="9.327759705483913">
        <ele>1231.1099999999999</ele>
        <time>2013-05-26T12:30:56Z</time>
      </trkpt>
      <trkpt lat="45.864543607458472" lon="9.327753921970725">
        <ele>1231.1099999999999</ele>
        <time>2013-05-26T12:31:42Z</time>
      </trkpt>
      <trkpt lat="45.864550480619073" lon="9.327736990526319">
        <ele>1231.1099999999999</ele>
        <time>2013-05-26T12:32:23Z</time>
      </trkpt>
      <trkpt lat="45.864541260525584" lon="9.327737241983414">
        <ele>1231.5899999999999</ele>
        <time>2013-05-26T12:33:08Z</time>
      </trkpt>
      <trkpt lat="45.864568669348955" lon="9.327766075730324">
        <ele>1231.1099999999999</ele>
        <time>2013-05-26T12:33:45Z</time>
      </trkpt>
      <trkpt lat="45.864608064293861" lon="9.32780303992331">
        <ele>1231.5899999999999</ele>
        <time>2013-05-26T12:34:15Z</time>
      </trkpt>
      <trkpt lat="45.864585936069489" lon="9.327775044366717">
        <ele>1232.0699999999999</ele>
        <time>2013-05-26T12:34:30Z</time>
      </trkpt>
      <trkpt lat="45.864575123414397" lon="9.327788623049855">
        <ele>1232.0699999999999</ele>
        <time>2013-05-26T12:34:50Z</time>
      </trkpt>
      <trkpt lat="45.864581745117903" lon="9.327781749889255">
        <ele>1232.0699999999999</ele>
        <time>2013-05-26T12:35:13Z</time>
      </trkpt>
      <trkpt lat="45.864581493660808" lon="9.327811757102609">
        <ele>1232.0699999999999</ele>
        <time>2013-05-26T12:35:34Z</time>
      </trkpt>
      <trkpt lat="45.864584594964981" lon="9.327799016609788">
        <ele>1231.5899999999999</ele>
        <time>2013-05-26T12:35:54Z</time>
      </trkpt>
      <trkpt lat="45.864570261910558" lon="9.327789461240172">
        <ele>1231.5899999999999</ele>
        <time>2013-05-26T12:36:18Z</time>
      </trkpt>
      <trkpt lat="45.864596413448453" lon="9.32780790142715">
        <ele>1231.5899999999999</ele>
        <time>2013-05-26T12:36:38Z</time>
      </trkpt>
      <trkpt lat="45.864589540287852" lon="9.327800944447517">
        <ele>1231.5899999999999</ele>
        <time>2013-05-26T12:36:59Z</time>
      </trkpt>
      <trkpt lat="45.864595742896199" lon="9.327804883942008">
        <ele>1230.6199999999999</ele>
        <time>2013-05-26T12:37:18Z</time>
      </trkpt>
      <trkpt lat="45.86460018530488" lon="9.327833382412791">
        <ele>1231.1099999999999</ele>
        <time>2013-05-26T12:37:42Z</time>
      </trkpt>
      <trkpt lat="45.864597838371992" lon="9.327825084328651">
        <ele>1232.0699999999999</ele>
        <time>2013-05-26T12:37:48Z</time>
      </trkpt>
      <trkpt lat="45.864583672955632" lon="9.327809577807784">
        <ele>1230.6199999999999</ele>
        <time>2013-05-26T12:37:53Z</time>
      </trkpt>
      <trkpt lat="45.864595072343946" lon="9.327825419604778">
        <ele>1230.6199999999999</ele>
        <time>2013-05-26T12:38:16Z</time>
      </trkpt>
      <trkpt lat="45.864602783694863" lon="9.327838914468885">
        <ele>1231.1099999999999</ele>
        <time>2013-05-26T12:38:46Z</time>
      </trkpt>
      <trkpt lat="45.864605130627751" lon="9.3278225697577">
        <ele>1230.6199999999999</ele>
        <time>2013-05-26T12:38:57Z</time>
      </trkpt>
      <trkpt lat="45.864630192518234" lon="9.327875291928649">
        <ele>1229.1800000000001</ele>
        <time>2013-05-26T12:39:03Z</time>
      </trkpt>
      <trkpt lat="45.864488538354635" lon="9.327880907803774">
        <ele>1229.6600000000001</ele>
        <time>2013-05-26T12:39:18Z</time>
      </trkpt>
      <trkpt lat="45.864428859204054" lon="9.327840507030487">
        <ele>1229.6600000000001</ele>
        <time>2013-05-26T12:39:47Z</time>
      </trkpt>
      <trkpt lat="45.864407820627093" lon="9.327878393232822">
        <ele>1230.1400000000001</ele>
        <time>2013-05-26T12:40:04Z</time>
      </trkpt>
      <trkpt lat="45.864398265257478" lon="9.327881662175059">
        <ele>1230.1400000000001</ele>
        <time>2013-05-26T12:40:05Z</time>
      </trkpt>
      <trkpt lat="45.864239595830441" lon="9.327848218381405">
        <ele>1227.26</ele>
        <time>2013-05-26T12:40:19Z</time>
      </trkpt>
      <trkpt lat="45.864211181178689" lon="9.327843775972724">
        <ele>1226.78</ele>
        <time>2013-05-26T12:40:22Z</time>
      </trkpt>
      <trkpt lat="45.864135157316923" lon="9.327860372141004">
        <ele>1227.26</ele>
        <time>2013-05-26T12:40:31Z</time>
      </trkpt>
      <trkpt lat="45.863962909206748" lon="9.327957518398762">
        <ele>1224.8599999999999</ele>
        <time>2013-05-26T12:40:46Z</time>
      </trkpt>
      <trkpt lat="45.86380859836936" lon="9.328012838959694">
        <ele>1223.9000000000001</ele>
        <time>2013-05-26T12:41:02Z</time>
      </trkpt>
      <trkpt lat="45.863788817077875" lon="9.328023483976722">
        <ele>1223.9000000000001</ele>
        <time>2013-05-26T12:41:04Z</time>
      </trkpt>
      <trkpt lat="45.863642049953341" lon="9.32811182923615">
        <ele>1224.3800000000001</ele>
        <time>2013-05-26T12:41:20Z</time>
      </trkpt>
      <trkpt lat="45.863630650565028" lon="9.328127419576049">
        <ele>1224.8599999999999</ele>
        <time>2013-05-26T12:41:22Z</time>
      </trkpt>
      <trkpt lat="45.863500311970711" lon="9.328264882788062">
        <ele>1226.3</ele>
        <time>2013-05-26T12:41:37Z</time>
      </trkpt>
      <trkpt lat="45.863464772701263" lon="9.328298242762685">
        <ele>1226.3</ele>
        <time>2013-05-26T12:41:41Z</time>
      </trkpt>
      <trkpt lat="45.863394616171718" lon="9.328450290486217">
        <ele>1225.3399999999999</ele>
        <time>2013-05-26T12:41:55Z</time>
      </trkpt>
      <trkpt lat="45.86330434307456" lon="9.328522039577365">
        <ele>1227.74</ele>
        <time>2013-05-26T12:42:08Z</time>
      </trkpt>
      <trkpt lat="45.863248687237501" lon="9.328573839738965">
        <ele>1229.6600000000001</ele>
        <time>2013-05-26T12:42:22Z</time>
      </trkpt>
      <trkpt lat="45.863207615911961" lon="9.328636201098561">
        <ele>1231.5899999999999</ele>
        <time>2013-05-26T12:42:31Z</time>
      </trkpt>
      <trkpt lat="45.863113822415471" lon="9.328739801421762">
        <ele>1232.55</ele>
        <time>2013-05-26T12:42:45Z</time>
      </trkpt>
      <trkpt lat="45.863040145486593" lon="9.328794199973345">
        <ele>1234.95</ele>
        <time>2013-05-26T12:42:57Z</time>
      </trkpt>
      <trkpt lat="45.862973425537348" lon="9.328876426443458">
        <ele>1235.4300000000001</ele>
        <time>2013-05-26T12:43:07Z</time>
      </trkpt>
      <trkpt lat="45.862927744165063" lon="9.328939458355308">
        <ele>1235.9100000000001</ele>
        <time>2013-05-26T12:43:23Z</time>
      </trkpt>
      <trkpt lat="45.862825568765402" lon="9.329034928232431">
        <ele>1237.3499999999999</ele>
        <time>2013-05-26T12:43:38Z</time>
      </trkpt>
      <trkpt lat="45.862831268459558" lon="9.329034257680178">
        <ele>1237.3499999999999</ele>
        <time>2013-05-26T12:43:40Z</time>
      </trkpt>
      <trkpt lat="45.862753400579095" lon="9.329048171639442">
        <ele>1237.8299999999999</ele>
        <time>2013-05-26T12:43:56Z</time>
      </trkpt>
      <trkpt lat="45.862745018675923" lon="9.329063259065151">
        <ele>1237.3499999999999</ele>
        <time>2013-05-26T12:44:00Z</time>
      </trkpt>
      <trkpt lat="45.862669916823506" lon="9.329138863831759">
        <ele>1239.28</ele>
        <time>2013-05-26T12:44:10Z</time>
      </trkpt>
      <trkpt lat="45.862604454159737" lon="9.329161578789353">
        <ele>1240.24</ele>
        <time>2013-05-26T12:44:18Z</time>
      </trkpt>
      <trkpt lat="45.8625562582165" lon="9.329217486083508">
        <ele>1240.24</ele>
        <time>2013-05-26T12:44:31Z</time>
      </trkpt>
      <trkpt lat="45.862517030909657" lon="9.329229556024075">
        <ele>1238.3199999999999</ele>
        <time>2013-05-26T12:44:45Z</time>
      </trkpt>
      <trkpt lat="45.862512923777103" lon="9.329226370900869">
        <ele>1238.8</ele>
        <time>2013-05-26T12:44:51Z</time>
      </trkpt>
      <trkpt lat="45.862445617094636" lon="9.329333156347275">
        <ele>1234.95</ele>
        <time>2013-05-26T12:45:05Z</time>
      </trkpt>
      <trkpt lat="45.862409239634871" lon="9.329456873238087">
        <ele>1232.55</ele>
        <time>2013-05-26T12:45:19Z</time>
      </trkpt>
      <trkpt lat="45.862368503585458" lon="9.329522922635078">
        <ele>1230.6199999999999</ele>
        <time>2013-05-26T12:45:35Z</time>
      </trkpt>
      <trkpt lat="45.862336568534374" lon="9.329549744725227">
        <ele>1229.6600000000001</ele>
        <time>2013-05-26T12:45:38Z</time>
      </trkpt>
      <trkpt lat="45.862314524129033" lon="9.329596851021051">
        <ele>1228.22</ele>
        <time>2013-05-26T12:45:41Z</time>
      </trkpt>
      <trkpt lat="45.862278901040554" lon="9.329641778022051">
        <ele>1227.26</ele>
        <time>2013-05-26T12:45:46Z</time>
      </trkpt>
      <trkpt lat="45.862223329022527" lon="9.329699696972966">
        <ele>1227.26</ele>
        <time>2013-05-26T12:46:00Z</time>
      </trkpt>
      <trkpt lat="45.862177899107337" lon="9.329721238464117">
        <ele>1228.7</ele>
        <time>2013-05-26T12:46:11Z</time>
      </trkpt>
      <trkpt lat="45.862166499719024" lon="9.329771446064115">
        <ele>1227.26</ele>
        <time>2013-05-26T12:46:27Z</time>
      </trkpt>
      <trkpt lat="45.862113106995821" lon="9.329811595380306">
        <ele>1226.3</ele>
        <time>2013-05-26T12:46:38Z</time>
      </trkpt>
      <trkpt lat="45.86207496933639" lon="9.329859958961606">
        <ele>1226.3</ele>
        <time>2013-05-26T12:46:52Z</time>
      </trkpt>
      <trkpt lat="45.862061139196157" lon="9.329906897619367">
        <ele>1224.8599999999999</ele>
        <time>2013-05-26T12:46:55Z</time>
      </trkpt>
      <trkpt lat="45.862018056213856" lon="9.329977221786976">
        <ele>1223.4200000000001</ele>
        <time>2013-05-26T12:47:00Z</time>
      </trkpt>
      <trkpt lat="45.861890902742743" lon="9.330068165436387">
        <ele>1222.45</ele>
        <time>2013-05-26T12:47:15Z</time>
      </trkpt>
      <trkpt lat="45.861802138388157" lon="9.330129018053412">
        <ele>1222.45</ele>
        <time>2013-05-26T12:47:29Z</time>
      </trkpt>
      <trkpt lat="45.861753607168794" lon="9.330137567594647">
        <ele>1222.45</ele>
        <time>2013-05-26T12:47:36Z</time>
      </trkpt>
      <trkpt lat="45.861693006008863" lon="9.330198504030705">
        <ele>1224.3800000000001</ele>
        <time>2013-05-26T12:47:46Z</time>
      </trkpt>
      <trkpt lat="45.861585633829236" lon="9.330292129889131">
        <ele>1224.3800000000001</ele>
        <time>2013-05-26T12:47:58Z</time>
      </trkpt>
      <trkpt lat="45.861561996862292" lon="9.330377038568258">
        <ele>1224.3800000000001</ele>
        <time>2013-05-26T12:48:07Z</time>
      </trkpt>
      <trkpt lat="45.861517153680325" lon="9.330472089350224">
        <ele>1223.9000000000001</ele>
        <time>2013-05-26T12:48:13Z</time>
      </trkpt>
      <trkpt lat="45.861463258042932" lon="9.330614833161235">
        <ele>1221.49</ele>
        <time>2013-05-26T12:48:28Z</time>
      </trkpt>
      <trkpt lat="45.861482871696353" lon="9.330670405179262">
        <ele>1220.53</ele>
        <time>2013-05-26T12:48:35Z</time>
      </trkpt>
      <trkpt lat="45.861450349912047" lon="9.330744165927172">
        <ele>1218.1300000000001</ele>
        <time>2013-05-26T12:48:42Z</time>
      </trkpt>
      <trkpt lat="45.86142361164093" lon="9.330786159262061">
        <ele>1217.6500000000001</ele>
        <time>2013-05-26T12:48:46Z</time>
      </trkpt>
      <trkpt lat="45.861397543922067" lon="9.330993695184588">
        <ele>1214.28</ele>
        <time>2013-05-26T12:48:58Z</time>
      </trkpt>
      <trkpt lat="45.861320430412889" lon="9.331137277185917">
        <ele>1212.8399999999999</ele>
        <time>2013-05-26T12:49:11Z</time>
      </trkpt>
      <trkpt lat="45.861303079873323" lon="9.331166446208954">
        <ele>1212.3599999999999</ele>
        <time>2013-05-26T12:49:24Z</time>
      </trkpt>
      <trkpt lat="45.861290171742439" lon="9.331216486170888">
        <ele>1212.3599999999999</ele>
        <time>2013-05-26T12:49:28Z</time>
      </trkpt>
      <trkpt lat="45.861286064609885" lon="9.331263257190585">
        <ele>1212.3599999999999</ele>
        <time>2013-05-26T12:49:31Z</time>
      </trkpt>
      <trkpt lat="45.861276593059301" lon="9.331318661570549">
        <ele>1212.3599999999999</ele>
        <time>2013-05-26T12:49:34Z</time>
      </trkpt>
      <trkpt lat="45.861228900030255" lon="9.331446485593915">
        <ele>1214.28</ele>
        <time>2013-05-26T12:49:46Z</time>
      </trkpt>
      <trkpt lat="45.861199982464314" lon="9.331564083695412">
        <ele>1216.6900000000001</ele>
        <time>2013-05-26T12:49:59Z</time>
      </trkpt>
      <trkpt lat="45.861211717128754" lon="9.33161630295217">
        <ele>1218.6099999999999</ele>
        <time>2013-05-26T12:50:13Z</time>
      </trkpt>
      <trkpt lat="45.861189421266317" lon="9.33169006370008">
        <ele>1220.05</ele>
        <time>2013-05-26T12:50:28Z</time>
      </trkpt>
      <trkpt lat="45.8612076099962" lon="9.331762650981545">
        <ele>1222.45</ele>
        <time>2013-05-26T12:50:41Z</time>
      </trkpt>
      <trkpt lat="45.861192103475332" lon="9.331816546618938">
        <ele>1223.4200000000001</ele>
        <time>2013-05-26T12:50:53Z</time>
      </trkpt>
      <trkpt lat="45.86121347732842" lon="9.331904808059335">
        <ele>1226.78</ele>
        <time>2013-05-26T12:51:05Z</time>
      </trkpt>
      <trkpt lat="45.861175339668989" lon="9.33200865983963">
        <ele>1229.6600000000001</ele>
        <time>2013-05-26T12:51:19Z</time>
      </trkpt>
      <trkpt lat="45.861164275556803" lon="9.332031290978193">
        <ele>1231.1099999999999</ele>
        <time>2013-05-26T12:51:22Z</time>
      </trkpt>
      <trkpt lat="45.861173830926418" lon="9.33209465816617">
        <ele>1233.51</ele>
        <time>2013-05-26T12:51:35Z</time>
      </trkpt>
      <trkpt lat="45.861183470115066" lon="9.332176800817251">
        <ele>1235.4300000000001</ele>
        <time>2013-05-26T12:51:48Z</time>
      </trkpt>
      <trkpt lat="45.861138543114066" lon="9.332263972610235">
        <ele>1237.3499999999999</ele>
        <time>2013-05-26T12:52:02Z</time>
      </trkpt>
      <trkpt lat="45.861134016886353" lon="9.332371260970831">
        <ele>1239.28</ele>
        <time>2013-05-26T12:52:18Z</time>
      </trkpt>
      <trkpt lat="45.861177938058972" lon="9.332376709207892">
        <ele>1241.2</ele>
        <time>2013-05-26T12:52:29Z</time>
      </trkpt>
      <trkpt lat="45.861221356317401" lon="9.332404620945454">
        <ele>1241.2</ele>
        <time>2013-05-26T12:52:42Z</time>
      </trkpt>
      <trkpt lat="45.861222362145782" lon="9.332390539348126">
        <ele>1241.2</ele>
        <time>2013-05-26T12:52:56Z</time>
      </trkpt>
      <trkpt lat="45.861215656623244" lon="9.332398502156138">
        <ele>1241.2</ele>
        <time>2013-05-26T12:53:08Z</time>
      </trkpt>
      <trkpt lat="45.861227223649621" lon="9.332361286506057">
        <ele>1240.24</ele>
        <time>2013-05-26T12:53:16Z</time>
      </trkpt>
      <trkpt lat="45.86118321865797" lon="9.332405040040612">
        <ele>1240.72</ele>
        <time>2013-05-26T12:53:31Z</time>
      </trkpt>
      <trkpt lat="45.861177183687687" lon="9.332403363659978">
        <ele>1240.24</ele>
        <time>2013-05-26T12:53:33Z</time>
      </trkpt>
      <trkpt lat="45.861189672723413" lon="9.332383666187525">
        <ele>1240.24</ele>
        <time>2013-05-26T12:53:45Z</time>
      </trkpt>
      <trkpt lat="45.861175758764148" lon="9.332400681450963">
        <ele>1240.24</ele>
        <time>2013-05-26T12:54:06Z</time>
      </trkpt>
      <trkpt lat="45.861168969422579" lon="9.332404118031263">
        <ele>1239.76</ele>
        <time>2013-05-26T12:54:35Z</time>
      </trkpt>
      <trkpt lat="45.861169723793864" lon="9.332403196021915">
        <ele>1240.24</ele>
        <time>2013-05-26T12:55:14Z</time>
      </trkpt>
      <trkpt lat="45.861160503700376" lon="9.332413002848625">
        <ele>1240.24</ele>
        <time>2013-05-26T12:55:45Z</time>
      </trkpt>
      <trkpt lat="45.861148601397872" lon="9.332395065575838">
        <ele>1239.76</ele>
        <time>2013-05-26T12:56:05Z</time>
      </trkpt>
      <trkpt lat="45.861157821491361" lon="9.33239271864295">
        <ele>1239.28</ele>
        <time>2013-05-26T12:56:42Z</time>
      </trkpt>
      <trkpt lat="45.861183386296034" lon="9.332393724471331">
        <ele>1239.76</ele>
        <time>2013-05-26T12:57:14Z</time>
      </trkpt>
      <trkpt lat="45.861175423488021" lon="9.332400932908058">
        <ele>1239.76</ele>
        <time>2013-05-26T12:57:37Z</time>
      </trkpt>
      <trkpt lat="45.861183470115066" lon="9.332386096939445">
        <ele>1239.76</ele>
        <time>2013-05-26T12:58:00Z</time>
      </trkpt>
      <trkpt lat="45.861186906695366" lon="9.332385761663318">
        <ele>1240.24</ele>
        <time>2013-05-26T12:58:34Z</time>
      </trkpt>
      <trkpt lat="45.861199060454965" lon="9.33237612247467">
        <ele>1239.76</ele>
        <time>2013-05-26T12:59:04Z</time>
      </trkpt>
      <trkpt lat="45.861178860068321" lon="9.332383582368493">
        <ele>1241.2</ele>
        <time>2013-05-26T12:59:21Z</time>
      </trkpt>
      <trkpt lat="45.861158072948456" lon="9.33239271864295">
        <ele>1241.2</ele>
        <time>2013-05-26T12:59:39Z</time>
      </trkpt>
      <trkpt lat="45.861166873946786" lon="9.332389449700713">
        <ele>1241.2</ele>
        <time>2013-05-26T12:59:59Z</time>
      </trkpt>
      <trkpt lat="45.861199647188187" lon="9.332367656752467">
        <ele>1241.2</ele>
        <time>2013-05-26T13:00:14Z</time>
      </trkpt>
      <trkpt lat="45.861197886988521" lon="9.332377128303051">
        <ele>1240.72</ele>
        <time>2013-05-26T13:00:27Z</time>
      </trkpt>
      <trkpt lat="45.861206604167819" lon="9.332334380596876">
        <ele>1240.72</ele>
        <time>2013-05-26T13:00:42Z</time>
      </trkpt>
      <trkpt lat="45.861269803717732" lon="9.332313677296042">
        <ele>1239.76</ele>
        <time>2013-05-26T13:00:54Z</time>
      </trkpt>
      <trkpt lat="45.861239209771156" lon="9.332289202138782">
        <ele>1238.8</ele>
        <time>2013-05-26T13:01:12Z</time>
      </trkpt>
      <trkpt lat="45.861221691593528" lon="9.332232791930437">
        <ele>1237.3499999999999</ele>
        <time>2013-05-26T13:01:26Z</time>
      </trkpt>
      <trkpt lat="45.861207358539104" lon="9.332167580723763">
        <ele>1235.4300000000001</ele>
        <time>2013-05-26T13:01:37Z</time>
      </trkpt>
      <trkpt lat="45.861177602782845" lon="9.332125000655651">
        <ele>1233.51</ele>
        <time>2013-05-26T13:01:50Z</time>
      </trkpt>
      <trkpt lat="45.861154804006219" lon="9.332079906016588">
        <ele>1231.5899999999999</ele>
        <time>2013-05-26T13:02:02Z</time>
      </trkpt>
      <trkpt lat="45.861142817884684" lon="9.332061046734452">
        <ele>1231.1099999999999</ele>
        <time>2013-05-26T13:02:05Z</time>
      </trkpt>
      <trkpt lat="45.861150529235601" lon="9.332023076713085">
        <ele>1229.6600000000001</ele>
        <time>2013-05-26T13:02:08Z</time>
      </trkpt>
      <trkpt lat="45.86117047816515" lon="9.331946801394224">
        <ele>1227.74</ele>
        <time>2013-05-26T13:02:19Z</time>
      </trkpt>
      <trkpt lat="45.861190678551793" lon="9.331901539117098">
        <ele>1226.78</ele>
        <time>2013-05-26T13:02:31Z</time>
      </trkpt>
      <trkpt lat="45.861173244193196" lon="9.331847643479705">
        <ele>1223.9000000000001</ele>
        <time>2013-05-26T13:02:42Z</time>
      </trkpt>
      <trkpt lat="45.861186571419239" lon="9.331775056198239">
        <ele>1222.45</ele>
        <time>2013-05-26T13:02:51Z</time>
      </trkpt>
      <trkpt lat="45.86119445040822" lon="9.331755107268691">
        <ele>1221.49</ele>
        <time>2013-05-26T13:02:53Z</time>
      </trkpt>
      <trkpt lat="45.861172657459974" lon="9.331704480573535">
        <ele>1220.05</ele>
        <time>2013-05-26T13:03:01Z</time>
      </trkpt>
      <trkpt lat="45.861188331618905" lon="9.331618482246995">
        <ele>1217.6500000000001</ele>
        <time>2013-05-26T13:03:13Z</time>
      </trkpt>
      <trkpt lat="45.861215321347117" lon="9.331505242735148">
        <ele>1215.72</ele>
        <time>2013-05-26T13:03:24Z</time>
      </trkpt>
      <trkpt lat="45.861221859231591" lon="9.33140130713582">
        <ele>1212.8399999999999</ele>
        <time>2013-05-26T13:03:36Z</time>
      </trkpt>
      <trkpt lat="45.861274329945445" lon="9.331282787024975">
        <ele>1212.8399999999999</ele>
        <time>2013-05-26T13:03:46Z</time>
      </trkpt>
      <trkpt lat="45.8613077737391" lon="9.331157142296433">
        <ele>1212.3599999999999</ele>
        <time>2013-05-26T13:04:00Z</time>
      </trkpt>
      <trkpt lat="45.861304253339767" lon="9.331176672130823">
        <ele>1211.8800000000001</ele>
        <time>2013-05-26T13:04:21Z</time>
      </trkpt>
      <trkpt lat="45.861290507018566" lon="9.331166949123144">
        <ele>1212.3599999999999</ele>
        <time>2013-05-26T13:04:48Z</time>
      </trkpt>
      <trkpt lat="45.861300900578499" lon="9.331185724586248">
        <ele>1212.8399999999999</ele>
        <time>2013-05-26T13:05:06Z</time>
      </trkpt>
      <trkpt lat="45.861301822587848" lon="9.331143479794264">
        <ele>1212.3599999999999</ele>
        <time>2013-05-26T13:05:29Z</time>
      </trkpt>
      <trkpt lat="45.861267037689686" lon="9.331106767058373">
        <ele>1210.9200000000001</ele>
        <time>2013-05-26T13:05:42Z</time>
      </trkpt>
      <trkpt lat="45.861215069890022" lon="9.331062762066722">
        <ele>1208.51</ele>
        <time>2013-05-26T13:05:56Z</time>
      </trkpt>
      <trkpt lat="45.86115388199687" lon="9.330916330218315">
        <ele>1206.1099999999999</ele>
        <time>2013-05-26T13:06:12Z</time>
      </trkpt>
      <trkpt lat="45.861091101542115" lon="9.33081298135221">
        <ele>1203.23</ele>
        <time>2013-05-26T13:06:26Z</time>
      </trkpt>
      <trkpt lat="45.861042235046625" lon="9.330713236704469">
        <ele>1200.3399999999999</ele>
        <time>2013-05-26T13:06:41Z</time>
      </trkpt>
      <trkpt lat="45.861002923920751" lon="9.330648193135858">
        <ele>1198.9000000000001</ele>
        <time>2013-05-26T13:06:55Z</time>
      </trkpt>
      <trkpt lat="45.860948357731104" lon="9.330617683008313">
        <ele>1195.54</ele>
        <time>2013-05-26T13:07:07Z</time>
      </trkpt>
      <trkpt lat="45.860882475972176" lon="9.33056672103703">
        <ele>1193.1300000000001</ele>
        <time>2013-05-26T13:07:16Z</time>
      </trkpt>
      <trkpt lat="45.860831597819924" lon="9.330543670803309">
        <ele>1192.6500000000001</ele>
        <time>2013-05-26T13:07:21Z</time>
      </trkpt>
      <trkpt lat="45.860774517059326" lon="9.330404531210661">
        <ele>1192.1700000000001</ele>
        <time>2013-05-26T13:07:31Z</time>
      </trkpt>
      <trkpt lat="45.860754987224936" lon="9.330310402438045">
        <ele>1190.73</ele>
        <time>2013-05-26T13:07:37Z</time>
      </trkpt>
      <trkpt lat="45.860742498189211" lon="9.330156343057752">
        <ele>1188.8099999999999</ele>
        <time>2013-05-26T13:07:47Z</time>
      </trkpt>
      <trkpt lat="45.860726656392217" lon="9.330052575096488">
        <ele>1188.8099999999999</ele>
        <time>2013-05-26T13:07:54Z</time>
      </trkpt>
      <trkpt lat="45.860756998881698" lon="9.329956853762269">
        <ele>1188.3299999999999</ele>
        <time>2013-05-26T13:08:09Z</time>
      </trkpt>
      <trkpt lat="45.86077569052577" lon="9.329918045550585">
        <ele>1187.3699999999999</ele>
        <time>2013-05-26T13:08:26Z</time>
      </trkpt>
      <trkpt lat="45.86077569052577" lon="9.329879824072123">
        <ele>1186.8800000000001</ele>
        <time>2013-05-26T13:08:39Z</time>
      </trkpt>
      <trkpt lat="45.860807877033949" lon="9.329831544309855">
        <ele>1184</ele>
        <time>2013-05-26T13:08:53Z</time>
      </trkpt>
      <trkpt lat="45.860792957246304" lon="9.329771781340241">
        <ele>1184</ele>
        <time>2013-05-26T13:09:10Z</time>
      </trkpt>
      <trkpt lat="45.860787089914083" lon="9.329773206263781">
        <ele>1182.0799999999999</ele>
        <time>2013-05-26T13:09:25Z</time>
      </trkpt>
      <trkpt lat="45.860788095742464" lon="9.329752083867788">
        <ele>1181.5999999999999</ele>
        <time>2013-05-26T13:09:38Z</time>
      </trkpt>
      <trkpt lat="45.860745348036289" lon="9.329720735549927">
        <ele>1180.6400000000001</ele>
        <time>2013-05-26T13:09:53Z</time>
      </trkpt>
      <trkpt lat="45.860761692747474" lon="9.329653177410364">
        <ele>1177.27</ele>
        <time>2013-05-26T13:10:03Z</time>
      </trkpt>
      <trkpt lat="45.860750544816256" lon="9.32960607111454">
        <ele>1176.3099999999999</ele>
        <time>2013-05-26T13:10:15Z</time>
      </trkpt>
      <trkpt lat="45.860722968354821" lon="9.329605903476477">
        <ele>1174.8699999999999</ele>
        <time>2013-05-26T13:10:27Z</time>
      </trkpt>
      <trkpt lat="45.860687429085374" lon="9.32956893928349">
        <ele>1172.95</ele>
        <time>2013-05-26T13:10:38Z</time>
      </trkpt>
      <trkpt lat="45.860675945878029" lon="9.329539518803358">
        <ele>1171.98</ele>
        <time>2013-05-26T13:10:42Z</time>
      </trkpt>
      <trkpt lat="45.860640406608582" lon="9.329508002847433">
        <ele>1169.5799999999999</ele>
        <time>2013-05-26T13:10:52Z</time>
      </trkpt>
      <trkpt lat="45.860590282827616" lon="9.329509092494845">
        <ele>1166.7</ele>
        <time>2013-05-26T13:11:06Z</time>
      </trkpt>
      <trkpt lat="45.860566897317767" lon="9.329427788034082">
        <ele>1164.77</ele>
        <time>2013-05-26T13:11:19Z</time>
      </trkpt>
      <trkpt lat="45.860530016943812" lon="9.329379927366972">
        <ele>1161.4100000000001</ele>
        <time>2013-05-26T13:11:34Z</time>
      </trkpt>
      <trkpt lat="45.860504284501076" lon="9.329342544078827">
        <ele>1159.01</ele>
        <time>2013-05-26T13:11:48Z</time>
      </trkpt>
      <trkpt lat="45.860464470461011" lon="9.329317649826407">
        <ele>1157.0799999999999</ele>
        <time>2013-05-26T13:12:00Z</time>
      </trkpt>
      <trkpt lat="45.860426751896739" lon="9.329335419461131">
        <ele>1153.72</ele>
        <time>2013-05-26T13:12:13Z</time>
      </trkpt>
      <trkpt lat="45.860371850430965" lon="9.329272303730249">
        <ele>1151.3199999999999</ele>
        <time>2013-05-26T13:12:31Z</time>
      </trkpt>
      <trkpt lat="45.860328432172537" lon="9.329262664541602">
        <ele>1148.9100000000001</ele>
        <time>2013-05-26T13:12:45Z</time>
      </trkpt>
      <trkpt lat="45.860307142138481" lon="9.329203991219401">
        <ele>1146.51</ele>
        <time>2013-05-26T13:12:58Z</time>
      </trkpt>
      <trkpt lat="45.860252492129803" lon="9.329194854944944">
        <ele>1143.6300000000001</ele>
        <time>2013-05-26T13:13:13Z</time>
      </trkpt>
      <trkpt lat="45.860208151862025" lon="9.329163171350956">
        <ele>1140.74</ele>
        <time>2013-05-26T13:13:23Z</time>
      </trkpt>
      <trkpt lat="45.860175378620625" lon="9.329178091138601">
        <ele>1137.8599999999999</ele>
        <time>2013-05-26T13:13:32Z</time>
      </trkpt>
      <trkpt lat="45.86011896841228" lon="9.32912914082408">
        <ele>1134.49</ele>
        <time>2013-05-26T13:13:47Z</time>
      </trkpt>
      <trkpt lat="45.86009792983532" lon="9.329119166359305">
        <ele>1133.05</ele>
        <time>2013-05-26T13:13:58Z</time>
      </trkpt>
      <trkpt lat="45.860065408051014" lon="9.329170128330588">
        <ele>1129.6900000000001</ele>
        <time>2013-05-26T13:14:13Z</time>
      </trkpt>
      <trkpt lat="45.860056774690747" lon="9.329170547425747">
        <ele>1128.73</ele>
        <time>2013-05-26T13:14:15Z</time>
      </trkpt>
      <trkpt lat="45.86005350574851" lon="9.32922150939703">
        <ele>1125.3599999999999</ele>
        <time>2013-05-26T13:14:26Z</time>
      </trkpt>
      <trkpt lat="45.860007153823972" lon="9.329287307336927">
        <ele>1122</ele>
        <time>2013-05-26T13:14:36Z</time>
      </trkpt>
      <trkpt lat="45.859936829656363" lon="9.329230478033423">
        <ele>1118.6300000000001</ele>
        <time>2013-05-26T13:14:51Z</time>
      </trkpt>
      <trkpt lat="45.859880670905113" lon="9.329199632629752">
        <ele>1116.71</ele>
        <time>2013-05-26T13:15:04Z</time>
      </trkpt>
      <trkpt lat="45.859870696440339" lon="9.329165853559971">
        <ele>1114.3099999999999</ele>
        <time>2013-05-26T13:15:17Z</time>
      </trkpt>
      <trkpt lat="45.859812274575233" lon="9.329103995114565">
        <ele>1112.3800000000001</ele>
        <time>2013-05-26T13:15:30Z</time>
      </trkpt>
      <trkpt lat="45.85979450494051" lon="9.32910961098969">
        <ele>1111.4200000000001</ele>
        <time>2013-05-26T13:15:34Z</time>
      </trkpt>
      <trkpt lat="45.859737591817975" lon="9.329072562977672">
        <ele>1108.0599999999999</ele>
        <time>2013-05-26T13:15:45Z</time>
      </trkpt>
      <trkpt lat="45.859691156074405" lon="9.329008189961314">
        <ele>1105.6500000000001</ele>
        <time>2013-05-26T13:15:58Z</time>
      </trkpt>
      <trkpt lat="45.859685372561216" lon="9.329024031758308">
        <ele>1104.6900000000001</ele>
        <time>2013-05-26T13:16:17Z</time>
      </trkpt>
      <trkpt lat="45.859600463882089" lon="9.329025372862816">
        <ele>1101.3299999999999</ele>
        <time>2013-05-26T13:16:29Z</time>
      </trkpt>
      <trkpt lat="45.859566768631339" lon="9.328990504145622">
        <ele>1100.3699999999999</ele>
        <time>2013-05-26T13:16:42Z</time>
      </trkpt>
      <trkpt lat="45.859557213261724" lon="9.329042304307222">
        <ele>1097.48</ele>
        <time>2013-05-26T13:16:57Z</time>
      </trkpt>
      <trkpt lat="45.859532654285431" lon="9.329025875777006">
        <ele>1096.04</ele>
        <time>2013-05-26T13:17:11Z</time>
      </trkpt>
      <trkpt lat="45.859526032581925" lon="9.32904414832592">
        <ele>1094.1199999999999</ele>
        <time>2013-05-26T13:17:25Z</time>
      </trkpt>
      <trkpt lat="45.859514968469739" lon="9.329054793342948">
        <ele>1094.5999999999999</ele>
        <time>2013-05-26T13:17:45Z</time>
      </trkpt>
      <trkpt lat="45.859546652063727" lon="9.32905487716198">
        <ele>1095.0799999999999</ele>
        <time>2013-05-26T13:18:10Z</time>
      </trkpt>
      <trkpt lat="45.859567439183593" lon="9.329065019264817">
        <ele>1095.0799999999999</ele>
        <time>2013-05-26T13:18:42Z</time>
      </trkpt>
      <trkpt lat="45.85945981554687" lon="9.329108856618404">
        <ele>1092.2</ele>
        <time>2013-05-26T13:18:57Z</time>
      </trkpt>
      <trkpt lat="45.859413128346205" lon="9.329065186902881">
        <ele>1089.79</ele>
        <time>2013-05-26T13:19:11Z</time>
      </trkpt>
      <trkpt lat="45.85937088355422" lon="9.329071221873164">
        <ele>1087.8699999999999</ele>
        <time>2013-05-26T13:19:24Z</time>
      </trkpt>
      <trkpt lat="45.859342720359564" lon="9.329057224094868">
        <ele>1086.4300000000001</ele>
        <time>2013-05-26T13:19:27Z</time>
      </trkpt>
      <trkpt lat="45.859302571043372" lon="9.329020511358976">
        <ele>1083.54</ele>
        <time>2013-05-26T13:19:39Z</time>
      </trkpt>
      <trkpt lat="45.859257141128182" lon="9.329024702310562">
        <ele>1080.6600000000001</ele>
        <time>2013-05-26T13:19:55Z</time>
      </trkpt>
      <trkpt lat="45.859188409522176" lon="9.328964184969664">
        <ele>1078.26</ele>
        <time>2013-05-26T13:20:07Z</time>
      </trkpt>
      <trkpt lat="45.859154378995299" lon="9.328995533287525">
        <ele>1075.8499999999999</ele>
        <time>2013-05-26T13:20:20Z</time>
      </trkpt>
      <trkpt lat="45.859129400923848" lon="9.329076837748289">
        <ele>1073.45</ele>
        <time>2013-05-26T13:20:33Z</time>
      </trkpt>
      <trkpt lat="45.859039798378944" lon="9.32913551107049">
        <ele>1070.0799999999999</ele>
        <time>2013-05-26T13:20:47Z</time>
      </trkpt>
      <trkpt lat="45.858971904963255" lon="9.329056972637773">
        <ele>1067.2</ele>
        <time>2013-05-26T13:21:00Z</time>
      </trkpt>
      <trkpt lat="45.858898814767599" lon="9.329101648181677">
        <ele>1064.3199999999999</ele>
        <time>2013-05-26T13:21:14Z</time>
      </trkpt>
      <trkpt lat="45.858854977414012" lon="9.329037694260478">
        <ele>1061.9100000000001</ele>
        <time>2013-05-26T13:21:28Z</time>
      </trkpt>
      <trkpt lat="45.858799321576953" lon="9.328990001231432">
        <ele>1059.03</ele>
        <time>2013-05-26T13:21:43Z</time>
      </trkpt>
      <trkpt lat="45.858796639367938" lon="9.328909534960985">
        <ele>1057.5899999999999</ele>
        <time>2013-05-26T13:21:56Z</time>
      </trkpt>
      <trkpt lat="45.858733775094151" lon="9.328933926299214">
        <ele>1055.1800000000001</ele>
        <time>2013-05-26T13:22:08Z</time>
      </trkpt>
      <trkpt lat="45.85870586335659" lon="9.328851448372006">
        <ele>1053.26</ele>
        <time>2013-05-26T13:22:18Z</time>
      </trkpt>
      <trkpt lat="45.858662612736225" lon="9.328879276290536">
        <ele>1050.8599999999999</ele>
        <time>2013-05-26T13:22:30Z</time>
      </trkpt>
      <trkpt lat="45.858617853373289" lon="9.328895201906562">
        <ele>1047.97</ele>
        <time>2013-05-26T13:22:43Z</time>
      </trkpt>
      <trkpt lat="45.858571417629719" lon="9.328778944909573">
        <ele>1045.5699999999999</ele>
        <time>2013-05-26T13:22:56Z</time>
      </trkpt>
      <trkpt lat="45.858530262485147" lon="9.328695209696889">
        <ele>1042.6900000000001</ele>
        <time>2013-05-26T13:23:07Z</time>
      </trkpt>
      <trkpt lat="45.858490448445082" lon="9.328683307394385">
        <ele>1041.25</ele>
        <time>2013-05-26T13:23:18Z</time>
      </trkpt>
      <trkpt lat="45.858442923054099" lon="9.32863712310791">
        <ele>1039.3199999999999</ele>
        <time>2013-05-26T13:23:31Z</time>
      </trkpt>
      <trkpt lat="45.858408641070127" lon="9.328617341816425">
        <ele>1036.4400000000001</ele>
        <time>2013-05-26T13:23:46Z</time>
      </trkpt>
      <trkpt lat="45.858336975798011" lon="9.328660760074854">
        <ele>1033.0699999999999</ele>
        <time>2013-05-26T13:23:58Z</time>
      </trkpt>
      <trkpt lat="45.858328342437744" lon="9.328656066209078">
        <ele>1032.5899999999999</ele>
        <time>2013-05-26T13:23:59Z</time>
      </trkpt>
      <trkpt lat="45.858268747106194" lon="9.328712308779359">
        <ele>1031.1500000000001</ele>
        <time>2013-05-26T13:24:13Z</time>
      </trkpt>
      <trkpt lat="45.858239913359284" lon="9.328730329871178">
        <ele>1029.71</ele>
        <time>2013-05-26T13:24:27Z</time>
      </trkpt>
      <trkpt lat="45.858207978308201" lon="9.328719349578023">
        <ele>1028.27</ele>
        <time>2013-05-26T13:24:39Z</time>
      </trkpt>
      <trkpt lat="45.858160620555282" lon="9.32867375202477">
        <ele>1026.3399999999999</ele>
        <time>2013-05-26T13:24:50Z</time>
      </trkpt>
      <trkpt lat="45.858111837878823" lon="9.328581551089883">
        <ele>1023.9400000000001</ele>
        <time>2013-05-26T13:25:02Z</time>
      </trkpt>
      <trkpt lat="45.858057271689177" lon="9.328542994335294">
        <ele>1020.58</ele>
        <time>2013-05-26T13:25:13Z</time>
      </trkpt>
      <trkpt lat="45.858035143464804" lon="9.328548442572355">
        <ele>1018.17</ele>
        <time>2013-05-26T13:25:27Z</time>
      </trkpt>
      <trkpt lat="45.857961634173989" lon="9.328547855839133">
        <ele>1014.33</ele>
        <time>2013-05-26T13:25:38Z</time>
      </trkpt>
      <trkpt lat="45.857912851497531" lon="9.328520027920604">
        <ele>1010.96</ele>
        <time>2013-05-26T13:25:49Z</time>
      </trkpt>
      <trkpt lat="45.85787907242775" lon="9.328516591340303">
        <ele>1009.04</ele>
        <time>2013-05-26T13:25:54Z</time>
      </trkpt>
      <trkpt lat="45.85781067609787" lon="9.328518100082874">
        <ele>1007.6</ele>
        <time>2013-05-26T13:26:00Z</time>
      </trkpt>
      <trkpt lat="45.857792655006051" lon="9.328517848625779">
        <ele>1007.12</ele>
        <time>2013-05-26T13:26:15Z</time>
      </trkpt>
      <trkpt lat="45.857730461284518" lon="9.328459929674864">
        <ele>1007.12</ele>
        <time>2013-05-26T13:26:32Z</time>
      </trkpt>
      <trkpt lat="45.857741022482514" lon="9.32851005345583">
        <ele>1007.12</ele>
        <time>2013-05-26T13:26:53Z</time>
      </trkpt>
      <trkpt lat="45.857701543718576" lon="9.328548526391387">
        <ele>1007.12</ele>
        <time>2013-05-26T13:27:23Z</time>
      </trkpt>
      <trkpt lat="45.857760217040777" lon="9.328483231365681">
        <ele>1007.12</ele>
        <time>2013-05-26T13:27:49Z</time>
      </trkpt>
      <trkpt lat="45.857777902856469" lon="9.328507874161005">
        <ele>1008.5599999999999</ele>
        <time>2013-05-26T13:28:27Z</time>
      </trkpt>
      <trkpt lat="45.85772761143744" lon="9.328452721238136">
        <ele>1008.5599999999999</ele>
        <time>2013-05-26T13:28:46Z</time>
      </trkpt>
      <trkpt lat="45.857729790732265" lon="9.328443417325616">
        <ele>1009.04</ele>
        <time>2013-05-26T13:29:04Z</time>
      </trkpt>
      <trkpt lat="45.857750913128257" lon="9.328317018225789">
        <ele>1008.5599999999999</ele>
        <time>2013-05-26T13:29:27Z</time>
      </trkpt>
      <trkpt lat="45.857716295868158" lon="9.328355072066188">
        <ele>1008.5599999999999</ele>
        <time>2013-05-26T13:29:52Z</time>
      </trkpt>
      <trkpt lat="45.857709171250463" lon="9.328359682112932">
        <ele>1009.04</ele>
        <time>2013-05-26T13:30:13Z</time>
      </trkpt>
      <trkpt lat="45.857710260897875" lon="9.32846412062645">
        <ele>1009.04</ele>
        <time>2013-05-26T13:30:41Z</time>
      </trkpt>
      <trkpt lat="45.857689054682851" lon="9.328530253842473">
        <ele>1009.52</ele>
        <time>2013-05-26T13:31:16Z</time>
      </trkpt>
      <trkpt lat="45.857651587575674" lon="9.328502006828785">
        <ele>1009.52</ele>
        <time>2013-05-26T13:31:33Z</time>
      </trkpt>
      <trkpt lat="45.857676900923252" lon="9.32849882170558">
        <ele>1010</ele>
        <time>2013-05-26T13:32:03Z</time>
      </trkpt>
      <trkpt lat="45.857736496254802" lon="9.328388599678874">
        <ele>1010</ele>
        <time>2013-05-26T13:32:30Z</time>
      </trkpt>
      <trkpt lat="45.857801120728254" lon="9.328368231654167">
        <ele>1010</ele>
        <time>2013-05-26T13:33:03Z</time>
      </trkpt>
      <trkpt lat="45.857747308909893" lon="9.328450039029121">
        <ele>1010.48</ele>
        <time>2013-05-26T13:33:31Z</time>
      </trkpt>
      <trkpt lat="45.857733562588692" lon="9.328492283821106">
        <ele>1010.96</ele>
        <time>2013-05-26T13:33:59Z</time>
      </trkpt>
      <trkpt lat="45.857734065502882" lon="9.328416679054499">
        <ele>1010.48</ele>
        <time>2013-05-26T13:34:27Z</time>
      </trkpt>
      <trkpt lat="45.857712524011731" lon="9.328468898311257">
        <ele>1011.4400000000001</ele>
        <time>2013-05-26T13:34:53Z</time>
      </trkpt>
      <trkpt lat="45.857659550383687" lon="9.328522374853492">
        <ele>1011.4400000000001</ele>
        <time>2013-05-26T13:35:18Z</time>
      </trkpt>
      <trkpt lat="45.857667597010732" lon="9.328433275222778">
        <ele>1011.4400000000001</ele>
        <time>2013-05-26T13:35:52Z</time>
      </trkpt>
      <trkpt lat="45.857704309746623" lon="9.328409805893898">
        <ele>1011.9299999999999</ele>
        <time>2013-05-26T13:36:14Z</time>
      </trkpt>
      <trkpt lat="45.857707997784019" lon="9.328353395685554">
        <ele>1011.9299999999999</ele>
        <time>2013-05-26T13:36:35Z</time>
      </trkpt>
      <trkpt lat="45.857695257291198" lon="9.328343756496906">
        <ele>1011.4400000000001</ele>
        <time>2013-05-26T13:36:58Z</time>
      </trkpt>
      <trkpt lat="45.857637757435441" lon="9.328422043472529">
        <ele>1011.4400000000001</ele>
        <time>2013-05-26T13:37:17Z</time>
      </trkpt>
      <trkpt lat="45.857650078833103" lon="9.328435454517603">
        <ele>1011.4400000000001</ele>
        <time>2013-05-26T13:37:40Z</time>
      </trkpt>
      <trkpt lat="45.857646474614739" lon="9.328421289101243">
        <ele>1011.4400000000001</ele>
        <time>2013-05-26T13:37:59Z</time>
      </trkpt>
      <trkpt lat="45.857683019712567" lon="9.328431934118271">
        <ele>1011.9299999999999</ele>
        <time>2013-05-26T13:38:22Z</time>
      </trkpt>
      <trkpt lat="45.857683522626758" lon="9.328406034037471">
        <ele>1011.9299999999999</ele>
        <time>2013-05-26T13:38:43Z</time>
      </trkpt>
      <trkpt lat="45.857656029984355" lon="9.328425396233797">
        <ele>1011.9299999999999</ele>
        <time>2013-05-26T13:39:01Z</time>
      </trkpt>
      <trkpt lat="45.857688551768661" lon="9.328419780358672">
        <ele>1012.41</ele>
        <time>2013-05-26T13:39:13Z</time>
      </trkpt>
      <trkpt lat="45.857702968642116" lon="9.328520614653826">
        <ele>1012.41</ele>
        <time>2013-05-26T13:39:38Z</time>
      </trkpt>
      <trkpt lat="45.857696179300547" lon="9.328522458672524">
        <ele>1013.37</ele>
        <time>2013-05-26T13:40:06Z</time>
      </trkpt>
      <trkpt lat="45.857741357758641" lon="9.328455990180373">
        <ele>1013.37</ele>
        <time>2013-05-26T13:40:22Z</time>
      </trkpt>
      <trkpt lat="45.857742698863149" lon="9.328420199453831">
        <ele>1013.85</ele>
        <time>2013-05-26T13:40:35Z</time>
      </trkpt>
      <trkpt lat="45.857805479317904" lon="9.328372087329626">
        <ele>1013.37</ele>
        <time>2013-05-26T13:40:58Z</time>
      </trkpt>
      <trkpt lat="45.857811011373997" lon="9.328413410112262">
        <ele>1013.85</ele>
        <time>2013-05-26T13:41:12Z</time>
      </trkpt>
      <trkpt lat="45.857768263667822" lon="9.328384744003415">
        <ele>1014.33</ele>
        <time>2013-05-26T13:41:29Z</time>
      </trkpt>
      <trkpt lat="45.857737669721246" lon="9.328405195847154">
        <ele>1013.37</ele>
        <time>2013-05-26T13:41:47Z</time>
      </trkpt>
      <trkpt lat="45.857752757146955" lon="9.328452553600073">
        <ele>1013.85</ele>
        <time>2013-05-26T13:41:58Z</time>
      </trkpt>
      <trkpt lat="45.857765581458807" lon="9.32849982753396">
        <ele>1014.33</ele>
        <time>2013-05-26T13:42:19Z</time>
      </trkpt>
      <trkpt lat="45.857743788510561" lon="9.328545173630118">
        <ele>1014.33</ele>
        <time>2013-05-26T13:42:41Z</time>
      </trkpt>
      <trkpt lat="45.85773691534996" lon="9.328580629080534">
        <ele>1014.8099999999999</ele>
        <time>2013-05-26T13:43:04Z</time>
      </trkpt>
      <trkpt lat="45.857730628922582" lon="9.328553220257163">
        <ele>1014.8099999999999</ele>
        <time>2013-05-26T13:43:29Z</time>
      </trkpt>
      <trkpt lat="45.857701124623418" lon="9.32851298712194">
        <ele>1015.29</ele>
        <time>2013-05-26T13:43:55Z</time>
      </trkpt>
      <trkpt lat="45.857665752992034" lon="9.328386168926954">
        <ele>1013.37</ele>
        <time>2013-05-26T13:44:02Z</time>
      </trkpt>
      <trkpt lat="45.857621831819415" lon="9.32832389138639">
        <ele>1010.48</ele>
        <time>2013-05-26T13:44:13Z</time>
      </trkpt>
      <trkpt lat="45.857567684724927" lon="9.328299332410097">
        <ele>1008.08</ele>
        <time>2013-05-26T13:44:24Z</time>
      </trkpt>
      <trkpt lat="45.857480261474848" lon="9.328231774270535">
        <ele>1004.72</ele>
        <time>2013-05-26T13:44:38Z</time>
      </trkpt>
      <trkpt lat="45.857456373050809" lon="9.328237390145659">
        <ele>1004.23</ele>
        <time>2013-05-26T13:44:40Z</time>
      </trkpt>
      <trkpt lat="45.857403902336955" lon="9.328205371275544">
        <ele>1002.3099999999999</ele>
        <time>2013-05-26T13:44:48Z</time>
      </trkpt>
      <trkpt lat="45.857368698343635" lon="9.328171256929636">
        <ele>1001.35</ele>
        <time>2013-05-26T13:44:52Z</time>
      </trkpt>
      <trkpt lat="45.857263756915927" lon="9.328083666041493">
        <ele>997.99000000000001</ele>
        <time>2013-05-26T13:45:04Z</time>
      </trkpt>
      <trkpt lat="45.857224697247148" lon="9.328062040731311">
        <ele>996.05999999999995</ele>
        <time>2013-05-26T13:45:20Z</time>
      </trkpt>
      <trkpt lat="45.857142135500908" lon="9.328092550858855">
        <ele>994.13999999999999</ele>
        <time>2013-05-26T13:45:36Z</time>
      </trkpt>
      <trkpt lat="45.857061585411429" lon="9.328045528382063">
        <ele>991.25999999999999</ele>
        <time>2013-05-26T13:45:49Z</time>
      </trkpt>
      <trkpt lat="45.85702009499073" lon="9.327940167859197">
        <ele>988.37</ele>
        <time>2013-05-26T13:46:00Z</time>
      </trkpt>
      <trkpt lat="45.856947088614106" lon="9.327934803441167">
        <ele>985.49000000000001</ele>
        <time>2013-05-26T13:46:11Z</time>
      </trkpt>
      <trkpt lat="45.856910878792405" lon="9.327972605824471">
        <ele>985.00999999999999</ele>
        <time>2013-05-26T13:46:28Z</time>
      </trkpt>
      <trkpt lat="45.856876010075212" lon="9.328018454834819">
        <ele>983.57000000000005</ele>
        <time>2013-05-26T13:46:41Z</time>
      </trkpt>
      <trkpt lat="45.856842482462525" lon="9.328038822859526">
        <ele>985.00999999999999</ele>
        <time>2013-05-26T13:47:01Z</time>
      </trkpt>
      <trkpt lat="45.856852624565363" lon="9.328009653836489">
        <ele>984.52999999999997</ele>
        <time>2013-05-26T13:47:26Z</time>
      </trkpt>
      <trkpt lat="45.856923535466194" lon="9.328067153692246">
        <ele>985.49000000000001</ele>
        <time>2013-05-26T13:47:55Z</time>
      </trkpt>
      <trkpt lat="45.856918590143323" lon="9.32805466465652">
        <ele>984.52999999999997</ele>
        <time>2013-05-26T13:48:12Z</time>
      </trkpt>
      <trkpt lat="45.856851115822792" lon="9.328194307163358">
        <ele>982.12</ele>
        <time>2013-05-26T13:48:26Z</time>
      </trkpt>
      <trkpt lat="45.856860335916281" lon="9.32826479896903">
        <ele>980.67999999999995</ele>
        <time>2013-05-26T13:48:40Z</time>
      </trkpt>
      <trkpt lat="45.856927894055843" lon="9.32839379645884">
        <ele>980.67999999999995</ele>
        <time>2013-05-26T13:49:06Z</time>
      </trkpt>
      <trkpt lat="45.856830412521958" lon="9.32827259413898">
        <ele>981.15999999999997</ele>
        <time>2013-05-26T13:49:30Z</time>
      </trkpt>
      <trkpt lat="45.856738714501262" lon="9.328321376815438">
        <ele>981.15999999999997</ele>
        <time>2013-05-26T13:49:59Z</time>
      </trkpt>
      <trkpt lat="45.856729159131646" lon="9.32845339179039">
        <ele>981.15999999999997</ele>
        <time>2013-05-26T13:50:26Z</time>
      </trkpt>
      <trkpt lat="45.856724129989743" lon="9.328401507809758">
        <ele>981.15999999999997</ele>
        <time>2013-05-26T13:50:46Z</time>
      </trkpt>
      <trkpt lat="45.856791771948338" lon="9.328377367928624">
        <ele>981.63999999999999</ele>
        <time>2013-05-26T13:51:13Z</time>
      </trkpt>
      <trkpt lat="45.85674399510026" lon="9.328320287168026">
        <ele>981.63999999999999</ele>
        <time>2013-05-26T13:51:33Z</time>
      </trkpt>
      <trkpt lat="45.856728823855519" lon="9.328282317146659">
        <ele>982.60000000000002</ele>
        <time>2013-05-26T13:51:47Z</time>
      </trkpt>
      <trkpt lat="45.856730584055185" lon="9.328230349346995">
        <ele>984.04999999999995</ele>
        <time>2013-05-26T13:51:59Z</time>
      </trkpt>
      <trkpt lat="45.856767296791077" lon="9.328178968280554">
        <ele>985.49000000000001</ele>
        <time>2013-05-26T13:52:11Z</time>
      </trkpt>
      <trkpt lat="45.856819599866867" lon="9.328061621636152">
        <ele>986.45000000000005</ele>
        <time>2013-05-26T13:52:25Z</time>
      </trkpt>
      <trkpt lat="45.856845080852509" lon="9.328020885586739">
        <ele>985.97000000000003</ele>
        <time>2013-05-26T13:52:45Z</time>
      </trkpt>
      <trkpt lat="45.856813313439488" lon="9.327975958585739">
        <ele>985.00999999999999</ele>
        <time>2013-05-26T13:52:59Z</time>
      </trkpt>
      <trkpt lat="45.8567816298455" lon="9.327899096533656">
        <ele>983.57000000000005</ele>
        <time>2013-05-26T13:53:11Z</time>
      </trkpt>
      <trkpt lat="45.856739887967706" lon="9.327929355204105">
        <ele>981.15999999999997</ele>
        <time>2013-05-26T13:53:27Z</time>
      </trkpt>
      <trkpt lat="45.856709964573383" lon="9.327952153980732">
        <ele>981.15999999999997</ele>
        <time>2013-05-26T13:53:42Z</time>
      </trkpt>
      <trkpt lat="45.856628911569715" lon="9.32796816341579">
        <ele>978.75999999999999</ele>
        <time>2013-05-26T13:53:56Z</time>
      </trkpt>
      <trkpt lat="45.856541907414794" lon="9.32800236158073">
        <ele>977.32000000000005</ele>
        <time>2013-05-26T13:54:15Z</time>
      </trkpt>
      <trkpt lat="45.856460519134998" lon="9.328052904456854">
        <ele>975.88</ele>
        <time>2013-05-26T13:54:30Z</time>
      </trkpt>
      <trkpt lat="45.856415843591094" lon="9.328077547252178">
        <ele>974.42999999999995</ele>
        <time>2013-05-26T13:54:48Z</time>
      </trkpt>
      <trkpt lat="45.856242757290602" lon="9.328185254707933">
        <ele>972.99000000000001</ele>
        <time>2013-05-26T13:55:07Z</time>
      </trkpt>
      <trkpt lat="45.856168242171407" lon="9.328248454257846">
        <ele>972.02999999999997</ele>
        <time>2013-05-26T13:55:22Z</time>
      </trkpt>
      <trkpt lat="45.856006890535355" lon="9.328396646305919">
        <ele>971.07000000000005</ele>
        <time>2013-05-26T13:55:36Z</time>
      </trkpt>
      <trkpt lat="45.855949055403471" lon="9.328440232202411">
        <ele>970.59000000000003</ele>
        <time>2013-05-26T13:55:50Z</time>
      </trkpt>
      <trkpt lat="45.85587278008461" lon="9.328564452007413">
        <ele>970.11000000000001</ele>
        <time>2013-05-26T13:56:02Z</time>
      </trkpt>
      <trkpt lat="45.855843862518668" lon="9.328600578010082">
        <ele>970.59000000000003</ele>
        <time>2013-05-26T13:56:05Z</time>
      </trkpt>
      <trkpt lat="45.855789966881275" lon="9.328635530546308">
        <ele>970.59000000000003</ele>
        <time>2013-05-26T13:56:09Z</time>
      </trkpt>
      <trkpt lat="45.855699442327023" lon="9.328760672360659">
        <ele>968.66999999999996</ele>
        <time>2013-05-26T13:56:21Z</time>
      </trkpt>
      <trkpt lat="45.85563724860549" lon="9.328875504434109">
        <ele>968.17999999999995</ele>
        <time>2013-05-26T13:56:35Z</time>
      </trkpt>
      <trkpt lat="45.855619395151734" lon="9.328905930742621">
        <ele>967.22000000000003</ele>
        <time>2013-05-26T13:56:39Z</time>
      </trkpt>
      <trkpt lat="45.855557955801487" lon="9.328982457518578">
        <ele>966.74000000000001</ele>
        <time>2013-05-26T13:56:51Z</time>
      </trkpt>
      <trkpt lat="45.85547455586493" lon="9.329078095033765">
        <ele>966.25999999999999</ele>
        <time>2013-05-26T13:57:04Z</time>
      </trkpt>
      <trkpt lat="45.855355951935053" lon="9.329122351482511">
        <ele>964.82000000000005</ele>
        <time>2013-05-26T13:57:18Z</time>
      </trkpt>
      <trkpt lat="45.85526006296277" lon="9.32920977473259">
        <ele>962.89999999999998</ele>
        <time>2013-05-26T13:57:31Z</time>
      </trkpt>
      <trkpt lat="45.855219075456262" lon="9.329369617626071">
        <ele>960.00999999999999</ele>
        <time>2013-05-26T13:57:43Z</time>
      </trkpt>
      <trkpt lat="45.855220248922706" lon="9.329378586262465">
        <ele>959.52999999999997</ele>
        <time>2013-05-26T13:57:44Z</time>
      </trkpt>
      <trkpt lat="45.855194851756096" lon="9.329471457749605">
        <ele>958.09000000000003</ele>
        <time>2013-05-26T13:57:52Z</time>
      </trkpt>
      <trkpt lat="45.855156630277634" lon="9.329655608162284">
        <ele>956.16999999999996</ele>
        <time>2013-05-26T13:58:06Z</time>
      </trkpt>
      <trkpt lat="45.855094939470291" lon="9.329790389165282">
        <ele>954.25</ele>
        <time>2013-05-26T13:58:17Z</time>
      </trkpt>
      <trkpt lat="45.854992177337408" lon="9.329950818791986">
        <ele>952.32000000000005</ele>
        <time>2013-05-26T13:58:28Z</time>
      </trkpt>
      <trkpt lat="45.854944735765457" lon="9.330061627551913">
        <ele>950.39999999999998</ele>
        <time>2013-05-26T13:58:41Z</time>
      </trkpt>
      <trkpt lat="45.854900646954775" lon="9.330167407169938">
        <ele>948.48000000000002</ele>
        <time>2013-05-26T13:58:56Z</time>
      </trkpt>
      <trkpt lat="45.854838453233242" lon="9.33026866056025">
        <ele>948.48000000000002</ele>
        <time>2013-05-26T13:59:05Z</time>
      </trkpt>
      <trkpt lat="45.854816911742091" lon="9.330422300845385">
        <ele>949.91999999999996</ele>
        <time>2013-05-26T13:59:18Z</time>
      </trkpt>
      <trkpt lat="45.854801824316382" lon="9.330485165119171">
        <ele>950.39999999999998</ele>
        <time>2013-05-26T13:59:25Z</time>
      </trkpt>
      <trkpt lat="45.854780953377485" lon="9.330607708543539">
        <ele>950.88</ele>
        <time>2013-05-26T13:59:33Z</time>
      </trkpt>
      <trkpt lat="45.854781037196517" lon="9.330661604180932">
        <ele>949.91999999999996</ele>
        <time>2013-05-26T13:59:37Z</time>
      </trkpt>
      <trkpt lat="45.85471716709435" lon="9.330795127898455">
        <ele>950.88</ele>
        <time>2013-05-26T13:59:49Z</time>
      </trkpt>
      <trkpt lat="45.854677688330412" lon="9.330878611654043">
        <ele>951.84000000000003</ele>
        <time>2013-05-26T14:00:04Z</time>
      </trkpt>
      <trkpt lat="45.85464634001255" lon="9.330985061824322">
        <ele>953.27999999999997</ele>
        <time>2013-05-26T14:00:16Z</time>
      </trkpt>
      <trkpt lat="45.854577524587512" lon="9.331088243052363">
        <ele>952.32000000000005</ele>
        <time>2013-05-26T14:00:29Z</time>
      </trkpt>
      <trkpt lat="45.854551205411553" lon="9.331180024892092">
        <ele>951.84000000000003</ele>
        <time>2013-05-26T14:00:43Z</time>
      </trkpt>
      <trkpt lat="45.854546427726746" lon="9.331232663244009">
        <ele>950.88</ele>
        <time>2013-05-26T14:00:54Z</time>
      </trkpt>
      <trkpt lat="45.854521868750453" lon="9.331279853358865">
        <ele>949.91999999999996</ele>
        <time>2013-05-26T14:01:08Z</time>
      </trkpt>
      <trkpt lat="45.854524215683341" lon="9.331279853358865">
        <ele>949.44000000000005</ele>
        <time>2013-05-26T14:01:09Z</time>
      </trkpt>
      <trkpt lat="45.854540895670652" lon="9.331302903592587">
        <ele>948.48000000000002</ele>
        <time>2013-05-26T14:01:13Z</time>
      </trkpt>
      <trkpt lat="45.854553552344441" lon="9.331341963261366">
        <ele>947.51999999999998</ele>
        <time>2013-05-26T14:01:16Z</time>
      </trkpt>
      <trkpt lat="45.854540560394526" lon="9.331415304914117">
        <ele>945.59000000000003</ele>
        <time>2013-05-26T14:01:21Z</time>
      </trkpt>
      <trkpt lat="45.854535447433591" lon="9.331428296864033">
        <ele>945.59000000000003</ele>
        <time>2013-05-26T14:01:22Z</time>
      </trkpt>
      <trkpt lat="45.854502171278" lon="9.331473307684064">
        <ele>945.59000000000003</ele>
        <time>2013-05-26T14:01:26Z</time>
      </trkpt>
      <trkpt lat="45.854436540976167" lon="9.331694589927793">
        <ele>944.63</ele>
        <time>2013-05-26T14:01:41Z</time>
      </trkpt>
      <trkpt lat="45.854340987280011" lon="9.331899527460337">
        <ele>945.11000000000001</ele>
        <time>2013-05-26T14:01:54Z</time>
      </trkpt>
      <trkpt lat="45.85423830896616" lon="9.332041433081031">
        <ele>946.55999999999995</ele>
        <time>2013-05-26T14:02:06Z</time>
      </trkpt>
      <trkpt lat="45.854182653129101" lon="9.332145201042295">
        <ele>946.55999999999995</ele>
        <time>2013-05-26T14:02:17Z</time>
      </trkpt>
      <trkpt lat="45.854130433872342" lon="9.332291968166828">
        <ele>943.19000000000005</ele>
        <time>2013-05-26T14:02:30Z</time>
      </trkpt>
      <trkpt lat="45.854097157716751" lon="9.332386767491698">
        <ele>941.26999999999998</ele>
        <time>2013-05-26T14:02:46Z</time>
      </trkpt>
      <trkpt lat="45.854103025048971" lon="9.332493217661977">
        <ele>939.35000000000002</ele>
        <time>2013-05-26T14:02:59Z</time>
      </trkpt>
      <trkpt lat="45.854099504649639" lon="9.33261601254344">
        <ele>937.89999999999998</ele>
        <time>2013-05-26T14:03:13Z</time>
      </trkpt>
      <trkpt lat="45.854051308706403" lon="9.33263118378818">
        <ele>936.46000000000004</ele>
        <time>2013-05-26T14:03:27Z</time>
      </trkpt>
      <trkpt lat="45.854067821055651" lon="9.332629088312388">
        <ele>935.98000000000002</ele>
        <time>2013-05-26T14:03:53Z</time>
      </trkpt>
      <trkpt lat="45.854040244594216" lon="9.332634704187512">
        <ele>935.98000000000002</ele>
        <time>2013-05-26T14:04:08Z</time>
      </trkpt>
      <trkpt lat="45.854036221280694" lon="9.33262724429369">
        <ele>935.98000000000002</ele>
        <time>2013-05-26T14:04:28Z</time>
      </trkpt>
      <trkpt lat="45.853981403633952" lon="9.332772502675653">
        <ele>932.62</ele>
        <time>2013-05-26T14:04:44Z</time>
      </trkpt>
      <trkpt lat="45.853981738910079" lon="9.332876019179821">
        <ele>930.69000000000005</ele>
        <time>2013-05-26T14:04:58Z</time>
      </trkpt>
      <trkpt lat="45.853888364508748" lon="9.332919688895345">
        <ele>929.25</ele>
        <time>2013-05-26T14:05:10Z</time>
      </trkpt>
      <trkpt lat="45.853865817189217" lon="9.33300250209868">
        <ele>925.88999999999999</ele>
        <time>2013-05-26T14:05:25Z</time>
      </trkpt>
      <trkpt lat="45.85381954908371" lon="9.333074921742082">
        <ele>922.51999999999998</ele>
        <time>2013-05-26T14:05:36Z</time>
      </trkpt>
      <trkpt lat="45.853800941258669" lon="9.333137199282646">
        <ele>920.60000000000002</ele>
        <time>2013-05-26T14:05:43Z</time>
      </trkpt>
      <trkpt lat="45.853817202150822" lon="9.333263598382473">
        <ele>917.24000000000001</ele>
        <time>2013-05-26T14:05:55Z</time>
      </trkpt>
      <trkpt lat="45.853760205209255" lon="9.333421429619193">
        <ele>913.87</ele>
        <time>2013-05-26T14:06:11Z</time>
      </trkpt>
      <trkpt lat="45.853721983730793" lon="9.33359325863421">
        <ele>911.47000000000003</ele>
        <time>2013-05-26T14:06:25Z</time>
      </trkpt>
      <trkpt lat="45.853703208267689" lon="9.333712700754404">
        <ele>908.58000000000004</ele>
        <time>2013-05-26T14:06:39Z</time>
      </trkpt>
      <trkpt lat="45.853718966245651" lon="9.333798112347722">
        <ele>905.70000000000005</ele>
        <time>2013-05-26T14:06:50Z</time>
      </trkpt>
      <trkpt lat="45.853733718395233" lon="9.333885619416833">
        <ele>903.77999999999997</ele>
        <time>2013-05-26T14:07:07Z</time>
      </trkpt>
      <trkpt lat="45.853679990395904" lon="9.333973042666912">
        <ele>902.33000000000004</ele>
        <time>2013-05-26T14:07:15Z</time>
      </trkpt>
      <trkpt lat="45.85358988493681" lon="9.334020232781768">
        <ele>899.92999999999995</ele>
        <time>2013-05-26T14:07:25Z</time>
      </trkpt>
      <trkpt lat="45.853568008169532" lon="9.334158701822162">
        <ele>898.00999999999999</ele>
        <time>2013-05-26T14:07:34Z</time>
      </trkpt>
      <trkpt lat="45.853547640144825" lon="9.334339164197445">
        <ele>896.09000000000003</ele>
        <time>2013-05-26T14:07:50Z</time>
      </trkpt>
      <trkpt lat="45.853475639596581" lon="9.33438777923584">
        <ele>894.15999999999997</ele>
        <time>2013-05-26T14:07:58Z</time>
      </trkpt>
      <trkpt lat="45.853470526635647" lon="9.334460534155369">
        <ele>892.72000000000003</ele>
        <time>2013-05-26T14:08:04Z</time>
      </trkpt>
      <trkpt lat="45.853519644588232" lon="9.334646444767714">
        <ele>892.72000000000003</ele>
        <time>2013-05-26T14:08:20Z</time>
      </trkpt>
      <trkpt lat="45.853529367595911" lon="9.334716266021133">
        <ele>889.84000000000003</ele>
        <time>2013-05-26T14:08:36Z</time>
      </trkpt>
      <trkpt lat="45.853534480556846" lon="9.334793966263533">
        <ele>887.90999999999997</ele>
        <time>2013-05-26T14:08:46Z</time>
      </trkpt>
      <trkpt lat="45.853574965149164" lon="9.334911480545998">
        <ele>885.50999999999999</ele>
        <time>2013-05-26T14:09:02Z</time>
      </trkpt>
      <trkpt lat="45.853604217991233" lon="9.335035113617778">
        <ele>882.63</ele>
        <time>2013-05-26T14:09:11Z</time>
      </trkpt>
      <trkpt lat="45.853614024817944" lon="9.335213312879205">
        <ele>879.74000000000001</ele>
        <time>2013-05-26T14:09:23Z</time>
      </trkpt>
      <trkpt lat="45.853547137230635" lon="9.335417663678527">
        <ele>877.82000000000005</ele>
        <time>2013-05-26T14:09:37Z</time>
      </trkpt>
      <trkpt lat="45.853527020663023" lon="9.335543811321259">
        <ele>875.41999999999996</ele>
        <time>2013-05-26T14:09:48Z</time>
      </trkpt>
      <trkpt lat="45.853489218279719" lon="9.33570072054863">
        <ele>872.52999999999997</ele>
        <time>2013-05-26T14:10:02Z</time>
      </trkpt>
      <trkpt lat="45.853507658466697" lon="9.335832735523582">
        <ele>869.64999999999998</ele>
        <time>2013-05-26T14:10:16Z</time>
      </trkpt>
      <trkpt lat="45.853502210229635" lon="9.335963660851121">
        <ele>866.76999999999998</ele>
        <time>2013-05-26T14:10:28Z</time>
      </trkpt>
      <trkpt lat="45.853451583534479" lon="9.336113696917892">
        <ele>863.39999999999998</ele>
        <time>2013-05-26T14:10:40Z</time>
      </trkpt>
      <trkpt lat="45.85333339869976" lon="9.336308827623725">
        <ele>861</ele>
        <time>2013-05-26T14:10:56Z</time>
      </trkpt>
      <trkpt lat="45.853292997926474" lon="9.336333805695176">
        <ele>859.08000000000004</ele>
        <time>2013-05-26T14:11:04Z</time>
      </trkpt>
      <trkpt lat="45.853258464485407" lon="9.336436986923218">
        <ele>857.14999999999998</ele>
        <time>2013-05-26T14:11:13Z</time>
      </trkpt>
      <trkpt lat="45.853255949914455" lon="9.336405387148261">
        <ele>857.14999999999998</ele>
        <time>2013-05-26T14:11:36Z</time>
      </trkpt>
      <trkpt lat="45.853234576061368" lon="9.336411338299513">
        <ele>857.14999999999998</ele>
        <time>2013-05-26T14:11:57Z</time>
      </trkpt>
      <trkpt lat="45.853224936872721" lon="9.336380241438747">
        <ele>856.66999999999996</ele>
        <time>2013-05-26T14:12:19Z</time>
      </trkpt>
      <trkpt lat="45.853245723992586" lon="9.336396921426058">
        <ele>856.19000000000005</ele>
        <time>2013-05-26T14:12:40Z</time>
      </trkpt>
      <trkpt lat="45.853255866095424" lon="9.336507059633732">
        <ele>854.75</ele>
        <time>2013-05-26T14:13:03Z</time>
      </trkpt>
      <trkpt lat="45.853223847225308" lon="9.336574450135231">
        <ele>853.78999999999996</ele>
        <time>2013-05-26T14:13:15Z</time>
      </trkpt>
      <trkpt lat="45.853152684867382" lon="9.33663203381002">
        <ele>850.89999999999998</ele>
        <time>2013-05-26T14:13:31Z</time>
      </trkpt>
      <trkpt lat="45.853090742602944" lon="9.336712751537561">
        <ele>849.46000000000004</ele>
        <time>2013-05-26T14:13:42Z</time>
      </trkpt>
      <trkpt lat="45.853086216375232" lon="9.336765222251415">
        <ele>846.10000000000002</ele>
        <time>2013-05-26T14:13:53Z</time>
      </trkpt>
      <trkpt lat="45.853017652407289" lon="9.336845269426704">
        <ele>842.73000000000002</ele>
        <time>2013-05-26T14:14:05Z</time>
      </trkpt>
      <trkpt lat="45.853005079552531" lon="9.336904278025031">
        <ele>841.28999999999996</ele>
        <time>2013-05-26T14:14:11Z</time>
      </trkpt>
      <trkpt lat="45.852825120091438" lon="9.336950462311506">
        <ele>839.85000000000002</ele>
        <time>2013-05-26T14:14:26Z</time>
      </trkpt>
      <trkpt lat="45.852759070694447" lon="9.336916096508503">
        <ele>838.88999999999999</ele>
        <time>2013-05-26T14:14:40Z</time>
      </trkpt>
      <trkpt lat="45.852728812023997" lon="9.336961191147566">
        <ele>835.51999999999998</ele>
        <time>2013-05-26T14:14:53Z</time>
      </trkpt>
      <trkpt lat="45.852719927206635" lon="9.336963538080454">
        <ele>835.51999999999998</ele>
        <time>2013-05-26T14:14:54Z</time>
      </trkpt>
      <trkpt lat="45.8526595775038" lon="9.336979547515512">
        <ele>834.08000000000004</ele>
        <time>2013-05-26T14:14:59Z</time>
      </trkpt>
      <trkpt lat="45.852637784555554" lon="9.336979379877448">
        <ele>834.08000000000004</ele>
        <time>2013-05-26T14:15:01Z</time>
      </trkpt>
      <trkpt lat="45.852605178952217" lon="9.336956581100822">
        <ele>833.12</ele>
        <time>2013-05-26T14:15:04Z</time>
      </trkpt>
      <trkpt lat="45.852522701025009" lon="9.336990946903825">
        <ele>830.72000000000003</ele>
        <time>2013-05-26T14:15:18Z</time>
      </trkpt>
      <trkpt lat="45.852559832856059" lon="9.337093541398644">
        <ele>828.30999999999995</ele>
        <time>2013-05-26T14:15:32Z</time>
      </trkpt>
      <trkpt lat="45.852602077648044" lon="9.337178952991962">
        <ele>825.42999999999995</ele>
        <time>2013-05-26T14:15:44Z</time>
      </trkpt>
      <trkpt lat="45.85253887809813" lon="9.337207200005651">
        <ele>823.50999999999999</ele>
        <time>2013-05-26T14:15:57Z</time>
      </trkpt>
      <trkpt lat="45.852532088756561" lon="9.337211726233363">
        <ele>823.50999999999999</ele>
        <time>2013-05-26T14:15:58Z</time>
      </trkpt>
      <trkpt lat="45.852472744882107" lon="9.337233351543546">
        <ele>822.05999999999995</ele>
        <time>2013-05-26T14:16:11Z</time>
      </trkpt>
      <trkpt lat="45.852428320795298" lon="9.337237877771258">
        <ele>820.62</ele>
        <time>2013-05-26T14:16:21Z</time>
      </trkpt>
      <trkpt lat="45.852410634979606" lon="9.337269812822342">
        <ele>819.17999999999995</ele>
        <time>2013-05-26T14:16:29Z</time>
      </trkpt>
      <trkpt lat="45.85241868160665" lon="9.33731758967042">
        <ele>817.25999999999999</ele>
        <time>2013-05-26T14:16:33Z</time>
      </trkpt>
      <trkpt lat="45.85238641127944" lon="9.337373916059732">
        <ele>813.88999999999999</ele>
        <time>2013-05-26T14:16:46Z</time>
      </trkpt>
      <trkpt lat="45.852407198399305" lon="9.337443150579929">
        <ele>811.49000000000001</ele>
        <time>2013-05-26T14:17:00Z</time>
      </trkpt>
      <trkpt lat="45.852362774312496" lon="9.337533926591277">
        <ele>808.61000000000001</ele>
        <time>2013-05-26T14:17:15Z</time>
      </trkpt>
      <trkpt lat="45.852327570319176" lon="9.337503835558891">
        <ele>808.13</ele>
        <time>2013-05-26T14:17:32Z</time>
      </trkpt>
      <trkpt lat="45.852277362719178" lon="9.337492184713483">
        <ele>806.67999999999995</ele>
        <time>2013-05-26T14:17:47Z</time>
      </trkpt>
      <trkpt lat="45.852241907268763" lon="9.337470307946205">
        <ele>803.32000000000005</ele>
        <time>2013-05-26T14:17:58Z</time>
      </trkpt>
      <trkpt lat="45.852233273908496" lon="9.337483802810311">
        <ele>802.84000000000003</ele>
        <time>2013-05-26T14:18:00Z</time>
      </trkpt>
      <trkpt lat="45.852185161784291" lon="9.337554546073079">
        <ele>800.44000000000005</ele>
        <time>2013-05-26T14:18:12Z</time>
      </trkpt>
      <trkpt lat="45.852168733254075" lon="9.337555887177587">
        <ele>800.44000000000005</ele>
        <time>2013-05-26T14:18:14Z</time>
      </trkpt>
      <trkpt lat="45.852083992213011" lon="9.337561000138521">
        <ele>797.07000000000005</ele>
        <time>2013-05-26T14:18:27Z</time>
      </trkpt>
      <trkpt lat="45.85205415263772" lon="9.337485982105136">
        <ele>795.63</ele>
        <time>2013-05-26T14:18:39Z</time>
      </trkpt>
      <trkpt lat="45.852018110454082" lon="9.33750475756824">
        <ele>794.66999999999996</ele>
        <time>2013-05-26T14:18:48Z</time>
      </trkpt>
      <trkpt lat="45.851974105462432" lon="9.33747005648911">
        <ele>791.29999999999995</ele>
        <time>2013-05-26T14:18:59Z</time>
      </trkpt>
      <trkpt lat="45.851933034136891" lon="9.337488161399961">
        <ele>788.89999999999998</ele>
        <time>2013-05-26T14:19:11Z</time>
      </trkpt>
      <trkpt lat="45.851912247017026" lon="9.337556222453713">
        <ele>786.98000000000002</ele>
        <time>2013-05-26T14:19:21Z</time>
      </trkpt>
      <trkpt lat="45.851879557594657" lon="9.337496291846037">
        <ele>784.57000000000005</ele>
        <time>2013-05-26T14:19:34Z</time>
      </trkpt>
      <trkpt lat="45.85183379240334" lon="9.337500482797623">
        <ele>781.21000000000004</ele>
        <time>2013-05-26T14:19:48Z</time>
      </trkpt>
      <trkpt lat="45.851843096315861" lon="9.337618332356215">
        <ele>779.76999999999998</ele>
        <time>2013-05-26T14:19:59Z</time>
      </trkpt>
      <trkpt lat="45.851838402450085" lon="9.337683208286762">
        <ele>777.84000000000003</ele>
        <time>2013-05-26T14:20:13Z</time>
      </trkpt>
      <trkpt lat="45.851806718856096" lon="9.337762668728828">
        <ele>775.91999999999996</ele>
        <time>2013-05-26T14:20:25Z</time>
      </trkpt>
      <trkpt lat="45.851820381358266" lon="9.337808433920145">
        <ele>774</ele>
        <time>2013-05-26T14:20:31Z</time>
      </trkpt>
      <trkpt lat="45.851826164871454" lon="9.337913040071726">
        <ele>771.60000000000002</ele>
        <time>2013-05-26T14:20:43Z</time>
      </trkpt>
      <trkpt lat="45.851760366931558" lon="9.337976323440671">
        <ele>769.66999999999996</ele>
        <time>2013-05-26T14:20:54Z</time>
      </trkpt>
      <trkpt lat="45.851726587861776" lon="9.337988309562206">
        <ele>767.75</ele>
        <time>2013-05-26T14:21:13Z</time>
      </trkpt>
      <trkpt lat="45.85173849016428" lon="9.338025357574225">
        <ele>767.75</ele>
        <time>2013-05-26T14:21:28Z</time>
      </trkpt>
      <trkpt lat="45.851754583418369" lon="9.338051425293088">
        <ele>767.26999999999998</ele>
        <time>2013-05-26T14:21:43Z</time>
      </trkpt>
      <trkpt lat="45.851681996136904" lon="9.33800951577723">
        <ele>767.26999999999998</ele>
        <time>2013-05-26T14:22:19Z</time>
      </trkpt>
      <trkpt lat="45.851680571213365" lon="9.33800850994885">
        <ele>767.26999999999998</ele>
        <time>2013-05-26T14:22:55Z</time>
      </trkpt>
      <trkpt lat="45.851690964773297" lon="9.338031308725476">
        <ele>766.78999999999996</ele>
        <time>2013-05-26T14:23:33Z</time>
      </trkpt>
      <trkpt lat="45.851721726357937" lon="9.338005660101771">
        <ele>767.75</ele>
        <time>2013-05-26T14:23:53Z</time>
      </trkpt>
      <trkpt lat="45.851705297827721" lon="9.338034326210618">
        <ele>767.75</ele>
        <time>2013-05-26T14:24:08Z</time>
      </trkpt>
      <trkpt lat="45.851693479344249" lon="9.338048491626978">
        <ele>767.26999999999998</ele>
        <time>2013-05-26T14:24:32Z</time>
      </trkpt>
      <trkpt lat="45.851684678345919" lon="9.338041367009282">
        <ele>767.75</ele>
        <time>2013-05-26T14:24:56Z</time>
      </trkpt>
      <trkpt lat="45.851664980873466" lon="9.338057544082403">
        <ele>766.78999999999996</ele>
        <time>2013-05-26T14:25:10Z</time>
      </trkpt>
      <trkpt lat="45.851589040830731" lon="9.338074559345841">
        <ele>763.89999999999998</ele>
        <time>2013-05-26T14:25:25Z</time>
      </trkpt>
      <trkpt lat="45.851580826565623" lon="9.338119486346841">
        <ele>762.46000000000004</ele>
        <time>2013-05-26T14:25:39Z</time>
      </trkpt>
      <trkpt lat="45.851544365286827" lon="9.338230630382896">
        <ele>759.10000000000002</ele>
        <time>2013-05-26T14:25:54Z</time>
      </trkpt>
      <trkpt lat="45.851476471871138" lon="9.338305564597249">
        <ele>756.21000000000004</ele>
        <time>2013-05-26T14:26:07Z</time>
      </trkpt>
      <trkpt lat="45.851441938430071" lon="9.338364657014608">
        <ele>754.28999999999996</ele>
        <time>2013-05-26T14:26:19Z</time>
      </trkpt>
      <trkpt lat="45.851398184895515" lon="9.338482841849327">
        <ele>751.88999999999999</ele>
        <time>2013-05-26T14:26:33Z</time>
      </trkpt>
      <trkpt lat="45.851374547928572" lon="9.338571270927787">
        <ele>749.49000000000001</ele>
        <time>2013-05-26T14:26:44Z</time>
      </trkpt>
      <trkpt lat="45.851361220702529" lon="9.338583089411259">
        <ele>749</ele>
        <time>2013-05-26T14:26:46Z</time>
      </trkpt>
      <trkpt lat="45.851345965638757" lon="9.338650731369853">
        <ele>746.12</ele>
        <time>2013-05-26T14:26:59Z</time>
      </trkpt>
      <trkpt lat="45.851418552920222" lon="9.338651401922107">
        <ele>743.24000000000001</ele>
        <time>2013-05-26T14:27:09Z</time>
      </trkpt>
      <trkpt lat="45.851419726386666" lon="9.338664645329118">
        <ele>742.75999999999999</ele>
        <time>2013-05-26T14:27:10Z</time>
      </trkpt>
      <trkpt lat="45.85141503252089" lon="9.338691551238298">
        <ele>742.27999999999997</ele>
        <time>2013-05-26T14:27:12Z</time>
      </trkpt>
      <trkpt lat="45.85135736502707" lon="9.338835887610912">
        <ele>739.38999999999999</ele>
        <time>2013-05-26T14:27:23Z</time>
      </trkpt>
      <trkpt lat="45.851299865171313" lon="9.338978631421924">
        <ele>736.50999999999999</ele>
        <time>2013-05-26T14:27:36Z</time>
      </trkpt>
      <trkpt lat="45.851253094151616" lon="9.33908399194479">
        <ele>734.10000000000002</ele>
        <time>2013-05-26T14:27:48Z</time>
      </trkpt>
      <trkpt lat="45.8511848654598" lon="9.339080723002553">
        <ele>733.62</ele>
        <time>2013-05-26T14:28:00Z</time>
      </trkpt>
      <trkpt lat="45.851155696436763" lon="9.33905515819788">
        <ele>733.13999999999999</ele>
        <time>2013-05-26T14:28:13Z</time>
      </trkpt>
      <trkpt lat="45.851129125803709" lon="9.339053649455309">
        <ele>733.13999999999999</ele>
        <time>2013-05-26T14:28:28Z</time>
      </trkpt>
      <trkpt lat="45.85107590071857" lon="9.339033868163824">
        <ele>729.77999999999997</ele>
        <time>2013-05-26T14:28:38Z</time>
      </trkpt>
      <trkpt lat="45.851068692281842" lon="9.339006878435612">
        <ele>728.82000000000005</ele>
        <time>2013-05-26T14:28:40Z</time>
      </trkpt>
      <trkpt lat="45.851014712825418" lon="9.338931357488036">
        <ele>725.92999999999995</ele>
        <time>2013-05-26T14:28:51Z</time>
      </trkpt>
      <trkpt lat="45.850999625399709" lon="9.338919287547469">
        <ele>724.97000000000003</ele>
        <time>2013-05-26T14:28:53Z</time>
      </trkpt>
      <trkpt lat="45.850958721712232" lon="9.338876120746136">
        <ele>722.09000000000003</ele>
        <time>2013-05-26T14:29:01Z</time>
      </trkpt>
      <trkpt lat="45.850906083360314" lon="9.338783668354154">
        <ele>719.20000000000005</ele>
        <time>2013-05-26T14:29:14Z</time>
      </trkpt>
      <trkpt lat="45.850906250998378" lon="9.338871259242296">
        <ele>716.32000000000005</ele>
        <time>2013-05-26T14:29:27Z</time>
      </trkpt>
      <trkpt lat="45.850863000378013" lon="9.338933536782861">
        <ele>713.44000000000005</ele>
        <time>2013-05-26T14:29:39Z</time>
      </trkpt>
      <trkpt lat="45.850808853283525" lon="9.338837480172515">
        <ele>710.54999999999995</ele>
        <time>2013-05-26T14:29:52Z</time>
      </trkpt>
      <trkpt lat="45.850800974294543" lon="9.338886346668005">
        <ele>708.63</ele>
        <time>2013-05-26T14:30:04Z</time>
      </trkpt>
      <trkpt lat="45.850740121677518" lon="9.338916689157486">
        <ele>706.23000000000002</ele>
        <time>2013-05-26T14:30:14Z</time>
      </trkpt>
      <trkpt lat="45.850648507475853" lon="9.33884896337986">
        <ele>702.86000000000001</ele>
        <time>2013-05-26T14:30:26Z</time>
      </trkpt>
      <trkpt lat="45.850633671507239" lon="9.338841084390879">
        <ele>701.89999999999998</ele>
        <time>2013-05-26T14:30:28Z</time>
      </trkpt>
      <trkpt lat="45.850585391744971" lon="9.33878936804831">
        <ele>699.98000000000002</ele>
        <time>2013-05-26T14:30:39Z</time>
      </trkpt>
      <trkpt lat="45.850542560219765" lon="9.33876003138721">
        <ele>698.04999999999995</ele>
        <time>2013-05-26T14:30:51Z</time>
      </trkpt>
      <trkpt lat="45.850514732301235" lon="9.338814010843635">
        <ele>695.64999999999998</ele>
        <time>2013-05-26T14:31:03Z</time>
      </trkpt>
      <trkpt lat="45.850467961281538" lon="9.338889783248305">
        <ele>692.76999999999998</ele>
        <time>2013-05-26T14:31:18Z</time>
      </trkpt>
      <trkpt lat="45.850478103384376" lon="9.338964801281691">
        <ele>690.36000000000001</ele>
        <time>2013-05-26T14:31:29Z</time>
      </trkpt>
      <trkpt lat="45.850470811128616" lon="9.339061696082354">
        <ele>688.91999999999996</ele>
        <time>2013-05-26T14:31:38Z</time>
      </trkpt>
      <trkpt lat="45.850512553006411" lon="9.339163787662983">
        <ele>686.51999999999998</ele>
        <time>2013-05-26T14:31:49Z</time>
      </trkpt>
      <trkpt lat="45.850544152781367" lon="9.339252300560474">
        <ele>685.55999999999995</ele>
        <time>2013-05-26T14:32:01Z</time>
      </trkpt>
      <trkpt lat="45.850458154454827" lon="9.339287839829922">
        <ele>684.12</ele>
        <time>2013-05-26T14:32:15Z</time>
      </trkpt>
      <trkpt lat="45.850409874692559" lon="9.339300831779838">
        <ele>682.66999999999996</ele>
        <time>2013-05-26T14:32:20Z</time>
      </trkpt>
      <trkpt lat="45.850349944084883" lon="9.33929705992341">
        <ele>680.75</ele>
        <time>2013-05-26T14:32:26Z</time>
      </trkpt>
      <trkpt lat="45.850301245227456" lon="9.339266717433929">
        <ele>679.78999999999996</ele>
        <time>2013-05-26T14:32:31Z</time>
      </trkpt>
      <trkpt lat="45.850289259105921" lon="9.339242661371827">
        <ele>679.30999999999995</ele>
        <time>2013-05-26T14:32:33Z</time>
      </trkpt>
      <trkpt lat="45.850237878039479" lon="9.339141743257642">
        <ele>677.38999999999999</ele>
        <time>2013-05-26T14:32:41Z</time>
      </trkpt>
      <trkpt lat="45.850220862776041" lon="9.339113580062985">
        <ele>676.90999999999997</ele>
        <time>2013-05-26T14:32:44Z</time>
      </trkpt>
      <trkpt lat="45.850072335451841" lon="9.339081225916743">
        <ele>674.5</ele>
        <time>2013-05-26T14:32:57Z</time>
      </trkpt>
      <trkpt lat="45.850032437592745" lon="9.339045686647296">
        <ele>672.10000000000002</ele>
        <time>2013-05-26T14:33:06Z</time>
      </trkpt>
      <trkpt lat="45.849943170323968" lon="9.339039903134108">
        <ele>670.17999999999995</ele>
        <time>2013-05-26T14:33:19Z</time>
      </trkpt>
      <trkpt lat="45.849849879741669" lon="9.339077370241284">
        <ele>666.80999999999995</ele>
        <time>2013-05-26T14:33:33Z</time>
      </trkpt>
      <trkpt lat="45.84976245649159" lon="9.339073095470667">
        <ele>663.92999999999995</ele>
        <time>2013-05-26T14:33:47Z</time>
      </trkpt>
      <trkpt lat="45.849761366844177" lon="9.339052308350802">
        <ele>663.45000000000005</ele>
        <time>2013-05-26T14:34:01Z</time>
      </trkpt>
      <trkpt lat="45.849745273590088" lon="9.339093212038279">
        <ele>662.00999999999999</ele>
        <time>2013-05-26T14:34:25Z</time>
      </trkpt>
      <trkpt lat="45.849641757085919" lon="9.339142497628927">
        <ele>659.60000000000002</ele>
        <time>2013-05-26T14:34:38Z</time>
      </trkpt>
      <trkpt lat="45.849566571414471" lon="9.33920175768435">
        <ele>657.67999999999995</ele>
        <time>2013-05-26T14:34:53Z</time>
      </trkpt>
      <trkpt lat="45.849446626380086" lon="9.339252719655633">
        <ele>655.27999999999997</ele>
        <time>2013-05-26T14:35:08Z</time>
      </trkpt>
      <trkpt lat="45.849370853975415" lon="9.339339388534427">
        <ele>654.30999999999995</ele>
        <time>2013-05-26T14:35:18Z</time>
      </trkpt>
      <trkpt lat="45.849342439323664" lon="9.339506020769477">
        <ele>651.90999999999997</ele>
        <time>2013-05-26T14:35:33Z</time>
      </trkpt>
      <trkpt lat="45.849248394370079" lon="9.339596377685666">
        <ele>650.47000000000003</ele>
        <time>2013-05-26T14:35:48Z</time>
      </trkpt>
      <trkpt lat="45.849202126264572" lon="9.33972017839551">
        <ele>647.59000000000003</ele>
        <time>2013-05-26T14:36:00Z</time>
      </trkpt>
      <trkpt lat="45.849187709391117" lon="9.339840542525053">
        <ele>645.17999999999995</ele>
        <time>2013-05-26T14:36:11Z</time>
      </trkpt>
      <trkpt lat="45.849136831238866" lon="9.339950261637569">
        <ele>642.29999999999995</ele>
        <time>2013-05-26T14:36:24Z</time>
      </trkpt>
      <trkpt lat="45.849087713286281" lon="9.339988064020872">
        <ele>640.86000000000001</ele>
        <time>2013-05-26T14:36:38Z</time>
      </trkpt>
      <trkpt lat="45.849091066047549" lon="9.340037349611521">
        <ele>639.40999999999997</ele>
        <time>2013-05-26T14:36:43Z</time>
      </trkpt>
      <trkpt lat="45.849105482921004" lon="9.340084455907345">
        <ele>638.45000000000005</ele>
        <time>2013-05-26T14:36:48Z</time>
      </trkpt>
      <trkpt lat="45.849089808762074" lon="9.340157965198159">
        <ele>636.04999999999995</ele>
        <time>2013-05-26T14:36:55Z</time>
      </trkpt>
      <trkpt lat="45.849089222028852" lon="9.340280676260591">
        <ele>633.16999999999996</ele>
        <time>2013-05-26T14:37:07Z</time>
      </trkpt>
      <trkpt lat="45.849065333604813" lon="9.340350246056914">
        <ele>632.20000000000005</ele>
        <time>2013-05-26T14:37:21Z</time>
      </trkpt>
      <trkpt lat="45.849071117118001" lon="9.3404252640903">
        <ele>630.75999999999999</ele>
        <time>2013-05-26T14:37:35Z</time>
      </trkpt>
      <trkpt lat="45.849132053554058" lon="9.340550322085619">
        <ele>627.88</ele>
        <time>2013-05-26T14:37:49Z</time>
      </trkpt>
      <trkpt lat="45.849165413528681" lon="9.340615449473262">
        <ele>625.96000000000004</ele>
        <time>2013-05-26T14:37:57Z</time>
      </trkpt>
      <trkpt lat="45.84916390478611" lon="9.340773783624172">
        <ele>622.59000000000003</ele>
        <time>2013-05-26T14:38:10Z</time>
      </trkpt>
      <trkpt lat="45.849201874807477" lon="9.340903786942363">
        <ele>619.71000000000004</ele>
        <time>2013-05-26T14:38:24Z</time>
      </trkpt>
      <trkpt lat="45.849277228116989" lon="9.341064635664225">
        <ele>617.29999999999995</ele>
        <time>2013-05-26T14:38:37Z</time>
      </trkpt>
      <trkpt lat="45.849287118762732" lon="9.341085674241185">
        <ele>616.34000000000003</ele>
        <time>2013-05-26T14:38:39Z</time>
      </trkpt>
      <trkpt lat="45.849289214238524" lon="9.341092295944691">
        <ele>615.86000000000001</ele>
        <time>2013-05-26T14:38:40Z</time>
      </trkpt>
      <trkpt lat="45.849260129034519" lon="9.341125320643187">
        <ele>614.89999999999998</ele>
        <time>2013-05-26T14:38:50Z</time>
      </trkpt>
      <trkpt lat="45.849290136247873" lon="9.341138899326325">
        <ele>612.5</ele>
        <time>2013-05-26T14:39:02Z</time>
      </trkpt>
      <trkpt lat="45.849288376048207" lon="9.341234117746353">
        <ele>610.57000000000005</ele>
        <time>2013-05-26T14:39:14Z</time>
      </trkpt>
      <trkpt lat="45.849287118762732" lon="9.341269740834832">
        <ele>609.61000000000001</ele>
        <time>2013-05-26T14:39:19Z</time>
      </trkpt>
      <trkpt lat="45.849275719374418" lon="9.341344423592091">
        <ele>607.21000000000004</ele>
        <time>2013-05-26T14:39:32Z</time>
      </trkpt>
      <trkpt lat="45.849264236167073" lon="9.341447101905942">
        <ele>604.33000000000004</ele>
        <time>2013-05-26T14:39:44Z</time>
      </trkpt>
      <trkpt lat="45.849261302500963" lon="9.341534776613116">
        <ele>602.39999999999998</ele>
        <time>2013-05-26T14:39:55Z</time>
      </trkpt>
      <trkpt lat="45.849276222288609" lon="9.341670395806432">
        <ele>598.55999999999995</ele>
        <time>2013-05-26T14:40:10Z</time>
      </trkpt>
      <trkpt lat="45.849255016073585" lon="9.341826885938644">
        <ele>597.12</ele>
        <time>2013-05-26T14:40:24Z</time>
      </trkpt>
      <trkpt lat="45.849209418520331" lon="9.341867370530963">
        <ele>597.12</ele>
        <time>2013-05-26T14:40:36Z</time>
      </trkpt>
      <trkpt lat="45.849179578945041" lon="9.341872734948993">
        <ele>596.14999999999998</ele>
        <time>2013-05-26T14:40:47Z</time>
      </trkpt>
      <trkpt lat="45.84918050095439" lon="9.341868795454502">
        <ele>595.66999999999996</ele>
        <time>2013-05-26T14:40:56Z</time>
      </trkpt>
      <trkpt lat="45.849234815686941" lon="9.341874662786722">
        <ele>595.66999999999996</ele>
        <time>2013-05-26T14:41:18Z</time>
      </trkpt>
      <trkpt lat="45.849229032173753" lon="9.341890001669526">
        <ele>595.19000000000005</ele>
        <time>2013-05-26T14:41:50Z</time>
      </trkpt>
      <trkpt lat="45.849222242832184" lon="9.341877177357674">
        <ele>595.66999999999996</ele>
        <time>2013-05-26T14:42:20Z</time>
      </trkpt>
      <trkpt lat="45.84918150678277" lon="9.341850690543652">
        <ele>595.66999999999996</ele>
        <time>2013-05-26T14:42:47Z</time>
      </trkpt>
      <trkpt lat="45.849165245890617" lon="9.341864688321948">
        <ele>596.14999999999998</ele>
        <time>2013-05-26T14:43:16Z</time>
      </trkpt>
      <trkpt lat="45.849201120436192" lon="9.341863682493568">
        <ele>596.14999999999998</ele>
        <time>2013-05-26T14:43:41Z</time>
      </trkpt>
      <trkpt lat="45.849203215911984" lon="9.34186820872128">
        <ele>596.14999999999998</ele>
        <time>2013-05-26T14:44:06Z</time>
      </trkpt>
      <trkpt lat="45.849184775725007" lon="9.341861754655838">
        <ele>596.14999999999998</ele>
        <time>2013-05-26T14:44:26Z</time>
      </trkpt>
      <trkpt lat="45.849209167063236" lon="9.341835184022784">
        <ele>596.63999999999999</ele>
        <time>2013-05-26T14:44:43Z</time>
      </trkpt>
      <trkpt lat="45.849216878414154" lon="9.341856641694903">
        <ele>597.12</ele>
        <time>2013-05-26T14:44:51Z</time>
      </trkpt>
      <trkpt lat="45.849239341914654" lon="9.341834764927626">
        <ele>598.08000000000004</ele>
        <time>2013-05-26T14:45:01Z</time>
      </trkpt>
      <trkpt lat="45.849271612241864" lon="9.341886397451162">
        <ele>597.60000000000002</ele>
        <time>2013-05-26T14:45:16Z</time>
      </trkpt>
      <trkpt lat="45.849249567836523" lon="9.341923529282212">
        <ele>596.63999999999999</ele>
        <time>2013-05-26T14:45:31Z</time>
      </trkpt>
      <trkpt lat="45.849242862313986" lon="9.341929564252496">
        <ele>597.12</ele>
        <time>2013-05-26T14:45:45Z</time>
      </trkpt>
      <trkpt lat="45.849233390763402" lon="9.341951608657837">
        <ele>596.14999999999998</ele>
        <time>2013-05-26T14:45:58Z</time>
      </trkpt>
      <trkpt lat="45.849227355793118" lon="9.341934090480208">
        <ele>596.14999999999998</ele>
        <time>2013-05-26T14:46:24Z</time>
      </trkpt>
      <trkpt lat="45.849195085465908" lon="9.341899724677205">
        <ele>596.14999999999998</ele>
        <time>2013-05-26T14:46:44Z</time>
      </trkpt>
      <trkpt lat="45.849177148193121" lon="9.341879775747657">
        <ele>595.66999999999996</ele>
        <time>2013-05-26T14:47:16Z</time>
      </trkpt>
      <trkpt lat="45.849254094064236" lon="9.341938197612763">
        <ele>596.14999999999998</ele>
        <time>2013-05-26T14:47:34Z</time>
      </trkpt>
      <trkpt lat="45.849244203418493" lon="9.341967534273863">
        <ele>595.66999999999996</ele>
        <time>2013-05-26T14:47:56Z</time>
      </trkpt>
      <trkpt lat="45.849236575886607" lon="9.341977927833796">
        <ele>595.66999999999996</ele>
        <time>2013-05-26T14:48:15Z</time>
      </trkpt>
      <trkpt lat="45.8492352347821" lon="9.341956470161676">
        <ele>595.19000000000005</ele>
        <time>2013-05-26T14:48:33Z</time>
      </trkpt>
      <trkpt lat="45.849220482632518" lon="9.341973569244146">
        <ele>595.66999999999996</ele>
        <time>2013-05-26T14:48:57Z</time>
      </trkpt>
      <trkpt lat="45.849208496510983" lon="9.341967366635799">
        <ele>595.19000000000005</ele>
        <time>2013-05-26T14:49:15Z</time>
      </trkpt>
      <trkpt lat="45.849222159013152" lon="9.341949345543981">
        <ele>595.19000000000005</ele>
        <time>2013-05-26T14:49:39Z</time>
      </trkpt>
      <trkpt lat="45.849209921434522" lon="9.34194590896368">
        <ele>595.66999999999996</ele>
        <time>2013-05-26T14:49:57Z</time>
      </trkpt>
      <trkpt lat="45.849231379106641" lon="9.341938616707921">
        <ele>594.71000000000004</ele>
        <time>2013-05-26T14:50:22Z</time>
      </trkpt>
      <trkpt lat="45.849244957789779" lon="9.341944064944983">
        <ele>594.71000000000004</ele>
        <time>2013-05-26T14:50:50Z</time>
      </trkpt>
      <trkpt lat="45.849236072972417" lon="9.341940376907587">
        <ele>595.19000000000005</ele>
        <time>2013-05-26T14:51:15Z</time>
      </trkpt>
      <trkpt lat="45.849236659705639" lon="9.34192880988121">
        <ele>595.19000000000005</ele>
        <time>2013-05-26T14:51:43Z</time>
      </trkpt>
      <trkpt lat="45.849213693290949" lon="9.341961415484548">
        <ele>594.71000000000004</ele>
        <time>2013-05-26T14:52:12Z</time>
      </trkpt>
      <trkpt lat="45.849222745746374" lon="9.34195026755333">
        <ele>594.71000000000004</ele>
        <time>2013-05-26T14:52:32Z</time>
      </trkpt>
      <trkpt lat="45.849247220903635" lon="9.341976502910256">
        <ele>594.23000000000002</ele>
        <time>2013-05-26T14:53:00Z</time>
      </trkpt>
      <trkpt lat="45.849249567836523" lon="9.341959152370691">
        <ele>594.71000000000004</ele>
        <time>2013-05-26T14:53:22Z</time>
      </trkpt>
      <trkpt lat="45.849255518987775" lon="9.341958733275533">
        <ele>594.71000000000004</ele>
        <time>2013-05-26T14:53:50Z</time>
      </trkpt>
      <trkpt lat="45.849225930869579" lon="9.341975077986717">
        <ele>594.71000000000004</ele>
        <time>2013-05-26T14:54:19Z</time>
      </trkpt>
      <trkpt lat="45.849246382713318" lon="9.341957559809089">
        <ele>594.71000000000004</ele>
        <time>2013-05-26T14:54:50Z</time>
      </trkpt>
      <trkpt lat="45.849229283630848" lon="9.341927636414766">
        <ele>594.23000000000002</ele>
        <time>2013-05-26T14:55:15Z</time>
      </trkpt>
      <trkpt lat="45.849250992760062" lon="9.341954123228788">
        <ele>594.23000000000002</ele>
        <time>2013-05-26T14:55:40Z</time>
      </trkpt>
      <trkpt lat="45.849255016073585" lon="9.341938616707921">
        <ele>594.23000000000002</ele>
        <time>2013-05-26T14:56:10Z</time>
      </trkpt>
      <trkpt lat="45.849233977496624" lon="9.341969881206751">
        <ele>594.71000000000004</ele>
        <time>2013-05-26T14:56:41Z</time>
      </trkpt>
      <trkpt lat="45.849235402420163" lon="9.341972311958671">
        <ele>594.71000000000004</ele>
        <time>2013-05-26T14:56:57Z</time>
      </trkpt>
      <trkpt lat="45.849224925041199" lon="9.341976586729288">
        <ele>594.23000000000002</ele>
        <time>2013-05-26T14:57:19Z</time>
      </trkpt>
      <trkpt lat="45.849285358563066" lon="9.34200894087553">
        <ele>593.75</ele>
        <time>2013-05-26T14:57:35Z</time>
      </trkpt>
      <trkpt lat="45.849319221451879" lon="9.34206803329289">
        <ele>592.78999999999996</ele>
        <time>2013-05-26T14:57:48Z</time>
      </trkpt>
      <trkpt lat="45.84934813901782" lon="9.342113798484206">
        <ele>591.35000000000002</ele>
        <time>2013-05-26T14:58:03Z</time>
      </trkpt>
      <trkpt lat="45.84938426502049" lon="9.34214673936367">
        <ele>590.87</ele>
        <time>2013-05-26T14:58:20Z</time>
      </trkpt>
      <trkpt lat="45.84951133467257" lon="9.342231648042798">
        <ele>588.46000000000004</ele>
        <time>2013-05-26T14:58:39Z</time>
      </trkpt>
      <trkpt lat="45.849577886983752" lon="9.34236609376967">
        <ele>586.05999999999995</ele>
        <time>2013-05-26T14:58:55Z</time>
      </trkpt>
      <trkpt lat="45.849656593054533" lon="9.342251261696219">
        <ele>583.65999999999997</ele>
        <time>2013-05-26T14:59:10Z</time>
      </trkpt>
      <trkpt lat="45.849719289690256" lon="9.342209855094552">
        <ele>581.73000000000002</ele>
        <time>2013-05-26T14:59:19Z</time>
      </trkpt>
      <trkpt lat="45.849851220846176" lon="9.342143889516592">
        <ele>579.33000000000004</ele>
        <time>2013-05-26T14:59:35Z</time>
      </trkpt>
      <trkpt lat="45.849962783977389" lon="9.342111703008413">
        <ele>577.40999999999997</ele>
        <time>2013-05-26T14:59:49Z</time>
      </trkpt>
      <trkpt lat="45.850076610222459" lon="9.342077756300569">
        <ele>576.92999999999995</ele>
        <time>2013-05-26T15:00:16Z</time>
      </trkpt>
      <trkpt lat="45.850011231377721" lon="9.342096364125609">
        <ele>577.40999999999997</ele>
        <time>2013-05-26T15:00:39Z</time>
      </trkpt>
      <trkpt lat="45.849969070404768" lon="9.342111200094223">
        <ele>577.40999999999997</ele>
        <time>2013-05-26T15:01:08Z</time>
      </trkpt>
      <trkpt lat="45.84996035322547" lon="9.342118827626109">
        <ele>576.92999999999995</ele>
        <time>2013-05-26T15:01:33Z</time>
      </trkpt>
      <trkpt lat="45.850031264126301" lon="9.342159982770681">
        <ele>576.45000000000005</ele>
        <time>2013-05-26T15:01:48Z</time>
      </trkpt>
      <trkpt lat="45.850104438140988" lon="9.342223266139627">
        <ele>573.08000000000004</ele>
        <time>2013-05-26T15:02:02Z</time>
      </trkpt>
      <trkpt lat="45.850147604942322" lon="9.34219753369689">
        <ele>570.20000000000005</ele>
        <time>2013-05-26T15:02:17Z</time>
      </trkpt>
      <trkpt lat="45.850219689309597" lon="9.342277245596051">
        <ele>566.83000000000004</ele>
        <time>2013-05-26T15:02:28Z</time>
      </trkpt>
      <trkpt lat="45.850306274369359" lon="9.342310186475515">
        <ele>564.42999999999995</ele>
        <time>2013-05-26T15:02:45Z</time>
      </trkpt>
      <trkpt lat="45.850340975448489" lon="9.342338098213077">
        <ele>561.07000000000005</ele>
        <time>2013-05-26T15:03:00Z</time>
      </trkpt>
      <trkpt lat="45.850401744246483" lon="9.342361483722925">
        <ele>558.65999999999997</ele>
        <time>2013-05-26T15:03:12Z</time>
      </trkpt>
      <trkpt lat="45.850442480295897" lon="9.342365507036448">
        <ele>556.74000000000001</ele>
        <time>2013-05-26T15:03:25Z</time>
      </trkpt>
      <trkpt lat="45.850565191358328" lon="9.342403560876846">
        <ele>554.34000000000003</ele>
        <time>2013-05-26T15:03:40Z</time>
      </trkpt>
      <trkpt lat="45.850714473053813" lon="9.342521326616406">
        <ele>552.89999999999998</ele>
        <time>2013-05-26T15:03:55Z</time>
      </trkpt>
      <trkpt lat="45.850721681490541" lon="9.342519147321582">
        <ele>552.89999999999998</ele>
        <time>2013-05-26T15:03:56Z</time>
      </trkpt>
      <trkpt lat="45.85080424323678" lon="9.342411523684859">
        <ele>551.45000000000005</ele>
        <time>2013-05-26T15:04:12Z</time>
      </trkpt>
      <trkpt lat="45.850885463878512" lon="9.342375816777349">
        <ele>550.00999999999999</ele>
        <time>2013-05-26T15:04:24Z</time>
      </trkpt>
      <trkpt lat="45.850935336202383" lon="9.342367686331272">
        <ele>549.04999999999995</ele>
        <time>2013-05-26T15:04:29Z</time>
      </trkpt>
      <trkpt lat="45.851094089448452" lon="9.342369195073843">
        <ele>547.13</ele>
        <time>2013-05-26T15:04:44Z</time>
      </trkpt>
      <trkpt lat="45.851206826046109" lon="9.342345977202058">
        <ele>545.20000000000005</ele>
        <time>2013-05-26T15:04:56Z</time>
      </trkpt>
      <trkpt lat="45.851330626755953" lon="9.342332147061825">
        <ele>544.72000000000003</ele>
        <time>2013-05-26T15:05:08Z</time>
      </trkpt>
      <trkpt lat="45.851424587890506" lon="9.342276155948639">
        <ele>543.75999999999999</ele>
        <time>2013-05-26T15:05:19Z</time>
      </trkpt>
      <trkpt lat="45.851566828787327" lon="9.342223852872849">
        <ele>543.75999999999999</ele>
        <time>2013-05-26T15:05:32Z</time>
      </trkpt>
      <trkpt lat="45.851708902046084" lon="9.342268779873848">
        <ele>541.36000000000001</ele>
        <time>2013-05-26T15:05:48Z</time>
      </trkpt>
      <trkpt lat="45.851834630593657" lon="9.342527696862817">
        <ele>541.84000000000003</ele>
        <time>2013-05-26T15:06:04Z</time>
      </trkpt>
      <trkpt lat="45.851868158206344" lon="9.342608582228422">
        <ele>540.88</ele>
        <time>2013-05-26T15:06:11Z</time>
      </trkpt>
      <trkpt lat="45.851895231753588" lon="9.342637835070491">
        <ele>541.36000000000001</ele>
        <time>2013-05-26T15:06:15Z</time>
      </trkpt>
      <trkpt lat="45.851946780458093" lon="9.34270715340972">
        <ele>540.39999999999998</ele>
        <time>2013-05-26T15:06:29Z</time>
      </trkpt>
      <trkpt lat="45.852009057998657" lon="9.342833301052451">
        <ele>538.48000000000002</ele>
        <time>2013-05-26T15:06:43Z</time>
      </trkpt>
      <trkpt lat="45.852065468207002" lon="9.34292558580637">
        <ele>537.02999999999997</ele>
        <time>2013-05-26T15:06:52Z</time>
      </trkpt>
      <trkpt lat="45.852119196206331" lon="9.34308685362339">
        <ele>533.66999999999996</ele>
        <time>2013-05-26T15:07:09Z</time>
      </trkpt>
      <trkpt lat="45.852130260318518" lon="9.343275278806686">
        <ele>530.78999999999996</ele>
        <time>2013-05-26T15:07:23Z</time>
      </trkpt>
      <trkpt lat="45.852129841223359" lon="9.343373598530889">
        <ele>529.34000000000003</ele>
        <time>2013-05-26T15:07:30Z</time>
      </trkpt>
      <trkpt lat="45.852147778496146" lon="9.343535536900163">
        <ele>527.41999999999996</ele>
        <time>2013-05-26T15:07:43Z</time>
      </trkpt>
      <trkpt lat="45.852180132642388" lon="9.34375966899097">
        <ele>524.05999999999995</ele>
        <time>2013-05-26T15:07:57Z</time>
      </trkpt>
      <trkpt lat="45.852172588929534" lon="9.343953207135201">
        <ele>521.16999999999996</ele>
        <time>2013-05-26T15:08:10Z</time>
      </trkpt>
      <trkpt lat="45.85216311737895" lon="9.344102656468749">
        <ele>518.28999999999996</ele>
        <time>2013-05-26T15:08:21Z</time>
      </trkpt>
      <trkpt lat="45.852148868143559" lon="9.344244729727507">
        <ele>515.39999999999998</ele>
        <time>2013-05-26T15:08:32Z</time>
      </trkpt>
      <trkpt lat="45.852145263925195" lon="9.344428209587932">
        <ele>512.51999999999998</ele>
        <time>2013-05-26T15:08:45Z</time>
      </trkpt>
      <trkpt lat="45.852146353572607" lon="9.34446525759995">
        <ele>511.56</ele>
        <time>2013-05-26T15:08:48Z</time>
      </trkpt>
      <trkpt lat="45.852151047438383" lon="9.344655862078071">
        <ele>508.19</ele>
        <time>2013-05-26T15:09:01Z</time>
      </trkpt>
      <trkpt lat="45.852151550352573" lon="9.344718558713794">
        <ele>507.23000000000002</ele>
        <time>2013-05-26T15:09:06Z</time>
      </trkpt>
      <trkpt lat="45.852190610021353" lon="9.344898601993918">
        <ele>504.35000000000002</ele>
        <time>2013-05-26T15:09:21Z</time>
      </trkpt>
      <trkpt lat="45.852245092391968" lon="9.344985522329807">
        <ele>502.91000000000003</ele>
        <time>2013-05-26T15:09:30Z</time>
      </trkpt>
      <trkpt lat="45.852336287498474" lon="9.345105886459351">
        <ele>500.5</ele>
        <time>2013-05-26T15:09:48Z</time>
      </trkpt>
      <trkpt lat="45.852401163429022" lon="9.345232956111431">
        <ele>498.57999999999998</ele>
        <time>2013-05-26T15:10:02Z</time>
      </trkpt>
      <trkpt lat="45.85242354311049" lon="9.345292635262013">
        <ele>497.13999999999999</ele>
        <time>2013-05-26T15:10:06Z</time>
      </trkpt>
      <trkpt lat="45.852515995502472" lon="9.345449544489384">
        <ele>494.74000000000001</ele>
        <time>2013-05-26T15:10:23Z</time>
      </trkpt>
      <trkpt lat="45.852610040456057" lon="9.345611482858658">
        <ele>492.81</ele>
        <time>2013-05-26T15:10:40Z</time>
      </trkpt>
      <trkpt lat="45.852632587775588" lon="9.345708042383194">
        <ele>490.88999999999999</ele>
        <time>2013-05-26T15:10:49Z</time>
      </trkpt>
      <trkpt lat="45.852651195600629" lon="9.345895377919078">
        <ele>488.97000000000003</ele>
        <time>2013-05-26T15:11:04Z</time>
      </trkpt>
      <trkpt lat="45.852652871981263" lon="9.34594483114779">
        <ele>488.00999999999999</ele>
        <time>2013-05-26T15:11:08Z</time>
      </trkpt>
      <trkpt lat="45.85265320725739" lon="9.346044324338436">
        <ele>487.05000000000001</ele>
        <time>2013-05-26T15:11:14Z</time>
      </trkpt>
      <trkpt lat="45.852675503119826" lon="9.346272563561797">
        <ele>484.16000000000003</ele>
        <time>2013-05-26T15:11:31Z</time>
      </trkpt>
      <trkpt lat="45.852705091238022" lon="9.346484206616879">
        <ele>481.75999999999999</ele>
        <time>2013-05-26T15:11:47Z</time>
      </trkpt>
      <trkpt lat="45.852714395150542" lon="9.346657544374466">
        <ele>478.38999999999999</ele>
        <time>2013-05-26T15:12:02Z</time>
      </trkpt>
      <trkpt lat="45.852627642452717" lon="9.346757037565112">
        <ele>475.50999999999999</ele>
        <time>2013-05-26T15:12:16Z</time>
      </trkpt>
      <trkpt lat="45.852559916675091" lon="9.346824763342738">
        <ele>474.06999999999999</ele>
        <time>2013-05-26T15:12:30Z</time>
      </trkpt>
      <trkpt lat="45.852494118735194" lon="9.346907073631883">
        <ele>470.69999999999999</ele>
        <time>2013-05-26T15:12:45Z</time>
      </trkpt>
      <trkpt lat="45.852381130680442" lon="9.347005393356085">
        <ele>467.81999999999999</ele>
        <time>2013-05-26T15:13:02Z</time>
      </trkpt>
      <trkpt lat="45.852291444316506" lon="9.347107736393809">
        <ele>464.44999999999999</ele>
        <time>2013-05-26T15:13:16Z</time>
      </trkpt>
      <trkpt lat="45.852181306108832" lon="9.347101030871272">
        <ele>461.56999999999999</ele>
        <time>2013-05-26T15:13:30Z</time>
      </trkpt>
      <trkpt lat="45.852058846503496" lon="9.347072951495647">
        <ele>460.13</ele>
        <time>2013-05-26T15:13:43Z</time>
      </trkpt>
      <trkpt lat="45.851996736600995" lon="9.347061133012176">
        <ele>458.69</ele>
        <time>2013-05-26T15:13:50Z</time>
      </trkpt>
      <trkpt lat="45.851861536502838" lon="9.347078651189804">
        <ele>456.75999999999999</ele>
        <time>2013-05-26T15:14:05Z</time>
      </trkpt>
      <trkpt lat="45.851696580648422" lon="9.347069682553411">
        <ele>454.36000000000001</ele>
        <time>2013-05-26T15:14:21Z</time>
      </trkpt>
      <trkpt lat="45.851607313379645" lon="9.347012937068939">
        <ele>452.92000000000002</ele>
        <time>2013-05-26T15:14:30Z</time>
      </trkpt>
      <trkpt lat="45.851565320044756" lon="9.34680724516511">
        <ele>451</ele>
        <time>2013-05-26T15:14:44Z</time>
      </trkpt>
      <trkpt lat="45.851565739139915" lon="9.346707835793495">
        <ele>450.51999999999998</ele>
        <time>2013-05-26T15:14:50Z</time>
      </trkpt>
      <trkpt lat="45.851563476026058" lon="9.346488732844591">
        <ele>449.06999999999999</ele>
        <time>2013-05-26T15:15:05Z</time>
      </trkpt>
      <trkpt lat="45.851546041667461" lon="9.346344899386168">
        <ele>447.63</ele>
        <time>2013-05-26T15:15:15Z</time>
      </trkpt>
      <trkpt lat="45.851474460214376" lon="9.346156725659967">
        <ele>445.23000000000002</ele>
        <time>2013-05-26T15:15:31Z</time>
      </trkpt>
      <trkpt lat="45.851429868489504" lon="9.346257308498025">
        <ele>442.81999999999999</ele>
        <time>2013-05-26T15:15:43Z</time>
      </trkpt>
      <trkpt lat="45.851405393332243" lon="9.346363423392177">
        <ele>441.38</ele>
        <time>2013-05-26T15:15:51Z</time>
      </trkpt>
      <trkpt lat="45.851350659504533" lon="9.346532318741083">
        <ele>439.45999999999998</ele>
        <time>2013-05-26T15:16:05Z</time>
      </trkpt>
      <trkpt lat="45.851277317851782" lon="9.346679840236902">
        <ele>437.54000000000002</ele>
        <time>2013-05-26T15:16:19Z</time>
      </trkpt>
      <trkpt lat="45.851238258183002" lon="9.346757205203176">
        <ele>436.57999999999998</ele>
        <time>2013-05-26T15:16:26Z</time>
      </trkpt>
      <trkpt lat="45.851185536012053" lon="9.346929620951414">
        <ele>434.64999999999998</ele>
        <time>2013-05-26T15:16:40Z</time>
      </trkpt>
      <trkpt lat="45.851187715306878" lon="9.346991311758757">
        <ele>434.17000000000002</ele>
        <time>2013-05-26T15:16:44Z</time>
      </trkpt>
      <trkpt lat="45.851166173815727" lon="9.347257018089294">
        <ele>432.25</ele>
        <time>2013-05-26T15:17:01Z</time>
      </trkpt>
      <trkpt lat="45.851190984249115" lon="9.347437229007483">
        <ele>431.76999999999998</ele>
        <time>2013-05-26T15:17:15Z</time>
      </trkpt>
      <trkpt lat="45.851198192685843" lon="9.347499087452889">
        <ele>431.29000000000002</ele>
        <time>2013-05-26T15:17:19Z</time>
      </trkpt>
      <trkpt lat="45.851299865171313" lon="9.347653398290277">
        <ele>429.37</ele>
        <time>2013-05-26T15:17:35Z</time>
      </trkpt>
      <trkpt lat="45.851410254836082" lon="9.347794465720654">
        <ele>427.44</ele>
        <time>2013-05-26T15:17:50Z</time>
      </trkpt>
      <trkpt lat="45.851539839059114" lon="9.347991608083248">
        <ele>425.04000000000002</ele>
        <time>2013-05-26T15:18:06Z</time>
      </trkpt>
      <trkpt lat="45.851599350571632" lon="9.348169723525643">
        <ele>422.16000000000003</ele>
        <time>2013-05-26T15:18:22Z</time>
      </trkpt>
      <trkpt lat="45.85160706192255" lon="9.348223451524973">
        <ele>421.68000000000001</ele>
        <time>2013-05-26T15:18:26Z</time>
      </trkpt>
      <trkpt lat="45.851630950346589" lon="9.348444817587733">
        <ele>418.79000000000002</ele>
        <time>2013-05-26T15:18:41Z</time>
      </trkpt>
      <trkpt lat="45.851651402190328" lon="9.348653443157673">
        <ele>415.91000000000003</ele>
        <time>2013-05-26T15:18:55Z</time>
      </trkpt>
      <trkpt lat="45.851657353341579" lon="9.348694682121277">
        <ele>415.91000000000003</ele>
        <time>2013-05-26T15:18:58Z</time>
      </trkpt>
      <trkpt lat="45.851666405797005" lon="9.348905151709914">
        <ele>413.01999999999998</ele>
        <time>2013-05-26T15:19:13Z</time>
      </trkpt>
      <trkpt lat="45.851743519306183" lon="9.34903247281909">
        <ele>410.13999999999999</ele>
        <time>2013-05-26T15:19:26Z</time>
      </trkpt>
      <trkpt lat="45.851813340559602" lon="9.349081087857485">
        <ele>409.66000000000003</ele>
        <time>2013-05-26T15:19:34Z</time>
      </trkpt>
      <trkpt lat="45.851967819035053" lon="9.349137414246798">
        <ele>408.22000000000003</ele>
        <time>2013-05-26T15:19:50Z</time>
      </trkpt>
      <trkpt lat="45.852177115157247" lon="9.349138755351305">
        <ele>406.29000000000002</ele>
        <time>2013-05-26T15:20:09Z</time>
      </trkpt>
      <trkpt lat="45.852281721308827" lon="9.349178150296211">
        <ele>405.81</ele>
        <time>2013-05-26T15:20:20Z</time>
      </trkpt>
      <trkpt lat="45.852357409894466" lon="9.34939063154161">
        <ele>404.85000000000002</ele>
        <time>2013-05-26T15:20:35Z</time>
      </trkpt>
      <trkpt lat="45.85237174294889" lon="9.349622977897525">
        <ele>403.88999999999999</ele>
        <time>2013-05-26T15:20:50Z</time>
      </trkpt>
      <trkpt lat="45.852343579754233" lon="9.349820371717215">
        <ele>401.97000000000003</ele>
        <time>2013-05-26T15:21:05Z</time>
      </trkpt>
      <trkpt lat="45.852294964715838" lon="9.350060010328889">
        <ele>399.07999999999998</ele>
        <time>2013-05-26T15:21:23Z</time>
      </trkpt>
      <trkpt lat="45.852284487336874" lon="9.350247262045741">
        <ele>397.16000000000003</ele>
        <time>2013-05-26T15:21:37Z</time>
      </trkpt>
      <trkpt lat="45.852289013564587" lon="9.350416408851743">
        <ele>396.19999999999999</ele>
        <time>2013-05-26T15:21:51Z</time>
      </trkpt>
      <trkpt lat="45.852298149839044" lon="9.350479021668434">
        <ele>394.75999999999999</ele>
        <time>2013-05-26T15:21:56Z</time>
      </trkpt>
      <trkpt lat="45.852293958887458" lon="9.350517662242055">
        <ele>394.27999999999997</ele>
        <time>2013-05-26T15:21:59Z</time>
      </trkpt>
      <trkpt lat="45.852291360497475" lon="9.3506034091115">
        <ele>393.31999999999999</ele>
        <time>2013-05-26T15:22:09Z</time>
      </trkpt>
      <trkpt lat="45.852295132353902" lon="9.350599804893136">
        <ele>393.31999999999999</ele>
        <time>2013-05-26T15:22:48Z</time>
      </trkpt>
      <trkpt lat="45.852299071848392" lon="9.350592931732535">
        <ele>393.31999999999999</ele>
        <time>2013-05-26T15:22:55Z</time>
      </trkpt>
      <trkpt lat="45.852301670238376" lon="9.350592847913504">
        <ele>392.83999999999997</ele>
        <time>2013-05-26T15:23:17Z</time>
      </trkpt>
      <trkpt lat="45.852246936410666" lon="9.350607935339212">
        <ele>393.31999999999999</ele>
        <time>2013-05-26T15:23:28Z</time>
      </trkpt>
      <trkpt lat="45.852172002196312" lon="9.350644228979945">
        <ele>393.31999999999999</ele>
        <time>2013-05-26T15:23:37Z</time>
      </trkpt>
      <trkpt lat="45.85209371522069" lon="9.350670296698809">
        <ele>389.47000000000003</ele>
        <time>2013-05-26T15:23:45Z</time>
      </trkpt>
      <trkpt lat="45.851941918954253" lon="9.350725281983614">
        <ele>386.11000000000001</ele>
        <time>2013-05-26T15:23:57Z</time>
      </trkpt>
      <trkpt lat="45.851798839867115" lon="9.350739195942879">
        <ele>382.74000000000001</ele>
        <time>2013-05-26T15:24:11Z</time>
      </trkpt>
      <trkpt lat="45.851656934246421" lon="9.350819829851389">
        <ele>379.86000000000001</ele>
        <time>2013-05-26T15:24:27Z</time>
      </trkpt>
      <trkpt lat="45.851679649204016" lon="9.35103440657258">
        <ele>376.97000000000003</ele>
        <time>2013-05-26T15:24:42Z</time>
      </trkpt>
      <trkpt lat="45.851671015843749" lon="9.351241355761886">
        <ele>373.61000000000001</ele>
        <time>2013-05-26T15:24:57Z</time>
      </trkpt>
      <trkpt lat="45.85159775801003" lon="9.351258957758546">
        <ele>372.64999999999998</ele>
        <time>2013-05-26T15:25:04Z</time>
      </trkpt>
      <trkpt lat="45.851518297567964" lon="9.351146556437016">
        <ele>369.27999999999997</ele>
        <time>2013-05-26T15:25:14Z</time>
      </trkpt>
      <trkpt lat="45.851393491029739" lon="9.350961400195956">
        <ele>367.36000000000001</ele>
        <time>2013-05-26T15:25:33Z</time>
      </trkpt>
      <trkpt lat="45.851357113569975" lon="9.350913539528847">
        <ele>365.92000000000002</ele>
        <time>2013-05-26T15:25:38Z</time>
      </trkpt>
      <trkpt lat="45.851262649521232" lon="9.350801641121507">
        <ele>363.04000000000002</ele>
        <time>2013-05-26T15:25:53Z</time>
      </trkpt>
      <trkpt lat="45.851226188242435" lon="9.350743889808655">
        <ele>361.11000000000001</ele>
        <time>2013-05-26T15:26:02Z</time>
      </trkpt>
      <trkpt lat="45.851153517141938" lon="9.350672056898475">
        <ele>359.19</ele>
        <time>2013-05-26T15:26:10Z</time>
      </trkpt>
      <trkpt lat="45.85111990571022" lon="9.350634254515171">
        <ele>358.23000000000002</ele>
        <time>2013-05-26T15:26:14Z</time>
      </trkpt>
      <trkpt lat="45.85096400231123" lon="9.350474998354912">
        <ele>354.86000000000001</ele>
        <time>2013-05-26T15:26:32Z</time>
      </trkpt>
      <trkpt lat="45.850818995386362" lon="9.350323705002666">
        <ele>351.5</ele>
        <time>2013-05-26T15:26:49Z</time>
      </trkpt>
      <trkpt lat="45.850726878270507" lon="9.350242568179965">
        <ele>349.10000000000002</ele>
        <time>2013-05-26T15:27:03Z</time>
      </trkpt>
      <trkpt lat="45.850711958482862" lon="9.350268132984638">
        <ele>348.62</ele>
        <time>2013-05-26T15:27:06Z</time>
      </trkpt>
      <trkpt lat="45.850706594064832" lon="9.350318675860763">
        <ele>347.17000000000002</ele>
        <time>2013-05-26T15:27:10Z</time>
      </trkpt>
      <trkpt lat="45.850703157484531" lon="9.350418085232377">
        <ele>346.20999999999998</ele>
        <time>2013-05-26T15:27:16Z</time>
      </trkpt>
      <trkpt lat="45.850674072280526" lon="9.350632410496473">
        <ele>342.85000000000002</ele>
        <time>2013-05-26T15:27:32Z</time>
      </trkpt>
      <trkpt lat="45.850661750882864" lon="9.350822679698467">
        <ele>339.95999999999998</ele>
        <time>2013-05-26T15:27:47Z</time>
      </trkpt>
      <trkpt lat="45.850655464455485" lon="9.350880095735192">
        <ele>338.51999999999998</ele>
        <time>2013-05-26T15:27:51Z</time>
      </trkpt>
      <trkpt lat="45.850643729791045" lon="9.350925944745541">
        <ele>338.04000000000002</ele>
        <time>2013-05-26T15:27:54Z</time>
      </trkpt>
      <trkpt lat="45.850497297942638" lon="9.350996939465404">
        <ele>334.68000000000001</ele>
        <time>2013-05-26T15:28:07Z</time>
      </trkpt>
      <trkpt lat="45.850466871634126" lon="9.351015212014318">
        <ele>334.19999999999999</ele>
        <time>2013-05-26T15:28:10Z</time>
      </trkpt>
      <trkpt lat="45.850451113656163" lon="9.351054690778256">
        <ele>333.23000000000002</ele>
        <time>2013-05-26T15:28:15Z</time>
      </trkpt>
      <trkpt lat="45.850400906056166" lon="9.351159716024995">
        <ele>331.79000000000002</ele>
        <time>2013-05-26T15:28:23Z</time>
      </trkpt>
      <trkpt lat="45.850357487797737" lon="9.351367335766554">
        <ele>328.43000000000001</ele>
        <time>2013-05-26T15:28:38Z</time>
      </trkpt>
      <trkpt lat="45.850312057882547" lon="9.351463476195931">
        <ele>326.99000000000001</ele>
        <time>2013-05-26T15:28:51Z</time>
      </trkpt>
      <trkpt lat="45.850299652665854" lon="9.351536817848682">
        <ele>326.5</ele>
        <time>2013-05-26T15:29:07Z</time>
      </trkpt>
      <trkpt lat="45.850298395380378" lon="9.35154695995152">
        <ele>326.5</ele>
        <time>2013-05-26T15:29:21Z</time>
      </trkpt>
      <trkpt lat="45.850288001820445" lon="9.35154695995152">
        <ele>326.01999999999998</ele>
        <time>2013-05-26T15:29:42Z</time>
      </trkpt>
      <trkpt lat="45.850286241620779" lon="9.351585768163204">
        <ele>325.54000000000002</ele>
        <time>2013-05-26T15:30:03Z</time>
      </trkpt>
      <trkpt lat="45.850286241620779" lon="9.351600185036659">
        <ele>325.54000000000002</ele>
        <time>2013-05-26T15:30:04Z</time>
      </trkpt>
      <trkpt lat="45.850313063710928" lon="9.351739827543497">
        <ele>324.57999999999998</ele>
        <time>2013-05-26T15:30:13Z</time>
      </trkpt>
      <trkpt lat="45.850335611030459" lon="9.351936131715775">
        <ele>322.18000000000001</ele>
        <time>2013-05-26T15:30:26Z</time>
      </trkpt>
      <trkpt lat="45.850348183885217" lon="9.352011401206255">
        <ele>321.22000000000003</ele>
        <time>2013-05-26T15:30:31Z</time>
      </trkpt>
      <trkpt lat="45.850355476140976" lon="9.352142997086048">
        <ele>319.77999999999997</ele>
        <time>2013-05-26T15:30:40Z</time>
      </trkpt>
      <trkpt lat="45.85036251693964" lon="9.352205526083708">
        <ele>319.30000000000001</ele>
        <time>2013-05-26T15:30:44Z</time>
      </trkpt>
      <trkpt lat="45.850368551909924" lon="9.352326979860663">
        <ele>316.88999999999999</ele>
        <time>2013-05-26T15:30:56Z</time>
      </trkpt>
      <trkpt lat="45.85034784860909" lon="9.3523820489645">
        <ele>316.41000000000003</ele>
        <time>2013-05-26T15:31:02Z</time>
      </trkpt>
      <trkpt lat="45.850374670699239" lon="9.352666866034269">
        <ele>314.00999999999999</ele>
        <time>2013-05-26T15:31:18Z</time>
      </trkpt>
      <trkpt lat="45.85043485276401" lon="9.35284866951406">
        <ele>311.60000000000002</ele>
        <time>2013-05-26T15:31:30Z</time>
      </trkpt>
      <trkpt lat="45.850428817793727" lon="9.352917904034257">
        <ele>311.60000000000002</ele>
        <time>2013-05-26T15:31:35Z</time>
      </trkpt>
      <trkpt lat="45.850413395091891" lon="9.35311890207231">
        <ele>309.19999999999999</ele>
        <time>2013-05-26T15:31:49Z</time>
      </trkpt>
      <trkpt lat="45.850388668477535" lon="9.353132732212544">
        <ele>309.19999999999999</ele>
        <time>2013-05-26T15:32:02Z</time>
      </trkpt>
      <trkpt lat="45.850380538031459" lon="9.353136671707034">
        <ele>309.19999999999999</ele>
        <time>2013-05-26T15:32:23Z</time>
      </trkpt>
      <trkpt lat="45.850403923541307" lon="9.353161733597517">
        <ele>308.72000000000003</ele>
        <time>2013-05-26T15:32:29Z</time>
      </trkpt>
      <trkpt lat="45.850499393418431" lon="9.353349572047591">
        <ele>307.75999999999999</ele>
        <time>2013-05-26T15:32:42Z</time>
      </trkpt>
      <trkpt lat="45.850565023720264" lon="9.353503296151757">
        <ele>305.83999999999997</ele>
        <time>2013-05-26T15:32:54Z</time>
      </trkpt>
      <trkpt lat="45.850585643202066" lon="9.353602956980467">
        <ele>304.38999999999999</ele>
        <time>2013-05-26T15:33:08Z</time>
      </trkpt>
      <trkpt lat="45.850603831931949" lon="9.353551827371121">
        <ele>304.38999999999999</ele>
        <time>2013-05-26T15:33:20Z</time>
      </trkpt>
      <trkpt lat="45.850633000954986" lon="9.353483263403177">
        <ele>303.91000000000003</ele>
        <time>2013-05-26T15:33:27Z</time>
      </trkpt>
      <trkpt lat="45.850654374808073" lon="9.353445712476969">
        <ele>302.47000000000003</ele>
        <time>2013-05-26T15:33:32Z</time>
      </trkpt>
      <trkpt lat="45.85074171423912" lon="9.353329287841916">
        <ele>300.55000000000001</ele>
        <time>2013-05-26T15:33:45Z</time>
      </trkpt>
      <trkpt lat="45.850778510794044" lon="9.353362563997507">
        <ele>300.06999999999999</ele>
        <time>2013-05-26T15:33:48Z</time>
      </trkpt>
      <trkpt lat="45.850899964570999" lon="9.353551827371121">
        <ele>299.58999999999997</ele>
        <time>2013-05-26T15:34:05Z</time>
      </trkpt>
      <trkpt lat="45.850994428619742" lon="9.353637490421534">
        <ele>299.58999999999997</ele>
        <time>2013-05-26T15:34:16Z</time>
      </trkpt>
      <trkpt lat="45.851031728088856" lon="9.353590803220868">
        <ele>299.58999999999997</ele>
        <time>2013-05-26T15:34:29Z</time>
      </trkpt>
      <trkpt lat="45.85105586796999" lon="9.353579236194491">
        <ele>299.58999999999997</ele>
        <time>2013-05-26T15:34:46Z</time>
      </trkpt>
      <trkpt lat="45.85104756988585" lon="9.3535649869591">
        <ele>299.58999999999997</ele>
        <time>2013-05-26T15:35:00Z</time>
      </trkpt>
      <trkpt lat="45.851037763059139" lon="9.353567250072956">
        <ele>300.06999999999999</ele>
        <time>2013-05-26T15:35:18Z</time>
      </trkpt>
    </trkseg>
  </trk>

</gpx>